<?xml version="1.0" encoding="UTF-8" standalone="no" ?>
<gpx xmlns="http://www.topografix.com/GPX/1/1" xmlns:xsi="http://www.w3.org/2001/XMLSchema-instance" xsi:schemaLocation="http://www.topografix.com/GPX/1/1 http://www.topografix.com/GPX/1/1/gpx.xsd" version="1.1" creator="VisuGPX - https://www.visugpx.com">
  <metadata>
    <name>Le plein d\'air de nuit</name>
    <desc><![CDATA[Nocturne]]></desc>
  </metadata>
  <trk>
    <name><![CDATA[18/10/2014 19:01 Nocturne]]></name>
    <desc><![CDATA[Nocturne]]></desc>
    <trkseg>
      <trkpt lat="45.69778" lon="4.67567">
        <ele>357</ele>
        <time>2014-10-18T17:01:26.749Z</time>
      </trkpt>
      <trkpt lat="45.69778" lon="4.67578">
        <ele>357</ele>
        <time>2014-10-18T17:03:59.912Z</time>
      </trkpt>
      <trkpt lat="45.69778" lon="4.6758">
        <ele>357</ele>
        <time>2014-10-18T17:04:00.906Z</time>
      </trkpt>
      <trkpt lat="45.69775" lon="4.67591">
        <ele>354</ele>
        <time>2014-10-18T17:04:05.905Z</time>
      </trkpt>
      <trkpt lat="45.69775" lon="4.67593">
        <ele>354</ele>
        <time>2014-10-18T17:04:06.905Z</time>
      </trkpt>
      <trkpt lat="45.69774" lon="4.67603">
        <ele>354</ele>
        <time>2014-10-18T17:04:12.911Z</time>
      </trkpt>
      <trkpt lat="45.69774" lon="4.67606">
        <ele>354</ele>
        <time>2014-10-18T17:04:13.920Z</time>
      </trkpt>
      <trkpt lat="45.69774" lon="4.67616">
        <ele>353</ele>
        <time>2014-10-18T17:11:55.892Z</time>
      </trkpt>
      <trkpt lat="45.69773" lon="4.67618">
        <ele>353</ele>
        <time>2014-10-18T17:11:56.914Z</time>
      </trkpt>
      <trkpt lat="45.69772" lon="4.67608">
        <ele>354</ele>
        <time>2014-10-18T17:13:24.889Z</time>
      </trkpt>
      <trkpt lat="45.69772" lon="4.67606">
        <ele>354</ele>
        <time>2014-10-18T17:13:25.889Z</time>
      </trkpt>
      <trkpt lat="45.69773" lon="4.67597">
        <ele>354</ele>
        <time>2014-10-18T17:13:27.893Z</time>
      </trkpt>
      <trkpt lat="45.69773" lon="4.67593">
        <ele>354</ele>
        <time>2014-10-18T17:13:28.889Z</time>
      </trkpt>
      <trkpt lat="45.69774" lon="4.67584">
        <ele>354</ele>
        <time>2014-10-18T17:13:30.896Z</time>
      </trkpt>
      <trkpt lat="45.69774" lon="4.6758">
        <ele>357</ele>
        <time>2014-10-18T17:13:31.899Z</time>
      </trkpt>
      <trkpt lat="45.69774" lon="4.67569">
        <ele>357</ele>
        <time>2014-10-18T17:28:56.872Z</time>
      </trkpt>
      <trkpt lat="45.69774" lon="4.67567">
        <ele>357</ele>
        <time>2014-10-18T17:28:57.859Z</time>
      </trkpt>
      <trkpt lat="45.69774" lon="4.67554">
        <ele>358</ele>
        <time>2014-10-18T17:29:06.870Z</time>
      </trkpt>
      <trkpt lat="45.69775" lon="4.67552">
        <ele>358</ele>
        <time>2014-10-18T17:29:07.873Z</time>
      </trkpt>
      <trkpt lat="45.6978" lon="4.67548">
        <ele>358</ele>
        <time>2014-10-18T17:35:20.881Z</time>
      </trkpt>
      <trkpt lat="45.69784" lon="4.67546">
        <ele>358</ele>
        <time>2014-10-18T17:35:21.867Z</time>
      </trkpt>
      <trkpt lat="45.6979" lon="4.67541">
        <ele>358</ele>
        <time>2014-10-18T17:35:23.878Z</time>
      </trkpt>
      <trkpt lat="45.69793" lon="4.67541">
        <ele>358</ele>
        <time>2014-10-18T17:35:24.888Z</time>
      </trkpt>
      <trkpt lat="45.69802" lon="4.67541">
        <ele>358</ele>
        <time>2014-10-18T17:35:26.862Z</time>
      </trkpt>
      <trkpt lat="45.69807" lon="4.67546">
        <ele>358</ele>
        <time>2014-10-18T17:35:27.849Z</time>
      </trkpt>
      <trkpt lat="45.69815" lon="4.6755">
        <ele>357</ele>
        <time>2014-10-18T17:35:29.881Z</time>
      </trkpt>
      <trkpt lat="45.69818" lon="4.6755">
        <ele>357</ele>
        <time>2014-10-18T17:35:30.853Z</time>
      </trkpt>
      <trkpt lat="45.69821" lon="4.67543">
        <ele>357</ele>
        <time>2014-10-18T17:35:32.843Z</time>
      </trkpt>
      <trkpt lat="45.69821" lon="4.67533">
        <ele>358</ele>
        <time>2014-10-18T17:35:33.880Z</time>
      </trkpt>
      <trkpt lat="45.6982" lon="4.67524">
        <ele>358</ele>
        <time>2014-10-18T17:35:35.867Z</time>
      </trkpt>
      <trkpt lat="45.6982" lon="4.67518">
        <ele>358</ele>
        <time>2014-10-18T17:35:36.876Z</time>
      </trkpt>
      <trkpt lat="45.69817" lon="4.67507">
        <ele>358</ele>
        <time>2014-10-18T17:35:38.871Z</time>
      </trkpt>
      <trkpt lat="45.69816" lon="4.67503">
        <ele>358</ele>
        <time>2014-10-18T17:35:39.883Z</time>
      </trkpt>
      <trkpt lat="45.69817" lon="4.67492">
        <ele>360</ele>
        <time>2014-10-18T17:35:42.849Z</time>
      </trkpt>
      <trkpt lat="45.69817" lon="4.67488">
        <ele>361</ele>
        <time>2014-10-18T17:35:43.842Z</time>
      </trkpt>
      <trkpt lat="45.69817" lon="4.67475">
        <ele>361</ele>
        <time>2014-10-18T17:35:46.878Z</time>
      </trkpt>
      <trkpt lat="45.69817" lon="4.67473">
        <ele>361</ele>
        <time>2014-10-18T17:35:47.873Z</time>
      </trkpt>
      <trkpt lat="45.69817" lon="4.67462">
        <ele>361</ele>
        <time>2014-10-18T17:35:50.854Z</time>
      </trkpt>
      <trkpt lat="45.69817" lon="4.67458">
        <ele>362</ele>
        <time>2014-10-18T17:35:51.857Z</time>
      </trkpt>
      <trkpt lat="45.69813" lon="4.67447">
        <ele>362</ele>
        <time>2014-10-18T17:35:59.866Z</time>
      </trkpt>
      <trkpt lat="45.69811" lon="4.67447">
        <ele>362</ele>
        <time>2014-10-18T17:36:00.863Z</time>
      </trkpt>
      <trkpt lat="45.69806" lon="4.67449">
        <ele>362</ele>
        <time>2014-10-18T17:36:02.859Z</time>
      </trkpt>
      <trkpt lat="45.69803" lon="4.67451">
        <ele>362</ele>
        <time>2014-10-18T17:36:03.863Z</time>
      </trkpt>
      <trkpt lat="45.69799" lon="4.67451">
        <ele>362</ele>
        <time>2014-10-18T17:36:04.864Z</time>
      </trkpt>
      <trkpt lat="45.69793" lon="4.67451">
        <ele>362</ele>
        <time>2014-10-18T17:36:05.852Z</time>
      </trkpt>
      <trkpt lat="45.69787" lon="4.67453">
        <ele>362</ele>
        <time>2014-10-18T17:36:07.825Z</time>
      </trkpt>
      <trkpt lat="45.69784" lon="4.67455">
        <ele>362</ele>
        <time>2014-10-18T17:36:08.843Z</time>
      </trkpt>
      <trkpt lat="45.69776" lon="4.67455">
        <ele>362</ele>
        <time>2014-10-18T17:36:10.831Z</time>
      </trkpt>
      <trkpt lat="45.69771" lon="4.67455">
        <ele>362</ele>
        <time>2014-10-18T17:36:11.857Z</time>
      </trkpt>
      <trkpt lat="45.69763" lon="4.67451">
        <ele>362</ele>
        <time>2014-10-18T17:36:14.837Z</time>
      </trkpt>
      <trkpt lat="45.69761" lon="4.67449">
        <ele>362</ele>
        <time>2014-10-18T17:36:15.823Z</time>
      </trkpt>
      <trkpt lat="45.69769" lon="4.67438">
        <ele>362</ele>
        <time>2014-10-18T17:36:16.868Z</time>
      </trkpt>
      <trkpt lat="45.69771" lon="4.67427">
        <ele>363</ele>
        <time>2014-10-18T17:36:18.862Z</time>
      </trkpt>
      <trkpt lat="45.69771" lon="4.67419">
        <ele>363</ele>
        <time>2014-10-18T17:36:19.847Z</time>
      </trkpt>
      <trkpt lat="45.69765" lon="4.67412">
        <ele>364</ele>
        <time>2014-10-18T17:36:21.856Z</time>
      </trkpt>
      <trkpt lat="45.69763" lon="4.6741">
        <ele>364</ele>
        <time>2014-10-18T17:36:22.856Z</time>
      </trkpt>
      <trkpt lat="45.69762" lon="4.67402">
        <ele>365</ele>
        <time>2014-10-18T17:36:26.862Z</time>
      </trkpt>
      <trkpt lat="45.69761" lon="4.67397">
        <ele>365</ele>
        <time>2014-10-18T17:36:27.871Z</time>
      </trkpt>
      <trkpt lat="45.69755" lon="4.67389">
        <ele>365</ele>
        <time>2014-10-18T17:36:32.853Z</time>
      </trkpt>
      <trkpt lat="45.69752" lon="4.67387">
        <ele>365</ele>
        <time>2014-10-18T17:36:33.841Z</time>
      </trkpt>
      <trkpt lat="45.69749" lon="4.67376">
        <ele>365</ele>
        <time>2014-10-18T17:36:36.863Z</time>
      </trkpt>
      <trkpt lat="45.6975" lon="4.67372">
        <ele>365</ele>
        <time>2014-10-18T17:36:37.863Z</time>
      </trkpt>
      <trkpt lat="45.69746" lon="4.67361">
        <ele>365</ele>
        <time>2014-10-18T17:36:42.865Z</time>
      </trkpt>
      <trkpt lat="45.69744" lon="4.67361">
        <ele>365</ele>
        <time>2014-10-18T17:36:43.864Z</time>
      </trkpt>
      <trkpt lat="45.69735" lon="4.67361">
        <ele>365</ele>
        <time>2014-10-18T17:36:46.854Z</time>
      </trkpt>
      <trkpt lat="45.69733" lon="4.67361">
        <ele>365</ele>
        <time>2014-10-18T17:36:47.866Z</time>
      </trkpt>
      <trkpt lat="45.69727" lon="4.67363">
        <ele>365</ele>
        <time>2014-10-18T17:36:51.860Z</time>
      </trkpt>
      <trkpt lat="45.69725" lon="4.67365">
        <ele>365</ele>
        <time>2014-10-18T17:36:52.856Z</time>
      </trkpt>
      <trkpt lat="45.69718" lon="4.67367">
        <ele>365</ele>
        <time>2014-10-18T17:36:54.840Z</time>
      </trkpt>
      <trkpt lat="45.69715" lon="4.67365">
        <ele>365</ele>
        <time>2014-10-18T17:36:55.856Z</time>
      </trkpt>
      <trkpt lat="45.69711" lon="4.67357">
        <ele>365</ele>
        <time>2014-10-18T17:36:58.854Z</time>
      </trkpt>
      <trkpt lat="45.6971" lon="4.67352">
        <ele>365</ele>
        <time>2014-10-18T17:36:59.866Z</time>
      </trkpt>
      <trkpt lat="45.69704" lon="4.67344">
        <ele>365</ele>
        <time>2014-10-18T17:37:02.856Z</time>
      </trkpt>
      <trkpt lat="45.69703" lon="4.67342">
        <ele>365</ele>
        <time>2014-10-18T17:37:03.854Z</time>
      </trkpt>
      <trkpt lat="45.69702" lon="4.67333">
        <ele>366</ele>
        <time>2014-10-18T17:37:05.898Z</time>
      </trkpt>
      <trkpt lat="45.69702" lon="4.67327">
        <ele>366</ele>
        <time>2014-10-18T17:37:06.904Z</time>
      </trkpt>
      <trkpt lat="45.697" lon="4.67318">
        <ele>366</ele>
        <time>2014-10-18T17:37:08.858Z</time>
      </trkpt>
      <trkpt lat="45.697" lon="4.67314">
        <ele>366</ele>
        <time>2014-10-18T17:37:09.877Z</time>
      </trkpt>
      <trkpt lat="45.69697" lon="4.67307">
        <ele>366</ele>
        <time>2014-10-18T17:37:11.881Z</time>
      </trkpt>
      <trkpt lat="45.69692" lon="4.67301">
        <ele>366</ele>
        <time>2014-10-18T17:37:12.863Z</time>
      </trkpt>
      <trkpt lat="45.69689" lon="4.67292">
        <ele>367</ele>
        <time>2014-10-18T17:37:14.873Z</time>
      </trkpt>
      <trkpt lat="45.69688" lon="4.67288">
        <ele>367</ele>
        <time>2014-10-18T17:37:15.899Z</time>
      </trkpt>
      <trkpt lat="45.69685" lon="4.67277">
        <ele>367</ele>
        <time>2014-10-18T17:37:18.874Z</time>
      </trkpt>
      <trkpt lat="45.69684" lon="4.67273">
        <ele>367</ele>
        <time>2014-10-18T17:37:19.873Z</time>
      </trkpt>
      <trkpt lat="45.69678" lon="4.67264">
        <ele>367</ele>
        <time>2014-10-18T17:37:21.859Z</time>
      </trkpt>
      <trkpt lat="45.69677" lon="4.6726">
        <ele>366</ele>
        <time>2014-10-18T17:37:22.864Z</time>
      </trkpt>
      <trkpt lat="45.69673" lon="4.67254">
        <ele>366</ele>
        <time>2014-10-18T17:37:24.869Z</time>
      </trkpt>
      <trkpt lat="45.69671" lon="4.67249">
        <ele>367</ele>
        <time>2014-10-18T17:37:25.886Z</time>
      </trkpt>
      <trkpt lat="45.69667" lon="4.67241">
        <ele>366</ele>
        <time>2014-10-18T17:37:27.895Z</time>
      </trkpt>
      <trkpt lat="45.69664" lon="4.67237">
        <ele>366</ele>
        <time>2014-10-18T17:37:28.880Z</time>
      </trkpt>
      <trkpt lat="45.69659" lon="4.6723">
        <ele>366</ele>
        <time>2014-10-18T17:37:30.870Z</time>
      </trkpt>
      <trkpt lat="45.69657" lon="4.67228">
        <ele>366</ele>
        <time>2014-10-18T17:37:31.871Z</time>
      </trkpt>
      <trkpt lat="45.69653" lon="4.67221">
        <ele>366</ele>
        <time>2014-10-18T17:37:33.875Z</time>
      </trkpt>
      <trkpt lat="45.69649" lon="4.67219">
        <ele>366</ele>
        <time>2014-10-18T17:37:34.864Z</time>
      </trkpt>
      <trkpt lat="45.69644" lon="4.67213">
        <ele>366</ele>
        <time>2014-10-18T17:37:36.870Z</time>
      </trkpt>
      <trkpt lat="45.69642" lon="4.67211">
        <ele>366</ele>
        <time>2014-10-18T17:37:37.872Z</time>
      </trkpt>
      <trkpt lat="45.69636" lon="4.67204">
        <ele>366</ele>
        <time>2014-10-18T17:37:39.872Z</time>
      </trkpt>
      <trkpt lat="45.69632" lon="4.672">
        <ele>366</ele>
        <time>2014-10-18T17:37:40.880Z</time>
      </trkpt>
      <trkpt lat="45.69627" lon="4.67194">
        <ele>366</ele>
        <time>2014-10-18T17:37:42.871Z</time>
      </trkpt>
      <trkpt lat="45.69624" lon="4.67189">
        <ele>366</ele>
        <time>2014-10-18T17:37:43.889Z</time>
      </trkpt>
      <trkpt lat="45.69616" lon="4.67183">
        <ele>366</ele>
        <time>2014-10-18T17:37:45.882Z</time>
      </trkpt>
      <trkpt lat="45.69612" lon="4.67179">
        <ele>365</ele>
        <time>2014-10-18T17:37:46.870Z</time>
      </trkpt>
      <trkpt lat="45.69604" lon="4.67172">
        <ele>365</ele>
        <time>2014-10-18T17:37:48.876Z</time>
      </trkpt>
      <trkpt lat="45.69601" lon="4.67168">
        <ele>365</ele>
        <time>2014-10-18T17:37:49.873Z</time>
      </trkpt>
      <trkpt lat="45.69597" lon="4.67166">
        <ele>367</ele>
        <time>2014-10-18T17:37:50.871Z</time>
      </trkpt>
      <trkpt lat="45.69593" lon="4.67164">
        <ele>366</ele>
        <time>2014-10-18T17:37:51.912Z</time>
      </trkpt>
      <trkpt lat="45.69584" lon="4.67159">
        <ele>366</ele>
        <time>2014-10-18T17:37:53.914Z</time>
      </trkpt>
      <trkpt lat="45.6958" lon="4.67155">
        <ele>365</ele>
        <time>2014-10-18T17:37:54.873Z</time>
      </trkpt>
      <trkpt lat="45.69575" lon="4.67155">
        <ele>365</ele>
        <time>2014-10-18T17:37:55.871Z</time>
      </trkpt>
      <trkpt lat="45.6957" lon="4.67153">
        <ele>365</ele>
        <time>2014-10-18T17:37:56.873Z</time>
      </trkpt>
      <trkpt lat="45.69565" lon="4.67151">
        <ele>365</ele>
        <time>2014-10-18T17:37:57.871Z</time>
      </trkpt>
      <trkpt lat="45.69559" lon="4.67149">
        <ele>365</ele>
        <time>2014-10-18T17:37:58.871Z</time>
      </trkpt>
      <trkpt lat="45.69554" lon="4.67146">
        <ele>364</ele>
        <time>2014-10-18T17:37:59.873Z</time>
      </trkpt>
      <trkpt lat="45.69549" lon="4.67144">
        <ele>364</ele>
        <time>2014-10-18T17:38:00.868Z</time>
      </trkpt>
      <trkpt lat="45.69543" lon="4.67142">
        <ele>364</ele>
        <time>2014-10-18T17:38:01.871Z</time>
      </trkpt>
      <trkpt lat="45.69538" lon="4.67142">
        <ele>364</ele>
        <time>2014-10-18T17:38:02.869Z</time>
      </trkpt>
      <trkpt lat="45.69533" lon="4.6714">
        <ele>364</ele>
        <time>2014-10-18T17:38:03.873Z</time>
      </trkpt>
      <trkpt lat="45.69527" lon="4.67138">
        <ele>364</ele>
        <time>2014-10-18T17:38:04.865Z</time>
      </trkpt>
      <trkpt lat="45.69522" lon="4.67136">
        <ele>364</ele>
        <time>2014-10-18T17:38:05.872Z</time>
      </trkpt>
      <trkpt lat="45.69516" lon="4.67134">
        <ele>364</ele>
        <time>2014-10-18T17:38:06.879Z</time>
      </trkpt>
      <trkpt lat="45.69512" lon="4.67131">
        <ele>363</ele>
        <time>2014-10-18T17:38:07.871Z</time>
      </trkpt>
      <trkpt lat="45.69507" lon="4.67129">
        <ele>363</ele>
        <time>2014-10-18T17:38:08.972Z</time>
      </trkpt>
      <trkpt lat="45.69498" lon="4.67127">
        <ele>360</ele>
        <time>2014-10-18T17:38:10.871Z</time>
      </trkpt>
      <trkpt lat="45.69494" lon="4.67125">
        <ele>360</ele>
        <time>2014-10-18T17:38:11.873Z</time>
      </trkpt>
      <trkpt lat="45.69487" lon="4.67121">
        <ele>360</ele>
        <time>2014-10-18T17:38:13.870Z</time>
      </trkpt>
      <trkpt lat="45.69483" lon="4.67119">
        <ele>359</ele>
        <time>2014-10-18T17:38:14.887Z</time>
      </trkpt>
      <trkpt lat="45.69478" lon="4.67114">
        <ele>359</ele>
        <time>2014-10-18T17:38:15.878Z</time>
      </trkpt>
      <trkpt lat="45.69474" lon="4.67112">
        <ele>359</ele>
        <time>2014-10-18T17:38:16.869Z</time>
      </trkpt>
      <trkpt lat="45.69468" lon="4.67108">
        <ele>359</ele>
        <time>2014-10-18T17:38:17.872Z</time>
      </trkpt>
      <trkpt lat="45.69464" lon="4.67103">
        <ele>359</ele>
        <time>2014-10-18T17:38:18.874Z</time>
      </trkpt>
      <trkpt lat="45.69458" lon="4.67099">
        <ele>359</ele>
        <time>2014-10-18T17:38:19.898Z</time>
      </trkpt>
      <trkpt lat="45.69455" lon="4.67093">
        <ele>359</ele>
        <time>2014-10-18T17:38:20.889Z</time>
      </trkpt>
      <trkpt lat="45.6945" lon="4.67088">
        <ele>358</ele>
        <time>2014-10-18T17:38:21.887Z</time>
      </trkpt>
      <trkpt lat="45.69447" lon="4.67082">
        <ele>360</ele>
        <time>2014-10-18T17:38:22.874Z</time>
      </trkpt>
      <trkpt lat="45.69442" lon="4.67076">
        <ele>360</ele>
        <time>2014-10-18T17:38:23.865Z</time>
      </trkpt>
      <trkpt lat="45.69438" lon="4.67069">
        <ele>360</ele>
        <time>2014-10-18T17:38:24.872Z</time>
      </trkpt>
      <trkpt lat="45.69434" lon="4.67065">
        <ele>360</ele>
        <time>2014-10-18T17:38:25.866Z</time>
      </trkpt>
      <trkpt lat="45.6943" lon="4.67058">
        <ele>360</ele>
        <time>2014-10-18T17:38:26.873Z</time>
      </trkpt>
      <trkpt lat="45.69425" lon="4.67052">
        <ele>360</ele>
        <time>2014-10-18T17:38:27.876Z</time>
      </trkpt>
      <trkpt lat="45.69422" lon="4.67046">
        <ele>360</ele>
        <time>2014-10-18T17:38:28.868Z</time>
      </trkpt>
      <trkpt lat="45.69417" lon="4.67039">
        <ele>356</ele>
        <time>2014-10-18T17:38:29.867Z</time>
      </trkpt>
      <trkpt lat="45.69412" lon="4.67033">
        <ele>356</ele>
        <time>2014-10-18T17:38:30.870Z</time>
      </trkpt>
      <trkpt lat="45.69408" lon="4.67026">
        <ele>357</ele>
        <time>2014-10-18T17:38:31.873Z</time>
      </trkpt>
      <trkpt lat="45.69404" lon="4.6702">
        <ele>357</ele>
        <time>2014-10-18T17:38:32.871Z</time>
      </trkpt>
      <trkpt lat="45.69399" lon="4.67013">
        <ele>357</ele>
        <time>2014-10-18T17:38:33.870Z</time>
      </trkpt>
      <trkpt lat="45.69394" lon="4.67007">
        <ele>357</ele>
        <time>2014-10-18T17:38:34.872Z</time>
      </trkpt>
      <trkpt lat="45.6939" lon="4.67">
        <ele>357</ele>
        <time>2014-10-18T17:38:35.870Z</time>
      </trkpt>
      <trkpt lat="45.69387" lon="4.66994">
        <ele>358</ele>
        <time>2014-10-18T17:38:36.877Z</time>
      </trkpt>
      <trkpt lat="45.69382" lon="4.6699">
        <ele>358</ele>
        <time>2014-10-18T17:38:37.869Z</time>
      </trkpt>
      <trkpt lat="45.69379" lon="4.66981">
        <ele>358</ele>
        <time>2014-10-18T17:38:38.870Z</time>
      </trkpt>
      <trkpt lat="45.69376" lon="4.66977">
        <ele>358</ele>
        <time>2014-10-18T17:38:39.890Z</time>
      </trkpt>
      <trkpt lat="45.69372" lon="4.66973">
        <ele>357</ele>
        <time>2014-10-18T17:38:40.871Z</time>
      </trkpt>
      <trkpt lat="45.69367" lon="4.66966">
        <ele>357</ele>
        <time>2014-10-18T17:38:41.872Z</time>
      </trkpt>
      <trkpt lat="45.69364" lon="4.66962">
        <ele>357</ele>
        <time>2014-10-18T17:38:42.872Z</time>
      </trkpt>
      <trkpt lat="45.69361" lon="4.66955">
        <ele>357</ele>
        <time>2014-10-18T17:38:43.869Z</time>
      </trkpt>
      <trkpt lat="45.69357" lon="4.66951">
        <ele>357</ele>
        <time>2014-10-18T17:38:44.866Z</time>
      </trkpt>
      <trkpt lat="45.69354" lon="4.66945">
        <ele>357</ele>
        <time>2014-10-18T17:38:45.887Z</time>
      </trkpt>
      <trkpt lat="45.6935" lon="4.66938">
        <ele>357</ele>
        <time>2014-10-18T17:38:46.871Z</time>
      </trkpt>
      <trkpt lat="45.69347" lon="4.66934">
        <ele>357</ele>
        <time>2014-10-18T17:38:47.872Z</time>
      </trkpt>
      <trkpt lat="45.69344" lon="4.66928">
        <ele>357</ele>
        <time>2014-10-18T17:38:48.879Z</time>
      </trkpt>
      <trkpt lat="45.6934" lon="4.66921">
        <ele>356</ele>
        <time>2014-10-18T17:38:49.870Z</time>
      </trkpt>
      <trkpt lat="45.69337" lon="4.66915">
        <ele>356</ele>
        <time>2014-10-18T17:38:50.872Z</time>
      </trkpt>
      <trkpt lat="45.69334" lon="4.6691">
        <ele>357</ele>
        <time>2014-10-18T17:38:51.870Z</time>
      </trkpt>
      <trkpt lat="45.69331" lon="4.66904">
        <ele>356</ele>
        <time>2014-10-18T17:38:52.877Z</time>
      </trkpt>
      <trkpt lat="45.69328" lon="4.66897">
        <ele>356</ele>
        <time>2014-10-18T17:38:53.869Z</time>
      </trkpt>
      <trkpt lat="45.69324" lon="4.66893">
        <ele>356</ele>
        <time>2014-10-18T17:38:54.871Z</time>
      </trkpt>
      <trkpt lat="45.69321" lon="4.66889">
        <ele>356</ele>
        <time>2014-10-18T17:38:55.873Z</time>
      </trkpt>
      <trkpt lat="45.69318" lon="4.66882">
        <ele>356</ele>
        <time>2014-10-18T17:38:56.869Z</time>
      </trkpt>
      <trkpt lat="45.69313" lon="4.66874">
        <ele>356</ele>
        <time>2014-10-18T17:38:58.902Z</time>
      </trkpt>
      <trkpt lat="45.69309" lon="4.6687">
        <ele>356</ele>
        <time>2014-10-18T17:38:59.881Z</time>
      </trkpt>
      <trkpt lat="45.69304" lon="4.66861">
        <ele>356</ele>
        <time>2014-10-18T17:39:01.869Z</time>
      </trkpt>
      <trkpt lat="45.69301" lon="4.66855">
        <ele>356</ele>
        <time>2014-10-18T17:39:01.516Z</time>
      </trkpt>
      <trkpt lat="45.69295" lon="4.66848">
        <ele>356</ele>
        <time>2014-10-18T17:39:03.526Z</time>
      </trkpt>
      <trkpt lat="45.69292" lon="4.66844">
        <ele>356</ele>
        <time>2014-10-18T17:39:04.542Z</time>
      </trkpt>
      <trkpt lat="45.69286" lon="4.66837">
        <ele>357</ele>
        <time>2014-10-18T17:39:06.521Z</time>
      </trkpt>
      <trkpt lat="45.69281" lon="4.66835">
        <ele>357</ele>
        <time>2014-10-18T17:39:07.520Z</time>
      </trkpt>
      <trkpt lat="45.69274" lon="4.66829">
        <ele>359</ele>
        <time>2014-10-18T17:39:09.529Z</time>
      </trkpt>
      <trkpt lat="45.69271" lon="4.66827">
        <ele>359</ele>
        <time>2014-10-18T17:39:10.521Z</time>
      </trkpt>
      <trkpt lat="45.69263" lon="4.6682">
        <ele>359</ele>
        <time>2014-10-18T17:39:12.540Z</time>
      </trkpt>
      <trkpt lat="45.69259" lon="4.66818">
        <ele>359</ele>
        <time>2014-10-18T17:39:13.521Z</time>
      </trkpt>
      <trkpt lat="45.69251" lon="4.66812">
        <ele>359</ele>
        <time>2014-10-18T17:39:15.537Z</time>
      </trkpt>
      <trkpt lat="45.69248" lon="4.6681">
        <ele>360</ele>
        <time>2014-10-18T17:39:16.526Z</time>
      </trkpt>
      <trkpt lat="45.69241" lon="4.66803">
        <ele>360</ele>
        <time>2014-10-18T17:39:18.527Z</time>
      </trkpt>
      <trkpt lat="45.69236" lon="4.66801">
        <ele>360</ele>
        <time>2014-10-18T17:39:19.520Z</time>
      </trkpt>
      <trkpt lat="45.6923" lon="4.66792">
        <ele>361</ele>
        <time>2014-10-18T17:39:21.517Z</time>
      </trkpt>
      <trkpt lat="45.69226" lon="4.6679">
        <ele>361</ele>
        <time>2014-10-18T17:39:22.523Z</time>
      </trkpt>
      <trkpt lat="45.69219" lon="4.66784">
        <ele>361</ele>
        <time>2014-10-18T17:39:24.530Z</time>
      </trkpt>
      <trkpt lat="45.69216" lon="4.66782">
        <ele>361</ele>
        <time>2014-10-18T17:39:25.540Z</time>
      </trkpt>
      <trkpt lat="45.69209" lon="4.66775">
        <ele>361</ele>
        <time>2014-10-18T17:39:27.524Z</time>
      </trkpt>
      <trkpt lat="45.69204" lon="4.66773">
        <ele>361</ele>
        <time>2014-10-18T17:39:28.521Z</time>
      </trkpt>
      <trkpt lat="45.69198" lon="4.66767">
        <ele>361</ele>
        <time>2014-10-18T17:39:30.523Z</time>
      </trkpt>
      <trkpt lat="45.69193" lon="4.66764">
        <ele>361</ele>
        <time>2014-10-18T17:39:31.534Z</time>
      </trkpt>
      <trkpt lat="45.69187" lon="4.66758">
        <ele>361</ele>
        <time>2014-10-18T17:39:33.531Z</time>
      </trkpt>
      <trkpt lat="45.69183" lon="4.66756">
        <ele>362</ele>
        <time>2014-10-18T17:39:34.528Z</time>
      </trkpt>
      <trkpt lat="45.69175" lon="4.66749">
        <ele>362</ele>
        <time>2014-10-18T17:39:36.515Z</time>
      </trkpt>
      <trkpt lat="45.69172" lon="4.66747">
        <ele>362</ele>
        <time>2014-10-18T17:39:37.512Z</time>
      </trkpt>
      <trkpt lat="45.69165" lon="4.66745">
        <ele>362</ele>
        <time>2014-10-18T17:39:39.513Z</time>
      </trkpt>
      <trkpt lat="45.69161" lon="4.66743">
        <ele>362</ele>
        <time>2014-10-18T17:39:40.496Z</time>
      </trkpt>
      <trkpt lat="45.69153" lon="4.66739">
        <ele>362</ele>
        <time>2014-10-18T17:39:42.524Z</time>
      </trkpt>
      <trkpt lat="45.69148" lon="4.66737">
        <ele>362</ele>
        <time>2014-10-18T17:39:43.510Z</time>
      </trkpt>
      <trkpt lat="45.6914" lon="4.66734">
        <ele>361</ele>
        <time>2014-10-18T17:39:45.520Z</time>
      </trkpt>
      <trkpt lat="45.69136" lon="4.66732">
        <ele>361</ele>
        <time>2014-10-18T17:39:46.537Z</time>
      </trkpt>
      <trkpt lat="45.69127" lon="4.6673">
        <ele>361</ele>
        <time>2014-10-18T17:39:48.429Z</time>
      </trkpt>
      <trkpt lat="45.69121" lon="4.66728">
        <ele>361</ele>
        <time>2014-10-18T17:39:49.427Z</time>
      </trkpt>
      <trkpt lat="45.69112" lon="4.66726">
        <ele>361</ele>
        <time>2014-10-18T17:39:51.433Z</time>
      </trkpt>
      <trkpt lat="45.69108" lon="4.66722">
        <ele>361</ele>
        <time>2014-10-18T17:39:52.445Z</time>
      </trkpt>
      <trkpt lat="45.691" lon="4.66715">
        <ele>361</ele>
        <time>2014-10-18T17:39:54.418Z</time>
      </trkpt>
      <trkpt lat="45.69096" lon="4.66713">
        <ele>361</ele>
        <time>2014-10-18T17:39:55.427Z</time>
      </trkpt>
      <trkpt lat="45.69088" lon="4.66709">
        <ele>361</ele>
        <time>2014-10-18T17:39:57.432Z</time>
      </trkpt>
      <trkpt lat="45.69085" lon="4.66704">
        <ele>361</ele>
        <time>2014-10-18T17:39:58.442Z</time>
      </trkpt>
      <trkpt lat="45.69077" lon="4.66702">
        <ele>360</ele>
        <time>2014-10-18T17:40:00.415Z</time>
      </trkpt>
      <trkpt lat="45.69073" lon="4.667">
        <ele>360</ele>
        <time>2014-10-18T17:40:01.421Z</time>
      </trkpt>
      <trkpt lat="45.69069" lon="4.66696">
        <ele>360</ele>
        <time>2014-10-18T17:40:02.409Z</time>
      </trkpt>
      <trkpt lat="45.69065" lon="4.66694">
        <ele>360</ele>
        <time>2014-10-18T17:40:03.432Z</time>
      </trkpt>
      <trkpt lat="45.69057" lon="4.66689">
        <ele>360</ele>
        <time>2014-10-18T17:40:05.416Z</time>
      </trkpt>
      <trkpt lat="45.69053" lon="4.66685">
        <ele>360</ele>
        <time>2014-10-18T17:40:06.430Z</time>
      </trkpt>
      <trkpt lat="45.69045" lon="4.66681">
        <ele>360</ele>
        <time>2014-10-18T17:40:08.425Z</time>
      </trkpt>
      <trkpt lat="45.69041" lon="4.66679">
        <ele>360</ele>
        <time>2014-10-18T17:40:09.423Z</time>
      </trkpt>
      <trkpt lat="45.69034" lon="4.66672">
        <ele>360</ele>
        <time>2014-10-18T17:40:11.431Z</time>
      </trkpt>
      <trkpt lat="45.69029" lon="4.6667">
        <ele>360</ele>
        <time>2014-10-18T17:40:12.441Z</time>
      </trkpt>
      <trkpt lat="45.69025" lon="4.66668">
        <ele>360</ele>
        <time>2014-10-18T17:40:13.415Z</time>
      </trkpt>
      <trkpt lat="45.69021" lon="4.66664">
        <ele>362</ele>
        <time>2014-10-18T17:40:14.415Z</time>
      </trkpt>
      <trkpt lat="45.69013" lon="4.66659">
        <ele>362</ele>
        <time>2014-10-18T17:40:16.429Z</time>
      </trkpt>
      <trkpt lat="45.6901" lon="4.66657">
        <ele>362</ele>
        <time>2014-10-18T17:40:17.432Z</time>
      </trkpt>
      <trkpt lat="45.69004" lon="4.66653">
        <ele>362</ele>
        <time>2014-10-18T17:40:19.464Z</time>
      </trkpt>
      <trkpt lat="45.68999" lon="4.66651">
        <ele>361</ele>
        <time>2014-10-18T17:40:20.433Z</time>
      </trkpt>
      <trkpt lat="45.68993" lon="4.66646">
        <ele>361</ele>
        <time>2014-10-18T17:40:22.433Z</time>
      </trkpt>
      <trkpt lat="45.6899" lon="4.66644">
        <ele>361</ele>
        <time>2014-10-18T17:40:23.429Z</time>
      </trkpt>
      <trkpt lat="45.68983" lon="4.6664">
        <ele>361</ele>
        <time>2014-10-18T17:40:25.432Z</time>
      </trkpt>
      <trkpt lat="45.68979" lon="4.66638">
        <ele>361</ele>
        <time>2014-10-18T17:40:26.441Z</time>
      </trkpt>
      <trkpt lat="45.68974" lon="4.66636">
        <ele>361</ele>
        <time>2014-10-18T17:40:28.433Z</time>
      </trkpt>
      <trkpt lat="45.6897" lon="4.66634">
        <ele>361</ele>
        <time>2014-10-18T17:40:29.440Z</time>
      </trkpt>
      <trkpt lat="45.68962" lon="4.66631">
        <ele>361</ele>
        <time>2014-10-18T17:40:31.410Z</time>
      </trkpt>
      <trkpt lat="45.68957" lon="4.66634">
        <ele>361</ele>
        <time>2014-10-18T17:40:32.405Z</time>
      </trkpt>
      <trkpt lat="45.6895" lon="4.66631">
        <ele>361</ele>
        <time>2014-10-18T17:40:34.427Z</time>
      </trkpt>
      <trkpt lat="45.68946" lon="4.66629">
        <ele>361</ele>
        <time>2014-10-18T17:40:35.434Z</time>
      </trkpt>
      <trkpt lat="45.68937" lon="4.66627">
        <ele>361</ele>
        <time>2014-10-18T17:40:37.430Z</time>
      </trkpt>
      <trkpt lat="45.68933" lon="4.66625">
        <ele>361</ele>
        <time>2014-10-18T17:40:38.432Z</time>
      </trkpt>
      <trkpt lat="45.68928" lon="4.66623">
        <ele>361</ele>
        <time>2014-10-18T17:40:39.407Z</time>
      </trkpt>
      <trkpt lat="45.68924" lon="4.66621">
        <ele>361</ele>
        <time>2014-10-18T17:40:40.405Z</time>
      </trkpt>
      <trkpt lat="45.68916" lon="4.66619">
        <ele>358</ele>
        <time>2014-10-18T17:40:42.433Z</time>
      </trkpt>
      <trkpt lat="45.68911" lon="4.66614">
        <ele>358</ele>
        <time>2014-10-18T17:40:43.435Z</time>
      </trkpt>
      <trkpt lat="45.68904" lon="4.6661">
        <ele>358</ele>
        <time>2014-10-18T17:40:45.434Z</time>
      </trkpt>
      <trkpt lat="45.689" lon="4.66608">
        <ele>358</ele>
        <time>2014-10-18T17:40:46.433Z</time>
      </trkpt>
      <trkpt lat="45.68894" lon="4.66604">
        <ele>358</ele>
        <time>2014-10-18T17:40:47.430Z</time>
      </trkpt>
      <trkpt lat="45.6889" lon="4.66601">
        <ele>358</ele>
        <time>2014-10-18T17:40:48.427Z</time>
      </trkpt>
      <trkpt lat="45.68884" lon="4.66597">
        <ele>357</ele>
        <time>2014-10-18T17:40:49.436Z</time>
      </trkpt>
      <trkpt lat="45.6888" lon="4.66595">
        <ele>357</ele>
        <time>2014-10-18T17:40:50.436Z</time>
      </trkpt>
      <trkpt lat="45.68875" lon="4.66588">
        <ele>357</ele>
        <time>2014-10-18T17:40:51.432Z</time>
      </trkpt>
      <trkpt lat="45.68871" lon="4.66584">
        <ele>357</ele>
        <time>2014-10-18T17:40:52.443Z</time>
      </trkpt>
      <trkpt lat="45.68866" lon="4.66578">
        <ele>358</ele>
        <time>2014-10-18T17:40:53.436Z</time>
      </trkpt>
      <trkpt lat="45.68862" lon="4.66571">
        <ele>358</ele>
        <time>2014-10-18T17:40:54.432Z</time>
      </trkpt>
      <trkpt lat="45.68856" lon="4.66567">
        <ele>358</ele>
        <time>2014-10-18T17:40:55.427Z</time>
      </trkpt>
      <trkpt lat="45.68849" lon="4.66561">
        <ele>358</ele>
        <time>2014-10-18T17:40:56.433Z</time>
      </trkpt>
      <trkpt lat="45.68845" lon="4.66554">
        <ele>358</ele>
        <time>2014-10-18T17:40:57.440Z</time>
      </trkpt>
      <trkpt lat="45.68838" lon="4.66548">
        <ele>358</ele>
        <time>2014-10-18T17:40:58.417Z</time>
      </trkpt>
      <trkpt lat="45.68834" lon="4.66539">
        <ele>358</ele>
        <time>2014-10-18T17:40:59.421Z</time>
      </trkpt>
      <trkpt lat="45.68828" lon="4.66535">
        <ele>354</ele>
        <time>2014-10-18T17:41:00.417Z</time>
      </trkpt>
      <trkpt lat="45.68823" lon="4.66528">
        <ele>354</ele>
        <time>2014-10-18T17:41:01.412Z</time>
      </trkpt>
      <trkpt lat="45.68817" lon="4.66524">
        <ele>354</ele>
        <time>2014-10-18T17:41:02.429Z</time>
      </trkpt>
      <trkpt lat="45.6881" lon="4.6652">
        <ele>354</ele>
        <time>2014-10-18T17:41:03.430Z</time>
      </trkpt>
      <trkpt lat="45.68804" lon="4.66516">
        <ele>354</ele>
        <time>2014-10-18T17:41:04.426Z</time>
      </trkpt>
      <trkpt lat="45.68798" lon="4.66509">
        <ele>353</ele>
        <time>2014-10-18T17:41:05.414Z</time>
      </trkpt>
      <trkpt lat="45.68793" lon="4.66505">
        <ele>353</ele>
        <time>2014-10-18T17:41:06.410Z</time>
      </trkpt>
      <trkpt lat="45.68788" lon="4.66498">
        <ele>353</ele>
        <time>2014-10-18T17:41:07.416Z</time>
      </trkpt>
      <trkpt lat="45.68781" lon="4.66494">
        <ele>353</ele>
        <time>2014-10-18T17:41:08.424Z</time>
      </trkpt>
      <trkpt lat="45.68776" lon="4.66486">
        <ele>353</ele>
        <time>2014-10-18T17:41:09.423Z</time>
      </trkpt>
      <trkpt lat="45.68771" lon="4.66481">
        <ele>353</ele>
        <time>2014-10-18T17:41:10.460Z</time>
      </trkpt>
      <trkpt lat="45.68763" lon="4.66477">
        <ele>352</ele>
        <time>2014-10-18T17:41:11.450Z</time>
      </trkpt>
      <trkpt lat="45.68756" lon="4.6647">
        <ele>352</ele>
        <time>2014-10-18T17:41:12.439Z</time>
      </trkpt>
      <trkpt lat="45.6875" lon="4.66466">
        <ele>353</ele>
        <time>2014-10-18T17:41:13.436Z</time>
      </trkpt>
      <trkpt lat="45.68745" lon="4.66458">
        <ele>350</ele>
        <time>2014-10-18T17:41:14.435Z</time>
      </trkpt>
      <trkpt lat="45.68739" lon="4.66449">
        <ele>350</ele>
        <time>2014-10-18T17:41:15.422Z</time>
      </trkpt>
      <trkpt lat="45.68733" lon="4.66443">
        <ele>350</ele>
        <time>2014-10-18T17:41:16.417Z</time>
      </trkpt>
      <trkpt lat="45.68729" lon="4.66438">
        <ele>350</ele>
        <time>2014-10-18T17:41:17.427Z</time>
      </trkpt>
      <trkpt lat="45.68724" lon="4.66436">
        <ele>350</ele>
        <time>2014-10-18T17:41:18.424Z</time>
      </trkpt>
      <trkpt lat="45.68718" lon="4.66434">
        <ele>350</ele>
        <time>2014-10-18T17:41:19.418Z</time>
      </trkpt>
      <trkpt lat="45.68714" lon="4.66432">
        <ele>350</ele>
        <time>2014-10-18T17:41:20.442Z</time>
      </trkpt>
      <trkpt lat="45.68707" lon="4.66432">
        <ele>350</ele>
        <time>2014-10-18T17:41:21.429Z</time>
      </trkpt>
      <trkpt lat="45.68701" lon="4.66432">
        <ele>350</ele>
        <time>2014-10-18T17:41:22.431Z</time>
      </trkpt>
      <trkpt lat="45.68696" lon="4.66428">
        <ele>350</ele>
        <time>2014-10-18T17:41:23.433Z</time>
      </trkpt>
      <trkpt lat="45.6869" lon="4.66425">
        <ele>350</ele>
        <time>2014-10-18T17:41:24.439Z</time>
      </trkpt>
      <trkpt lat="45.68683" lon="4.66425">
        <ele>350</ele>
        <time>2014-10-18T17:41:25.439Z</time>
      </trkpt>
      <trkpt lat="45.68677" lon="4.66423">
        <ele>350</ele>
        <time>2014-10-18T17:41:26.439Z</time>
      </trkpt>
      <trkpt lat="45.6867" lon="4.66421">
        <ele>350</ele>
        <time>2014-10-18T17:41:27.427Z</time>
      </trkpt>
      <trkpt lat="45.68665" lon="4.66419">
        <ele>350</ele>
        <time>2014-10-18T17:41:28.441Z</time>
      </trkpt>
      <trkpt lat="45.68659" lon="4.66415">
        <ele>351</ele>
        <time>2014-10-18T17:41:29.430Z</time>
      </trkpt>
      <trkpt lat="45.68654" lon="4.66413">
        <ele>351</ele>
        <time>2014-10-18T17:41:30.453Z</time>
      </trkpt>
      <trkpt lat="45.68648" lon="4.66408">
        <ele>351</ele>
        <time>2014-10-18T17:41:31.431Z</time>
      </trkpt>
      <trkpt lat="45.68644" lon="4.66406">
        <ele>351</ele>
        <time>2014-10-18T17:41:32.436Z</time>
      </trkpt>
      <trkpt lat="45.6864" lon="4.66402">
        <ele>352</ele>
        <time>2014-10-18T17:41:33.436Z</time>
      </trkpt>
      <trkpt lat="45.68635" lon="4.664">
        <ele>352</ele>
        <time>2014-10-18T17:41:34.434Z</time>
      </trkpt>
      <trkpt lat="45.6863" lon="4.66395">
        <ele>352</ele>
        <time>2014-10-18T17:41:35.434Z</time>
      </trkpt>
      <trkpt lat="45.68626" lon="4.66393">
        <ele>352</ele>
        <time>2014-10-18T17:41:36.440Z</time>
      </trkpt>
      <trkpt lat="45.68621" lon="4.66391">
        <ele>352</ele>
        <time>2014-10-18T17:41:37.433Z</time>
      </trkpt>
      <trkpt lat="45.68616" lon="4.66389">
        <ele>352</ele>
        <time>2014-10-18T17:41:38.452Z</time>
      </trkpt>
      <trkpt lat="45.68611" lon="4.66387">
        <ele>352</ele>
        <time>2014-10-18T17:41:39.442Z</time>
      </trkpt>
      <trkpt lat="45.68607" lon="4.66385">
        <ele>352</ele>
        <time>2014-10-18T17:41:40.438Z</time>
      </trkpt>
      <trkpt lat="45.68599" lon="4.6638">
        <ele>352</ele>
        <time>2014-10-18T17:41:42.436Z</time>
      </trkpt>
      <trkpt lat="45.68596" lon="4.66378">
        <ele>353</ele>
        <time>2014-10-18T17:41:43.435Z</time>
      </trkpt>
      <trkpt lat="45.68592" lon="4.66376">
        <ele>353</ele>
        <time>2014-10-18T17:41:44.427Z</time>
      </trkpt>
      <trkpt lat="45.68587" lon="4.66374">
        <ele>353</ele>
        <time>2014-10-18T17:41:45.441Z</time>
      </trkpt>
      <trkpt lat="45.68579" lon="4.66372">
        <ele>353</ele>
        <time>2014-10-18T17:41:47.452Z</time>
      </trkpt>
      <trkpt lat="45.68576" lon="4.6637">
        <ele>353</ele>
        <time>2014-10-18T17:41:48.431Z</time>
      </trkpt>
      <trkpt lat="45.6857" lon="4.66367">
        <ele>353</ele>
        <time>2014-10-18T17:41:49.432Z</time>
      </trkpt>
      <trkpt lat="45.68567" lon="4.66365">
        <ele>353</ele>
        <time>2014-10-18T17:41:50.435Z</time>
      </trkpt>
      <trkpt lat="45.68563" lon="4.66365">
        <ele>353</ele>
        <time>2014-10-18T17:41:51.434Z</time>
      </trkpt>
      <trkpt lat="45.68558" lon="4.66361">
        <ele>353</ele>
        <time>2014-10-18T17:41:52.433Z</time>
      </trkpt>
      <trkpt lat="45.68551" lon="4.66359">
        <ele>353</ele>
        <time>2014-10-18T17:41:54.433Z</time>
      </trkpt>
      <trkpt lat="45.68547" lon="4.66357">
        <ele>353</ele>
        <time>2014-10-18T17:41:55.439Z</time>
      </trkpt>
      <trkpt lat="45.6854" lon="4.66355">
        <ele>353</ele>
        <time>2014-10-18T17:41:57.451Z</time>
      </trkpt>
      <trkpt lat="45.68536" lon="4.6635">
        <ele>353</ele>
        <time>2014-10-18T17:41:58.454Z</time>
      </trkpt>
      <trkpt lat="45.68528" lon="4.66348">
        <ele>354</ele>
        <time>2014-10-18T17:42:00.434Z</time>
      </trkpt>
      <trkpt lat="45.68524" lon="4.66346">
        <ele>354</ele>
        <time>2014-10-18T17:42:01.433Z</time>
      </trkpt>
      <trkpt lat="45.68516" lon="4.66342">
        <ele>354</ele>
        <time>2014-10-18T17:42:03.461Z</time>
      </trkpt>
      <trkpt lat="45.68513" lon="4.6634">
        <ele>354</ele>
        <time>2014-10-18T17:42:04.435Z</time>
      </trkpt>
      <trkpt lat="45.68507" lon="4.66337">
        <ele>354</ele>
        <time>2014-10-18T17:42:06.463Z</time>
      </trkpt>
      <trkpt lat="45.68503" lon="4.66335">
        <ele>355</ele>
        <time>2014-10-18T17:42:07.444Z</time>
      </trkpt>
      <trkpt lat="45.68495" lon="4.66331">
        <ele>355</ele>
        <time>2014-10-18T17:42:09.436Z</time>
      </trkpt>
      <trkpt lat="45.68492" lon="4.66327">
        <ele>356</ele>
        <time>2014-10-18T17:42:10.435Z</time>
      </trkpt>
      <trkpt lat="45.68484" lon="4.66322">
        <ele>356</ele>
        <time>2014-10-18T17:42:12.437Z</time>
      </trkpt>
      <trkpt lat="45.68481" lon="4.66322">
        <ele>356</ele>
        <time>2014-10-18T17:42:13.442Z</time>
      </trkpt>
      <trkpt lat="45.68475" lon="4.66318">
        <ele>356</ele>
        <time>2014-10-18T17:42:15.433Z</time>
      </trkpt>
      <trkpt lat="45.68471" lon="4.66316">
        <ele>356</ele>
        <time>2014-10-18T17:42:16.435Z</time>
      </trkpt>
      <trkpt lat="45.68464" lon="4.66312">
        <ele>356</ele>
        <time>2014-10-18T17:42:18.435Z</time>
      </trkpt>
      <trkpt lat="45.68462" lon="4.6631">
        <ele>356</ele>
        <time>2014-10-18T17:42:19.437Z</time>
      </trkpt>
      <trkpt lat="45.68456" lon="4.66305">
        <ele>356</ele>
        <time>2014-10-18T17:42:21.433Z</time>
      </trkpt>
      <trkpt lat="45.68453" lon="4.66303">
        <ele>356</ele>
        <time>2014-10-18T17:42:22.469Z</time>
      </trkpt>
      <trkpt lat="45.68449" lon="4.66292">
        <ele>356</ele>
        <time>2014-10-18T17:42:25.435Z</time>
      </trkpt>
      <trkpt lat="45.68451" lon="4.66288">
        <ele>357</ele>
        <time>2014-10-18T17:42:26.435Z</time>
      </trkpt>
      <trkpt lat="45.68453" lon="4.66277">
        <ele>357</ele>
        <time>2014-10-18T17:42:29.438Z</time>
      </trkpt>
      <trkpt lat="45.68454" lon="4.66275">
        <ele>357</ele>
        <time>2014-10-18T17:42:30.430Z</time>
      </trkpt>
      <trkpt lat="45.68459" lon="4.66264">
        <ele>357</ele>
        <time>2014-10-18T17:42:34.435Z</time>
      </trkpt>
      <trkpt lat="45.6846" lon="4.6626">
        <ele>358</ele>
        <time>2014-10-18T17:42:35.437Z</time>
      </trkpt>
      <trkpt lat="45.68462" lon="4.66252">
        <ele>358</ele>
        <time>2014-10-18T17:42:38.434Z</time>
      </trkpt>
      <trkpt lat="45.68462" lon="4.66247">
        <ele>362</ele>
        <time>2014-10-18T17:42:39.451Z</time>
      </trkpt>
      <trkpt lat="45.68464" lon="4.66237">
        <ele>362</ele>
        <time>2014-10-18T17:42:43.433Z</time>
      </trkpt>
      <trkpt lat="45.68465" lon="4.66234">
        <ele>362</ele>
        <time>2014-10-18T17:42:44.438Z</time>
      </trkpt>
      <trkpt lat="45.68468" lon="4.66224">
        <ele>363</ele>
        <time>2014-10-18T17:42:47.437Z</time>
      </trkpt>
      <trkpt lat="45.6847" lon="4.66222">
        <ele>363</ele>
        <time>2014-10-18T17:42:48.432Z</time>
      </trkpt>
      <trkpt lat="45.68473" lon="4.66211">
        <ele>363</ele>
        <time>2014-10-18T17:42:53.447Z</time>
      </trkpt>
      <trkpt lat="45.68474" lon="4.66207">
        <ele>363</ele>
        <time>2014-10-18T17:42:54.448Z</time>
      </trkpt>
      <trkpt lat="45.68478" lon="4.662">
        <ele>364</ele>
        <time>2014-10-18T17:42:57.456Z</time>
      </trkpt>
      <trkpt lat="45.68479" lon="4.66196">
        <ele>364</ele>
        <time>2014-10-18T17:42:58.469Z</time>
      </trkpt>
      <trkpt lat="45.68483" lon="4.66185">
        <ele>365</ele>
        <time>2014-10-18T17:43:03.453Z</time>
      </trkpt>
      <trkpt lat="45.68482" lon="4.66183">
        <ele>365</ele>
        <time>2014-10-18T17:43:04.450Z</time>
      </trkpt>
      <trkpt lat="45.68488" lon="4.66177">
        <ele>366</ele>
        <time>2014-10-18T17:43:07.451Z</time>
      </trkpt>
      <trkpt lat="45.68488" lon="4.66172">
        <ele>366</ele>
        <time>2014-10-18T17:43:08.449Z</time>
      </trkpt>
      <trkpt lat="45.68491" lon="4.66161">
        <ele>369</ele>
        <time>2014-10-18T17:43:12.447Z</time>
      </trkpt>
      <trkpt lat="45.68491" lon="4.66159">
        <ele>369</ele>
        <time>2014-10-18T17:43:13.459Z</time>
      </trkpt>
      <trkpt lat="45.68493" lon="4.66149">
        <ele>369</ele>
        <time>2014-10-18T17:43:17.446Z</time>
      </trkpt>
      <trkpt lat="45.68495" lon="4.66146">
        <ele>369</ele>
        <time>2014-10-18T17:43:18.451Z</time>
      </trkpt>
      <trkpt lat="45.68497" lon="4.66138">
        <ele>370</ele>
        <time>2014-10-18T17:43:21.444Z</time>
      </trkpt>
      <trkpt lat="45.68498" lon="4.66134">
        <ele>370</ele>
        <time>2014-10-18T17:43:22.449Z</time>
      </trkpt>
      <trkpt lat="45.685" lon="4.66123">
        <ele>371</ele>
        <time>2014-10-18T17:43:27.445Z</time>
      </trkpt>
      <trkpt lat="45.68501" lon="4.66121">
        <ele>371</ele>
        <time>2014-10-18T17:43:28.447Z</time>
      </trkpt>
      <trkpt lat="45.68504" lon="4.6611">
        <ele>372</ele>
        <time>2014-10-18T17:43:33.446Z</time>
      </trkpt>
      <trkpt lat="45.68505" lon="4.66108">
        <ele>372</ele>
        <time>2014-10-18T17:43:34.450Z</time>
      </trkpt>
      <trkpt lat="45.68509" lon="4.66101">
        <ele>372</ele>
        <time>2014-10-18T17:43:38.445Z</time>
      </trkpt>
      <trkpt lat="45.68511" lon="4.66097">
        <ele>372</ele>
        <time>2014-10-18T17:43:39.446Z</time>
      </trkpt>
      <trkpt lat="45.68514" lon="4.66086">
        <ele>373</ele>
        <time>2014-10-18T17:43:43.446Z</time>
      </trkpt>
      <trkpt lat="45.68515" lon="4.66084">
        <ele>373</ele>
        <time>2014-10-18T17:43:44.480Z</time>
      </trkpt>
      <trkpt lat="45.68519" lon="4.66074">
        <ele>375</ele>
        <time>2014-10-18T17:43:48.452Z</time>
      </trkpt>
      <trkpt lat="45.68521" lon="4.66071">
        <ele>375</ele>
        <time>2014-10-18T17:43:49.448Z</time>
      </trkpt>
      <trkpt lat="45.68523" lon="4.66061">
        <ele>375</ele>
        <time>2014-10-18T17:43:53.446Z</time>
      </trkpt>
      <trkpt lat="45.68524" lon="4.66058">
        <ele>376</ele>
        <time>2014-10-18T17:43:54.446Z</time>
      </trkpt>
      <trkpt lat="45.68527" lon="4.66048">
        <ele>376</ele>
        <time>2014-10-18T17:43:57.444Z</time>
      </trkpt>
      <trkpt lat="45.68529" lon="4.66046">
        <ele>376</ele>
        <time>2014-10-18T17:43:58.444Z</time>
      </trkpt>
      <trkpt lat="45.68535" lon="4.66037">
        <ele>376</ele>
        <time>2014-10-18T17:44:03.445Z</time>
      </trkpt>
      <trkpt lat="45.68535" lon="4.66035">
        <ele>376</ele>
        <time>2014-10-18T17:44:04.445Z</time>
      </trkpt>
      <trkpt lat="45.68539" lon="4.66026">
        <ele>376</ele>
        <time>2014-10-18T17:44:08.444Z</time>
      </trkpt>
      <trkpt lat="45.6854" lon="4.66024">
        <ele>377</ele>
        <time>2014-10-18T17:44:09.463Z</time>
      </trkpt>
      <trkpt lat="45.68543" lon="4.66013">
        <ele>377</ele>
        <time>2014-10-18T17:44:13.447Z</time>
      </trkpt>
      <trkpt lat="45.68543" lon="4.66011">
        <ele>377</ele>
        <time>2014-10-18T17:44:14.451Z</time>
      </trkpt>
      <trkpt lat="45.68547" lon="4.66001">
        <ele>377</ele>
        <time>2014-10-18T17:44:18.444Z</time>
      </trkpt>
      <trkpt lat="45.68548" lon="4.65996">
        <ele>380</ele>
        <time>2014-10-18T17:44:19.444Z</time>
      </trkpt>
      <trkpt lat="45.68551" lon="4.65988">
        <ele>380</ele>
        <time>2014-10-18T17:44:23.462Z</time>
      </trkpt>
      <trkpt lat="45.68553" lon="4.65986">
        <ele>380</ele>
        <time>2014-10-18T17:44:24.446Z</time>
      </trkpt>
      <trkpt lat="45.68556" lon="4.65975">
        <ele>380</ele>
        <time>2014-10-18T17:44:28.444Z</time>
      </trkpt>
      <trkpt lat="45.68556" lon="4.65973">
        <ele>380</ele>
        <time>2014-10-18T17:44:29.444Z</time>
      </trkpt>
      <trkpt lat="45.68559" lon="4.65966">
        <ele>381</ele>
        <time>2014-10-18T17:44:32.445Z</time>
      </trkpt>
      <trkpt lat="45.68562" lon="4.65962">
        <ele>381</ele>
        <time>2014-10-18T17:44:33.447Z</time>
      </trkpt>
      <trkpt lat="45.68565" lon="4.65951">
        <ele>381</ele>
        <time>2014-10-18T17:44:37.446Z</time>
      </trkpt>
      <trkpt lat="45.68566" lon="4.65949">
        <ele>381</ele>
        <time>2014-10-18T17:44:38.447Z</time>
      </trkpt>
      <trkpt lat="45.6857" lon="4.6594">
        <ele>382</ele>
        <time>2014-10-18T17:44:42.468Z</time>
      </trkpt>
      <trkpt lat="45.68571" lon="4.65938">
        <ele>382</ele>
        <time>2014-10-18T17:44:43.448Z</time>
      </trkpt>
      <trkpt lat="45.68573" lon="4.65928">
        <ele>383</ele>
        <time>2014-10-18T17:44:47.446Z</time>
      </trkpt>
      <trkpt lat="45.68576" lon="4.65923">
        <ele>383</ele>
        <time>2014-10-18T17:44:48.451Z</time>
      </trkpt>
      <trkpt lat="45.68573" lon="4.65913">
        <ele>384</ele>
        <time>2014-10-18T17:44:52.441Z</time>
      </trkpt>
      <trkpt lat="45.68572" lon="4.6591">
        <ele>384</ele>
        <time>2014-10-18T17:44:53.445Z</time>
      </trkpt>
      <trkpt lat="45.68567" lon="4.65902">
        <ele>384</ele>
        <time>2014-10-18T17:44:57.449Z</time>
      </trkpt>
      <trkpt lat="45.68565" lon="4.659">
        <ele>384</ele>
        <time>2014-10-18T17:44:58.445Z</time>
      </trkpt>
      <trkpt lat="45.68558" lon="4.65895">
        <ele>384</ele>
        <time>2014-10-18T17:45:02.453Z</time>
      </trkpt>
      <trkpt lat="45.68556" lon="4.65895">
        <ele>384</ele>
        <time>2014-10-18T17:45:03.482Z</time>
      </trkpt>
      <trkpt lat="45.68549" lon="4.65889">
        <ele>384</ele>
        <time>2014-10-18T17:45:08.451Z</time>
      </trkpt>
      <trkpt lat="45.68548" lon="4.65889">
        <ele>384</ele>
        <time>2014-10-18T17:45:09.449Z</time>
      </trkpt>
      <trkpt lat="45.68539" lon="4.65891">
        <ele>384</ele>
        <time>2014-10-18T17:45:13.459Z</time>
      </trkpt>
      <trkpt lat="45.68538" lon="4.65891">
        <ele>384</ele>
        <time>2014-10-18T17:45:14.462Z</time>
      </trkpt>
      <trkpt lat="45.68529" lon="4.65889">
        <ele>384</ele>
        <time>2014-10-18T17:45:18.445Z</time>
      </trkpt>
      <trkpt lat="45.68527" lon="4.65889">
        <ele>384</ele>
        <time>2014-10-18T17:45:19.451Z</time>
      </trkpt>
      <trkpt lat="45.68519" lon="4.65887">
        <ele>384</ele>
        <time>2014-10-18T17:45:24.460Z</time>
      </trkpt>
      <trkpt lat="45.68516" lon="4.65885">
        <ele>384</ele>
        <time>2014-10-18T17:45:25.457Z</time>
      </trkpt>
      <trkpt lat="45.68508" lon="4.65883">
        <ele>384</ele>
        <time>2014-10-18T17:45:30.463Z</time>
      </trkpt>
      <trkpt lat="45.68506" lon="4.65883">
        <ele>384</ele>
        <time>2014-10-18T17:45:31.458Z</time>
      </trkpt>
      <trkpt lat="45.68498" lon="4.6588">
        <ele>383</ele>
        <time>2014-10-18T17:45:34.458Z</time>
      </trkpt>
      <trkpt lat="45.68497" lon="4.65878">
        <ele>383</ele>
        <time>2014-10-18T17:45:35.458Z</time>
      </trkpt>
      <trkpt lat="45.68489" lon="4.65876">
        <ele>383</ele>
        <time>2014-10-18T17:45:38.440Z</time>
      </trkpt>
      <trkpt lat="45.68486" lon="4.65874">
        <ele>383</ele>
        <time>2014-10-18T17:45:39.441Z</time>
      </trkpt>
      <trkpt lat="45.68478" lon="4.65872">
        <ele>383</ele>
        <time>2014-10-18T17:45:43.441Z</time>
      </trkpt>
      <trkpt lat="45.68475" lon="4.6587">
        <ele>383</ele>
        <time>2014-10-18T17:45:44.453Z</time>
      </trkpt>
      <trkpt lat="45.68467" lon="4.65868">
        <ele>383</ele>
        <time>2014-10-18T17:45:47.446Z</time>
      </trkpt>
      <trkpt lat="45.68465" lon="4.65868">
        <ele>382</ele>
        <time>2014-10-18T17:45:48.451Z</time>
      </trkpt>
      <trkpt lat="45.68459" lon="4.65863">
        <ele>382</ele>
        <time>2014-10-18T17:45:51.453Z</time>
      </trkpt>
      <trkpt lat="45.68456" lon="4.65861">
        <ele>382</ele>
        <time>2014-10-18T17:45:52.456Z</time>
      </trkpt>
      <trkpt lat="45.6845" lon="4.65855">
        <ele>382</ele>
        <time>2014-10-18T17:45:55.456Z</time>
      </trkpt>
      <trkpt lat="45.68447" lon="4.65852">
        <ele>382</ele>
        <time>2014-10-18T17:45:56.462Z</time>
      </trkpt>
      <trkpt lat="45.68439" lon="4.65846">
        <ele>382</ele>
        <time>2014-10-18T17:45:59.457Z</time>
      </trkpt>
      <trkpt lat="45.68438" lon="4.65844">
        <ele>382</ele>
        <time>2014-10-18T17:46:00.455Z</time>
      </trkpt>
      <trkpt lat="45.68432" lon="4.65837">
        <ele>382</ele>
        <time>2014-10-18T17:46:03.454Z</time>
      </trkpt>
      <trkpt lat="45.6843" lon="4.65837">
        <ele>382</ele>
        <time>2014-10-18T17:46:04.472Z</time>
      </trkpt>
      <trkpt lat="45.68423" lon="4.65831">
        <ele>381</ele>
        <time>2014-10-18T17:46:07.462Z</time>
      </trkpt>
      <trkpt lat="45.68421" lon="4.65829">
        <ele>381</ele>
        <time>2014-10-18T17:46:08.457Z</time>
      </trkpt>
      <trkpt lat="45.68416" lon="4.6582">
        <ele>379</ele>
        <time>2014-10-18T17:46:10.477Z</time>
      </trkpt>
      <trkpt lat="45.68412" lon="4.65818">
        <ele>379</ele>
        <time>2014-10-18T17:46:11.460Z</time>
      </trkpt>
      <trkpt lat="45.68406" lon="4.6581">
        <ele>378</ele>
        <time>2014-10-18T17:46:14.455Z</time>
      </trkpt>
      <trkpt lat="45.68406" lon="4.65807">
        <ele>378</ele>
        <time>2014-10-18T17:46:15.459Z</time>
      </trkpt>
      <trkpt lat="45.68398" lon="4.65805">
        <ele>378</ele>
        <time>2014-10-18T17:46:22.458Z</time>
      </trkpt>
      <trkpt lat="45.68394" lon="4.65807">
        <ele>378</ele>
        <time>2014-10-18T17:46:23.461Z</time>
      </trkpt>
      <trkpt lat="45.6839" lon="4.65812">
        <ele>377</ele>
        <time>2014-10-18T17:46:24.453Z</time>
      </trkpt>
      <trkpt lat="45.68386" lon="4.65816">
        <ele>377</ele>
        <time>2014-10-18T17:46:25.464Z</time>
      </trkpt>
      <trkpt lat="45.68381" lon="4.6582">
        <ele>377</ele>
        <time>2014-10-18T17:46:26.455Z</time>
      </trkpt>
      <trkpt lat="45.68377" lon="4.65822">
        <ele>377</ele>
        <time>2014-10-18T17:46:27.455Z</time>
      </trkpt>
      <trkpt lat="45.6837" lon="4.65825">
        <ele>376</ele>
        <time>2014-10-18T17:48:29.454Z</time>
      </trkpt>
      <trkpt lat="45.68367" lon="4.65822">
        <ele>376</ele>
        <time>2014-10-18T17:48:30.453Z</time>
      </trkpt>
      <trkpt lat="45.6836" lon="4.65818">
        <ele>376</ele>
        <time>2014-10-18T17:48:32.457Z</time>
      </trkpt>
      <trkpt lat="45.68357" lon="4.65816">
        <ele>376</ele>
        <time>2014-10-18T17:48:33.463Z</time>
      </trkpt>
      <trkpt lat="45.68353" lon="4.65812">
        <ele>375</ele>
        <time>2014-10-18T17:48:34.457Z</time>
      </trkpt>
      <trkpt lat="45.68351" lon="4.65805">
        <ele>375</ele>
        <time>2014-10-18T17:48:35.461Z</time>
      </trkpt>
      <trkpt lat="45.68348" lon="4.65799">
        <ele>375</ele>
        <time>2014-10-18T17:48:36.455Z</time>
      </trkpt>
      <trkpt lat="45.68345" lon="4.65795">
        <ele>375</ele>
        <time>2014-10-18T17:48:37.455Z</time>
      </trkpt>
      <trkpt lat="45.68342" lon="4.65788">
        <ele>375</ele>
        <time>2014-10-18T17:48:38.440Z</time>
      </trkpt>
      <trkpt lat="45.68337" lon="4.65782">
        <ele>375</ele>
        <time>2014-10-18T17:48:39.442Z</time>
      </trkpt>
      <trkpt lat="45.6833" lon="4.65775">
        <ele>370</ele>
        <time>2014-10-18T17:48:41.439Z</time>
      </trkpt>
      <trkpt lat="45.68327" lon="4.65771">
        <ele>370</ele>
        <time>2014-10-18T17:48:42.440Z</time>
      </trkpt>
      <trkpt lat="45.68321" lon="4.65769">
        <ele>370</ele>
        <time>2014-10-18T17:48:43.441Z</time>
      </trkpt>
      <trkpt lat="45.68316" lon="4.65762">
        <ele>370</ele>
        <time>2014-10-18T17:48:44.446Z</time>
      </trkpt>
      <trkpt lat="45.6831" lon="4.65758">
        <ele>369</ele>
        <time>2014-10-18T17:48:45.439Z</time>
      </trkpt>
      <trkpt lat="45.68305" lon="4.65752">
        <ele>369</ele>
        <time>2014-10-18T17:48:46.444Z</time>
      </trkpt>
      <trkpt lat="45.68303" lon="4.65743">
        <ele>367</ele>
        <time>2014-10-18T17:48:47.439Z</time>
      </trkpt>
      <trkpt lat="45.68303" lon="4.65732">
        <ele>367</ele>
        <time>2014-10-18T17:48:48.443Z</time>
      </trkpt>
      <trkpt lat="45.68302" lon="4.65722">
        <ele>366</ele>
        <time>2014-10-18T17:48:49.437Z</time>
      </trkpt>
      <trkpt lat="45.68302" lon="4.65713">
        <ele>366</ele>
        <time>2014-10-18T17:48:50.443Z</time>
      </trkpt>
      <trkpt lat="45.68303" lon="4.65704">
        <ele>366</ele>
        <time>2014-10-18T17:48:51.441Z</time>
      </trkpt>
      <trkpt lat="45.68302" lon="4.65694">
        <ele>366</ele>
        <time>2014-10-18T17:48:52.441Z</time>
      </trkpt>
      <trkpt lat="45.68301" lon="4.65683">
        <ele>366</ele>
        <time>2014-10-18T17:48:53.438Z</time>
      </trkpt>
      <trkpt lat="45.68301" lon="4.65672">
        <ele>366</ele>
        <time>2014-10-18T17:48:54.478Z</time>
      </trkpt>
      <trkpt lat="45.683" lon="4.65662">
        <ele>363</ele>
        <time>2014-10-18T17:48:55.438Z</time>
      </trkpt>
      <trkpt lat="45.68301" lon="4.65651">
        <ele>362</ele>
        <time>2014-10-18T17:48:56.443Z</time>
      </trkpt>
      <trkpt lat="45.68302" lon="4.65642">
        <ele>362</ele>
        <time>2014-10-18T17:48:57.438Z</time>
      </trkpt>
      <trkpt lat="45.68302" lon="4.65636">
        <ele>362</ele>
        <time>2014-10-18T17:48:58.446Z</time>
      </trkpt>
      <trkpt lat="45.68299" lon="4.65629">
        <ele>361</ele>
        <time>2014-10-18T17:48:59.436Z</time>
      </trkpt>
      <trkpt lat="45.68293" lon="4.65623">
        <ele>361</ele>
        <time>2014-10-18T17:49:00.445Z</time>
      </trkpt>
      <trkpt lat="45.68287" lon="4.65616">
        <ele>360</ele>
        <time>2014-10-18T17:49:01.439Z</time>
      </trkpt>
      <trkpt lat="45.6828" lon="4.65608">
        <ele>359</ele>
        <time>2014-10-18T17:49:02.444Z</time>
      </trkpt>
      <trkpt lat="45.68273" lon="4.65599">
        <ele>358</ele>
        <time>2014-10-18T17:49:03.438Z</time>
      </trkpt>
      <trkpt lat="45.68265" lon="4.65591">
        <ele>357</ele>
        <time>2014-10-18T17:49:04.438Z</time>
      </trkpt>
      <trkpt lat="45.68259" lon="4.65582">
        <ele>354</ele>
        <time>2014-10-18T17:49:05.434Z</time>
      </trkpt>
      <trkpt lat="45.68254" lon="4.65576">
        <ele>354</ele>
        <time>2014-10-18T17:49:06.445Z</time>
      </trkpt>
      <trkpt lat="45.6825" lon="4.65569">
        <ele>355</ele>
        <time>2014-10-18T17:49:07.435Z</time>
      </trkpt>
      <trkpt lat="45.68248" lon="4.65561">
        <ele>353</ele>
        <time>2014-10-18T17:49:08.442Z</time>
      </trkpt>
      <trkpt lat="45.68249" lon="4.65552">
        <ele>353</ele>
        <time>2014-10-18T17:49:09.411Z</time>
      </trkpt>
      <trkpt lat="45.68254" lon="4.65544">
        <ele>356</ele>
        <time>2014-10-18T17:49:10.417Z</time>
      </trkpt>
      <trkpt lat="45.68261" lon="4.65537">
        <ele>356</ele>
        <time>2014-10-18T17:49:11.433Z</time>
      </trkpt>
      <trkpt lat="45.68268" lon="4.65533">
        <ele>356</ele>
        <time>2014-10-18T17:49:12.423Z</time>
      </trkpt>
      <trkpt lat="45.68274" lon="4.65526">
        <ele>356</ele>
        <time>2014-10-18T17:49:13.428Z</time>
      </trkpt>
      <trkpt lat="45.68283" lon="4.65524">
        <ele>356</ele>
        <time>2014-10-18T17:49:14.428Z</time>
      </trkpt>
      <trkpt lat="45.68289" lon="4.65522">
        <ele>356</ele>
        <time>2014-10-18T17:49:15.433Z</time>
      </trkpt>
      <trkpt lat="45.68294" lon="4.65516">
        <ele>356</ele>
        <time>2014-10-18T17:49:16.426Z</time>
      </trkpt>
      <trkpt lat="45.68298" lon="4.65511">
        <ele>356</ele>
        <time>2014-10-18T17:49:17.416Z</time>
      </trkpt>
      <trkpt lat="45.68295" lon="4.65503">
        <ele>356</ele>
        <time>2014-10-18T17:49:18.420Z</time>
      </trkpt>
      <trkpt lat="45.68292" lon="4.65496">
        <ele>358</ele>
        <time>2014-10-18T17:49:19.421Z</time>
      </trkpt>
      <trkpt lat="45.68288" lon="4.65494">
        <ele>358</ele>
        <time>2014-10-18T17:49:20.434Z</time>
      </trkpt>
      <trkpt lat="45.68279" lon="4.65492">
        <ele>358</ele>
        <time>2014-10-18T17:49:22.474Z</time>
      </trkpt>
      <trkpt lat="45.68273" lon="4.65492">
        <ele>357</ele>
        <time>2014-10-18T17:49:23.436Z</time>
      </trkpt>
      <trkpt lat="45.68268" lon="4.65492">
        <ele>357</ele>
        <time>2014-10-18T17:49:24.451Z</time>
      </trkpt>
      <trkpt lat="45.68262" lon="4.65492">
        <ele>357</ele>
        <time>2014-10-18T17:49:25.441Z</time>
      </trkpt>
      <trkpt lat="45.68258" lon="4.65494">
        <ele>356</ele>
        <time>2014-10-18T17:49:26.436Z</time>
      </trkpt>
      <trkpt lat="45.68251" lon="4.65494">
        <ele>356</ele>
        <time>2014-10-18T17:49:27.435Z</time>
      </trkpt>
      <trkpt lat="45.68243" lon="4.65494">
        <ele>357</ele>
        <time>2014-10-18T17:49:28.446Z</time>
      </trkpt>
      <trkpt lat="45.68235" lon="4.65496">
        <ele>357</ele>
        <time>2014-10-18T17:49:29.447Z</time>
      </trkpt>
      <trkpt lat="45.68231" lon="4.65496">
        <ele>358</ele>
        <time>2014-10-18T17:49:30.434Z</time>
      </trkpt>
      <trkpt lat="45.68226" lon="4.65496">
        <ele>358</ele>
        <time>2014-10-18T17:49:31.438Z</time>
      </trkpt>
      <trkpt lat="45.68217" lon="4.65496">
        <ele>358</ele>
        <time>2014-10-18T17:49:33.445Z</time>
      </trkpt>
      <trkpt lat="45.68213" lon="4.65494">
        <ele>359</ele>
        <time>2014-10-18T17:49:34.435Z</time>
      </trkpt>
      <trkpt lat="45.68204" lon="4.65494">
        <ele>359</ele>
        <time>2014-10-18T17:49:36.442Z</time>
      </trkpt>
      <trkpt lat="45.68201" lon="4.65492">
        <ele>359</ele>
        <time>2014-10-18T17:49:37.445Z</time>
      </trkpt>
      <trkpt lat="45.68192" lon="4.6549">
        <ele>359</ele>
        <time>2014-10-18T17:49:40.454Z</time>
      </trkpt>
      <trkpt lat="45.68189" lon="4.6549">
        <ele>359</ele>
        <time>2014-10-18T17:49:41.453Z</time>
      </trkpt>
      <trkpt lat="45.68183" lon="4.65492">
        <ele>358</ele>
        <time>2014-10-18T17:49:43.469Z</time>
      </trkpt>
      <trkpt lat="45.6818" lon="4.65494">
        <ele>358</ele>
        <time>2014-10-18T17:49:44.453Z</time>
      </trkpt>
      <trkpt lat="45.68172" lon="4.65501">
        <ele>356</ele>
        <time>2014-10-18T17:49:46.457Z</time>
      </trkpt>
      <trkpt lat="45.68169" lon="4.65503">
        <ele>356</ele>
        <time>2014-10-18T17:49:47.458Z</time>
      </trkpt>
      <trkpt lat="45.68162" lon="4.65509">
        <ele>355</ele>
        <time>2014-10-18T17:49:49.437Z</time>
      </trkpt>
      <trkpt lat="45.68158" lon="4.65513">
        <ele>354</ele>
        <time>2014-10-18T17:49:50.443Z</time>
      </trkpt>
      <trkpt lat="45.68154" lon="4.65518">
        <ele>354</ele>
        <time>2014-10-18T17:49:51.438Z</time>
      </trkpt>
      <trkpt lat="45.68151" lon="4.65522">
        <ele>353</ele>
        <time>2014-10-18T17:49:52.446Z</time>
      </trkpt>
      <trkpt lat="45.68146" lon="4.65528">
        <ele>353</ele>
        <time>2014-10-18T17:49:53.443Z</time>
      </trkpt>
      <trkpt lat="45.68142" lon="4.65533">
        <ele>352</ele>
        <time>2014-10-18T17:49:54.459Z</time>
      </trkpt>
      <trkpt lat="45.68138" lon="4.65539">
        <ele>352</ele>
        <time>2014-10-18T17:49:55.440Z</time>
      </trkpt>
      <trkpt lat="45.68132" lon="4.65541">
        <ele>352</ele>
        <time>2014-10-18T17:49:56.455Z</time>
      </trkpt>
      <trkpt lat="45.68126" lon="4.65544">
        <ele>351</ele>
        <time>2014-10-18T17:49:57.451Z</time>
      </trkpt>
      <trkpt lat="45.68122" lon="4.65537">
        <ele>352</ele>
        <time>2014-10-18T17:49:58.456Z</time>
      </trkpt>
      <trkpt lat="45.6812" lon="4.65531">
        <ele>352</ele>
        <time>2014-10-18T17:49:59.474Z</time>
      </trkpt>
      <trkpt lat="45.68117" lon="4.65524">
        <ele>352</ele>
        <time>2014-10-18T17:50:00.451Z</time>
      </trkpt>
      <trkpt lat="45.68115" lon="4.65518">
        <ele>352</ele>
        <time>2014-10-18T17:50:01.451Z</time>
      </trkpt>
      <trkpt lat="45.68114" lon="4.65511">
        <ele>352</ele>
        <time>2014-10-18T17:50:02.469Z</time>
      </trkpt>
      <trkpt lat="45.68113" lon="4.65505">
        <ele>352</ele>
        <time>2014-10-18T17:50:03.450Z</time>
      </trkpt>
      <trkpt lat="45.68112" lon="4.65498">
        <ele>356</ele>
        <time>2014-10-18T17:50:04.461Z</time>
      </trkpt>
      <trkpt lat="45.68109" lon="4.6549">
        <ele>356</ele>
        <time>2014-10-18T17:50:06.461Z</time>
      </trkpt>
      <trkpt lat="45.68108" lon="4.65486">
        <ele>356</ele>
        <time>2014-10-18T17:50:07.457Z</time>
      </trkpt>
      <trkpt lat="45.68106" lon="4.65477">
        <ele>356</ele>
        <time>2014-10-18T17:50:09.458Z</time>
      </trkpt>
      <trkpt lat="45.68105" lon="4.65473">
        <ele>356</ele>
        <time>2014-10-18T17:50:10.407Z</time>
      </trkpt>
      <trkpt lat="45.681" lon="4.65462">
        <ele>356</ele>
        <time>2014-10-18T17:50:13.462Z</time>
      </trkpt>
      <trkpt lat="45.68098" lon="4.6546">
        <ele>356</ele>
        <time>2014-10-18T17:50:14.440Z</time>
      </trkpt>
      <trkpt lat="45.68094" lon="4.65458">
        <ele>356</ele>
        <time>2014-10-18T17:50:15.445Z</time>
      </trkpt>
      <trkpt lat="45.68088" lon="4.65456">
        <ele>356</ele>
        <time>2014-10-18T17:50:16.452Z</time>
      </trkpt>
      <trkpt lat="45.68083" lon="4.65456">
        <ele>349</ele>
        <time>2014-10-18T17:50:17.453Z</time>
      </trkpt>
      <trkpt lat="45.68078" lon="4.65453">
        <ele>349</ele>
        <time>2014-10-18T17:50:18.455Z</time>
      </trkpt>
      <trkpt lat="45.68072" lon="4.65451">
        <ele>349</ele>
        <time>2014-10-18T17:50:19.440Z</time>
      </trkpt>
      <trkpt lat="45.68065" lon="4.65447">
        <ele>349</ele>
        <time>2014-10-18T17:50:20.422Z</time>
      </trkpt>
      <trkpt lat="45.68058" lon="4.65441">
        <ele>348</ele>
        <time>2014-10-18T17:50:21.428Z</time>
      </trkpt>
      <trkpt lat="45.68053" lon="4.65432">
        <ele>348</ele>
        <time>2014-10-18T17:50:22.426Z</time>
      </trkpt>
      <trkpt lat="45.68048" lon="4.65421">
        <ele>347</ele>
        <time>2014-10-18T17:50:23.429Z</time>
      </trkpt>
      <trkpt lat="45.6804" lon="4.65413">
        <ele>348</ele>
        <time>2014-10-18T17:50:24.437Z</time>
      </trkpt>
      <trkpt lat="45.68032" lon="4.65404">
        <ele>347</ele>
        <time>2014-10-18T17:50:25.423Z</time>
      </trkpt>
      <trkpt lat="45.68023" lon="4.65393">
        <ele>346</ele>
        <time>2014-10-18T17:50:26.415Z</time>
      </trkpt>
      <trkpt lat="45.68015" lon="4.65378">
        <ele>346</ele>
        <time>2014-10-18T17:50:27.426Z</time>
      </trkpt>
      <trkpt lat="45.6801" lon="4.65363">
        <ele>345</ele>
        <time>2014-10-18T17:50:28.426Z</time>
      </trkpt>
      <trkpt lat="45.68005" lon="4.65348">
        <ele>344</ele>
        <time>2014-10-18T17:50:29.426Z</time>
      </trkpt>
      <trkpt lat="45.67999" lon="4.65331">
        <ele>340</ele>
        <time>2014-10-18T17:50:30.440Z</time>
      </trkpt>
      <trkpt lat="45.67995" lon="4.65314">
        <ele>336</ele>
        <time>2014-10-18T17:50:31.429Z</time>
      </trkpt>
      <trkpt lat="45.67992" lon="4.65297">
        <ele>334</ele>
        <time>2014-10-18T17:50:32.419Z</time>
      </trkpt>
      <trkpt lat="45.67989" lon="4.6528">
        <ele>333</ele>
        <time>2014-10-18T17:50:33.435Z</time>
      </trkpt>
      <trkpt lat="45.67988" lon="4.65262">
        <ele>334</ele>
        <time>2014-10-18T17:50:34.430Z</time>
      </trkpt>
      <trkpt lat="45.67986" lon="4.65247">
        <ele>333</ele>
        <time>2014-10-18T17:50:35.425Z</time>
      </trkpt>
      <trkpt lat="45.67988" lon="4.65232">
        <ele>332</ele>
        <time>2014-10-18T17:50:36.431Z</time>
      </trkpt>
      <trkpt lat="45.67988" lon="4.65217">
        <ele>331</ele>
        <time>2014-10-18T17:50:37.428Z</time>
      </trkpt>
      <trkpt lat="45.67989" lon="4.65204">
        <ele>330</ele>
        <time>2014-10-18T17:50:38.427Z</time>
      </trkpt>
      <trkpt lat="45.6799" lon="4.65192">
        <ele>330</ele>
        <time>2014-10-18T17:50:39.427Z</time>
      </trkpt>
      <trkpt lat="45.67991" lon="4.65181">
        <ele>329</ele>
        <time>2014-10-18T17:50:40.425Z</time>
      </trkpt>
      <trkpt lat="45.67992" lon="4.6517">
        <ele>330</ele>
        <time>2014-10-18T17:50:41.419Z</time>
      </trkpt>
      <trkpt lat="45.67994" lon="4.65162">
        <ele>329</ele>
        <time>2014-10-18T17:50:42.426Z</time>
      </trkpt>
      <trkpt lat="45.67995" lon="4.65155">
        <ele>329</ele>
        <time>2014-10-18T17:50:43.430Z</time>
      </trkpt>
      <trkpt lat="45.67995" lon="4.65144">
        <ele>328</ele>
        <time>2014-10-18T17:50:46.443Z</time>
      </trkpt>
      <trkpt lat="45.67996" lon="4.65142">
        <ele>328</ele>
        <time>2014-10-18T17:50:47.425Z</time>
      </trkpt>
      <trkpt lat="45.67996" lon="4.65132">
        <ele>328</ele>
        <time>2014-10-18T17:55:20.441Z</time>
      </trkpt>
      <trkpt lat="45.67995" lon="4.65129">
        <ele>328</ele>
        <time>2014-10-18T17:55:21.423Z</time>
      </trkpt>
      <trkpt lat="45.67989" lon="4.65123">
        <ele>328</ele>
        <time>2014-10-18T17:55:25.428Z</time>
      </trkpt>
      <trkpt lat="45.67988" lon="4.65121">
        <ele>328</ele>
        <time>2014-10-18T17:55:26.431Z</time>
      </trkpt>
      <trkpt lat="45.6798" lon="4.65119">
        <ele>328</ele>
        <time>2014-10-18T17:55:57.433Z</time>
      </trkpt>
      <trkpt lat="45.67977" lon="4.65117">
        <ele>328</ele>
        <time>2014-10-18T17:55:58.430Z</time>
      </trkpt>
      <trkpt lat="45.67973" lon="4.6511">
        <ele>328</ele>
        <time>2014-10-18T17:56:00.432Z</time>
      </trkpt>
      <trkpt lat="45.6797" lon="4.65106">
        <ele>328</ele>
        <time>2014-10-18T17:56:01.417Z</time>
      </trkpt>
      <trkpt lat="45.67968" lon="4.65099">
        <ele>328</ele>
        <time>2014-10-18T17:56:02.411Z</time>
      </trkpt>
      <trkpt lat="45.67966" lon="4.65093">
        <ele>328</ele>
        <time>2014-10-18T17:56:03.408Z</time>
      </trkpt>
      <trkpt lat="45.67963" lon="4.65086">
        <ele>328</ele>
        <time>2014-10-18T17:56:04.404Z</time>
      </trkpt>
      <trkpt lat="45.67961" lon="4.65082">
        <ele>329</ele>
        <time>2014-10-18T17:56:05.414Z</time>
      </trkpt>
      <trkpt lat="45.67954" lon="4.65076">
        <ele>329</ele>
        <time>2014-10-18T17:56:06.411Z</time>
      </trkpt>
      <trkpt lat="45.67952" lon="4.65071">
        <ele>329</ele>
        <time>2014-10-18T17:56:07.412Z</time>
      </trkpt>
      <trkpt lat="45.67949" lon="4.65061">
        <ele>329</ele>
        <time>2014-10-18T17:56:09.415Z</time>
      </trkpt>
      <trkpt lat="45.67949" lon="4.65054">
        <ele>329</ele>
        <time>2014-10-18T17:56:10.403Z</time>
      </trkpt>
      <trkpt lat="45.67944" lon="4.65046">
        <ele>329</ele>
        <time>2014-10-18T17:56:12.412Z</time>
      </trkpt>
      <trkpt lat="45.67941" lon="4.65041">
        <ele>329</ele>
        <time>2014-10-18T17:56:13.422Z</time>
      </trkpt>
      <trkpt lat="45.67937" lon="4.65035">
        <ele>329</ele>
        <time>2014-10-18T17:56:15.403Z</time>
      </trkpt>
      <trkpt lat="45.67936" lon="4.65031">
        <ele>329</ele>
        <time>2014-10-18T17:56:16.426Z</time>
      </trkpt>
      <trkpt lat="45.67931" lon="4.65024">
        <ele>328</ele>
        <time>2014-10-18T17:56:18.394Z</time>
      </trkpt>
      <trkpt lat="45.67927" lon="4.6502">
        <ele>328</ele>
        <time>2014-10-18T17:56:19.401Z</time>
      </trkpt>
      <trkpt lat="45.67921" lon="4.65011">
        <ele>327</ele>
        <time>2014-10-18T17:56:21.395Z</time>
      </trkpt>
      <trkpt lat="45.67917" lon="4.65007">
        <ele>327</ele>
        <time>2014-10-18T17:56:22.390Z</time>
      </trkpt>
      <trkpt lat="45.67914" lon="4.65003">
        <ele>326</ele>
        <time>2014-10-18T17:56:23.392Z</time>
      </trkpt>
      <trkpt lat="45.6791" lon="4.64996">
        <ele>326</ele>
        <time>2014-10-18T17:56:24.397Z</time>
      </trkpt>
      <trkpt lat="45.67909" lon="4.6499">
        <ele>326</ele>
        <time>2014-10-18T17:56:25.386Z</time>
      </trkpt>
      <trkpt lat="45.67908" lon="4.64983">
        <ele>326</ele>
        <time>2014-10-18T17:56:26.405Z</time>
      </trkpt>
      <trkpt lat="45.67905" lon="4.64977">
        <ele>326</ele>
        <time>2014-10-18T17:56:27.415Z</time>
      </trkpt>
      <trkpt lat="45.67901" lon="4.64973">
        <ele>326</ele>
        <time>2014-10-18T17:56:28.411Z</time>
      </trkpt>
      <trkpt lat="45.67896" lon="4.64968">
        <ele>326</ele>
        <time>2014-10-18T17:56:29.423Z</time>
      </trkpt>
      <trkpt lat="45.67895" lon="4.64962">
        <ele>326</ele>
        <time>2014-10-18T17:56:30.421Z</time>
      </trkpt>
      <trkpt lat="45.6789" lon="4.64953">
        <ele>326</ele>
        <time>2014-10-18T17:56:32.420Z</time>
      </trkpt>
      <trkpt lat="45.67887" lon="4.64947">
        <ele>326</ele>
        <time>2014-10-18T17:56:33.418Z</time>
      </trkpt>
      <trkpt lat="45.67885" lon="4.64941">
        <ele>326</ele>
        <time>2014-10-18T17:56:34.434Z</time>
      </trkpt>
      <trkpt lat="45.67882" lon="4.64934">
        <ele>326</ele>
        <time>2014-10-18T17:56:35.434Z</time>
      </trkpt>
      <trkpt lat="45.67878" lon="4.64923">
        <ele>326</ele>
        <time>2014-10-18T17:56:37.428Z</time>
      </trkpt>
      <trkpt lat="45.67876" lon="4.64919">
        <ele>326</ele>
        <time>2014-10-18T17:56:38.434Z</time>
      </trkpt>
      <trkpt lat="45.67872" lon="4.64908">
        <ele>327</ele>
        <time>2014-10-18T17:56:40.435Z</time>
      </trkpt>
      <trkpt lat="45.6787" lon="4.64904">
        <ele>327</ele>
        <time>2014-10-18T17:56:41.433Z</time>
      </trkpt>
      <trkpt lat="45.67868" lon="4.64898">
        <ele>327</ele>
        <time>2014-10-18T17:56:42.432Z</time>
      </trkpt>
      <trkpt lat="45.67867" lon="4.64891">
        <ele>327</ele>
        <time>2014-10-18T17:56:43.441Z</time>
      </trkpt>
      <trkpt lat="45.67867" lon="4.6488">
        <ele>327</ele>
        <time>2014-10-18T17:56:45.441Z</time>
      </trkpt>
      <trkpt lat="45.67867" lon="4.64876">
        <ele>327</ele>
        <time>2014-10-18T17:56:46.429Z</time>
      </trkpt>
      <trkpt lat="45.67868" lon="4.64865">
        <ele>328</ele>
        <time>2014-10-18T17:56:48.430Z</time>
      </trkpt>
      <trkpt lat="45.67868" lon="4.64859">
        <ele>328</ele>
        <time>2014-10-18T17:56:49.431Z</time>
      </trkpt>
      <trkpt lat="45.67868" lon="4.6485">
        <ele>328</ele>
        <time>2014-10-18T17:56:50.430Z</time>
      </trkpt>
      <trkpt lat="45.67868" lon="4.64844">
        <ele>328</ele>
        <time>2014-10-18T17:56:51.425Z</time>
      </trkpt>
      <trkpt lat="45.6787" lon="4.64833">
        <ele>329</ele>
        <time>2014-10-18T17:56:53.423Z</time>
      </trkpt>
      <trkpt lat="45.67871" lon="4.64829">
        <ele>329</ele>
        <time>2014-10-18T17:56:54.444Z</time>
      </trkpt>
      <trkpt lat="45.67871" lon="4.64823">
        <ele>329</ele>
        <time>2014-10-18T17:56:55.421Z</time>
      </trkpt>
      <trkpt lat="45.67872" lon="4.64816">
        <ele>329</ele>
        <time>2014-10-18T17:56:56.420Z</time>
      </trkpt>
      <trkpt lat="45.67871" lon="4.64805">
        <ele>329</ele>
        <time>2014-10-18T17:56:58.424Z</time>
      </trkpt>
      <trkpt lat="45.6787" lon="4.64801">
        <ele>329</ele>
        <time>2014-10-18T17:56:59.435Z</time>
      </trkpt>
      <trkpt lat="45.6787" lon="4.6479">
        <ele>330</ele>
        <time>2014-10-18T17:57:01.424Z</time>
      </trkpt>
      <trkpt lat="45.67868" lon="4.64786">
        <ele>330</ele>
        <time>2014-10-18T17:57:02.420Z</time>
      </trkpt>
      <trkpt lat="45.67868" lon="4.64777">
        <ele>330</ele>
        <time>2014-10-18T17:57:03.472Z</time>
      </trkpt>
      <trkpt lat="45.67867" lon="4.64773">
        <ele>330</ele>
        <time>2014-10-18T17:57:04.431Z</time>
      </trkpt>
      <trkpt lat="45.67867" lon="4.64762">
        <ele>330</ele>
        <time>2014-10-18T17:57:06.427Z</time>
      </trkpt>
      <trkpt lat="45.67867" lon="4.64756">
        <ele>330</ele>
        <time>2014-10-18T17:57:07.432Z</time>
      </trkpt>
      <trkpt lat="45.6787" lon="4.64745">
        <ele>330</ele>
        <time>2014-10-18T17:57:09.432Z</time>
      </trkpt>
      <trkpt lat="45.6787" lon="4.64741">
        <ele>330</ele>
        <time>2014-10-18T17:57:10.430Z</time>
      </trkpt>
      <trkpt lat="45.67871" lon="4.6473">
        <ele>330</ele>
        <time>2014-10-18T17:57:12.428Z</time>
      </trkpt>
      <trkpt lat="45.67871" lon="4.64724">
        <ele>330</ele>
        <time>2014-10-18T17:57:13.430Z</time>
      </trkpt>
      <trkpt lat="45.67871" lon="4.64717">
        <ele>330</ele>
        <time>2014-10-18T17:57:14.434Z</time>
      </trkpt>
      <trkpt lat="45.67871" lon="4.64711">
        <ele>330</ele>
        <time>2014-10-18T17:57:15.439Z</time>
      </trkpt>
      <trkpt lat="45.67871" lon="4.64705">
        <ele>330</ele>
        <time>2014-10-18T17:57:16.454Z</time>
      </trkpt>
      <trkpt lat="45.67872" lon="4.64698">
        <ele>330</ele>
        <time>2014-10-18T17:57:17.436Z</time>
      </trkpt>
      <trkpt lat="45.67873" lon="4.64687">
        <ele>330</ele>
        <time>2014-10-18T17:57:19.435Z</time>
      </trkpt>
      <trkpt lat="45.67873" lon="4.64681">
        <ele>330</ele>
        <time>2014-10-18T17:57:20.429Z</time>
      </trkpt>
      <trkpt lat="45.67873" lon="4.64674">
        <ele>331</ele>
        <time>2014-10-18T17:57:21.433Z</time>
      </trkpt>
      <trkpt lat="45.67874" lon="4.64668">
        <ele>330</ele>
        <time>2014-10-18T17:57:22.431Z</time>
      </trkpt>
      <trkpt lat="45.67876" lon="4.64657">
        <ele>332</ele>
        <time>2014-10-18T17:57:24.436Z</time>
      </trkpt>
      <trkpt lat="45.67877" lon="4.64653">
        <ele>332</ele>
        <time>2014-10-18T17:57:25.431Z</time>
      </trkpt>
      <trkpt lat="45.67877" lon="4.64642">
        <ele>332</ele>
        <time>2014-10-18T17:57:27.415Z</time>
      </trkpt>
      <trkpt lat="45.67877" lon="4.64638">
        <ele>332</ele>
        <time>2014-10-18T17:57:28.418Z</time>
      </trkpt>
      <trkpt lat="45.67878" lon="4.64627">
        <ele>332</ele>
        <time>2014-10-18T17:57:30.430Z</time>
      </trkpt>
      <trkpt lat="45.67878" lon="4.64623">
        <ele>332</ele>
        <time>2014-10-18T17:57:31.433Z</time>
      </trkpt>
      <trkpt lat="45.67878" lon="4.64612">
        <ele>333</ele>
        <time>2014-10-18T17:57:33.429Z</time>
      </trkpt>
      <trkpt lat="45.67877" lon="4.64608">
        <ele>333</ele>
        <time>2014-10-18T17:57:34.425Z</time>
      </trkpt>
      <trkpt lat="45.67876" lon="4.64602">
        <ele>333</ele>
        <time>2014-10-18T17:57:35.428Z</time>
      </trkpt>
      <trkpt lat="45.67874" lon="4.64595">
        <ele>333</ele>
        <time>2014-10-18T17:57:36.470Z</time>
      </trkpt>
      <trkpt lat="45.67873" lon="4.64586">
        <ele>333</ele>
        <time>2014-10-18T17:57:38.437Z</time>
      </trkpt>
      <trkpt lat="45.67873" lon="4.64582">
        <ele>336</ele>
        <time>2014-10-18T17:57:39.431Z</time>
      </trkpt>
      <trkpt lat="45.67874" lon="4.64571">
        <ele>336</ele>
        <time>2014-10-18T17:57:41.432Z</time>
      </trkpt>
      <trkpt lat="45.67874" lon="4.64565">
        <ele>336</ele>
        <time>2014-10-18T17:57:42.428Z</time>
      </trkpt>
      <trkpt lat="45.67874" lon="4.64554">
        <ele>336</ele>
        <time>2014-10-18T17:57:44.423Z</time>
      </trkpt>
      <trkpt lat="45.67874" lon="4.64548">
        <ele>336</ele>
        <time>2014-10-18T17:57:45.425Z</time>
      </trkpt>
      <trkpt lat="45.67878" lon="4.64537">
        <ele>336</ele>
        <time>2014-10-18T17:57:47.427Z</time>
      </trkpt>
      <trkpt lat="45.67879" lon="4.64531">
        <ele>336</ele>
        <time>2014-10-18T17:57:48.425Z</time>
      </trkpt>
      <trkpt lat="45.67883" lon="4.64522">
        <ele>336</ele>
        <time>2014-10-18T17:57:50.425Z</time>
      </trkpt>
      <trkpt lat="45.67885" lon="4.64516">
        <ele>336</ele>
        <time>2014-10-18T17:57:51.428Z</time>
      </trkpt>
      <trkpt lat="45.67879" lon="4.64509">
        <ele>336</ele>
        <time>2014-10-18T17:57:56.426Z</time>
      </trkpt>
      <trkpt lat="45.67876" lon="4.64511">
        <ele>336</ele>
        <time>2014-10-18T17:57:57.428Z</time>
      </trkpt>
      <trkpt lat="45.67871" lon="4.6452">
        <ele>337</ele>
        <time>2014-10-18T17:58:00.432Z</time>
      </trkpt>
      <trkpt lat="45.67868" lon="4.64524">
        <ele>337</ele>
        <time>2014-10-18T17:58:01.428Z</time>
      </trkpt>
      <trkpt lat="45.67863" lon="4.64531">
        <ele>337</ele>
        <time>2014-10-18T17:58:04.426Z</time>
      </trkpt>
      <trkpt lat="45.67862" lon="4.64535">
        <ele>337</ele>
        <time>2014-10-18T17:58:05.421Z</time>
      </trkpt>
      <trkpt lat="45.67857" lon="4.64544">
        <ele>337</ele>
        <time>2014-10-18T17:58:09.465Z</time>
      </trkpt>
      <trkpt lat="45.67855" lon="4.64548">
        <ele>337</ele>
        <time>2014-10-18T17:58:10.434Z</time>
      </trkpt>
      <trkpt lat="45.67848" lon="4.64554">
        <ele>337</ele>
        <time>2014-10-18T17:58:14.429Z</time>
      </trkpt>
      <trkpt lat="45.67846" lon="4.64556">
        <ele>338</ele>
        <time>2014-10-18T17:58:15.436Z</time>
      </trkpt>
      <trkpt lat="45.6784" lon="4.64565">
        <ele>338</ele>
        <time>2014-10-18T17:58:21.430Z</time>
      </trkpt>
      <trkpt lat="45.67838" lon="4.64567">
        <ele>338</ele>
        <time>2014-10-18T17:58:22.425Z</time>
      </trkpt>
      <trkpt lat="45.67831" lon="4.64563">
        <ele>343</ele>
        <time>2014-10-18T17:58:28.430Z</time>
      </trkpt>
      <trkpt lat="45.6783" lon="4.64561">
        <ele>343</ele>
        <time>2014-10-18T17:58:29.434Z</time>
      </trkpt>
      <trkpt lat="45.67826" lon="4.6455">
        <ele>343</ele>
        <time>2014-10-18T17:58:33.439Z</time>
      </trkpt>
      <trkpt lat="45.67824" lon="4.64546">
        <ele>344</ele>
        <time>2014-10-18T17:58:34.431Z</time>
      </trkpt>
      <trkpt lat="45.67823" lon="4.64535">
        <ele>344</ele>
        <time>2014-10-18T17:58:38.433Z</time>
      </trkpt>
      <trkpt lat="45.67822" lon="4.64533">
        <ele>344</ele>
        <time>2014-10-18T17:58:39.435Z</time>
      </trkpt>
      <trkpt lat="45.67821" lon="4.64522">
        <ele>344</ele>
        <time>2014-10-18T17:58:45.433Z</time>
      </trkpt>
      <trkpt lat="45.67821" lon="4.6452">
        <ele>344</ele>
        <time>2014-10-18T17:58:46.433Z</time>
      </trkpt>
      <trkpt lat="45.67821" lon="4.64507">
        <ele>344</ele>
        <time>2014-10-18T17:58:51.423Z</time>
      </trkpt>
      <trkpt lat="45.67821" lon="4.64505">
        <ele>344</ele>
        <time>2014-10-18T17:58:52.400Z</time>
      </trkpt>
      <trkpt lat="45.67822" lon="4.64496">
        <ele>345</ele>
        <time>2014-10-18T17:58:55.406Z</time>
      </trkpt>
      <trkpt lat="45.67822" lon="4.64492">
        <ele>345</ele>
        <time>2014-10-18T17:58:56.408Z</time>
      </trkpt>
      <trkpt lat="45.67824" lon="4.64481">
        <ele>345</ele>
        <time>2014-10-18T17:58:59.420Z</time>
      </trkpt>
      <trkpt lat="45.67824" lon="4.64479">
        <ele>345</ele>
        <time>2014-10-18T17:59:00.416Z</time>
      </trkpt>
      <trkpt lat="45.67823" lon="4.64468">
        <ele>346</ele>
        <time>2014-10-18T17:59:03.422Z</time>
      </trkpt>
      <trkpt lat="45.67823" lon="4.64464">
        <ele>346</ele>
        <time>2014-10-18T17:59:04.438Z</time>
      </trkpt>
      <trkpt lat="45.67818" lon="4.64458">
        <ele>346</ele>
        <time>2014-10-18T17:59:07.432Z</time>
      </trkpt>
      <trkpt lat="45.67816" lon="4.64456">
        <ele>346</ele>
        <time>2014-10-18T17:59:08.431Z</time>
      </trkpt>
      <trkpt lat="45.67808" lon="4.64453">
        <ele>346</ele>
        <time>2014-10-18T17:59:11.430Z</time>
      </trkpt>
      <trkpt lat="45.67806" lon="4.64451">
        <ele>347</ele>
        <time>2014-10-18T17:59:12.436Z</time>
      </trkpt>
      <trkpt lat="45.67798" lon="4.64449">
        <ele>347</ele>
        <time>2014-10-18T17:59:16.418Z</time>
      </trkpt>
      <trkpt lat="45.67794" lon="4.64449">
        <ele>347</ele>
        <time>2014-10-18T17:59:17.417Z</time>
      </trkpt>
      <trkpt lat="45.67787" lon="4.64447">
        <ele>348</ele>
        <time>2014-10-18T17:59:20.433Z</time>
      </trkpt>
      <trkpt lat="45.67784" lon="4.64447">
        <ele>348</ele>
        <time>2014-10-18T17:59:21.433Z</time>
      </trkpt>
      <trkpt lat="45.67777" lon="4.64443">
        <ele>348</ele>
        <time>2014-10-18T17:59:24.441Z</time>
      </trkpt>
      <trkpt lat="45.67775" lon="4.64443">
        <ele>348</ele>
        <time>2014-10-18T17:59:25.421Z</time>
      </trkpt>
      <trkpt lat="45.67769" lon="4.64438">
        <ele>349</ele>
        <time>2014-10-18T17:59:28.432Z</time>
      </trkpt>
      <trkpt lat="45.67767" lon="4.64438">
        <ele>349</ele>
        <time>2014-10-18T17:59:29.433Z</time>
      </trkpt>
      <trkpt lat="45.67759" lon="4.64438">
        <ele>350</ele>
        <time>2014-10-18T17:59:33.431Z</time>
      </trkpt>
      <trkpt lat="45.67757" lon="4.64438">
        <ele>350</ele>
        <time>2014-10-18T17:59:34.435Z</time>
      </trkpt>
      <trkpt lat="45.67749" lon="4.64436">
        <ele>353</ele>
        <time>2014-10-18T17:59:37.419Z</time>
      </trkpt>
      <trkpt lat="45.67747" lon="4.64434">
        <ele>353</ele>
        <time>2014-10-18T17:59:38.417Z</time>
      </trkpt>
      <trkpt lat="45.67739" lon="4.64436">
        <ele>353</ele>
        <time>2014-10-18T17:59:42.415Z</time>
      </trkpt>
      <trkpt lat="45.67738" lon="4.64434">
        <ele>353</ele>
        <time>2014-10-18T17:59:43.416Z</time>
      </trkpt>
      <trkpt lat="45.6773" lon="4.64436">
        <ele>353</ele>
        <time>2014-10-18T17:59:47.418Z</time>
      </trkpt>
      <trkpt lat="45.67728" lon="4.64436">
        <ele>353</ele>
        <time>2014-10-18T17:59:48.415Z</time>
      </trkpt>
      <trkpt lat="45.6772" lon="4.64441">
        <ele>353</ele>
        <time>2014-10-18T17:59:53.426Z</time>
      </trkpt>
      <trkpt lat="45.67718" lon="4.64441">
        <ele>353</ele>
        <time>2014-10-18T17:59:54.416Z</time>
      </trkpt>
      <trkpt lat="45.67712" lon="4.64443">
        <ele>353</ele>
        <time>2014-10-18T17:59:57.416Z</time>
      </trkpt>
      <trkpt lat="45.67709" lon="4.64443">
        <ele>353</ele>
        <time>2014-10-18T17:59:58.422Z</time>
      </trkpt>
      <trkpt lat="45.67701" lon="4.64443">
        <ele>353</ele>
        <time>2014-10-18T18:00:03.467Z</time>
      </trkpt>
      <trkpt lat="45.67699" lon="4.64441">
        <ele>353</ele>
        <time>2014-10-18T18:00:04.443Z</time>
      </trkpt>
      <trkpt lat="45.67691" lon="4.64436">
        <ele>354</ele>
        <time>2014-10-18T18:00:07.433Z</time>
      </trkpt>
      <trkpt lat="45.67689" lon="4.64432">
        <ele>354</ele>
        <time>2014-10-18T18:00:08.432Z</time>
      </trkpt>
      <trkpt lat="45.67685" lon="4.64421">
        <ele>355</ele>
        <time>2014-10-18T18:00:12.433Z</time>
      </trkpt>
      <trkpt lat="45.67684" lon="4.64419">
        <ele>355</ele>
        <time>2014-10-18T18:00:13.429Z</time>
      </trkpt>
      <trkpt lat="45.6768" lon="4.64411">
        <ele>356</ele>
        <time>2014-10-18T18:00:16.433Z</time>
      </trkpt>
      <trkpt lat="45.67679" lon="4.64406">
        <ele>356</ele>
        <time>2014-10-18T18:00:17.432Z</time>
      </trkpt>
      <trkpt lat="45.67676" lon="4.64398">
        <ele>356</ele>
        <time>2014-10-18T18:00:20.439Z</time>
      </trkpt>
      <trkpt lat="45.67675" lon="4.64393">
        <ele>356</ele>
        <time>2014-10-18T18:00:21.433Z</time>
      </trkpt>
      <trkpt lat="45.67673" lon="4.64383">
        <ele>356</ele>
        <time>2014-10-18T18:00:25.430Z</time>
      </trkpt>
      <trkpt lat="45.67672" lon="4.64381">
        <ele>356</ele>
        <time>2014-10-18T18:00:26.419Z</time>
      </trkpt>
      <trkpt lat="45.67668" lon="4.6437">
        <ele>357</ele>
        <time>2014-10-18T18:00:29.416Z</time>
      </trkpt>
      <trkpt lat="45.67667" lon="4.64368">
        <ele>357</ele>
        <time>2014-10-18T18:00:30.420Z</time>
      </trkpt>
      <trkpt lat="45.67667" lon="4.64357">
        <ele>357</ele>
        <time>2014-10-18T18:00:33.415Z</time>
      </trkpt>
      <trkpt lat="45.67667" lon="4.64355">
        <ele>357</ele>
        <time>2014-10-18T18:00:34.417Z</time>
      </trkpt>
      <trkpt lat="45.67665" lon="4.64344">
        <ele>359</ele>
        <time>2014-10-18T18:00:37.433Z</time>
      </trkpt>
      <trkpt lat="45.67664" lon="4.6434">
        <ele>359</ele>
        <time>2014-10-18T18:00:38.430Z</time>
      </trkpt>
      <trkpt lat="45.67659" lon="4.64329">
        <ele>359</ele>
        <time>2014-10-18T18:00:42.415Z</time>
      </trkpt>
      <trkpt lat="45.67657" lon="4.64325">
        <ele>359</ele>
        <time>2014-10-18T18:00:43.418Z</time>
      </trkpt>
      <trkpt lat="45.67652" lon="4.64316">
        <ele>360</ele>
        <time>2014-10-18T18:00:46.445Z</time>
      </trkpt>
      <trkpt lat="45.6765" lon="4.64314">
        <ele>360</ele>
        <time>2014-10-18T18:00:47.434Z</time>
      </trkpt>
      <trkpt lat="45.67643" lon="4.64305">
        <ele>360</ele>
        <time>2014-10-18T18:00:50.433Z</time>
      </trkpt>
      <trkpt lat="45.67642" lon="4.64303">
        <ele>360</ele>
        <time>2014-10-18T18:00:51.432Z</time>
      </trkpt>
      <trkpt lat="45.67638" lon="4.64295">
        <ele>360</ele>
        <time>2014-10-18T18:00:54.425Z</time>
      </trkpt>
      <trkpt lat="45.67636" lon="4.64293">
        <ele>360</ele>
        <time>2014-10-18T18:00:55.417Z</time>
      </trkpt>
      <trkpt lat="45.6763" lon="4.64284">
        <ele>360</ele>
        <time>2014-10-18T18:00:58.422Z</time>
      </trkpt>
      <trkpt lat="45.67628" lon="4.64282">
        <ele>360</ele>
        <time>2014-10-18T18:00:59.460Z</time>
      </trkpt>
      <trkpt lat="45.67622" lon="4.64273">
        <ele>360</ele>
        <time>2014-10-18T18:01:02.430Z</time>
      </trkpt>
      <trkpt lat="45.6762" lon="4.64273">
        <ele>360</ele>
        <time>2014-10-18T18:01:03.433Z</time>
      </trkpt>
      <trkpt lat="45.67613" lon="4.64267">
        <ele>360</ele>
        <time>2014-10-18T18:01:06.433Z</time>
      </trkpt>
      <trkpt lat="45.67611" lon="4.64267">
        <ele>360</ele>
        <time>2014-10-18T18:01:07.417Z</time>
      </trkpt>
      <trkpt lat="45.67603" lon="4.64262">
        <ele>361</ele>
        <time>2014-10-18T18:01:11.411Z</time>
      </trkpt>
      <trkpt lat="45.676" lon="4.64262">
        <ele>361</ele>
        <time>2014-10-18T18:01:12.407Z</time>
      </trkpt>
      <trkpt lat="45.67592" lon="4.64262">
        <ele>361</ele>
        <time>2014-10-18T18:01:15.414Z</time>
      </trkpt>
      <trkpt lat="45.67588" lon="4.64262">
        <ele>361</ele>
        <time>2014-10-18T18:01:16.416Z</time>
      </trkpt>
      <trkpt lat="45.67581" lon="4.64256">
        <ele>362</ele>
        <time>2014-10-18T18:01:19.414Z</time>
      </trkpt>
      <trkpt lat="45.67581" lon="4.64254">
        <ele>362</ele>
        <time>2014-10-18T18:01:20.435Z</time>
      </trkpt>
      <trkpt lat="45.67582" lon="4.64245">
        <ele>362</ele>
        <time>2014-10-18T18:01:23.429Z</time>
      </trkpt>
      <trkpt lat="45.67582" lon="4.64241">
        <ele>363</ele>
        <time>2014-10-18T18:01:24.418Z</time>
      </trkpt>
      <trkpt lat="45.67584" lon="4.64232">
        <ele>361</ele>
        <time>2014-10-18T18:01:27.424Z</time>
      </trkpt>
      <trkpt lat="45.67584" lon="4.64228">
        <ele>361</ele>
        <time>2014-10-18T18:01:28.416Z</time>
      </trkpt>
      <trkpt lat="45.67584" lon="4.64215">
        <ele>360</ele>
        <time>2014-10-18T18:01:32.417Z</time>
      </trkpt>
      <trkpt lat="45.67584" lon="4.64213">
        <ele>360</ele>
        <time>2014-10-18T18:01:33.417Z</time>
      </trkpt>
      <trkpt lat="45.67588" lon="4.64202">
        <ele>360</ele>
        <time>2014-10-18T18:01:36.421Z</time>
      </trkpt>
      <trkpt lat="45.67588" lon="4.64198">
        <ele>360</ele>
        <time>2014-10-18T18:01:37.418Z</time>
      </trkpt>
      <trkpt lat="45.67591" lon="4.6419">
        <ele>360</ele>
        <time>2014-10-18T18:01:39.428Z</time>
      </trkpt>
      <trkpt lat="45.67591" lon="4.64185">
        <ele>361</ele>
        <time>2014-10-18T18:01:40.429Z</time>
      </trkpt>
      <trkpt lat="45.67594" lon="4.64177">
        <ele>361</ele>
        <time>2014-10-18T18:01:43.431Z</time>
      </trkpt>
      <trkpt lat="45.67595" lon="4.64172">
        <ele>361</ele>
        <time>2014-10-18T18:01:44.430Z</time>
      </trkpt>
      <trkpt lat="45.67598" lon="4.64164">
        <ele>361</ele>
        <time>2014-10-18T18:01:47.430Z</time>
      </trkpt>
      <trkpt lat="45.67599" lon="4.64159">
        <ele>361</ele>
        <time>2014-10-18T18:01:48.433Z</time>
      </trkpt>
      <trkpt lat="45.67598" lon="4.64149">
        <ele>361</ele>
        <time>2014-10-18T18:01:52.425Z</time>
      </trkpt>
      <trkpt lat="45.67597" lon="4.64144">
        <ele>361</ele>
        <time>2014-10-18T18:01:53.434Z</time>
      </trkpt>
      <trkpt lat="45.67595" lon="4.64134">
        <ele>362</ele>
        <time>2014-10-18T18:01:56.428Z</time>
      </trkpt>
      <trkpt lat="45.67594" lon="4.64129">
        <ele>362</ele>
        <time>2014-10-18T18:01:57.444Z</time>
      </trkpt>
      <trkpt lat="45.67592" lon="4.64121">
        <ele>362</ele>
        <time>2014-10-18T18:02:00.426Z</time>
      </trkpt>
      <trkpt lat="45.6759" lon="4.64117">
        <ele>363</ele>
        <time>2014-10-18T18:02:01.429Z</time>
      </trkpt>
      <trkpt lat="45.67587" lon="4.64108">
        <ele>364</ele>
        <time>2014-10-18T18:02:04.425Z</time>
      </trkpt>
      <trkpt lat="45.67586" lon="4.64104">
        <ele>364</ele>
        <time>2014-10-18T18:02:05.431Z</time>
      </trkpt>
      <trkpt lat="45.67582" lon="4.64093">
        <ele>368</ele>
        <time>2014-10-18T18:02:09.432Z</time>
      </trkpt>
      <trkpt lat="45.67582" lon="4.64089">
        <ele>368</ele>
        <time>2014-10-18T18:02:10.434Z</time>
      </trkpt>
      <trkpt lat="45.67578" lon="4.64078">
        <ele>369</ele>
        <time>2014-10-18T18:02:14.430Z</time>
      </trkpt>
      <trkpt lat="45.67578" lon="4.64076">
        <ele>370</ele>
        <time>2014-10-18T18:02:15.431Z</time>
      </trkpt>
      <trkpt lat="45.67573" lon="4.64065">
        <ele>371</ele>
        <time>2014-10-18T18:02:20.430Z</time>
      </trkpt>
      <trkpt lat="45.67572" lon="4.64061">
        <ele>371</ele>
        <time>2014-10-18T18:02:21.430Z</time>
      </trkpt>
      <trkpt lat="45.67571" lon="4.6405">
        <ele>372</ele>
        <time>2014-10-18T18:02:25.430Z</time>
      </trkpt>
      <trkpt lat="45.6757" lon="4.64048">
        <ele>372</ele>
        <time>2014-10-18T18:02:26.433Z</time>
      </trkpt>
      <trkpt lat="45.67567" lon="4.64037">
        <ele>372</ele>
        <time>2014-10-18T18:02:31.428Z</time>
      </trkpt>
      <trkpt lat="45.67566" lon="4.64035">
        <ele>372</ele>
        <time>2014-10-18T18:02:32.430Z</time>
      </trkpt>
      <trkpt lat="45.67562" lon="4.64026">
        <ele>373</ele>
        <time>2014-10-18T18:02:35.428Z</time>
      </trkpt>
      <trkpt lat="45.67561" lon="4.64024">
        <ele>373</ele>
        <time>2014-10-18T18:02:36.426Z</time>
      </trkpt>
      <trkpt lat="45.67557" lon="4.64014">
        <ele>373</ele>
        <time>2014-10-18T18:02:41.431Z</time>
      </trkpt>
      <trkpt lat="45.67556" lon="4.64011">
        <ele>373</ele>
        <time>2014-10-18T18:02:42.427Z</time>
      </trkpt>
      <trkpt lat="45.67553" lon="4.64001">
        <ele>373</ele>
        <time>2014-10-18T18:02:45.416Z</time>
      </trkpt>
      <trkpt lat="45.67553" lon="4.63999">
        <ele>375</ele>
        <time>2014-10-18T18:02:46.413Z</time>
      </trkpt>
      <trkpt lat="45.67551" lon="4.63988">
        <ele>376</ele>
        <time>2014-10-18T18:02:50.415Z</time>
      </trkpt>
      <trkpt lat="45.6755" lon="4.63986">
        <ele>376</ele>
        <time>2014-10-18T18:02:51.427Z</time>
      </trkpt>
      <trkpt lat="45.67547" lon="4.63977">
        <ele>376</ele>
        <time>2014-10-18T18:02:55.427Z</time>
      </trkpt>
      <trkpt lat="45.67546" lon="4.63973">
        <ele>376</ele>
        <time>2014-10-18T18:02:56.432Z</time>
      </trkpt>
      <trkpt lat="45.67542" lon="4.63962">
        <ele>376</ele>
        <time>2014-10-18T18:03:01.430Z</time>
      </trkpt>
      <trkpt lat="45.6754" lon="4.6396">
        <ele>377</ele>
        <time>2014-10-18T18:03:02.431Z</time>
      </trkpt>
      <trkpt lat="45.67533" lon="4.63956">
        <ele>377</ele>
        <time>2014-10-18T18:03:06.434Z</time>
      </trkpt>
      <trkpt lat="45.67531" lon="4.63953">
        <ele>377</ele>
        <time>2014-10-18T18:03:07.428Z</time>
      </trkpt>
      <trkpt lat="45.67523" lon="4.63947">
        <ele>378</ele>
        <time>2014-10-18T18:03:11.425Z</time>
      </trkpt>
      <trkpt lat="45.67522" lon="4.63945">
        <ele>378</ele>
        <time>2014-10-18T18:03:12.431Z</time>
      </trkpt>
      <trkpt lat="45.67515" lon="4.63936">
        <ele>379</ele>
        <time>2014-10-18T18:03:16.439Z</time>
      </trkpt>
      <trkpt lat="45.67514" lon="4.63934">
        <ele>379</ele>
        <time>2014-10-18T18:03:17.443Z</time>
      </trkpt>
      <trkpt lat="45.67509" lon="4.63926">
        <ele>380</ele>
        <time>2014-10-18T18:03:20.428Z</time>
      </trkpt>
      <trkpt lat="45.67508" lon="4.63923">
        <ele>380</ele>
        <time>2014-10-18T18:03:21.433Z</time>
      </trkpt>
      <trkpt lat="45.67502" lon="4.63915">
        <ele>381</ele>
        <time>2014-10-18T18:03:25.429Z</time>
      </trkpt>
      <trkpt lat="45.67499" lon="4.63913">
        <ele>382</ele>
        <time>2014-10-18T18:03:26.429Z</time>
      </trkpt>
      <trkpt lat="45.67494" lon="4.63904">
        <ele>383</ele>
        <time>2014-10-18T18:03:31.427Z</time>
      </trkpt>
      <trkpt lat="45.67492" lon="4.63902">
        <ele>383</ele>
        <time>2014-10-18T18:03:32.429Z</time>
      </trkpt>
      <trkpt lat="45.67484" lon="4.63896">
        <ele>383</ele>
        <time>2014-10-18T18:03:36.453Z</time>
      </trkpt>
      <trkpt lat="45.67483" lon="4.63891">
        <ele>383</ele>
        <time>2014-10-18T18:03:37.427Z</time>
      </trkpt>
      <trkpt lat="45.67476" lon="4.63885">
        <ele>384</ele>
        <time>2014-10-18T18:03:41.443Z</time>
      </trkpt>
      <trkpt lat="45.67475" lon="4.63883">
        <ele>384</ele>
        <time>2014-10-18T18:03:42.433Z</time>
      </trkpt>
      <trkpt lat="45.67468" lon="4.63874">
        <ele>384</ele>
        <time>2014-10-18T18:03:47.412Z</time>
      </trkpt>
      <trkpt lat="45.67466" lon="4.63872">
        <ele>384</ele>
        <time>2014-10-18T18:03:48.414Z</time>
      </trkpt>
      <trkpt lat="45.67459" lon="4.63868">
        <ele>384</ele>
        <time>2014-10-18T18:03:52.410Z</time>
      </trkpt>
      <trkpt lat="45.67456" lon="4.63866">
        <ele>384</ele>
        <time>2014-10-18T18:03:53.413Z</time>
      </trkpt>
      <trkpt lat="45.67449" lon="4.63859">
        <ele>385</ele>
        <time>2014-10-18T18:03:57.408Z</time>
      </trkpt>
      <trkpt lat="45.67447" lon="4.63857">
        <ele>385</ele>
        <time>2014-10-18T18:03:58.412Z</time>
      </trkpt>
      <trkpt lat="45.6744" lon="4.63848">
        <ele>385</ele>
        <time>2014-10-18T18:04:02.417Z</time>
      </trkpt>
      <trkpt lat="45.67439" lon="4.63848">
        <ele>385</ele>
        <time>2014-10-18T18:04:03.401Z</time>
      </trkpt>
      <trkpt lat="45.67433" lon="4.63844">
        <ele>386</ele>
        <time>2014-10-18T18:04:07.409Z</time>
      </trkpt>
      <trkpt lat="45.67431" lon="4.63842">
        <ele>386</ele>
        <time>2014-10-18T18:04:08.408Z</time>
      </trkpt>
      <trkpt lat="45.67424" lon="4.63835">
        <ele>387</ele>
        <time>2014-10-18T18:04:12.412Z</time>
      </trkpt>
      <trkpt lat="45.67422" lon="4.63833">
        <ele>387</ele>
        <time>2014-10-18T18:04:13.412Z</time>
      </trkpt>
      <trkpt lat="45.67416" lon="4.63827">
        <ele>389</ele>
        <time>2014-10-18T18:04:16.423Z</time>
      </trkpt>
      <trkpt lat="45.67414" lon="4.63825">
        <ele>390</ele>
        <time>2014-10-18T18:04:17.408Z</time>
      </trkpt>
      <trkpt lat="45.67406" lon="4.6382">
        <ele>390</ele>
        <time>2014-10-18T18:04:21.408Z</time>
      </trkpt>
      <trkpt lat="45.67404" lon="4.63818">
        <ele>391</ele>
        <time>2014-10-18T18:04:22.411Z</time>
      </trkpt>
      <trkpt lat="45.67396" lon="4.63812">
        <ele>392</ele>
        <time>2014-10-18T18:04:27.438Z</time>
      </trkpt>
      <trkpt lat="45.67394" lon="4.63812">
        <ele>392</ele>
        <time>2014-10-18T18:04:28.409Z</time>
      </trkpt>
      <trkpt lat="45.67387" lon="4.63805">
        <ele>392</ele>
        <time>2014-10-18T18:04:32.411Z</time>
      </trkpt>
      <trkpt lat="45.67386" lon="4.63805">
        <ele>392</ele>
        <time>2014-10-18T18:04:33.422Z</time>
      </trkpt>
      <trkpt lat="45.67379" lon="4.63799">
        <ele>393</ele>
        <time>2014-10-18T18:04:37.424Z</time>
      </trkpt>
      <trkpt lat="45.67377" lon="4.63799">
        <ele>393</ele>
        <time>2014-10-18T18:04:38.411Z</time>
      </trkpt>
      <trkpt lat="45.67372" lon="4.63793">
        <ele>393</ele>
        <time>2014-10-18T18:04:41.414Z</time>
      </trkpt>
      <trkpt lat="45.6737" lon="4.6379">
        <ele>394</ele>
        <time>2014-10-18T18:04:42.417Z</time>
      </trkpt>
      <trkpt lat="45.67362" lon="4.63784">
        <ele>394</ele>
        <time>2014-10-18T18:04:47.409Z</time>
      </trkpt>
      <trkpt lat="45.67361" lon="4.63782">
        <ele>394</ele>
        <time>2014-10-18T18:04:48.409Z</time>
      </trkpt>
      <trkpt lat="45.67353" lon="4.63778">
        <ele>395</ele>
        <time>2014-10-18T18:04:52.441Z</time>
      </trkpt>
      <trkpt lat="45.67352" lon="4.63775">
        <ele>395</ele>
        <time>2014-10-18T18:04:53.413Z</time>
      </trkpt>
      <trkpt lat="45.67346" lon="4.63769">
        <ele>396</ele>
        <time>2014-10-18T18:04:58.415Z</time>
      </trkpt>
      <trkpt lat="45.67345" lon="4.63765">
        <ele>396</ele>
        <time>2014-10-18T18:04:59.412Z</time>
      </trkpt>
      <trkpt lat="45.67337" lon="4.63758">
        <ele>398</ele>
        <time>2014-10-18T18:05:04.409Z</time>
      </trkpt>
      <trkpt lat="45.67336" lon="4.63756">
        <ele>398</ele>
        <time>2014-10-18T18:05:05.409Z</time>
      </trkpt>
      <trkpt lat="45.67329" lon="4.6375">
        <ele>401</ele>
        <time>2014-10-18T18:05:10.432Z</time>
      </trkpt>
      <trkpt lat="45.67329" lon="4.63748">
        <ele>401</ele>
        <time>2014-10-18T18:05:11.416Z</time>
      </trkpt>
      <trkpt lat="45.67323" lon="4.63741">
        <ele>403</ele>
        <time>2014-10-18T18:05:16.396Z</time>
      </trkpt>
      <trkpt lat="45.67321" lon="4.63739">
        <ele>404</ele>
        <time>2014-10-18T18:05:17.409Z</time>
      </trkpt>
      <trkpt lat="45.67315" lon="4.6373">
        <ele>405</ele>
        <time>2014-10-18T18:05:24.395Z</time>
      </trkpt>
      <trkpt lat="45.67314" lon="4.63728">
        <ele>406</ele>
        <time>2014-10-18T18:05:25.402Z</time>
      </trkpt>
      <trkpt lat="45.67306" lon="4.63722">
        <ele>406</ele>
        <time>2014-10-18T18:05:31.417Z</time>
      </trkpt>
      <trkpt lat="45.67305" lon="4.6372">
        <ele>407</ele>
        <time>2014-10-18T18:05:32.424Z</time>
      </trkpt>
      <trkpt lat="45.67299" lon="4.63711">
        <ele>407</ele>
        <time>2014-10-18T18:05:39.409Z</time>
      </trkpt>
      <trkpt lat="45.67298" lon="4.63711">
        <ele>408</ele>
        <time>2014-10-18T18:05:40.408Z</time>
      </trkpt>
      <trkpt lat="45.67291" lon="4.63702">
        <ele>408</ele>
        <time>2014-10-18T18:05:45.427Z</time>
      </trkpt>
      <trkpt lat="45.6729" lon="4.63702">
        <ele>408</ele>
        <time>2014-10-18T18:05:46.410Z</time>
      </trkpt>
      <trkpt lat="45.67283" lon="4.63698">
        <ele>409</ele>
        <time>2014-10-18T18:05:51.408Z</time>
      </trkpt>
      <trkpt lat="45.67282" lon="4.63696">
        <ele>409</ele>
        <time>2014-10-18T18:05:52.408Z</time>
      </trkpt>
      <trkpt lat="45.67276" lon="4.6369">
        <ele>410</ele>
        <time>2014-10-18T18:05:57.412Z</time>
      </trkpt>
      <trkpt lat="45.67274" lon="4.63687">
        <ele>410</ele>
        <time>2014-10-18T18:05:58.412Z</time>
      </trkpt>
      <trkpt lat="45.67268" lon="4.63679">
        <ele>412</ele>
        <time>2014-10-18T18:06:06.417Z</time>
      </trkpt>
      <trkpt lat="45.67267" lon="4.63677">
        <ele>412</ele>
        <time>2014-10-18T18:06:07.418Z</time>
      </trkpt>
      <trkpt lat="45.67259" lon="4.6367">
        <ele>414</ele>
        <time>2014-10-18T18:08:24.414Z</time>
      </trkpt>
      <trkpt lat="45.67258" lon="4.63668">
        <ele>414</ele>
        <time>2014-10-18T18:08:25.431Z</time>
      </trkpt>
      <trkpt lat="45.67254" lon="4.6366">
        <ele>417</ele>
        <time>2014-10-18T18:08:30.410Z</time>
      </trkpt>
      <trkpt lat="45.67252" lon="4.63657">
        <ele>417</ele>
        <time>2014-10-18T18:08:31.408Z</time>
      </trkpt>
      <trkpt lat="45.67244" lon="4.63651">
        <ele>421</ele>
        <time>2014-10-18T18:08:37.410Z</time>
      </trkpt>
      <trkpt lat="45.67243" lon="4.63651">
        <ele>421</ele>
        <time>2014-10-18T18:08:38.407Z</time>
      </trkpt>
      <trkpt lat="45.67235" lon="4.63645">
        <ele>423</ele>
        <time>2014-10-18T18:08:44.417Z</time>
      </trkpt>
      <trkpt lat="45.67234" lon="4.63645">
        <ele>423</ele>
        <time>2014-10-18T18:08:45.408Z</time>
      </trkpt>
      <trkpt lat="45.67227" lon="4.6364">
        <ele>424</ele>
        <time>2014-10-18T18:08:50.407Z</time>
      </trkpt>
      <trkpt lat="45.67226" lon="4.63638">
        <ele>424</ele>
        <time>2014-10-18T18:08:51.397Z</time>
      </trkpt>
      <trkpt lat="45.67218" lon="4.63632">
        <ele>425</ele>
        <time>2014-10-18T18:08:56.432Z</time>
      </trkpt>
      <trkpt lat="45.67217" lon="4.63632">
        <ele>425</ele>
        <time>2014-10-18T18:08:57.403Z</time>
      </trkpt>
      <trkpt lat="45.6721" lon="4.63625">
        <ele>426</ele>
        <time>2014-10-18T18:09:03.390Z</time>
      </trkpt>
      <trkpt lat="45.67208" lon="4.63625">
        <ele>426</ele>
        <time>2014-10-18T18:09:04.396Z</time>
      </trkpt>
      <trkpt lat="45.67199" lon="4.63623">
        <ele>427</ele>
        <time>2014-10-18T18:09:10.411Z</time>
      </trkpt>
      <trkpt lat="45.67198" lon="4.63621">
        <ele>427</ele>
        <time>2014-10-18T18:09:11.408Z</time>
      </trkpt>
      <trkpt lat="45.6719" lon="4.63617">
        <ele>427</ele>
        <time>2014-10-18T18:09:16.408Z</time>
      </trkpt>
      <trkpt lat="45.67189" lon="4.63617">
        <ele>428</ele>
        <time>2014-10-18T18:09:17.403Z</time>
      </trkpt>
      <trkpt lat="45.67182" lon="4.63612">
        <ele>428</ele>
        <time>2014-10-18T18:09:22.407Z</time>
      </trkpt>
      <trkpt lat="45.67181" lon="4.6361">
        <ele>429</ele>
        <time>2014-10-18T18:09:23.408Z</time>
      </trkpt>
      <trkpt lat="45.67173" lon="4.63606">
        <ele>430</ele>
        <time>2014-10-18T18:09:28.406Z</time>
      </trkpt>
      <trkpt lat="45.67172" lon="4.63606">
        <ele>430</ele>
        <time>2014-10-18T18:09:29.410Z</time>
      </trkpt>
      <trkpt lat="45.67165" lon="4.63599">
        <ele>433</ele>
        <time>2014-10-18T18:09:35.410Z</time>
      </trkpt>
      <trkpt lat="45.67164" lon="4.63597">
        <ele>433</ele>
        <time>2014-10-18T18:09:36.406Z</time>
      </trkpt>
      <trkpt lat="45.67157" lon="4.63591">
        <ele>434</ele>
        <time>2014-10-18T18:09:41.411Z</time>
      </trkpt>
      <trkpt lat="45.67156" lon="4.63589">
        <ele>434</ele>
        <time>2014-10-18T18:09:42.411Z</time>
      </trkpt>
      <trkpt lat="45.67151" lon="4.6358">
        <ele>438</ele>
        <time>2014-10-18T18:09:47.391Z</time>
      </trkpt>
      <trkpt lat="45.6715" lon="4.63578">
        <ele>438</ele>
        <time>2014-10-18T18:09:48.393Z</time>
      </trkpt>
      <trkpt lat="45.67143" lon="4.63569">
        <ele>439</ele>
        <time>2014-10-18T18:09:54.392Z</time>
      </trkpt>
      <trkpt lat="45.67142" lon="4.63567">
        <ele>439</ele>
        <time>2014-10-18T18:09:55.393Z</time>
      </trkpt>
      <trkpt lat="45.67136" lon="4.63559">
        <ele>439</ele>
        <time>2014-10-18T18:10:01.393Z</time>
      </trkpt>
      <trkpt lat="45.67135" lon="4.63557">
        <ele>440</ele>
        <time>2014-10-18T18:10:02.391Z</time>
      </trkpt>
      <trkpt lat="45.67129" lon="4.63548">
        <ele>440</ele>
        <time>2014-10-18T18:10:07.393Z</time>
      </trkpt>
      <trkpt lat="45.67128" lon="4.63544">
        <ele>440</ele>
        <time>2014-10-18T18:10:08.393Z</time>
      </trkpt>
      <trkpt lat="45.67122" lon="4.63535">
        <ele>441</ele>
        <time>2014-10-18T18:10:15.391Z</time>
      </trkpt>
      <trkpt lat="45.67121" lon="4.63533">
        <ele>441</ele>
        <time>2014-10-18T18:10:16.391Z</time>
      </trkpt>
      <trkpt lat="45.67115" lon="4.63524">
        <ele>442</ele>
        <time>2014-10-18T18:10:21.394Z</time>
      </trkpt>
      <trkpt lat="45.67114" lon="4.63522">
        <ele>442</ele>
        <time>2014-10-18T18:10:22.394Z</time>
      </trkpt>
      <trkpt lat="45.6711" lon="4.63514">
        <ele>442</ele>
        <time>2014-10-18T18:10:26.394Z</time>
      </trkpt>
      <trkpt lat="45.67109" lon="4.63511">
        <ele>442</ele>
        <time>2014-10-18T18:10:27.392Z</time>
      </trkpt>
      <trkpt lat="45.67106" lon="4.63501">
        <ele>443</ele>
        <time>2014-10-18T18:10:32.389Z</time>
      </trkpt>
      <trkpt lat="45.67105" lon="4.63499">
        <ele>448</ele>
        <time>2014-10-18T18:10:33.392Z</time>
      </trkpt>
      <trkpt lat="45.67099" lon="4.6349">
        <ele>448</ele>
        <time>2014-10-18T18:10:38.391Z</time>
      </trkpt>
      <trkpt lat="45.67098" lon="4.63488">
        <ele>448</ele>
        <time>2014-10-18T18:10:39.390Z</time>
      </trkpt>
      <trkpt lat="45.67095" lon="4.63477">
        <ele>448</ele>
        <time>2014-10-18T18:10:44.390Z</time>
      </trkpt>
      <trkpt lat="45.67095" lon="4.63475">
        <ele>448</ele>
        <time>2014-10-18T18:10:45.389Z</time>
      </trkpt>
      <trkpt lat="45.67091" lon="4.63466">
        <ele>449</ele>
        <time>2014-10-18T18:10:50.391Z</time>
      </trkpt>
      <trkpt lat="45.6709" lon="4.63464">
        <ele>449</ele>
        <time>2014-10-18T18:10:51.392Z</time>
      </trkpt>
      <trkpt lat="45.67084" lon="4.63456">
        <ele>450</ele>
        <time>2014-10-18T18:10:55.390Z</time>
      </trkpt>
      <trkpt lat="45.67083" lon="4.63454">
        <ele>448</ele>
        <time>2014-10-18T18:10:56.390Z</time>
      </trkpt>
      <trkpt lat="45.67081" lon="4.63443">
        <ele>448</ele>
        <time>2014-10-18T18:11:01.391Z</time>
      </trkpt>
      <trkpt lat="45.6708" lon="4.63439">
        <ele>449</ele>
        <time>2014-10-18T18:11:02.392Z</time>
      </trkpt>
      <trkpt lat="45.67075" lon="4.6343">
        <ele>450</ele>
        <time>2014-10-18T18:11:07.391Z</time>
      </trkpt>
      <trkpt lat="45.67075" lon="4.63428">
        <ele>450</ele>
        <time>2014-10-18T18:11:08.428Z</time>
      </trkpt>
      <trkpt lat="45.6707" lon="4.63417">
        <ele>450</ele>
        <time>2014-10-18T18:11:13.392Z</time>
      </trkpt>
      <trkpt lat="45.67069" lon="4.63415">
        <ele>453</ele>
        <time>2014-10-18T18:11:14.391Z</time>
      </trkpt>
      <trkpt lat="45.67065" lon="4.63404">
        <ele>453</ele>
        <time>2014-10-18T18:11:19.422Z</time>
      </trkpt>
      <trkpt lat="45.67064" lon="4.63404">
        <ele>453</ele>
        <time>2014-10-18T18:11:20.391Z</time>
      </trkpt>
      <trkpt lat="45.67061" lon="4.63393">
        <ele>453</ele>
        <time>2014-10-18T18:11:24.391Z</time>
      </trkpt>
      <trkpt lat="45.6706" lon="4.63391">
        <ele>453</ele>
        <time>2014-10-18T18:11:25.393Z</time>
      </trkpt>
      <trkpt lat="45.67055" lon="4.63381">
        <ele>453</ele>
        <time>2014-10-18T18:11:29.394Z</time>
      </trkpt>
      <trkpt lat="45.67055" lon="4.63378">
        <ele>453</ele>
        <time>2014-10-18T18:11:30.390Z</time>
      </trkpt>
      <trkpt lat="45.67052" lon="4.63368">
        <ele>453</ele>
        <time>2014-10-18T18:11:35.389Z</time>
      </trkpt>
      <trkpt lat="45.67052" lon="4.63366">
        <ele>453</ele>
        <time>2014-10-18T18:11:36.397Z</time>
      </trkpt>
      <trkpt lat="45.67049" lon="4.63355">
        <ele>453</ele>
        <time>2014-10-18T18:11:40.429Z</time>
      </trkpt>
      <trkpt lat="45.67048" lon="4.63353">
        <ele>453</ele>
        <time>2014-10-18T18:11:41.392Z</time>
      </trkpt>
      <trkpt lat="45.67044" lon="4.63344">
        <ele>453</ele>
        <time>2014-10-18T18:11:45.391Z</time>
      </trkpt>
      <trkpt lat="45.67043" lon="4.6334">
        <ele>453</ele>
        <time>2014-10-18T18:11:46.387Z</time>
      </trkpt>
      <trkpt lat="45.67038" lon="4.63331">
        <ele>455</ele>
        <time>2014-10-18T18:11:51.423Z</time>
      </trkpt>
      <trkpt lat="45.67038" lon="4.63327">
        <ele>455</ele>
        <time>2014-10-18T18:11:52.392Z</time>
      </trkpt>
      <trkpt lat="45.67036" lon="4.63316">
        <ele>455</ele>
        <time>2014-10-18T18:11:56.392Z</time>
      </trkpt>
      <trkpt lat="45.67035" lon="4.63314">
        <ele>455</ele>
        <time>2014-10-18T18:11:57.390Z</time>
      </trkpt>
      <trkpt lat="45.67034" lon="4.63303">
        <ele>455</ele>
        <time>2014-10-18T18:12:02.390Z</time>
      </trkpt>
      <trkpt lat="45.67033" lon="4.63301">
        <ele>455</ele>
        <time>2014-10-18T18:12:03.392Z</time>
      </trkpt>
      <trkpt lat="45.67028" lon="4.6329">
        <ele>455</ele>
        <time>2014-10-18T18:12:08.391Z</time>
      </trkpt>
      <trkpt lat="45.67028" lon="4.63286">
        <ele>455</ele>
        <time>2014-10-18T18:12:09.394Z</time>
      </trkpt>
      <trkpt lat="45.67024" lon="4.63275">
        <ele>456</ele>
        <time>2014-10-18T18:12:14.395Z</time>
      </trkpt>
      <trkpt lat="45.67023" lon="4.63273">
        <ele>456</ele>
        <time>2014-10-18T18:12:15.388Z</time>
      </trkpt>
      <trkpt lat="45.67019" lon="4.63265">
        <ele>456</ele>
        <time>2014-10-18T18:12:19.392Z</time>
      </trkpt>
      <trkpt lat="45.67019" lon="4.6326">
        <ele>456</ele>
        <time>2014-10-18T18:12:20.454Z</time>
      </trkpt>
      <trkpt lat="45.67014" lon="4.63252">
        <ele>457</ele>
        <time>2014-10-18T18:12:24.387Z</time>
      </trkpt>
      <trkpt lat="45.67013" lon="4.6325">
        <ele>457</ele>
        <time>2014-10-18T18:12:25.392Z</time>
      </trkpt>
      <trkpt lat="45.67007" lon="4.63243">
        <ele>457</ele>
        <time>2014-10-18T18:12:30.398Z</time>
      </trkpt>
      <trkpt lat="45.67005" lon="4.63239">
        <ele>457</ele>
        <time>2014-10-18T18:12:31.403Z</time>
      </trkpt>
      <trkpt lat="45.66998" lon="4.63233">
        <ele>459</ele>
        <time>2014-10-18T18:12:35.388Z</time>
      </trkpt>
      <trkpt lat="45.66997" lon="4.6323">
        <ele>459</ele>
        <time>2014-10-18T18:12:36.392Z</time>
      </trkpt>
      <trkpt lat="45.66992" lon="4.63222">
        <ele>459</ele>
        <time>2014-10-18T18:12:40.388Z</time>
      </trkpt>
      <trkpt lat="45.66991" lon="4.6322">
        <ele>459</ele>
        <time>2014-10-18T18:12:41.384Z</time>
      </trkpt>
      <trkpt lat="45.66984" lon="4.63211">
        <ele>459</ele>
        <time>2014-10-18T18:12:45.392Z</time>
      </trkpt>
      <trkpt lat="45.66983" lon="4.63209">
        <ele>459</ele>
        <time>2014-10-18T18:12:46.388Z</time>
      </trkpt>
      <trkpt lat="45.66978" lon="4.632">
        <ele>459</ele>
        <time>2014-10-18T18:12:50.390Z</time>
      </trkpt>
      <trkpt lat="45.66977" lon="4.63196">
        <ele>459</ele>
        <time>2014-10-18T18:12:51.388Z</time>
      </trkpt>
      <trkpt lat="45.6697" lon="4.63187">
        <ele>460</ele>
        <time>2014-10-18T18:12:55.388Z</time>
      </trkpt>
      <trkpt lat="45.66969" lon="4.63185">
        <ele>460</ele>
        <time>2014-10-18T18:12:56.388Z</time>
      </trkpt>
      <trkpt lat="45.66963" lon="4.63177">
        <ele>460</ele>
        <time>2014-10-18T18:12:59.394Z</time>
      </trkpt>
      <trkpt lat="45.66961" lon="4.63175">
        <ele>460</ele>
        <time>2014-10-18T18:13:00.393Z</time>
      </trkpt>
      <trkpt lat="45.66957" lon="4.63166">
        <ele>462</ele>
        <time>2014-10-18T18:13:03.396Z</time>
      </trkpt>
      <trkpt lat="45.66955" lon="4.63162">
        <ele>462</ele>
        <time>2014-10-18T18:13:04.414Z</time>
      </trkpt>
      <trkpt lat="45.66951" lon="4.63153">
        <ele>462</ele>
        <time>2014-10-18T18:13:07.391Z</time>
      </trkpt>
      <trkpt lat="45.6695" lon="4.63151">
        <ele>462</ele>
        <time>2014-10-18T18:13:08.388Z</time>
      </trkpt>
      <trkpt lat="45.66945" lon="4.63142">
        <ele>462</ele>
        <time>2014-10-18T18:13:11.397Z</time>
      </trkpt>
      <trkpt lat="45.66944" lon="4.63138">
        <ele>462</ele>
        <time>2014-10-18T18:13:12.388Z</time>
      </trkpt>
      <trkpt lat="45.66939" lon="4.63127">
        <ele>462</ele>
        <time>2014-10-18T18:13:16.390Z</time>
      </trkpt>
      <trkpt lat="45.66938" lon="4.63125">
        <ele>462</ele>
        <time>2014-10-18T18:13:17.393Z</time>
      </trkpt>
      <trkpt lat="45.66934" lon="4.63117">
        <ele>463</ele>
        <time>2014-10-18T18:13:20.388Z</time>
      </trkpt>
      <trkpt lat="45.66933" lon="4.63115">
        <ele>463</ele>
        <time>2014-10-18T18:13:21.396Z</time>
      </trkpt>
      <trkpt lat="45.66929" lon="4.63106">
        <ele>464</ele>
        <time>2014-10-18T18:13:24.393Z</time>
      </trkpt>
      <trkpt lat="45.66928" lon="4.63104">
        <ele>464</ele>
        <time>2014-10-18T18:13:25.388Z</time>
      </trkpt>
      <trkpt lat="45.66924" lon="4.63095">
        <ele>465</ele>
        <time>2014-10-18T18:13:28.387Z</time>
      </trkpt>
      <trkpt lat="45.66921" lon="4.63091">
        <ele>465</ele>
        <time>2014-10-18T18:13:29.395Z</time>
      </trkpt>
      <trkpt lat="45.66917" lon="4.63082">
        <ele>467</ele>
        <time>2014-10-18T18:13:33.389Z</time>
      </trkpt>
      <trkpt lat="45.66916" lon="4.6308">
        <ele>468</ele>
        <time>2014-10-18T18:13:34.387Z</time>
      </trkpt>
      <trkpt lat="45.6691" lon="4.63072">
        <ele>469</ele>
        <time>2014-10-18T18:13:38.387Z</time>
      </trkpt>
      <trkpt lat="45.66909" lon="4.63069">
        <ele>469</ele>
        <time>2014-10-18T18:13:39.388Z</time>
      </trkpt>
      <trkpt lat="45.66905" lon="4.63059">
        <ele>470</ele>
        <time>2014-10-18T18:13:43.420Z</time>
      </trkpt>
      <trkpt lat="45.66904" lon="4.63057">
        <ele>471</ele>
        <time>2014-10-18T18:13:44.386Z</time>
      </trkpt>
      <trkpt lat="45.669" lon="4.63046">
        <ele>471</ele>
        <time>2014-10-18T18:13:48.377Z</time>
      </trkpt>
      <trkpt lat="45.66899" lon="4.63046">
        <ele>471</ele>
        <time>2014-10-18T18:13:49.376Z</time>
      </trkpt>
      <trkpt lat="45.66892" lon="4.63039">
        <ele>472</ele>
        <time>2014-10-18T18:16:13.400Z</time>
      </trkpt>
      <trkpt lat="45.66891" lon="4.63037">
        <ele>472</ele>
        <time>2014-10-18T18:16:14.386Z</time>
      </trkpt>
      <trkpt lat="45.66887" lon="4.63029">
        <ele>472</ele>
        <time>2014-10-18T18:16:18.403Z</time>
      </trkpt>
      <trkpt lat="45.66886" lon="4.63027">
        <ele>472</ele>
        <time>2014-10-18T18:16:19.388Z</time>
      </trkpt>
      <trkpt lat="45.66882" lon="4.63018">
        <ele>473</ele>
        <time>2014-10-18T18:16:23.390Z</time>
      </trkpt>
      <trkpt lat="45.6688" lon="4.63016">
        <ele>473</ele>
        <time>2014-10-18T18:16:24.375Z</time>
      </trkpt>
      <trkpt lat="45.66879" lon="4.63007">
        <ele>473</ele>
        <time>2014-10-18T18:16:27.385Z</time>
      </trkpt>
      <trkpt lat="45.66879" lon="4.63003">
        <ele>474</ele>
        <time>2014-10-18T18:16:28.377Z</time>
      </trkpt>
      <trkpt lat="45.66876" lon="4.62992">
        <ele>476</ele>
        <time>2014-10-18T18:16:32.374Z</time>
      </trkpt>
      <trkpt lat="45.66877" lon="4.6299">
        <ele>476</ele>
        <time>2014-10-18T18:16:33.391Z</time>
      </trkpt>
      <trkpt lat="45.66877" lon="4.62981">
        <ele>476</ele>
        <time>2014-10-18T18:16:34.392Z</time>
      </trkpt>
      <trkpt lat="45.66878" lon="4.62975">
        <ele>476</ele>
        <time>2014-10-18T18:16:35.365Z</time>
      </trkpt>
      <trkpt lat="45.6688" lon="4.62966">
        <ele>476</ele>
        <time>2014-10-18T18:16:37.371Z</time>
      </trkpt>
      <trkpt lat="45.66881" lon="4.6296">
        <ele>475</ele>
        <time>2014-10-18T18:16:38.366Z</time>
      </trkpt>
      <trkpt lat="45.66884" lon="4.62949">
        <ele>475</ele>
        <time>2014-10-18T18:16:40.369Z</time>
      </trkpt>
      <trkpt lat="45.66885" lon="4.62943">
        <ele>475</ele>
        <time>2014-10-18T18:16:41.366Z</time>
      </trkpt>
      <trkpt lat="45.66885" lon="4.62936">
        <ele>475</ele>
        <time>2014-10-18T18:16:42.368Z</time>
      </trkpt>
      <trkpt lat="45.66884" lon="4.62928">
        <ele>475</ele>
        <time>2014-10-18T18:16:43.372Z</time>
      </trkpt>
      <trkpt lat="45.66882" lon="4.62921">
        <ele>475</ele>
        <time>2014-10-18T18:16:44.362Z</time>
      </trkpt>
      <trkpt lat="45.66881" lon="4.62915">
        <ele>475</ele>
        <time>2014-10-18T18:16:45.363Z</time>
      </trkpt>
      <trkpt lat="45.66879" lon="4.62906">
        <ele>475</ele>
        <time>2014-10-18T18:16:46.364Z</time>
      </trkpt>
      <trkpt lat="45.66878" lon="4.62898">
        <ele>476</ele>
        <time>2014-10-18T18:16:47.366Z</time>
      </trkpt>
      <trkpt lat="45.66878" lon="4.62889">
        <ele>476</ele>
        <time>2014-10-18T18:16:48.364Z</time>
      </trkpt>
      <trkpt lat="45.66878" lon="4.62881">
        <ele>476</ele>
        <time>2014-10-18T18:16:49.365Z</time>
      </trkpt>
      <trkpt lat="45.66876" lon="4.62872">
        <ele>476</ele>
        <time>2014-10-18T18:16:50.364Z</time>
      </trkpt>
      <trkpt lat="45.66875" lon="4.62863">
        <ele>476</ele>
        <time>2014-10-18T18:16:51.366Z</time>
      </trkpt>
      <trkpt lat="45.66873" lon="4.62853">
        <ele>477</ele>
        <time>2014-10-18T18:16:52.362Z</time>
      </trkpt>
      <trkpt lat="45.66873" lon="4.62846">
        <ele>477</ele>
        <time>2014-10-18T18:16:53.365Z</time>
      </trkpt>
      <trkpt lat="45.66872" lon="4.62836">
        <ele>477</ele>
        <time>2014-10-18T18:16:54.364Z</time>
      </trkpt>
      <trkpt lat="45.66874" lon="4.62829">
        <ele>481</ele>
        <time>2014-10-18T18:16:55.366Z</time>
      </trkpt>
      <trkpt lat="45.66875" lon="4.62821">
        <ele>482</ele>
        <time>2014-10-18T18:16:56.349Z</time>
      </trkpt>
      <trkpt lat="45.66877" lon="4.62812">
        <ele>482</ele>
        <time>2014-10-18T18:16:57.353Z</time>
      </trkpt>
      <trkpt lat="45.6688" lon="4.62803">
        <ele>482</ele>
        <time>2014-10-18T18:16:58.356Z</time>
      </trkpt>
      <trkpt lat="45.66884" lon="4.62797">
        <ele>482</ele>
        <time>2014-10-18T18:16:59.366Z</time>
      </trkpt>
      <trkpt lat="45.66887" lon="4.6279">
        <ele>482</ele>
        <time>2014-10-18T18:17:00.360Z</time>
      </trkpt>
      <trkpt lat="45.66891" lon="4.62782">
        <ele>483</ele>
        <time>2014-10-18T18:17:01.367Z</time>
      </trkpt>
      <trkpt lat="45.66895" lon="4.62775">
        <ele>483</ele>
        <time>2014-10-18T18:17:02.361Z</time>
      </trkpt>
      <trkpt lat="45.669" lon="4.62767">
        <ele>482</ele>
        <time>2014-10-18T18:17:03.364Z</time>
      </trkpt>
      <trkpt lat="45.66904" lon="4.6276">
        <ele>482</ele>
        <time>2014-10-18T18:17:04.364Z</time>
      </trkpt>
      <trkpt lat="45.66909" lon="4.62754">
        <ele>481</ele>
        <time>2014-10-18T18:17:05.362Z</time>
      </trkpt>
      <trkpt lat="45.66915" lon="4.62745">
        <ele>483</ele>
        <time>2014-10-18T18:17:06.379Z</time>
      </trkpt>
      <trkpt lat="45.66921" lon="4.62739">
        <ele>475</ele>
        <time>2014-10-18T18:17:07.360Z</time>
      </trkpt>
      <trkpt lat="45.66925" lon="4.6273">
        <ele>473</ele>
        <time>2014-10-18T18:17:08.354Z</time>
      </trkpt>
      <trkpt lat="45.6693" lon="4.62724">
        <ele>472</ele>
        <time>2014-10-18T18:17:09.354Z</time>
      </trkpt>
      <trkpt lat="45.66933" lon="4.62715">
        <ele>471</ele>
        <time>2014-10-18T18:17:10.364Z</time>
      </trkpt>
      <trkpt lat="45.66936" lon="4.62707">
        <ele>471</ele>
        <time>2014-10-18T18:17:11.363Z</time>
      </trkpt>
      <trkpt lat="45.66939" lon="4.62698">
        <ele>471</ele>
        <time>2014-10-18T18:17:12.355Z</time>
      </trkpt>
      <trkpt lat="45.66943" lon="4.6269">
        <ele>471</ele>
        <time>2014-10-18T18:17:13.359Z</time>
      </trkpt>
      <trkpt lat="45.66944" lon="4.62681">
        <ele>472</ele>
        <time>2014-10-18T18:17:14.362Z</time>
      </trkpt>
      <trkpt lat="45.66946" lon="4.6267">
        <ele>472</ele>
        <time>2014-10-18T18:17:15.362Z</time>
      </trkpt>
      <trkpt lat="45.66948" lon="4.6266">
        <ele>470</ele>
        <time>2014-10-18T18:17:16.355Z</time>
      </trkpt>
      <trkpt lat="45.66949" lon="4.62649">
        <ele>470</ele>
        <time>2014-10-18T18:17:17.365Z</time>
      </trkpt>
      <trkpt lat="45.6695" lon="4.62638">
        <ele>469</ele>
        <time>2014-10-18T18:17:18.370Z</time>
      </trkpt>
      <trkpt lat="45.66949" lon="4.62627">
        <ele>468</ele>
        <time>2014-10-18T18:17:19.362Z</time>
      </trkpt>
      <trkpt lat="45.66949" lon="4.62617">
        <ele>468</ele>
        <time>2014-10-18T18:17:20.362Z</time>
      </trkpt>
      <trkpt lat="45.66948" lon="4.62604">
        <ele>468</ele>
        <time>2014-10-18T18:17:21.360Z</time>
      </trkpt>
      <trkpt lat="45.66948" lon="4.62593">
        <ele>469</ele>
        <time>2014-10-18T18:17:22.356Z</time>
      </trkpt>
      <trkpt lat="45.66947" lon="4.62584">
        <ele>469</ele>
        <time>2014-10-18T18:17:23.356Z</time>
      </trkpt>
      <trkpt lat="45.66945" lon="4.62576">
        <ele>466</ele>
        <time>2014-10-18T18:17:24.352Z</time>
      </trkpt>
      <trkpt lat="45.66944" lon="4.62565">
        <ele>465</ele>
        <time>2014-10-18T18:17:25.357Z</time>
      </trkpt>
      <trkpt lat="45.66941" lon="4.62559">
        <ele>465</ele>
        <time>2014-10-18T18:17:26.353Z</time>
      </trkpt>
      <trkpt lat="45.66938" lon="4.6255">
        <ele>465</ele>
        <time>2014-10-18T18:17:27.352Z</time>
      </trkpt>
      <trkpt lat="45.66937" lon="4.62539">
        <ele>464</ele>
        <time>2014-10-18T18:17:28.348Z</time>
      </trkpt>
      <trkpt lat="45.66934" lon="4.62531">
        <ele>465</ele>
        <time>2014-10-18T18:17:29.354Z</time>
      </trkpt>
      <trkpt lat="45.66931" lon="4.6252">
        <ele>466</ele>
        <time>2014-10-18T18:17:30.352Z</time>
      </trkpt>
      <trkpt lat="45.66929" lon="4.62514">
        <ele>467</ele>
        <time>2014-10-18T18:17:31.353Z</time>
      </trkpt>
      <trkpt lat="45.66925" lon="4.62505">
        <ele>469</ele>
        <time>2014-10-18T18:17:32.350Z</time>
      </trkpt>
      <trkpt lat="45.66921" lon="4.62497">
        <ele>470</ele>
        <time>2014-10-18T18:17:33.352Z</time>
      </trkpt>
      <trkpt lat="45.66918" lon="4.6249">
        <ele>468</ele>
        <time>2014-10-18T18:17:34.348Z</time>
      </trkpt>
      <trkpt lat="45.66911" lon="4.62484">
        <ele>479</ele>
        <time>2014-10-18T18:17:35.353Z</time>
      </trkpt>
      <trkpt lat="45.66908" lon="4.62477">
        <ele>480</ele>
        <time>2014-10-18T18:17:36.348Z</time>
      </trkpt>
      <trkpt lat="45.66905" lon="4.62471">
        <ele>481</ele>
        <time>2014-10-18T18:17:37.352Z</time>
      </trkpt>
      <trkpt lat="45.66901" lon="4.62464">
        <ele>481</ele>
        <time>2014-10-18T18:17:38.357Z</time>
      </trkpt>
      <trkpt lat="45.66896" lon="4.62458">
        <ele>482</ele>
        <time>2014-10-18T18:17:39.348Z</time>
      </trkpt>
      <trkpt lat="45.66893" lon="4.62449">
        <ele>482</ele>
        <time>2014-10-18T18:17:40.350Z</time>
      </trkpt>
      <trkpt lat="45.6689" lon="4.62441">
        <ele>481</ele>
        <time>2014-10-18T18:17:41.354Z</time>
      </trkpt>
      <trkpt lat="45.66888" lon="4.62432">
        <ele>481</ele>
        <time>2014-10-18T18:17:42.354Z</time>
      </trkpt>
      <trkpt lat="45.66887" lon="4.62424">
        <ele>481</ele>
        <time>2014-10-18T18:17:43.366Z</time>
      </trkpt>
      <trkpt lat="45.66887" lon="4.62415">
        <ele>481</ele>
        <time>2014-10-18T18:17:44.350Z</time>
      </trkpt>
      <trkpt lat="45.66887" lon="4.62406">
        <ele>481</ele>
        <time>2014-10-18T18:17:45.363Z</time>
      </trkpt>
      <trkpt lat="45.66888" lon="4.62398">
        <ele>482</ele>
        <time>2014-10-18T18:17:46.361Z</time>
      </trkpt>
      <trkpt lat="45.66889" lon="4.62389">
        <ele>482</ele>
        <time>2014-10-18T18:17:47.367Z</time>
      </trkpt>
      <trkpt lat="45.66892" lon="4.62379">
        <ele>483</ele>
        <time>2014-10-18T18:17:48.357Z</time>
      </trkpt>
      <trkpt lat="45.66895" lon="4.6237">
        <ele>483</ele>
        <time>2014-10-18T18:17:49.359Z</time>
      </trkpt>
      <trkpt lat="45.66896" lon="4.62363">
        <ele>483</ele>
        <time>2014-10-18T18:17:50.382Z</time>
      </trkpt>
      <trkpt lat="45.66899" lon="4.62355">
        <ele>483</ele>
        <time>2014-10-18T18:17:51.357Z</time>
      </trkpt>
      <trkpt lat="45.66902" lon="4.62348">
        <ele>482</ele>
        <time>2014-10-18T18:17:52.363Z</time>
      </trkpt>
      <trkpt lat="45.66905" lon="4.62342">
        <ele>481</ele>
        <time>2014-10-18T18:17:53.364Z</time>
      </trkpt>
      <trkpt lat="45.66908" lon="4.62336">
        <ele>480</ele>
        <time>2014-10-18T18:17:54.356Z</time>
      </trkpt>
      <trkpt lat="45.66915" lon="4.62331">
        <ele>480</ele>
        <time>2014-10-18T18:17:55.358Z</time>
      </trkpt>
      <trkpt lat="45.6692" lon="4.62325">
        <ele>477</ele>
        <time>2014-10-18T18:17:56.354Z</time>
      </trkpt>
      <trkpt lat="45.66925" lon="4.62321">
        <ele>476</ele>
        <time>2014-10-18T18:17:57.370Z</time>
      </trkpt>
      <trkpt lat="45.66932" lon="4.62316">
        <ele>475</ele>
        <time>2014-10-18T18:17:58.370Z</time>
      </trkpt>
      <trkpt lat="45.66938" lon="4.62312">
        <ele>475</ele>
        <time>2014-10-18T18:17:59.364Z</time>
      </trkpt>
      <trkpt lat="45.66944" lon="4.62308">
        <ele>474</ele>
        <time>2014-10-18T18:18:00.359Z</time>
      </trkpt>
      <trkpt lat="45.66952" lon="4.62303">
        <ele>473</ele>
        <time>2014-10-18T18:18:01.394Z</time>
      </trkpt>
      <trkpt lat="45.66959" lon="4.62299">
        <ele>472</ele>
        <time>2014-10-18T18:18:02.364Z</time>
      </trkpt>
      <trkpt lat="45.66965" lon="4.62293">
        <ele>472</ele>
        <time>2014-10-18T18:18:03.366Z</time>
      </trkpt>
      <trkpt lat="45.6697" lon="4.62286">
        <ele>471</ele>
        <time>2014-10-18T18:18:04.360Z</time>
      </trkpt>
      <trkpt lat="45.66976" lon="4.6228">
        <ele>471</ele>
        <time>2014-10-18T18:18:05.371Z</time>
      </trkpt>
      <trkpt lat="45.66981" lon="4.62273">
        <ele>470</ele>
        <time>2014-10-18T18:18:06.363Z</time>
      </trkpt>
      <trkpt lat="45.66985" lon="4.62265">
        <ele>469</ele>
        <time>2014-10-18T18:18:07.364Z</time>
      </trkpt>
      <trkpt lat="45.66991" lon="4.62256">
        <ele>467</ele>
        <time>2014-10-18T18:18:08.347Z</time>
      </trkpt>
      <trkpt lat="45.66994" lon="4.62248">
        <ele>469</ele>
        <time>2014-10-18T18:18:09.350Z</time>
      </trkpt>
      <trkpt lat="45.66997" lon="4.62239">
        <ele>471</ele>
        <time>2014-10-18T18:18:10.351Z</time>
      </trkpt>
      <trkpt lat="45.66999" lon="4.6223">
        <ele>474</ele>
        <time>2014-10-18T18:18:11.361Z</time>
      </trkpt>
      <trkpt lat="45.66999" lon="4.6222">
        <ele>477</ele>
        <time>2014-10-18T18:18:12.353Z</time>
      </trkpt>
      <trkpt lat="45.67001" lon="4.62211">
        <ele>458</ele>
        <time>2014-10-18T18:18:13.364Z</time>
      </trkpt>
      <trkpt lat="45.67001" lon="4.622">
        <ele>459</ele>
        <time>2014-10-18T18:18:14.354Z</time>
      </trkpt>
      <trkpt lat="45.67002" lon="4.62192">
        <ele>461</ele>
        <time>2014-10-18T18:18:15.350Z</time>
      </trkpt>
      <trkpt lat="45.67005" lon="4.62183">
        <ele>463</ele>
        <time>2014-10-18T18:18:16.346Z</time>
      </trkpt>
      <trkpt lat="45.67007" lon="4.62173">
        <ele>467</ele>
        <time>2014-10-18T18:18:17.357Z</time>
      </trkpt>
      <trkpt lat="45.67009" lon="4.62166">
        <ele>469</ele>
        <time>2014-10-18T18:18:18.359Z</time>
      </trkpt>
      <trkpt lat="45.67011" lon="4.62157">
        <ele>467</ele>
        <time>2014-10-18T18:18:19.357Z</time>
      </trkpt>
      <trkpt lat="45.67014" lon="4.62151">
        <ele>466</ele>
        <time>2014-10-18T18:18:20.359Z</time>
      </trkpt>
      <trkpt lat="45.67017" lon="4.62142">
        <ele>464</ele>
        <time>2014-10-18T18:18:21.358Z</time>
      </trkpt>
      <trkpt lat="45.67021" lon="4.62136">
        <ele>464</ele>
        <time>2014-10-18T18:18:22.358Z</time>
      </trkpt>
      <trkpt lat="45.67025" lon="4.62127">
        <ele>463</ele>
        <time>2014-10-18T18:18:23.357Z</time>
      </trkpt>
      <trkpt lat="45.67029" lon="4.62121">
        <ele>463</ele>
        <time>2014-10-18T18:18:24.353Z</time>
      </trkpt>
      <trkpt lat="45.67035" lon="4.62112">
        <ele>462</ele>
        <time>2014-10-18T18:18:25.350Z</time>
      </trkpt>
      <trkpt lat="45.67041" lon="4.62106">
        <ele>461</ele>
        <time>2014-10-18T18:18:26.362Z</time>
      </trkpt>
      <trkpt lat="45.67048" lon="4.62102">
        <ele>460</ele>
        <time>2014-10-18T18:18:27.357Z</time>
      </trkpt>
      <trkpt lat="45.67054" lon="4.62097">
        <ele>458</ele>
        <time>2014-10-18T18:18:28.363Z</time>
      </trkpt>
      <trkpt lat="45.67058" lon="4.62091">
        <ele>457</ele>
        <time>2014-10-18T18:18:29.354Z</time>
      </trkpt>
      <trkpt lat="45.67064" lon="4.62085">
        <ele>455</ele>
        <time>2014-10-18T18:18:30.357Z</time>
      </trkpt>
      <trkpt lat="45.6707" lon="4.6208">
        <ele>456</ele>
        <time>2014-10-18T18:18:31.358Z</time>
      </trkpt>
      <trkpt lat="45.67076" lon="4.62076">
        <ele>454</ele>
        <time>2014-10-18T18:18:32.351Z</time>
      </trkpt>
      <trkpt lat="45.67081" lon="4.62072">
        <ele>455</ele>
        <time>2014-10-18T18:18:33.350Z</time>
      </trkpt>
      <trkpt lat="45.67086" lon="4.62067">
        <ele>445</ele>
        <time>2014-10-18T18:18:34.375Z</time>
      </trkpt>
      <trkpt lat="45.67092" lon="4.62063">
        <ele>445</ele>
        <time>2014-10-18T18:18:35.381Z</time>
      </trkpt>
      <trkpt lat="45.67097" lon="4.62057">
        <ele>444</ele>
        <time>2014-10-18T18:18:36.368Z</time>
      </trkpt>
      <trkpt lat="45.67101" lon="4.62052">
        <ele>444</ele>
        <time>2014-10-18T18:18:37.376Z</time>
      </trkpt>
      <trkpt lat="45.67106" lon="4.62048">
        <ele>443</ele>
        <time>2014-10-18T18:18:38.374Z</time>
      </trkpt>
      <trkpt lat="45.6711" lon="4.62042">
        <ele>443</ele>
        <time>2014-10-18T18:18:39.427Z</time>
      </trkpt>
      <trkpt lat="45.67113" lon="4.62035">
        <ele>443</ele>
        <time>2014-10-18T18:18:40.375Z</time>
      </trkpt>
      <trkpt lat="45.67116" lon="4.62029">
        <ele>443</ele>
        <time>2014-10-18T18:18:41.376Z</time>
      </trkpt>
      <trkpt lat="45.6712" lon="4.6202">
        <ele>443</ele>
        <time>2014-10-18T18:18:42.369Z</time>
      </trkpt>
      <trkpt lat="45.67122" lon="4.62012">
        <ele>443</ele>
        <time>2014-10-18T18:18:43.377Z</time>
      </trkpt>
      <trkpt lat="45.67124" lon="4.62005">
        <ele>443</ele>
        <time>2014-10-18T18:18:44.374Z</time>
      </trkpt>
      <trkpt lat="45.67124" lon="4.61994">
        <ele>445</ele>
        <time>2014-10-18T18:18:45.372Z</time>
      </trkpt>
      <trkpt lat="45.67124" lon="4.61986">
        <ele>445</ele>
        <time>2014-10-18T18:18:46.373Z</time>
      </trkpt>
      <trkpt lat="45.67123" lon="4.61975">
        <ele>445</ele>
        <time>2014-10-18T18:18:47.376Z</time>
      </trkpt>
      <trkpt lat="45.67122" lon="4.61967">
        <ele>445</ele>
        <time>2014-10-18T18:18:48.367Z</time>
      </trkpt>
      <trkpt lat="45.67121" lon="4.61956">
        <ele>445</ele>
        <time>2014-10-18T18:18:49.375Z</time>
      </trkpt>
      <trkpt lat="45.6712" lon="4.61947">
        <ele>445</ele>
        <time>2014-10-18T18:18:50.372Z</time>
      </trkpt>
      <trkpt lat="45.67117" lon="4.61939">
        <ele>445</ele>
        <time>2014-10-18T18:18:51.369Z</time>
      </trkpt>
      <trkpt lat="45.67114" lon="4.6193">
        <ele>446</ele>
        <time>2014-10-18T18:18:52.367Z</time>
      </trkpt>
      <trkpt lat="45.6711" lon="4.61921">
        <ele>446</ele>
        <time>2014-10-18T18:18:53.365Z</time>
      </trkpt>
      <trkpt lat="45.67106" lon="4.61915">
        <ele>444</ele>
        <time>2014-10-18T18:18:54.361Z</time>
      </trkpt>
      <trkpt lat="45.67101" lon="4.61906">
        <ele>445</ele>
        <time>2014-10-18T18:18:55.374Z</time>
      </trkpt>
      <trkpt lat="45.67097" lon="4.61898">
        <ele>444</ele>
        <time>2014-10-18T18:18:56.372Z</time>
      </trkpt>
      <trkpt lat="45.67092" lon="4.61889">
        <ele>444</ele>
        <time>2014-10-18T18:18:57.375Z</time>
      </trkpt>
      <trkpt lat="45.67087" lon="4.61881">
        <ele>443</ele>
        <time>2014-10-18T18:18:58.370Z</time>
      </trkpt>
      <trkpt lat="45.67082" lon="4.61874">
        <ele>452</ele>
        <time>2014-10-18T18:18:59.371Z</time>
      </trkpt>
      <trkpt lat="45.67077" lon="4.61866">
        <ele>451</ele>
        <time>2014-10-18T18:19:00.374Z</time>
      </trkpt>
      <trkpt lat="45.67073" lon="4.61859">
        <ele>451</ele>
        <time>2014-10-18T18:19:01.372Z</time>
      </trkpt>
      <trkpt lat="45.6707" lon="4.61851">
        <ele>450</ele>
        <time>2014-10-18T18:19:02.372Z</time>
      </trkpt>
      <trkpt lat="45.67068" lon="4.61842">
        <ele>449</ele>
        <time>2014-10-18T18:19:03.369Z</time>
      </trkpt>
      <trkpt lat="45.67067" lon="4.61831">
        <ele>448</ele>
        <time>2014-10-18T18:19:04.390Z</time>
      </trkpt>
      <trkpt lat="45.67067" lon="4.61825">
        <ele>448</ele>
        <time>2014-10-18T18:19:05.370Z</time>
      </trkpt>
      <trkpt lat="45.67069" lon="4.61816">
        <ele>449</ele>
        <time>2014-10-18T18:19:06.366Z</time>
      </trkpt>
      <trkpt lat="45.6707" lon="4.61806">
        <ele>450</ele>
        <time>2014-10-18T18:19:07.375Z</time>
      </trkpt>
      <trkpt lat="45.67071" lon="4.61797">
        <ele>451</ele>
        <time>2014-10-18T18:19:08.368Z</time>
      </trkpt>
      <trkpt lat="45.67072" lon="4.61786">
        <ele>452</ele>
        <time>2014-10-18T18:19:09.374Z</time>
      </trkpt>
      <trkpt lat="45.67075" lon="4.61778">
        <ele>452</ele>
        <time>2014-10-18T18:19:10.370Z</time>
      </trkpt>
      <trkpt lat="45.67078" lon="4.61769">
        <ele>451</ele>
        <time>2014-10-18T18:19:11.372Z</time>
      </trkpt>
      <trkpt lat="45.67083" lon="4.61763">
        <ele>451</ele>
        <time>2014-10-18T18:19:12.366Z</time>
      </trkpt>
      <trkpt lat="45.67087" lon="4.61754">
        <ele>447</ele>
        <time>2014-10-18T18:19:13.359Z</time>
      </trkpt>
      <trkpt lat="45.67092" lon="4.61746">
        <ele>448</ele>
        <time>2014-10-18T18:19:14.364Z</time>
      </trkpt>
      <trkpt lat="45.67097" lon="4.61741">
        <ele>447</ele>
        <time>2014-10-18T18:19:15.362Z</time>
      </trkpt>
      <trkpt lat="45.67104" lon="4.61737">
        <ele>446</ele>
        <time>2014-10-18T18:19:16.362Z</time>
      </trkpt>
      <trkpt lat="45.67111" lon="4.61733">
        <ele>446</ele>
        <time>2014-10-18T18:19:17.365Z</time>
      </trkpt>
      <trkpt lat="45.67117" lon="4.61726">
        <ele>445</ele>
        <time>2014-10-18T18:19:18.364Z</time>
      </trkpt>
      <trkpt lat="45.67124" lon="4.61722">
        <ele>445</ele>
        <time>2014-10-18T18:19:19.364Z</time>
      </trkpt>
      <trkpt lat="45.67131" lon="4.6172">
        <ele>444</ele>
        <time>2014-10-18T18:19:20.359Z</time>
      </trkpt>
      <trkpt lat="45.67139" lon="4.61715">
        <ele>444</ele>
        <time>2014-10-18T18:19:21.375Z</time>
      </trkpt>
      <trkpt lat="45.67145" lon="4.61711">
        <ele>443</ele>
        <time>2014-10-18T18:19:22.364Z</time>
      </trkpt>
      <trkpt lat="45.67152" lon="4.61707">
        <ele>443</ele>
        <time>2014-10-18T18:19:23.364Z</time>
      </trkpt>
      <trkpt lat="45.67158" lon="4.61703">
        <ele>443</ele>
        <time>2014-10-18T18:19:24.356Z</time>
      </trkpt>
      <trkpt lat="45.67165" lon="4.61698">
        <ele>443</ele>
        <time>2014-10-18T18:19:25.365Z</time>
      </trkpt>
      <trkpt lat="45.67172" lon="4.61694">
        <ele>438</ele>
        <time>2014-10-18T18:19:26.354Z</time>
      </trkpt>
      <trkpt lat="45.67179" lon="4.6169">
        <ele>438</ele>
        <time>2014-10-18T18:19:27.362Z</time>
      </trkpt>
      <trkpt lat="45.67185" lon="4.61688">
        <ele>438</ele>
        <time>2014-10-18T18:19:28.362Z</time>
      </trkpt>
      <trkpt lat="45.67191" lon="4.61685">
        <ele>438</ele>
        <time>2014-10-18T18:19:29.365Z</time>
      </trkpt>
      <trkpt lat="45.672" lon="4.61683">
        <ele>437</ele>
        <time>2014-10-18T18:19:30.363Z</time>
      </trkpt>
      <trkpt lat="45.67207" lon="4.61681">
        <ele>437</ele>
        <time>2014-10-18T18:19:31.367Z</time>
      </trkpt>
      <trkpt lat="45.67213" lon="4.61681">
        <ele>437</ele>
        <time>2014-10-18T18:19:32.362Z</time>
      </trkpt>
      <trkpt lat="45.67223" lon="4.61681">
        <ele>437</ele>
        <time>2014-10-18T18:19:33.363Z</time>
      </trkpt>
      <trkpt lat="45.67229" lon="4.61681">
        <ele>437</ele>
        <time>2014-10-18T18:19:34.356Z</time>
      </trkpt>
      <trkpt lat="45.67235" lon="4.61683">
        <ele>437</ele>
        <time>2014-10-18T18:19:35.362Z</time>
      </trkpt>
      <trkpt lat="45.67242" lon="4.61683">
        <ele>437</ele>
        <time>2014-10-18T18:19:36.352Z</time>
      </trkpt>
      <trkpt lat="45.67248" lon="4.61685">
        <ele>437</ele>
        <time>2014-10-18T18:19:37.363Z</time>
      </trkpt>
      <trkpt lat="45.67255" lon="4.61688">
        <ele>435</ele>
        <time>2014-10-18T18:19:38.385Z</time>
      </trkpt>
      <trkpt lat="45.67261" lon="4.6169">
        <ele>434</ele>
        <time>2014-10-18T18:19:39.363Z</time>
      </trkpt>
      <trkpt lat="45.67269" lon="4.61694">
        <ele>433</ele>
        <time>2014-10-18T18:19:40.359Z</time>
      </trkpt>
      <trkpt lat="45.67276" lon="4.61696">
        <ele>433</ele>
        <time>2014-10-18T18:19:41.360Z</time>
      </trkpt>
      <trkpt lat="45.67284" lon="4.61698">
        <ele>432</ele>
        <time>2014-10-18T18:19:42.358Z</time>
      </trkpt>
      <trkpt lat="45.67292" lon="4.617">
        <ele>432</ele>
        <time>2014-10-18T18:19:43.358Z</time>
      </trkpt>
      <trkpt lat="45.67299" lon="4.617">
        <ele>432</ele>
        <time>2014-10-18T18:19:44.357Z</time>
      </trkpt>
      <trkpt lat="45.67306" lon="4.61698">
        <ele>432</ele>
        <time>2014-10-18T18:19:45.380Z</time>
      </trkpt>
      <trkpt lat="45.67314" lon="4.61696">
        <ele>432</ele>
        <time>2014-10-18T18:19:46.365Z</time>
      </trkpt>
      <trkpt lat="45.6732" lon="4.61694">
        <ele>432</ele>
        <time>2014-10-18T18:19:47.379Z</time>
      </trkpt>
      <trkpt lat="45.67326" lon="4.6169">
        <ele>432</ele>
        <time>2014-10-18T18:19:48.369Z</time>
      </trkpt>
      <trkpt lat="45.67332" lon="4.61685">
        <ele>433</ele>
        <time>2014-10-18T18:19:49.363Z</time>
      </trkpt>
      <trkpt lat="45.67337" lon="4.61679">
        <ele>429</ele>
        <time>2014-10-18T18:19:50.359Z</time>
      </trkpt>
      <trkpt lat="45.67343" lon="4.6167">
        <ele>430</ele>
        <time>2014-10-18T18:19:51.364Z</time>
      </trkpt>
      <trkpt lat="45.67347" lon="4.61664">
        <ele>431</ele>
        <time>2014-10-18T18:19:52.365Z</time>
      </trkpt>
      <trkpt lat="45.67351" lon="4.61655">
        <ele>429</ele>
        <time>2014-10-18T18:19:53.388Z</time>
      </trkpt>
      <trkpt lat="45.67353" lon="4.61647">
        <ele>428</ele>
        <time>2014-10-18T18:19:54.359Z</time>
      </trkpt>
      <trkpt lat="45.67356" lon="4.61636">
        <ele>428</ele>
        <time>2014-10-18T18:19:55.364Z</time>
      </trkpt>
      <trkpt lat="45.67358" lon="4.61625">
        <ele>428</ele>
        <time>2014-10-18T18:19:56.355Z</time>
      </trkpt>
      <trkpt lat="45.67359" lon="4.61615">
        <ele>428</ele>
        <time>2014-10-18T18:19:57.366Z</time>
      </trkpt>
      <trkpt lat="45.67358" lon="4.61604">
        <ele>429</ele>
        <time>2014-10-18T18:19:58.356Z</time>
      </trkpt>
      <trkpt lat="45.67358" lon="4.61591">
        <ele>431</ele>
        <time>2014-10-18T18:19:59.358Z</time>
      </trkpt>
      <trkpt lat="45.67357" lon="4.61582">
        <ele>432</ele>
        <time>2014-10-18T18:20:00.355Z</time>
      </trkpt>
      <trkpt lat="45.67356" lon="4.61574">
        <ele>432</ele>
        <time>2014-10-18T18:20:01.364Z</time>
      </trkpt>
      <trkpt lat="45.67353" lon="4.61565">
        <ele>432</ele>
        <time>2014-10-18T18:20:02.355Z</time>
      </trkpt>
      <trkpt lat="45.67351" lon="4.61557">
        <ele>432</ele>
        <time>2014-10-18T18:20:03.379Z</time>
      </trkpt>
      <trkpt lat="45.67349" lon="4.61548">
        <ele>431</ele>
        <time>2014-10-18T18:20:04.360Z</time>
      </trkpt>
      <trkpt lat="45.67348" lon="4.61537">
        <ele>431</ele>
        <time>2014-10-18T18:20:05.360Z</time>
      </trkpt>
      <trkpt lat="45.67346" lon="4.61529">
        <ele>432</ele>
        <time>2014-10-18T18:20:06.346Z</time>
      </trkpt>
      <trkpt lat="45.67345" lon="4.6152">
        <ele>434</ele>
        <time>2014-10-18T18:20:07.353Z</time>
      </trkpt>
      <trkpt lat="45.67343" lon="4.61512">
        <ele>436</ele>
        <time>2014-10-18T18:20:08.348Z</time>
      </trkpt>
      <trkpt lat="45.67341" lon="4.61503">
        <ele>439</ele>
        <time>2014-10-18T18:20:09.363Z</time>
      </trkpt>
      <trkpt lat="45.6734" lon="4.61494">
        <ele>439</ele>
        <time>2014-10-18T18:20:10.353Z</time>
      </trkpt>
      <trkpt lat="45.67338" lon="4.61488">
        <ele>437</ele>
        <time>2014-10-18T18:20:11.353Z</time>
      </trkpt>
      <trkpt lat="45.67338" lon="4.61479">
        <ele>435</ele>
        <time>2014-10-18T18:20:12.351Z</time>
      </trkpt>
      <trkpt lat="45.67337" lon="4.61473">
        <ele>433</ele>
        <time>2014-10-18T18:20:13.347Z</time>
      </trkpt>
      <trkpt lat="45.67336" lon="4.61467">
        <ele>433</ele>
        <time>2014-10-18T18:20:14.354Z</time>
      </trkpt>
      <trkpt lat="45.67336" lon="4.6146">
        <ele>432</ele>
        <time>2014-10-18T18:20:15.366Z</time>
      </trkpt>
      <trkpt lat="45.67335" lon="4.61449">
        <ele>433</ele>
        <time>2014-10-18T18:20:17.402Z</time>
      </trkpt>
      <trkpt lat="45.67334" lon="4.61443">
        <ele>433</ele>
        <time>2014-10-18T18:20:18.352Z</time>
      </trkpt>
      <trkpt lat="45.67332" lon="4.61437">
        <ele>449</ele>
        <time>2014-10-18T18:20:19.346Z</time>
      </trkpt>
      <trkpt lat="45.67332" lon="4.6143">
        <ele>448</ele>
        <time>2014-10-18T18:20:20.353Z</time>
      </trkpt>
      <trkpt lat="45.67329" lon="4.61419">
        <ele>445</ele>
        <time>2014-10-18T18:20:22.349Z</time>
      </trkpt>
      <trkpt lat="45.67329" lon="4.61413">
        <ele>445</ele>
        <time>2014-10-18T18:20:23.350Z</time>
      </trkpt>
      <trkpt lat="45.67328" lon="4.61402">
        <ele>449</ele>
        <time>2014-10-18T18:20:25.348Z</time>
      </trkpt>
      <trkpt lat="45.67328" lon="4.61394">
        <ele>451</ele>
        <time>2014-10-18T18:20:26.347Z</time>
      </trkpt>
      <trkpt lat="45.67327" lon="4.61387">
        <ele>452</ele>
        <time>2014-10-18T18:20:27.352Z</time>
      </trkpt>
      <trkpt lat="45.67327" lon="4.61381">
        <ele>452</ele>
        <time>2014-10-18T18:20:28.346Z</time>
      </trkpt>
      <trkpt lat="45.67327" lon="4.61372">
        <ele>452</ele>
        <time>2014-10-18T18:20:29.350Z</time>
      </trkpt>
      <trkpt lat="45.67328" lon="4.61366">
        <ele>452</ele>
        <time>2014-10-18T18:20:30.355Z</time>
      </trkpt>
      <trkpt lat="45.67329" lon="4.61359">
        <ele>451</ele>
        <time>2014-10-18T18:20:31.365Z</time>
      </trkpt>
      <trkpt lat="45.6733" lon="4.61353">
        <ele>450</ele>
        <time>2014-10-18T18:20:32.367Z</time>
      </trkpt>
      <trkpt lat="45.67332" lon="4.61346">
        <ele>448</ele>
        <time>2014-10-18T18:20:33.366Z</time>
      </trkpt>
      <trkpt lat="45.67334" lon="4.6134">
        <ele>439</ele>
        <time>2014-10-18T18:20:34.387Z</time>
      </trkpt>
      <trkpt lat="45.67335" lon="4.61334">
        <ele>442</ele>
        <time>2014-10-18T18:20:35.362Z</time>
      </trkpt>
      <trkpt lat="45.6734" lon="4.61329">
        <ele>439</ele>
        <time>2014-10-18T18:20:36.373Z</time>
      </trkpt>
      <trkpt lat="45.67344" lon="4.61323">
        <ele>437</ele>
        <time>2014-10-18T18:20:37.374Z</time>
      </trkpt>
      <trkpt lat="45.6735" lon="4.61318">
        <ele>434</ele>
        <time>2014-10-18T18:20:38.362Z</time>
      </trkpt>
      <trkpt lat="45.67353" lon="4.61314">
        <ele>433</ele>
        <time>2014-10-18T18:20:39.350Z</time>
      </trkpt>
      <trkpt lat="45.67357" lon="4.61306">
        <ele>432</ele>
        <time>2014-10-18T18:20:40.369Z</time>
      </trkpt>
      <trkpt lat="45.67363" lon="4.61299">
        <ele>431</ele>
        <time>2014-10-18T18:20:41.354Z</time>
      </trkpt>
      <trkpt lat="45.6737" lon="4.61295">
        <ele>430</ele>
        <time>2014-10-18T18:20:42.378Z</time>
      </trkpt>
      <trkpt lat="45.67377" lon="4.61288">
        <ele>429</ele>
        <time>2014-10-18T18:20:44.351Z</time>
      </trkpt>
      <trkpt lat="45.67382" lon="4.61284">
        <ele>428</ele>
        <time>2014-10-18T18:20:45.353Z</time>
      </trkpt>
      <trkpt lat="45.67386" lon="4.61278">
        <ele>428</ele>
        <time>2014-10-18T18:20:46.360Z</time>
      </trkpt>
      <trkpt lat="45.6739" lon="4.61273">
        <ele>427</ele>
        <time>2014-10-18T18:20:47.357Z</time>
      </trkpt>
      <trkpt lat="45.67393" lon="4.61267">
        <ele>427</ele>
        <time>2014-10-18T18:20:48.387Z</time>
      </trkpt>
      <trkpt lat="45.67396" lon="4.61263">
        <ele>426</ele>
        <time>2014-10-18T18:20:49.363Z</time>
      </trkpt>
      <trkpt lat="45.674" lon="4.61252">
        <ele>425</ele>
        <time>2014-10-18T18:20:51.363Z</time>
      </trkpt>
      <trkpt lat="45.67401" lon="4.61246">
        <ele>425</ele>
        <time>2014-10-18T18:20:52.357Z</time>
      </trkpt>
      <trkpt lat="45.67402" lon="4.61239">
        <ele>425</ele>
        <time>2014-10-18T18:20:53.357Z</time>
      </trkpt>
      <trkpt lat="45.67403" lon="4.61231">
        <ele>425</ele>
        <time>2014-10-18T18:20:54.362Z</time>
      </trkpt>
      <trkpt lat="45.67403" lon="4.61224">
        <ele>425</ele>
        <time>2014-10-18T18:20:55.353Z</time>
      </trkpt>
      <trkpt lat="45.67404" lon="4.61215">
        <ele>425</ele>
        <time>2014-10-18T18:20:56.365Z</time>
      </trkpt>
      <trkpt lat="45.67404" lon="4.61203">
        <ele>425</ele>
        <time>2014-10-18T18:20:58.361Z</time>
      </trkpt>
      <trkpt lat="45.67403" lon="4.61194">
        <ele>425</ele>
        <time>2014-10-18T18:20:59.357Z</time>
      </trkpt>
      <trkpt lat="45.67403" lon="4.61188">
        <ele>424</ele>
        <time>2014-10-18T18:21:00.357Z</time>
      </trkpt>
      <trkpt lat="45.67403" lon="4.61181">
        <ele>424</ele>
        <time>2014-10-18T18:21:01.389Z</time>
      </trkpt>
      <trkpt lat="45.67402" lon="4.61175">
        <ele>423</ele>
        <time>2014-10-18T18:21:02.361Z</time>
      </trkpt>
      <trkpt lat="45.67402" lon="4.61168">
        <ele>423</ele>
        <time>2014-10-18T18:21:03.365Z</time>
      </trkpt>
      <trkpt lat="45.67401" lon="4.6116">
        <ele>422</ele>
        <time>2014-10-18T18:21:04.360Z</time>
      </trkpt>
      <trkpt lat="45.67404" lon="4.61151">
        <ele>422</ele>
        <time>2014-10-18T18:21:05.379Z</time>
      </trkpt>
      <trkpt lat="45.67404" lon="4.61145">
        <ele>422</ele>
        <time>2014-10-18T18:21:06.364Z</time>
      </trkpt>
      <trkpt lat="45.67405" lon="4.61136">
        <ele>422</ele>
        <time>2014-10-18T18:21:07.359Z</time>
      </trkpt>
      <trkpt lat="45.67407" lon="4.6113">
        <ele>422</ele>
        <time>2014-10-18T18:21:08.358Z</time>
      </trkpt>
      <trkpt lat="45.67409" lon="4.61123">
        <ele>422</ele>
        <time>2014-10-18T18:21:09.378Z</time>
      </trkpt>
      <trkpt lat="45.67416" lon="4.61115">
        <ele>422</ele>
        <time>2014-10-18T18:21:11.376Z</time>
      </trkpt>
      <trkpt lat="45.67419" lon="4.6111">
        <ele>421</ele>
        <time>2014-10-18T18:21:12.370Z</time>
      </trkpt>
      <trkpt lat="45.67424" lon="4.61104">
        <ele>421</ele>
        <time>2014-10-18T18:21:14.374Z</time>
      </trkpt>
      <trkpt lat="45.67425" lon="4.611">
        <ele>421</ele>
        <time>2014-10-18T18:21:15.371Z</time>
      </trkpt>
      <trkpt lat="45.6743" lon="4.61089">
        <ele>421</ele>
        <time>2014-10-18T18:23:07.830Z</time>
      </trkpt>
      <trkpt lat="45.67433" lon="4.61087">
        <ele>421</ele>
        <time>2014-10-18T18:23:08.831Z</time>
      </trkpt>
      <trkpt lat="45.67438" lon="4.61078">
        <ele>428</ele>
        <time>2014-10-18T18:23:11.827Z</time>
      </trkpt>
      <trkpt lat="45.67441" lon="4.61074">
        <ele>429</ele>
        <time>2014-10-18T18:23:12.833Z</time>
      </trkpt>
      <trkpt lat="45.67449" lon="4.6107">
        <ele>430</ele>
        <time>2014-10-18T18:23:16.829Z</time>
      </trkpt>
      <trkpt lat="45.67452" lon="4.61067">
        <ele>431</ele>
        <time>2014-10-18T18:23:17.835Z</time>
      </trkpt>
      <trkpt lat="45.67461" lon="4.61065">
        <ele>431</ele>
        <time>2014-10-18T18:23:20.830Z</time>
      </trkpt>
      <trkpt lat="45.67464" lon="4.61065">
        <ele>431</ele>
        <time>2014-10-18T18:23:21.835Z</time>
      </trkpt>
      <trkpt lat="45.67472" lon="4.61065">
        <ele>431</ele>
        <time>2014-10-18T18:23:23.824Z</time>
      </trkpt>
      <trkpt lat="45.67476" lon="4.6107">
        <ele>431</ele>
        <time>2014-10-18T18:23:24.818Z</time>
      </trkpt>
      <trkpt lat="45.67483" lon="4.61072">
        <ele>430</ele>
        <time>2014-10-18T18:23:26.817Z</time>
      </trkpt>
      <trkpt lat="45.67488" lon="4.61074">
        <ele>430</ele>
        <time>2014-10-18T18:23:27.829Z</time>
      </trkpt>
      <trkpt lat="45.67492" lon="4.61076">
        <ele>429</ele>
        <time>2014-10-18T18:23:28.818Z</time>
      </trkpt>
      <trkpt lat="45.67496" lon="4.61078">
        <ele>428</ele>
        <time>2014-10-18T18:23:29.820Z</time>
      </trkpt>
      <trkpt lat="45.67502" lon="4.6108">
        <ele>428</ele>
        <time>2014-10-18T18:23:30.814Z</time>
      </trkpt>
      <trkpt lat="45.67506" lon="4.61085">
        <ele>426</ele>
        <time>2014-10-18T18:23:31.820Z</time>
      </trkpt>
      <trkpt lat="45.67513" lon="4.61091">
        <ele>425</ele>
        <time>2014-10-18T18:23:33.817Z</time>
      </trkpt>
      <trkpt lat="45.67518" lon="4.61095">
        <ele>425</ele>
        <time>2014-10-18T18:23:34.816Z</time>
      </trkpt>
      <trkpt lat="45.67523" lon="4.61097">
        <ele>425</ele>
        <time>2014-10-18T18:23:35.820Z</time>
      </trkpt>
      <trkpt lat="45.67526" lon="4.61102">
        <ele>425</ele>
        <time>2014-10-18T18:23:36.821Z</time>
      </trkpt>
      <trkpt lat="45.67531" lon="4.61108">
        <ele>424</ele>
        <time>2014-10-18T18:23:37.818Z</time>
      </trkpt>
      <trkpt lat="45.67534" lon="4.61112">
        <ele>424</ele>
        <time>2014-10-18T18:23:38.815Z</time>
      </trkpt>
      <trkpt lat="45.67537" lon="4.61119">
        <ele>424</ele>
        <time>2014-10-18T18:23:39.814Z</time>
      </trkpt>
      <trkpt lat="45.6754" lon="4.61125">
        <ele>424</ele>
        <time>2014-10-18T18:23:40.824Z</time>
      </trkpt>
      <trkpt lat="45.67541" lon="4.61132">
        <ele>424</ele>
        <time>2014-10-18T18:23:41.826Z</time>
      </trkpt>
      <trkpt lat="45.67544" lon="4.6114">
        <ele>423</ele>
        <time>2014-10-18T18:23:42.820Z</time>
      </trkpt>
      <trkpt lat="45.67547" lon="4.61147">
        <ele>423</ele>
        <time>2014-10-18T18:23:43.831Z</time>
      </trkpt>
      <trkpt lat="45.67549" lon="4.61155">
        <ele>423</ele>
        <time>2014-10-18T18:23:44.837Z</time>
      </trkpt>
      <trkpt lat="45.67551" lon="4.61162">
        <ele>423</ele>
        <time>2014-10-18T18:23:45.831Z</time>
      </trkpt>
      <trkpt lat="45.67553" lon="4.6117">
        <ele>421</ele>
        <time>2014-10-18T18:23:46.834Z</time>
      </trkpt>
      <trkpt lat="45.67554" lon="4.61179">
        <ele>421</ele>
        <time>2014-10-18T18:23:47.829Z</time>
      </trkpt>
      <trkpt lat="45.67555" lon="4.61188">
        <ele>421</ele>
        <time>2014-10-18T18:23:48.833Z</time>
      </trkpt>
      <trkpt lat="45.67556" lon="4.61196">
        <ele>421</ele>
        <time>2014-10-18T18:23:49.827Z</time>
      </trkpt>
      <trkpt lat="45.67556" lon="4.61203">
        <ele>421</ele>
        <time>2014-10-18T18:23:50.832Z</time>
      </trkpt>
      <trkpt lat="45.67553" lon="4.61209">
        <ele>421</ele>
        <time>2014-10-18T18:23:51.829Z</time>
      </trkpt>
      <trkpt lat="45.67553" lon="4.61218">
        <ele>421</ele>
        <time>2014-10-18T18:23:52.827Z</time>
      </trkpt>
      <trkpt lat="45.67552" lon="4.61224">
        <ele>421</ele>
        <time>2014-10-18T18:23:53.829Z</time>
      </trkpt>
      <trkpt lat="45.67551" lon="4.61231">
        <ele>421</ele>
        <time>2014-10-18T18:23:54.829Z</time>
      </trkpt>
      <trkpt lat="45.67549" lon="4.61241">
        <ele>421</ele>
        <time>2014-10-18T18:23:56.833Z</time>
      </trkpt>
      <trkpt lat="45.67547" lon="4.61248">
        <ele>421</ele>
        <time>2014-10-18T18:23:57.836Z</time>
      </trkpt>
      <trkpt lat="45.67547" lon="4.61258">
        <ele>422</ele>
        <time>2014-10-18T18:23:59.832Z</time>
      </trkpt>
      <trkpt lat="45.67546" lon="4.61265">
        <ele>422</ele>
        <time>2014-10-18T18:24:00.828Z</time>
      </trkpt>
      <trkpt lat="45.67543" lon="4.61273">
        <ele>422</ele>
        <time>2014-10-18T18:24:02.837Z</time>
      </trkpt>
      <trkpt lat="45.67542" lon="4.61278">
        <ele>422</ele>
        <time>2014-10-18T18:24:03.831Z</time>
      </trkpt>
      <trkpt lat="45.67541" lon="4.61286">
        <ele>422</ele>
        <time>2014-10-18T18:24:05.833Z</time>
      </trkpt>
      <trkpt lat="45.6754" lon="4.61291">
        <ele>422</ele>
        <time>2014-10-18T18:24:06.830Z</time>
      </trkpt>
      <trkpt lat="45.67538" lon="4.61301">
        <ele>422</ele>
        <time>2014-10-18T18:24:09.833Z</time>
      </trkpt>
      <trkpt lat="45.67537" lon="4.61303">
        <ele>422</ele>
        <time>2014-10-18T18:24:10.828Z</time>
      </trkpt>
      <trkpt lat="45.67535" lon="4.61314">
        <ele>421</ele>
        <time>2014-10-18T18:24:13.830Z</time>
      </trkpt>
      <trkpt lat="45.67534" lon="4.61316">
        <ele>421</ele>
        <time>2014-10-18T18:24:14.832Z</time>
      </trkpt>
      <trkpt lat="45.67534" lon="4.61325">
        <ele>421</ele>
        <time>2014-10-18T18:24:18.829Z</time>
      </trkpt>
      <trkpt lat="45.67534" lon="4.61329">
        <ele>421</ele>
        <time>2014-10-18T18:24:19.828Z</time>
      </trkpt>
      <trkpt lat="45.67533" lon="4.6134">
        <ele>423</ele>
        <time>2014-10-18T18:24:23.832Z</time>
      </trkpt>
      <trkpt lat="45.67533" lon="4.61342">
        <ele>423</ele>
        <time>2014-10-18T18:24:24.832Z</time>
      </trkpt>
      <trkpt lat="45.67532" lon="4.61353">
        <ele>423</ele>
        <time>2014-10-18T18:24:29.830Z</time>
      </trkpt>
      <trkpt lat="45.67531" lon="4.61355">
        <ele>423</ele>
        <time>2014-10-18T18:24:30.833Z</time>
      </trkpt>
      <trkpt lat="45.67531" lon="4.61366">
        <ele>424</ele>
        <time>2014-10-18T18:24:34.828Z</time>
      </trkpt>
      <trkpt lat="45.67531" lon="4.61368">
        <ele>424</ele>
        <time>2014-10-18T18:24:35.826Z</time>
      </trkpt>
      <trkpt lat="45.67529" lon="4.61376">
        <ele>424</ele>
        <time>2014-10-18T18:24:39.834Z</time>
      </trkpt>
      <trkpt lat="45.67529" lon="4.61381">
        <ele>424</ele>
        <time>2014-10-18T18:24:40.827Z</time>
      </trkpt>
      <trkpt lat="45.67527" lon="4.61391">
        <ele>424</ele>
        <time>2014-10-18T18:24:44.830Z</time>
      </trkpt>
      <trkpt lat="45.67527" lon="4.61394">
        <ele>424</ele>
        <time>2014-10-18T18:24:45.831Z</time>
      </trkpt>
      <trkpt lat="45.67525" lon="4.61404">
        <ele>424</ele>
        <time>2014-10-18T18:24:49.826Z</time>
      </trkpt>
      <trkpt lat="45.67524" lon="4.61406">
        <ele>423</ele>
        <time>2014-10-18T18:24:50.836Z</time>
      </trkpt>
      <trkpt lat="45.67524" lon="4.61417">
        <ele>422</ele>
        <time>2014-10-18T18:24:53.830Z</time>
      </trkpt>
      <trkpt lat="45.67524" lon="4.61419">
        <ele>422</ele>
        <time>2014-10-18T18:24:54.852Z</time>
      </trkpt>
      <trkpt lat="45.67533" lon="4.61417">
        <ele>424</ele>
        <time>2014-10-18T18:25:02.834Z</time>
      </trkpt>
      <trkpt lat="45.67534" lon="4.61417">
        <ele>424</ele>
        <time>2014-10-18T18:25:03.832Z</time>
      </trkpt>
      <trkpt lat="45.67538" lon="4.61406">
        <ele>426</ele>
        <time>2014-10-18T18:25:08.831Z</time>
      </trkpt>
      <trkpt lat="45.67539" lon="4.61404">
        <ele>426</ele>
        <time>2014-10-18T18:25:09.844Z</time>
      </trkpt>
      <trkpt lat="45.67542" lon="4.61394">
        <ele>426</ele>
        <time>2014-10-18T18:25:15.827Z</time>
      </trkpt>
      <trkpt lat="45.67543" lon="4.61391">
        <ele>426</ele>
        <time>2014-10-18T18:25:16.827Z</time>
      </trkpt>
      <trkpt lat="45.67551" lon="4.61385">
        <ele>427</ele>
        <time>2014-10-18T18:25:22.827Z</time>
      </trkpt>
      <trkpt lat="45.67552" lon="4.61385">
        <ele>427</ele>
        <time>2014-10-18T18:25:23.833Z</time>
      </trkpt>
      <trkpt lat="45.67561" lon="4.61383">
        <ele>428</ele>
        <time>2014-10-18T18:25:30.846Z</time>
      </trkpt>
      <trkpt lat="45.67563" lon="4.61385">
        <ele>428</ele>
        <time>2014-10-18T18:25:31.828Z</time>
      </trkpt>
      <trkpt lat="45.6757" lon="4.61383">
        <ele>429</ele>
        <time>2014-10-18T18:25:37.828Z</time>
      </trkpt>
      <trkpt lat="45.67573" lon="4.61383">
        <ele>429</ele>
        <time>2014-10-18T18:25:38.827Z</time>
      </trkpt>
      <trkpt lat="45.67581" lon="4.61381">
        <ele>430</ele>
        <time>2014-10-18T18:25:45.830Z</time>
      </trkpt>
      <trkpt lat="45.67582" lon="4.61379">
        <ele>430</ele>
        <time>2014-10-18T18:25:46.837Z</time>
      </trkpt>
      <trkpt lat="45.6759" lon="4.61372">
        <ele>441</ele>
        <time>2014-10-18T18:25:56.828Z</time>
      </trkpt>
      <trkpt lat="45.67592" lon="4.6137">
        <ele>441</ele>
        <time>2014-10-18T18:25:57.829Z</time>
      </trkpt>
      <trkpt lat="45.67599" lon="4.61372">
        <ele>441</ele>
        <time>2014-10-18T18:26:02.830Z</time>
      </trkpt>
      <trkpt lat="45.67601" lon="4.61374">
        <ele>442</ele>
        <time>2014-10-18T18:26:03.830Z</time>
      </trkpt>
      <trkpt lat="45.67605" lon="4.61385">
        <ele>442</ele>
        <time>2014-10-18T18:26:09.828Z</time>
      </trkpt>
      <trkpt lat="45.67606" lon="4.61387">
        <ele>442</ele>
        <time>2014-10-18T18:26:10.829Z</time>
      </trkpt>
      <trkpt lat="45.67612" lon="4.61394">
        <ele>442</ele>
        <time>2014-10-18T18:26:16.834Z</time>
      </trkpt>
      <trkpt lat="45.67614" lon="4.61391">
        <ele>442</ele>
        <time>2014-10-18T18:26:17.826Z</time>
      </trkpt>
      <trkpt lat="45.67614" lon="4.61381">
        <ele>442</ele>
        <time>2014-10-18T18:26:24.826Z</time>
      </trkpt>
      <trkpt lat="45.67614" lon="4.61376">
        <ele>443</ele>
        <time>2014-10-18T18:26:25.827Z</time>
      </trkpt>
      <trkpt lat="45.67617" lon="4.61366">
        <ele>443</ele>
        <time>2014-10-18T18:26:31.837Z</time>
      </trkpt>
      <trkpt lat="45.67617" lon="4.61361">
        <ele>443</ele>
        <time>2014-10-18T18:26:32.826Z</time>
      </trkpt>
      <trkpt lat="45.67618" lon="4.61351">
        <ele>443</ele>
        <time>2014-10-18T18:26:38.829Z</time>
      </trkpt>
      <trkpt lat="45.67618" lon="4.61349">
        <ele>443</ele>
        <time>2014-10-18T18:26:39.827Z</time>
      </trkpt>
      <trkpt lat="45.67625" lon="4.61342">
        <ele>444</ele>
        <time>2014-10-18T18:26:45.828Z</time>
      </trkpt>
      <trkpt lat="45.67628" lon="4.6134">
        <ele>445</ele>
        <time>2014-10-18T18:26:46.849Z</time>
      </trkpt>
      <trkpt lat="45.67632" lon="4.61349">
        <ele>445</ele>
        <time>2014-10-18T18:26:52.832Z</time>
      </trkpt>
      <trkpt lat="45.67635" lon="4.61351">
        <ele>445</ele>
        <time>2014-10-18T18:26:53.830Z</time>
      </trkpt>
      <trkpt lat="45.67642" lon="4.61357">
        <ele>446</ele>
        <time>2014-10-18T18:26:58.832Z</time>
      </trkpt>
      <trkpt lat="45.67643" lon="4.61357">
        <ele>446</ele>
        <time>2014-10-18T18:26:59.827Z</time>
      </trkpt>
      <trkpt lat="45.67651" lon="4.61364">
        <ele>447</ele>
        <time>2014-10-18T18:27:04.826Z</time>
      </trkpt>
      <trkpt lat="45.67653" lon="4.61366">
        <ele>447</ele>
        <time>2014-10-18T18:27:05.835Z</time>
      </trkpt>
      <trkpt lat="45.67659" lon="4.6137">
        <ele>447</ele>
        <time>2014-10-18T18:27:10.852Z</time>
      </trkpt>
      <trkpt lat="45.67661" lon="4.6137">
        <ele>447</ele>
        <time>2014-10-18T18:27:11.828Z</time>
      </trkpt>
      <trkpt lat="45.67669" lon="4.61372">
        <ele>452</ele>
        <time>2014-10-18T18:27:16.840Z</time>
      </trkpt>
      <trkpt lat="45.67671" lon="4.61372">
        <ele>452</ele>
        <time>2014-10-18T18:27:17.832Z</time>
      </trkpt>
      <trkpt lat="45.67677" lon="4.61376">
        <ele>452</ele>
        <time>2014-10-18T18:27:23.448Z</time>
      </trkpt>
      <trkpt lat="45.6768" lon="4.61376">
        <ele>452</ele>
        <time>2014-10-18T18:27:23.834Z</time>
      </trkpt>
      <trkpt lat="45.67687" lon="4.61376">
        <ele>452</ele>
        <time>2014-10-18T18:27:28.562Z</time>
      </trkpt>
      <trkpt lat="45.67689" lon="4.61376">
        <ele>452</ele>
        <time>2014-10-18T18:27:29.577Z</time>
      </trkpt>
      <trkpt lat="45.67697" lon="4.61374">
        <ele>452</ele>
        <time>2014-10-18T18:27:34.560Z</time>
      </trkpt>
      <trkpt lat="45.67698" lon="4.61372">
        <ele>452</ele>
        <time>2014-10-18T18:27:35.560Z</time>
      </trkpt>
      <trkpt lat="45.67705" lon="4.61372">
        <ele>452</ele>
        <time>2014-10-18T18:27:40.559Z</time>
      </trkpt>
      <trkpt lat="45.67708" lon="4.6137">
        <ele>452</ele>
        <time>2014-10-18T18:27:41.568Z</time>
      </trkpt>
      <trkpt lat="45.67714" lon="4.61364">
        <ele>453</ele>
        <time>2014-10-18T18:27:46.563Z</time>
      </trkpt>
      <trkpt lat="45.67716" lon="4.61361">
        <ele>453</ele>
        <time>2014-10-18T18:27:47.564Z</time>
      </trkpt>
      <trkpt lat="45.67721" lon="4.61353">
        <ele>454</ele>
        <time>2014-10-18T18:27:53.558Z</time>
      </trkpt>
      <trkpt lat="45.67724" lon="4.61351">
        <ele>455</ele>
        <time>2014-10-18T18:27:54.557Z</time>
      </trkpt>
      <trkpt lat="45.6773" lon="4.61342">
        <ele>456</ele>
        <time>2014-10-18T18:27:59.554Z</time>
      </trkpt>
      <trkpt lat="45.67731" lon="4.61342">
        <ele>456</ele>
        <time>2014-10-18T18:28:00.557Z</time>
      </trkpt>
      <trkpt lat="45.67739" lon="4.61336">
        <ele>458</ele>
        <time>2014-10-18T18:28:06.554Z</time>
      </trkpt>
      <trkpt lat="45.6774" lon="4.61334">
        <ele>459</ele>
        <time>2014-10-18T18:28:07.555Z</time>
      </trkpt>
      <trkpt lat="45.67746" lon="4.61325">
        <ele>462</ele>
        <time>2014-10-18T18:28:13.560Z</time>
      </trkpt>
      <trkpt lat="45.67748" lon="4.61323">
        <ele>462</ele>
        <time>2014-10-18T18:28:14.562Z</time>
      </trkpt>
      <trkpt lat="45.67755" lon="4.61314">
        <ele>466</ele>
        <time>2014-10-18T18:28:20.561Z</time>
      </trkpt>
      <trkpt lat="45.67757" lon="4.61314">
        <ele>466</ele>
        <time>2014-10-18T18:28:21.557Z</time>
      </trkpt>
      <trkpt lat="45.67763" lon="4.61308">
        <ele>467</ele>
        <time>2014-10-18T18:28:26.555Z</time>
      </trkpt>
      <trkpt lat="45.67765" lon="4.61308">
        <ele>467</ele>
        <time>2014-10-18T18:28:27.556Z</time>
      </trkpt>
      <trkpt lat="45.67772" lon="4.61301">
        <ele>468</ele>
        <time>2014-10-18T18:28:33.556Z</time>
      </trkpt>
      <trkpt lat="45.67773" lon="4.61299">
        <ele>468</ele>
        <time>2014-10-18T18:28:34.572Z</time>
      </trkpt>
      <trkpt lat="45.67779" lon="4.61293">
        <ele>469</ele>
        <time>2014-10-18T18:28:39.556Z</time>
      </trkpt>
      <trkpt lat="45.6778" lon="4.61291">
        <ele>469</ele>
        <time>2014-10-18T18:28:40.562Z</time>
      </trkpt>
      <trkpt lat="45.67787" lon="4.61284">
        <ele>469</ele>
        <time>2014-10-18T18:28:45.562Z</time>
      </trkpt>
      <trkpt lat="45.67788" lon="4.61282">
        <ele>469</ele>
        <time>2014-10-18T18:28:46.554Z</time>
      </trkpt>
      <trkpt lat="45.67796" lon="4.61276">
        <ele>470</ele>
        <time>2014-10-18T18:28:52.554Z</time>
      </trkpt>
      <trkpt lat="45.67797" lon="4.61273">
        <ele>470</ele>
        <time>2014-10-18T18:28:53.555Z</time>
      </trkpt>
      <trkpt lat="45.67804" lon="4.61267">
        <ele>471</ele>
        <time>2014-10-18T18:28:59.558Z</time>
      </trkpt>
      <trkpt lat="45.67805" lon="4.61267">
        <ele>472</ele>
        <time>2014-10-18T18:29:00.557Z</time>
      </trkpt>
      <trkpt lat="45.67812" lon="4.61261">
        <ele>473</ele>
        <time>2014-10-18T18:29:05.147Z</time>
      </trkpt>
      <trkpt lat="45.67813" lon="4.61258">
        <ele>473</ele>
        <time>2014-10-18T18:29:06.148Z</time>
      </trkpt>
      <trkpt lat="45.6782" lon="4.61252">
        <ele>475</ele>
        <time>2014-10-18T18:29:12.143Z</time>
      </trkpt>
      <trkpt lat="45.67821" lon="4.6125">
        <ele>478</ele>
        <time>2014-10-18T18:29:13.142Z</time>
      </trkpt>
      <trkpt lat="45.67829" lon="4.61243">
        <ele>478</ele>
        <time>2014-10-18T18:29:19.142Z</time>
      </trkpt>
      <trkpt lat="45.6783" lon="4.61243">
        <ele>478</ele>
        <time>2014-10-18T18:29:20.142Z</time>
      </trkpt>
      <trkpt lat="45.67836" lon="4.61235">
        <ele>482</ele>
        <time>2014-10-18T18:29:26.144Z</time>
      </trkpt>
      <trkpt lat="45.67837" lon="4.61233">
        <ele>483</ele>
        <time>2014-10-18T18:29:27.152Z</time>
      </trkpt>
      <trkpt lat="45.67845" lon="4.61228">
        <ele>484</ele>
        <time>2014-10-18T18:29:32.150Z</time>
      </trkpt>
      <trkpt lat="45.67847" lon="4.61228">
        <ele>484</ele>
        <time>2014-10-18T18:29:33.142Z</time>
      </trkpt>
      <trkpt lat="45.67855" lon="4.61226">
        <ele>484</ele>
        <time>2014-10-18T18:29:37.142Z</time>
      </trkpt>
      <trkpt lat="45.67857" lon="4.61228">
        <ele>484</ele>
        <time>2014-10-18T18:29:38.143Z</time>
      </trkpt>
      <trkpt lat="45.67863" lon="4.61233">
        <ele>485</ele>
        <time>2014-10-18T18:29:42.142Z</time>
      </trkpt>
      <trkpt lat="45.67866" lon="4.61231">
        <ele>485</ele>
        <time>2014-10-18T18:29:43.141Z</time>
      </trkpt>
      <trkpt lat="45.67873" lon="4.61237">
        <ele>485</ele>
        <time>2014-10-18T18:29:47.150Z</time>
      </trkpt>
      <trkpt lat="45.67875" lon="4.61237">
        <ele>485</ele>
        <time>2014-10-18T18:29:48.156Z</time>
      </trkpt>
      <trkpt lat="45.67881" lon="4.61241">
        <ele>485</ele>
        <time>2014-10-18T18:29:51.569Z</time>
      </trkpt>
      <trkpt lat="45.67885" lon="4.61243">
        <ele>485</ele>
        <time>2014-10-18T18:29:52.586Z</time>
      </trkpt>
      <trkpt lat="45.67891" lon="4.61243">
        <ele>485</ele>
        <time>2014-10-18T18:29:54.574Z</time>
      </trkpt>
      <trkpt lat="45.67895" lon="4.61243">
        <ele>485</ele>
        <time>2014-10-18T18:29:55.561Z</time>
      </trkpt>
      <trkpt lat="45.67904" lon="4.61243">
        <ele>485</ele>
        <time>2014-10-18T18:29:58.565Z</time>
      </trkpt>
      <trkpt lat="45.67907" lon="4.61243">
        <ele>484</ele>
        <time>2014-10-18T18:29:59.568Z</time>
      </trkpt>
      <trkpt lat="45.67914" lon="4.61243">
        <ele>484</ele>
        <time>2014-10-18T18:30:02.569Z</time>
      </trkpt>
      <trkpt lat="45.67917" lon="4.61243">
        <ele>485</ele>
        <time>2014-10-18T18:30:03.569Z</time>
      </trkpt>
      <trkpt lat="45.67925" lon="4.61241">
        <ele>487</ele>
        <time>2014-10-18T18:30:09.567Z</time>
      </trkpt>
      <trkpt lat="45.67926" lon="4.61239">
        <ele>487</ele>
        <time>2014-10-18T18:30:10.563Z</time>
      </trkpt>
      <trkpt lat="45.67935" lon="4.61241">
        <ele>488</ele>
        <time>2014-10-18T18:30:17.557Z</time>
      </trkpt>
      <trkpt lat="45.67938" lon="4.61241">
        <ele>489</ele>
        <time>2014-10-18T18:30:18.558Z</time>
      </trkpt>
      <trkpt lat="45.67945" lon="4.61241">
        <ele>489</ele>
        <time>2014-10-18T18:30:20.566Z</time>
      </trkpt>
      <trkpt lat="45.67949" lon="4.61241">
        <ele>490</ele>
        <time>2014-10-18T18:30:21.561Z</time>
      </trkpt>
      <trkpt lat="45.67953" lon="4.61243">
        <ele>490</ele>
        <time>2014-10-18T18:30:22.558Z</time>
      </trkpt>
      <trkpt lat="45.67959" lon="4.61246">
        <ele>490</ele>
        <time>2014-10-18T18:30:23.560Z</time>
      </trkpt>
      <trkpt lat="45.67966" lon="4.6125">
        <ele>489</ele>
        <time>2014-10-18T18:30:24.557Z</time>
      </trkpt>
      <trkpt lat="45.67974" lon="4.61254">
        <ele>478</ele>
        <time>2014-10-18T18:30:25.585Z</time>
      </trkpt>
      <trkpt lat="45.67981" lon="4.61258">
        <ele>478</ele>
        <time>2014-10-18T18:30:26.556Z</time>
      </trkpt>
      <trkpt lat="45.67989" lon="4.61263">
        <ele>478</ele>
        <time>2014-10-18T18:30:27.556Z</time>
      </trkpt>
      <trkpt lat="45.67996" lon="4.61267">
        <ele>478</ele>
        <time>2014-10-18T18:30:28.577Z</time>
      </trkpt>
      <trkpt lat="45.68003" lon="4.61271">
        <ele>480</ele>
        <time>2014-10-18T18:30:29.557Z</time>
      </trkpt>
      <trkpt lat="45.68011" lon="4.61276">
        <ele>479</ele>
        <time>2014-10-18T18:30:30.562Z</time>
      </trkpt>
      <trkpt lat="45.6802" lon="4.6128">
        <ele>479</ele>
        <time>2014-10-18T18:30:31.558Z</time>
      </trkpt>
      <trkpt lat="45.68028" lon="4.61284">
        <ele>478</ele>
        <time>2014-10-18T18:30:32.589Z</time>
      </trkpt>
      <trkpt lat="45.68035" lon="4.61291">
        <ele>478</ele>
        <time>2014-10-18T18:30:33.558Z</time>
      </trkpt>
      <trkpt lat="45.6804" lon="4.61295">
        <ele>478</ele>
        <time>2014-10-18T18:30:34.557Z</time>
      </trkpt>
      <trkpt lat="45.68045" lon="4.61299">
        <ele>478</ele>
        <time>2014-10-18T18:30:35.557Z</time>
      </trkpt>
      <trkpt lat="45.68051" lon="4.61301">
        <ele>478</ele>
        <time>2014-10-18T18:30:36.559Z</time>
      </trkpt>
      <trkpt lat="45.68056" lon="4.61303">
        <ele>478</ele>
        <time>2014-10-18T18:30:37.554Z</time>
      </trkpt>
      <trkpt lat="45.68059" lon="4.61306">
        <ele>478</ele>
        <time>2014-10-18T18:30:38.569Z</time>
      </trkpt>
      <trkpt lat="45.68066" lon="4.6131">
        <ele>478</ele>
        <time>2014-10-18T18:30:40.556Z</time>
      </trkpt>
      <trkpt lat="45.68069" lon="4.61314">
        <ele>478</ele>
        <time>2014-10-18T18:30:41.554Z</time>
      </trkpt>
      <trkpt lat="45.68076" lon="4.61323">
        <ele>477</ele>
        <time>2014-10-18T18:30:44.566Z</time>
      </trkpt>
      <trkpt lat="45.68079" lon="4.61327">
        <ele>477</ele>
        <time>2014-10-18T18:30:45.553Z</time>
      </trkpt>
      <trkpt lat="45.68084" lon="4.61336">
        <ele>478</ele>
        <time>2014-10-18T18:30:49.570Z</time>
      </trkpt>
      <trkpt lat="45.68086" lon="4.61338">
        <ele>478</ele>
        <time>2014-10-18T18:30:50.558Z</time>
      </trkpt>
      <trkpt lat="45.68091" lon="4.61349">
        <ele>480</ele>
        <time>2014-10-18T18:30:54.570Z</time>
      </trkpt>
      <trkpt lat="45.68093" lon="4.61351">
        <ele>481</ele>
        <time>2014-10-18T18:30:55.568Z</time>
      </trkpt>
      <trkpt lat="45.68098" lon="4.61359">
        <ele>482</ele>
        <time>2014-10-18T18:30:58.573Z</time>
      </trkpt>
      <trkpt lat="45.681" lon="4.61361">
        <ele>482</ele>
        <time>2014-10-18T18:30:59.569Z</time>
      </trkpt>
      <trkpt lat="45.68106" lon="4.6137">
        <ele>483</ele>
        <time>2014-10-18T18:31:03.569Z</time>
      </trkpt>
      <trkpt lat="45.68108" lon="4.61372">
        <ele>483</ele>
        <time>2014-10-18T18:31:04.595Z</time>
      </trkpt>
      <trkpt lat="45.68114" lon="4.61381">
        <ele>483</ele>
        <time>2014-10-18T18:31:08.566Z</time>
      </trkpt>
      <trkpt lat="45.68115" lon="4.61383">
        <ele>483</ele>
        <time>2014-10-18T18:31:09.565Z</time>
      </trkpt>
      <trkpt lat="45.6812" lon="4.61391">
        <ele>483</ele>
        <time>2014-10-18T18:31:13.568Z</time>
      </trkpt>
      <trkpt lat="45.68122" lon="4.61394">
        <ele>484</ele>
        <time>2014-10-18T18:31:14.569Z</time>
      </trkpt>
      <trkpt lat="45.68129" lon="4.614">
        <ele>484</ele>
        <time>2014-10-18T18:31:19.573Z</time>
      </trkpt>
      <trkpt lat="45.6813" lon="4.61402">
        <ele>484</ele>
        <time>2014-10-18T18:31:20.567Z</time>
      </trkpt>
      <trkpt lat="45.68136" lon="4.61409">
        <ele>485</ele>
        <time>2014-10-18T18:31:23.570Z</time>
      </trkpt>
      <trkpt lat="45.68138" lon="4.61411">
        <ele>485</ele>
        <time>2014-10-18T18:31:24.568Z</time>
      </trkpt>
      <trkpt lat="45.68143" lon="4.61419">
        <ele>486</ele>
        <time>2014-10-18T18:31:29.572Z</time>
      </trkpt>
      <trkpt lat="45.68145" lon="4.61421">
        <ele>486</ele>
        <time>2014-10-18T18:31:30.568Z</time>
      </trkpt>
      <trkpt lat="45.68151" lon="4.6143">
        <ele>486</ele>
        <time>2014-10-18T18:31:36.570Z</time>
      </trkpt>
      <trkpt lat="45.68152" lon="4.61432">
        <ele>486</ele>
        <time>2014-10-18T18:31:37.566Z</time>
      </trkpt>
      <trkpt lat="45.68156" lon="4.61441">
        <ele>486</ele>
        <time>2014-10-18T18:31:40.569Z</time>
      </trkpt>
      <trkpt lat="45.68157" lon="4.61443">
        <ele>486</ele>
        <time>2014-10-18T18:31:41.568Z</time>
      </trkpt>
      <trkpt lat="45.68164" lon="4.61452">
        <ele>485</ele>
        <time>2014-10-18T18:31:45.568Z</time>
      </trkpt>
      <trkpt lat="45.68165" lon="4.61452">
        <ele>485</ele>
        <time>2014-10-18T18:31:46.574Z</time>
      </trkpt>
      <trkpt lat="45.68172" lon="4.61458">
        <ele>485</ele>
        <time>2014-10-18T18:31:51.572Z</time>
      </trkpt>
      <trkpt lat="45.68174" lon="4.61458">
        <ele>485</ele>
        <time>2014-10-18T18:31:52.568Z</time>
      </trkpt>
      <trkpt lat="45.6818" lon="4.61467">
        <ele>485</ele>
        <time>2014-10-18T18:32:15.570Z</time>
      </trkpt>
      <trkpt lat="45.6818" lon="4.61469">
        <ele>485</ele>
        <time>2014-10-18T18:32:16.569Z</time>
      </trkpt>
      <trkpt lat="45.68173" lon="4.6146">
        <ele>485</ele>
        <time>2014-10-18T18:34:10.590Z</time>
      </trkpt>
      <trkpt lat="45.68171" lon="4.6146">
        <ele>485</ele>
        <time>2014-10-18T18:34:11.593Z</time>
      </trkpt>
      <trkpt lat="45.68177" lon="4.61462">
        <ele>485</ele>
        <time>2014-10-18T18:41:29.130Z</time>
      </trkpt>
      <trkpt lat="45.68181" lon="4.6146">
        <ele>485</ele>
        <time>2014-10-18T18:41:30.116Z</time>
      </trkpt>
      <trkpt lat="45.68188" lon="4.61456">
        <ele>485</ele>
        <time>2014-10-18T18:41:32.122Z</time>
      </trkpt>
      <trkpt lat="45.68191" lon="4.61452">
        <ele>485</ele>
        <time>2014-10-18T18:41:33.125Z</time>
      </trkpt>
      <trkpt lat="45.68198" lon="4.61449">
        <ele>485</ele>
        <time>2014-10-18T18:41:35.117Z</time>
      </trkpt>
      <trkpt lat="45.682" lon="4.61447">
        <ele>485</ele>
        <time>2014-10-18T18:41:36.116Z</time>
      </trkpt>
      <trkpt lat="45.68206" lon="4.61443">
        <ele>485</ele>
        <time>2014-10-18T18:41:38.116Z</time>
      </trkpt>
      <trkpt lat="45.6821" lon="4.61441">
        <ele>485</ele>
        <time>2014-10-18T18:41:39.114Z</time>
      </trkpt>
      <trkpt lat="45.68214" lon="4.61437">
        <ele>485</ele>
        <time>2014-10-18T18:41:40.106Z</time>
      </trkpt>
      <trkpt lat="45.68217" lon="4.61432">
        <ele>485</ele>
        <time>2014-10-18T18:41:41.112Z</time>
      </trkpt>
      <trkpt lat="45.68223" lon="4.61428">
        <ele>484</ele>
        <time>2014-10-18T18:41:43.104Z</time>
      </trkpt>
      <trkpt lat="45.68226" lon="4.61424">
        <ele>484</ele>
        <time>2014-10-18T18:41:44.111Z</time>
      </trkpt>
      <trkpt lat="45.68232" lon="4.61415">
        <ele>487</ele>
        <time>2014-10-18T18:41:47.116Z</time>
      </trkpt>
      <trkpt lat="45.68235" lon="4.61413">
        <ele>486</ele>
        <time>2014-10-18T18:41:48.106Z</time>
      </trkpt>
      <trkpt lat="45.68239" lon="4.61404">
        <ele>487</ele>
        <time>2014-10-18T18:41:50.114Z</time>
      </trkpt>
      <trkpt lat="45.68241" lon="4.61402">
        <ele>487</ele>
        <time>2014-10-18T18:41:51.108Z</time>
      </trkpt>
      <trkpt lat="45.68245" lon="4.61396">
        <ele>487</ele>
        <time>2014-10-18T18:41:53.129Z</time>
      </trkpt>
      <trkpt lat="45.68249" lon="4.61396">
        <ele>487</ele>
        <time>2014-10-18T18:41:54.131Z</time>
      </trkpt>
      <trkpt lat="45.68255" lon="4.61389">
        <ele>483</ele>
        <time>2014-10-18T18:41:56.123Z</time>
      </trkpt>
      <trkpt lat="45.68257" lon="4.61385">
        <ele>483</ele>
        <time>2014-10-18T18:41:57.118Z</time>
      </trkpt>
      <trkpt lat="45.68262" lon="4.61379">
        <ele>483</ele>
        <time>2014-10-18T18:41:59.112Z</time>
      </trkpt>
      <trkpt lat="45.68264" lon="4.61376">
        <ele>483</ele>
        <time>2014-10-18T18:42:00.125Z</time>
      </trkpt>
      <trkpt lat="45.6827" lon="4.6137">
        <ele>483</ele>
        <time>2014-10-18T18:42:02.110Z</time>
      </trkpt>
      <trkpt lat="45.68272" lon="4.61368">
        <ele>483</ele>
        <time>2014-10-18T18:42:03.107Z</time>
      </trkpt>
      <trkpt lat="45.68278" lon="4.61361">
        <ele>483</ele>
        <time>2014-10-18T18:42:05.137Z</time>
      </trkpt>
      <trkpt lat="45.68282" lon="4.61359">
        <ele>483</ele>
        <time>2014-10-18T18:42:06.112Z</time>
      </trkpt>
      <trkpt lat="45.68285" lon="4.61351">
        <ele>483</ele>
        <time>2014-10-18T18:42:08.107Z</time>
      </trkpt>
      <trkpt lat="45.68287" lon="4.61346">
        <ele>483</ele>
        <time>2014-10-18T18:42:09.120Z</time>
      </trkpt>
      <trkpt lat="45.68293" lon="4.61342">
        <ele>483</ele>
        <time>2014-10-18T18:42:11.121Z</time>
      </trkpt>
      <trkpt lat="45.68297" lon="4.61338">
        <ele>483</ele>
        <time>2014-10-18T18:42:12.121Z</time>
      </trkpt>
      <trkpt lat="45.68302" lon="4.61331">
        <ele>489</ele>
        <time>2014-10-18T18:42:14.122Z</time>
      </trkpt>
      <trkpt lat="45.68304" lon="4.61329">
        <ele>489</ele>
        <time>2014-10-18T18:42:15.123Z</time>
      </trkpt>
      <trkpt lat="45.68309" lon="4.61321">
        <ele>489</ele>
        <time>2014-10-18T18:42:17.120Z</time>
      </trkpt>
      <trkpt lat="45.68313" lon="4.61318">
        <ele>488</ele>
        <time>2014-10-18T18:42:18.121Z</time>
      </trkpt>
      <trkpt lat="45.68316" lon="4.6131">
        <ele>489</ele>
        <time>2014-10-18T18:42:20.118Z</time>
      </trkpt>
      <trkpt lat="45.68318" lon="4.61306">
        <ele>490</ele>
        <time>2014-10-18T18:42:21.118Z</time>
      </trkpt>
      <trkpt lat="45.68321" lon="4.61297">
        <ele>491</ele>
        <time>2014-10-18T18:42:23.122Z</time>
      </trkpt>
      <trkpt lat="45.68324" lon="4.61293">
        <ele>491</ele>
        <time>2014-10-18T18:42:24.121Z</time>
      </trkpt>
      <trkpt lat="45.68327" lon="4.61282">
        <ele>492</ele>
        <time>2014-10-18T18:42:27.118Z</time>
      </trkpt>
      <trkpt lat="45.68329" lon="4.61276">
        <ele>493</ele>
        <time>2014-10-18T18:42:28.125Z</time>
      </trkpt>
      <trkpt lat="45.68332" lon="4.61265">
        <ele>494</ele>
        <time>2014-10-18T18:42:31.121Z</time>
      </trkpt>
      <trkpt lat="45.68334" lon="4.61261">
        <ele>489</ele>
        <time>2014-10-18T18:42:32.124Z</time>
      </trkpt>
      <trkpt lat="45.68334" lon="4.61252">
        <ele>494</ele>
        <time>2014-10-18T18:42:34.119Z</time>
      </trkpt>
      <trkpt lat="45.68333" lon="4.61248">
        <ele>497</ele>
        <time>2014-10-18T18:42:35.120Z</time>
      </trkpt>
      <trkpt lat="45.68334" lon="4.61239">
        <ele>495</ele>
        <time>2014-10-18T18:42:38.110Z</time>
      </trkpt>
      <trkpt lat="45.68334" lon="4.61235">
        <ele>495</ele>
        <time>2014-10-18T18:42:39.107Z</time>
      </trkpt>
      <trkpt lat="45.68336" lon="4.61224">
        <ele>496</ele>
        <time>2014-10-18T18:42:42.106Z</time>
      </trkpt>
      <trkpt lat="45.68336" lon="4.6122">
        <ele>496</ele>
        <time>2014-10-18T18:42:43.126Z</time>
      </trkpt>
      <trkpt lat="45.68337" lon="4.61209">
        <ele>497</ele>
        <time>2014-10-18T18:42:46.105Z</time>
      </trkpt>
      <trkpt lat="45.68338" lon="4.61207">
        <ele>498</ele>
        <time>2014-10-18T18:42:47.107Z</time>
      </trkpt>
      <trkpt lat="45.68341" lon="4.61196">
        <ele>499</ele>
        <time>2014-10-18T18:42:50.105Z</time>
      </trkpt>
      <trkpt lat="45.68342" lon="4.61192">
        <ele>500</ele>
        <time>2014-10-18T18:42:51.105Z</time>
      </trkpt>
      <trkpt lat="45.68344" lon="4.61183">
        <ele>502</ele>
        <time>2014-10-18T18:42:54.106Z</time>
      </trkpt>
      <trkpt lat="45.68345" lon="4.61179">
        <ele>503</ele>
        <time>2014-10-18T18:42:55.120Z</time>
      </trkpt>
      <trkpt lat="45.68351" lon="4.6117">
        <ele>503</ele>
        <time>2014-10-18T18:42:59.106Z</time>
      </trkpt>
      <trkpt lat="45.68353" lon="4.61168">
        <ele>502</ele>
        <time>2014-10-18T18:43:00.122Z</time>
      </trkpt>
      <trkpt lat="45.68357" lon="4.6116">
        <ele>510</ele>
        <time>2014-10-18T18:43:03.106Z</time>
      </trkpt>
      <trkpt lat="45.68358" lon="4.61155">
        <ele>510</ele>
        <time>2014-10-18T18:43:04.104Z</time>
      </trkpt>
      <trkpt lat="45.68364" lon="4.61147">
        <ele>509</ele>
        <time>2014-10-18T18:43:08.106Z</time>
      </trkpt>
      <trkpt lat="45.68365" lon="4.61145">
        <ele>509</ele>
        <time>2014-10-18T18:43:09.104Z</time>
      </trkpt>
      <trkpt lat="45.6837" lon="4.61134">
        <ele>509</ele>
        <time>2014-10-18T18:43:13.127Z</time>
      </trkpt>
      <trkpt lat="45.68372" lon="4.61132">
        <ele>509</ele>
        <time>2014-10-18T18:43:14.108Z</time>
      </trkpt>
      <trkpt lat="45.68376" lon="4.61123">
        <ele>509</ele>
        <time>2014-10-18T18:43:17.112Z</time>
      </trkpt>
      <trkpt lat="45.68377" lon="4.61121">
        <ele>509</ele>
        <time>2014-10-18T18:43:18.104Z</time>
      </trkpt>
      <trkpt lat="45.68383" lon="4.61112">
        <ele>509</ele>
        <time>2014-10-18T18:43:21.104Z</time>
      </trkpt>
      <trkpt lat="45.68385" lon="4.6111">
        <ele>509</ele>
        <time>2014-10-18T18:43:22.111Z</time>
      </trkpt>
      <trkpt lat="45.68388" lon="4.611">
        <ele>509</ele>
        <time>2014-10-18T18:43:25.104Z</time>
      </trkpt>
      <trkpt lat="45.68388" lon="4.61097">
        <ele>509</ele>
        <time>2014-10-18T18:43:26.105Z</time>
      </trkpt>
      <trkpt lat="45.68391" lon="4.61089">
        <ele>508</ele>
        <time>2014-10-18T18:43:30.121Z</time>
      </trkpt>
      <trkpt lat="45.68391" lon="4.61085">
        <ele>508</ele>
        <time>2014-10-18T18:43:31.112Z</time>
      </trkpt>
      <trkpt lat="45.68392" lon="4.61076">
        <ele>514</ele>
        <time>2014-10-18T18:43:35.105Z</time>
      </trkpt>
      <trkpt lat="45.68392" lon="4.61072">
        <ele>514</ele>
        <time>2014-10-18T18:43:36.103Z</time>
      </trkpt>
      <trkpt lat="45.68392" lon="4.61061">
        <ele>515</ele>
        <time>2014-10-18T18:43:41.112Z</time>
      </trkpt>
      <trkpt lat="45.68393" lon="4.61059">
        <ele>515</ele>
        <time>2014-10-18T18:43:42.111Z</time>
      </trkpt>
      <trkpt lat="45.68394" lon="4.61048">
        <ele>515</ele>
        <time>2014-10-18T18:43:46.111Z</time>
      </trkpt>
      <trkpt lat="45.68394" lon="4.61046">
        <ele>516</ele>
        <time>2014-10-18T18:43:47.111Z</time>
      </trkpt>
      <trkpt lat="45.68394" lon="4.61033">
        <ele>516</ele>
        <time>2014-10-18T18:43:55.119Z</time>
      </trkpt>
      <trkpt lat="45.68395" lon="4.61033">
        <ele>516</ele>
        <time>2014-10-18T18:43:56.109Z</time>
      </trkpt>
      <trkpt lat="45.68392" lon="4.61022">
        <ele>516</ele>
        <time>2014-10-18T18:44:01.110Z</time>
      </trkpt>
      <trkpt lat="45.68393" lon="4.6102">
        <ele>516</ele>
        <time>2014-10-18T18:44:02.113Z</time>
      </trkpt>
      <trkpt lat="45.68393" lon="4.61012">
        <ele>515</ele>
        <time>2014-10-18T18:44:06.108Z</time>
      </trkpt>
      <trkpt lat="45.68393" lon="4.61007">
        <ele>515</ele>
        <time>2014-10-18T18:44:07.129Z</time>
      </trkpt>
      <trkpt lat="45.68392" lon="4.60999">
        <ele>519</ele>
        <time>2014-10-18T18:44:10.106Z</time>
      </trkpt>
      <trkpt lat="45.68392" lon="4.60994">
        <ele>519</ele>
        <time>2014-10-18T18:44:11.108Z</time>
      </trkpt>
      <trkpt lat="45.68392" lon="4.60982">
        <ele>520</ele>
        <time>2014-10-18T18:44:14.106Z</time>
      </trkpt>
      <trkpt lat="45.68391" lon="4.60977">
        <ele>521</ele>
        <time>2014-10-18T18:44:15.105Z</time>
      </trkpt>
      <trkpt lat="45.68391" lon="4.60969">
        <ele>521</ele>
        <time>2014-10-18T18:44:18.140Z</time>
      </trkpt>
      <trkpt lat="45.68391" lon="4.60962">
        <ele>522</ele>
        <time>2014-10-18T18:44:19.110Z</time>
      </trkpt>
      <trkpt lat="45.68391" lon="4.60952">
        <ele>522</ele>
        <time>2014-10-18T18:44:22.122Z</time>
      </trkpt>
      <trkpt lat="45.68392" lon="4.60947">
        <ele>522</ele>
        <time>2014-10-18T18:44:23.111Z</time>
      </trkpt>
      <trkpt lat="45.6839" lon="4.60941">
        <ele>522</ele>
        <time>2014-10-18T18:44:24.115Z</time>
      </trkpt>
      <trkpt lat="45.68391" lon="4.60934">
        <ele>522</ele>
        <time>2014-10-18T18:44:25.108Z</time>
      </trkpt>
      <trkpt lat="45.68392" lon="4.60924">
        <ele>522</ele>
        <time>2014-10-18T18:44:28.109Z</time>
      </trkpt>
      <trkpt lat="45.68394" lon="4.60919">
        <ele>521</ele>
        <time>2014-10-18T18:44:29.110Z</time>
      </trkpt>
      <trkpt lat="45.68397" lon="4.60911">
        <ele>527</ele>
        <time>2014-10-18T18:44:31.112Z</time>
      </trkpt>
      <trkpt lat="45.68398" lon="4.60907">
        <ele>527</ele>
        <time>2014-10-18T18:44:32.105Z</time>
      </trkpt>
      <trkpt lat="45.68404" lon="4.60898">
        <ele>528</ele>
        <time>2014-10-18T18:44:35.111Z</time>
      </trkpt>
      <trkpt lat="45.68405" lon="4.60896">
        <ele>528</ele>
        <time>2014-10-18T18:44:36.110Z</time>
      </trkpt>
      <trkpt lat="45.68411" lon="4.60889">
        <ele>529</ele>
        <time>2014-10-18T18:44:39.139Z</time>
      </trkpt>
      <trkpt lat="45.68413" lon="4.60887">
        <ele>530</ele>
        <time>2014-10-18T18:44:40.109Z</time>
      </trkpt>
      <trkpt lat="45.68421" lon="4.60883">
        <ele>517</ele>
        <time>2014-10-18T18:44:45.118Z</time>
      </trkpt>
      <trkpt lat="45.68423" lon="4.60883">
        <ele>517</ele>
        <time>2014-10-18T18:44:46.122Z</time>
      </trkpt>
      <trkpt lat="45.68432" lon="4.60881">
        <ele>517</ele>
        <time>2014-10-18T18:44:51.109Z</time>
      </trkpt>
      <trkpt lat="45.68434" lon="4.60881">
        <ele>516</ele>
        <time>2014-10-18T18:44:52.110Z</time>
      </trkpt>
      <trkpt lat="45.68442" lon="4.60881">
        <ele>516</ele>
        <time>2014-10-18T18:44:57.109Z</time>
      </trkpt>
      <trkpt lat="45.68445" lon="4.60881">
        <ele>515</ele>
        <time>2014-10-18T18:44:58.106Z</time>
      </trkpt>
      <trkpt lat="45.68452" lon="4.60881">
        <ele>515</ele>
        <time>2014-10-18T18:45:24.111Z</time>
      </trkpt>
      <trkpt lat="45.68454" lon="4.60879">
        <ele>515</ele>
        <time>2014-10-18T18:45:25.109Z</time>
      </trkpt>
      <trkpt lat="45.68461" lon="4.60876">
        <ele>514</ele>
        <time>2014-10-18T18:45:28.109Z</time>
      </trkpt>
      <trkpt lat="45.68463" lon="4.60874">
        <ele>514</ele>
        <time>2014-10-18T18:45:29.110Z</time>
      </trkpt>
      <trkpt lat="45.6847" lon="4.60874">
        <ele>513</ele>
        <time>2014-10-18T18:45:33.107Z</time>
      </trkpt>
      <trkpt lat="45.68473" lon="4.60872">
        <ele>513</ele>
        <time>2014-10-18T18:45:34.105Z</time>
      </trkpt>
      <trkpt lat="45.6848" lon="4.6087">
        <ele>513</ele>
        <time>2014-10-18T18:45:36.105Z</time>
      </trkpt>
      <trkpt lat="45.68483" lon="4.60868">
        <ele>512</ele>
        <time>2014-10-18T18:45:37.113Z</time>
      </trkpt>
      <trkpt lat="45.68491" lon="4.60866">
        <ele>512</ele>
        <time>2014-10-18T18:45:39.098Z</time>
      </trkpt>
      <trkpt lat="45.68494" lon="4.60864">
        <ele>512</ele>
        <time>2014-10-18T18:45:40.098Z</time>
      </trkpt>
      <trkpt lat="45.68503" lon="4.60861">
        <ele>501</ele>
        <time>2014-10-18T18:45:42.096Z</time>
      </trkpt>
      <trkpt lat="45.68507" lon="4.60859">
        <ele>501</ele>
        <time>2014-10-18T18:45:43.099Z</time>
      </trkpt>
      <trkpt lat="45.68513" lon="4.60857">
        <ele>501</ele>
        <time>2014-10-18T18:45:44.102Z</time>
      </trkpt>
      <trkpt lat="45.68519" lon="4.60855">
        <ele>500</ele>
        <time>2014-10-18T18:45:45.097Z</time>
      </trkpt>
      <trkpt lat="45.68524" lon="4.60853">
        <ele>500</ele>
        <time>2014-10-18T18:45:46.095Z</time>
      </trkpt>
      <trkpt lat="45.68529" lon="4.60849">
        <ele>499</ele>
        <time>2014-10-18T18:45:47.104Z</time>
      </trkpt>
      <trkpt lat="45.68536" lon="4.60846">
        <ele>498</ele>
        <time>2014-10-18T18:45:48.096Z</time>
      </trkpt>
      <trkpt lat="45.6854" lon="4.60842">
        <ele>497</ele>
        <time>2014-10-18T18:45:49.101Z</time>
      </trkpt>
      <trkpt lat="45.68545" lon="4.60838">
        <ele>497</ele>
        <time>2014-10-18T18:45:50.095Z</time>
      </trkpt>
      <trkpt lat="45.6855" lon="4.60831">
        <ele>500</ele>
        <time>2014-10-18T18:45:51.098Z</time>
      </trkpt>
      <trkpt lat="45.68555" lon="4.60827">
        <ele>499</ele>
        <time>2014-10-18T18:45:52.113Z</time>
      </trkpt>
      <trkpt lat="45.68559" lon="4.60823">
        <ele>499</ele>
        <time>2014-10-18T18:45:53.105Z</time>
      </trkpt>
      <trkpt lat="45.68565" lon="4.60816">
        <ele>498</ele>
        <time>2014-10-18T18:45:54.111Z</time>
      </trkpt>
      <trkpt lat="45.6857" lon="4.6081">
        <ele>498</ele>
        <time>2014-10-18T18:45:55.108Z</time>
      </trkpt>
      <trkpt lat="45.68576" lon="4.60804">
        <ele>498</ele>
        <time>2014-10-18T18:45:56.106Z</time>
      </trkpt>
      <trkpt lat="45.68583" lon="4.60797">
        <ele>498</ele>
        <time>2014-10-18T18:45:57.116Z</time>
      </trkpt>
      <trkpt lat="45.68588" lon="4.60788">
        <ele>486</ele>
        <time>2014-10-18T18:45:58.131Z</time>
      </trkpt>
      <trkpt lat="45.68593" lon="4.6078">
        <ele>486</ele>
        <time>2014-10-18T18:45:59.109Z</time>
      </trkpt>
      <trkpt lat="45.68596" lon="4.60771">
        <ele>487</ele>
        <time>2014-10-18T18:46:00.122Z</time>
      </trkpt>
      <trkpt lat="45.68598" lon="4.60763">
        <ele>487</ele>
        <time>2014-10-18T18:46:01.119Z</time>
      </trkpt>
      <trkpt lat="45.68602" lon="4.60754">
        <ele>487</ele>
        <time>2014-10-18T18:46:02.107Z</time>
      </trkpt>
      <trkpt lat="45.68604" lon="4.60746">
        <ele>486</ele>
        <time>2014-10-18T18:46:03.109Z</time>
      </trkpt>
      <trkpt lat="45.68607" lon="4.60735">
        <ele>485</ele>
        <time>2014-10-18T18:46:04.110Z</time>
      </trkpt>
      <trkpt lat="45.68608" lon="4.60724">
        <ele>484</ele>
        <time>2014-10-18T18:46:05.109Z</time>
      </trkpt>
      <trkpt lat="45.68608" lon="4.60713">
        <ele>483</ele>
        <time>2014-10-18T18:46:06.107Z</time>
      </trkpt>
      <trkpt lat="45.68609" lon="4.60703">
        <ele>482</ele>
        <time>2014-10-18T18:46:07.113Z</time>
      </trkpt>
      <trkpt lat="45.68609" lon="4.6069">
        <ele>482</ele>
        <time>2014-10-18T18:46:08.104Z</time>
      </trkpt>
      <trkpt lat="45.68608" lon="4.60677">
        <ele>483</ele>
        <time>2014-10-18T18:46:09.111Z</time>
      </trkpt>
      <trkpt lat="45.68606" lon="4.60666">
        <ele>481</ele>
        <time>2014-10-18T18:46:10.111Z</time>
      </trkpt>
      <trkpt lat="45.68603" lon="4.60655">
        <ele>481</ele>
        <time>2014-10-18T18:46:11.108Z</time>
      </trkpt>
      <trkpt lat="45.68601" lon="4.60647">
        <ele>481</ele>
        <time>2014-10-18T18:46:12.105Z</time>
      </trkpt>
      <trkpt lat="45.68599" lon="4.6064">
        <ele>480</ele>
        <time>2014-10-18T18:46:13.122Z</time>
      </trkpt>
      <trkpt lat="45.68594" lon="4.60632">
        <ele>480</ele>
        <time>2014-10-18T18:46:15.109Z</time>
      </trkpt>
      <trkpt lat="45.68591" lon="4.60625">
        <ele>480</ele>
        <time>2014-10-18T18:46:16.111Z</time>
      </trkpt>
      <trkpt lat="45.68586" lon="4.60617">
        <ele>480</ele>
        <time>2014-10-18T18:46:18.105Z</time>
      </trkpt>
      <trkpt lat="45.68584" lon="4.60613">
        <ele>480</ele>
        <time>2014-10-18T18:46:19.110Z</time>
      </trkpt>
      <trkpt lat="45.68579" lon="4.60604">
        <ele>492</ele>
        <time>2014-10-18T18:46:21.106Z</time>
      </trkpt>
      <trkpt lat="45.68577" lon="4.606">
        <ele>491</ele>
        <time>2014-10-18T18:46:22.103Z</time>
      </trkpt>
      <trkpt lat="45.68571" lon="4.60593">
        <ele>491</ele>
        <time>2014-10-18T18:46:25.108Z</time>
      </trkpt>
      <trkpt lat="45.6857" lon="4.60589">
        <ele>491</ele>
        <time>2014-10-18T18:46:26.103Z</time>
      </trkpt>
      <trkpt lat="45.68566" lon="4.60578">
        <ele>494</ele>
        <time>2014-10-18T18:46:30.106Z</time>
      </trkpt>
      <trkpt lat="45.68565" lon="4.60574">
        <ele>494</ele>
        <time>2014-10-18T18:46:31.127Z</time>
      </trkpt>
      <trkpt lat="45.68564" lon="4.60563">
        <ele>496</ele>
        <time>2014-10-18T18:46:38.279Z</time>
      </trkpt>
      <trkpt lat="45.68565" lon="4.60561">
        <ele>496</ele>
        <time>2014-10-18T18:46:39.257Z</time>
      </trkpt>
      <trkpt lat="45.68569" lon="4.60555">
        <ele>496</ele>
        <time>2014-10-18T18:47:52.267Z</time>
      </trkpt>
      <trkpt lat="45.68573" lon="4.6055">
        <ele>496</ele>
        <time>2014-10-18T18:47:53.325Z</time>
      </trkpt>
      <trkpt lat="45.68581" lon="4.60548">
        <ele>496</ele>
        <time>2014-10-18T18:47:55.338Z</time>
      </trkpt>
      <trkpt lat="45.68585" lon="4.60548">
        <ele>483</ele>
        <time>2014-10-18T18:47:56.306Z</time>
      </trkpt>
      <trkpt lat="45.68594" lon="4.60548">
        <ele>483</ele>
        <time>2014-10-18T18:47:58.308Z</time>
      </trkpt>
      <trkpt lat="45.68598" lon="4.60548">
        <ele>483</ele>
        <time>2014-10-18T18:47:59.322Z</time>
      </trkpt>
      <trkpt lat="45.68607" lon="4.60548">
        <ele>482</ele>
        <time>2014-10-18T18:48:01.313Z</time>
      </trkpt>
      <trkpt lat="45.68611" lon="4.60548">
        <ele>482</ele>
        <time>2014-10-18T18:48:02.311Z</time>
      </trkpt>
      <trkpt lat="45.68616" lon="4.60546">
        <ele>482</ele>
        <time>2014-10-18T18:48:03.325Z</time>
      </trkpt>
      <trkpt lat="45.68622" lon="4.60546">
        <ele>481</ele>
        <time>2014-10-18T18:48:04.323Z</time>
      </trkpt>
      <trkpt lat="45.68629" lon="4.60544">
        <ele>481</ele>
        <time>2014-10-18T18:48:06.318Z</time>
      </trkpt>
      <trkpt lat="45.68632" lon="4.60544">
        <ele>480</ele>
        <time>2014-10-18T18:48:07.342Z</time>
      </trkpt>
      <trkpt lat="45.68637" lon="4.60542">
        <ele>480</ele>
        <time>2014-10-18T18:48:08.308Z</time>
      </trkpt>
      <trkpt lat="45.68641" lon="4.6054">
        <ele>480</ele>
        <time>2014-10-18T18:48:09.320Z</time>
      </trkpt>
      <trkpt lat="45.68648" lon="4.60533">
        <ele>480</ele>
        <time>2014-10-18T18:48:11.314Z</time>
      </trkpt>
      <trkpt lat="45.68653" lon="4.60531">
        <ele>480</ele>
        <time>2014-10-18T18:48:12.325Z</time>
      </trkpt>
      <trkpt lat="45.68658" lon="4.60527">
        <ele>480</ele>
        <time>2014-10-18T18:48:14.367Z</time>
      </trkpt>
      <trkpt lat="45.68661" lon="4.60525">
        <ele>480</ele>
        <time>2014-10-18T18:48:15.328Z</time>
      </trkpt>
      <trkpt lat="45.68668" lon="4.60518">
        <ele>474</ele>
        <time>2014-10-18T18:48:17.322Z</time>
      </trkpt>
      <trkpt lat="45.6867" lon="4.60514">
        <ele>475</ele>
        <time>2014-10-18T18:48:18.326Z</time>
      </trkpt>
      <trkpt lat="45.68675" lon="4.60507">
        <ele>475</ele>
        <time>2014-10-18T18:48:20.326Z</time>
      </trkpt>
      <trkpt lat="45.68677" lon="4.60503">
        <ele>475</ele>
        <time>2014-10-18T18:48:21.324Z</time>
      </trkpt>
      <trkpt lat="45.68684" lon="4.60497">
        <ele>476</ele>
        <time>2014-10-18T18:48:23.325Z</time>
      </trkpt>
      <trkpt lat="45.68687" lon="4.60492">
        <ele>476</ele>
        <time>2014-10-18T18:48:24.322Z</time>
      </trkpt>
      <trkpt lat="45.68692" lon="4.60484">
        <ele>475</ele>
        <time>2014-10-18T18:48:26.102Z</time>
      </trkpt>
      <trkpt lat="45.68696" lon="4.60479">
        <ele>475</ele>
        <time>2014-10-18T18:48:27.110Z</time>
      </trkpt>
      <trkpt lat="45.68698" lon="4.60473">
        <ele>474</ele>
        <time>2014-10-18T18:48:28.111Z</time>
      </trkpt>
      <trkpt lat="45.687" lon="4.60467">
        <ele>474</ele>
        <time>2014-10-18T18:48:29.117Z</time>
      </trkpt>
      <trkpt lat="45.68704" lon="4.60456">
        <ele>474</ele>
        <time>2014-10-18T18:48:31.119Z</time>
      </trkpt>
      <trkpt lat="45.68706" lon="4.60452">
        <ele>474</ele>
        <time>2014-10-18T18:48:32.113Z</time>
      </trkpt>
      <trkpt lat="45.68709" lon="4.60445">
        <ele>474</ele>
        <time>2014-10-18T18:48:33.103Z</time>
      </trkpt>
      <trkpt lat="45.6871" lon="4.60439">
        <ele>474</ele>
        <time>2014-10-18T18:48:34.107Z</time>
      </trkpt>
      <trkpt lat="45.68712" lon="4.60432">
        <ele>474</ele>
        <time>2014-10-18T18:48:35.105Z</time>
      </trkpt>
      <trkpt lat="45.68714" lon="4.60426">
        <ele>473</ele>
        <time>2014-10-18T18:48:36.113Z</time>
      </trkpt>
      <trkpt lat="45.68716" lon="4.60417">
        <ele>473</ele>
        <time>2014-10-18T18:48:37.111Z</time>
      </trkpt>
      <trkpt lat="45.68718" lon="4.60411">
        <ele>477</ele>
        <time>2014-10-18T18:48:38.108Z</time>
      </trkpt>
      <trkpt lat="45.68721" lon="4.60402">
        <ele>477</ele>
        <time>2014-10-18T18:48:39.104Z</time>
      </trkpt>
      <trkpt lat="45.68724" lon="4.60396">
        <ele>477</ele>
        <time>2014-10-18T18:48:40.108Z</time>
      </trkpt>
      <trkpt lat="45.68726" lon="4.60387">
        <ele>477</ele>
        <time>2014-10-18T18:48:41.106Z</time>
      </trkpt>
      <trkpt lat="45.68729" lon="4.60381">
        <ele>477</ele>
        <time>2014-10-18T18:48:42.104Z</time>
      </trkpt>
      <trkpt lat="45.68732" lon="4.60374">
        <ele>478</ele>
        <time>2014-10-18T18:48:43.105Z</time>
      </trkpt>
      <trkpt lat="45.68738" lon="4.60368">
        <ele>477</ele>
        <time>2014-10-18T18:48:44.109Z</time>
      </trkpt>
      <trkpt lat="45.68743" lon="4.60361">
        <ele>477</ele>
        <time>2014-10-18T18:48:45.106Z</time>
      </trkpt>
      <trkpt lat="45.6875" lon="4.60359">
        <ele>474</ele>
        <time>2014-10-18T18:48:46.096Z</time>
      </trkpt>
      <trkpt lat="45.68756" lon="4.60357">
        <ele>474</ele>
        <time>2014-10-18T18:48:47.106Z</time>
      </trkpt>
      <trkpt lat="45.68761" lon="4.60357">
        <ele>475</ele>
        <time>2014-10-18T18:48:48.106Z</time>
      </trkpt>
      <trkpt lat="45.68765" lon="4.60357">
        <ele>475</ele>
        <time>2014-10-18T18:48:49.102Z</time>
      </trkpt>
      <trkpt lat="45.68771" lon="4.60361">
        <ele>475</ele>
        <time>2014-10-18T18:48:50.097Z</time>
      </trkpt>
      <trkpt lat="45.68776" lon="4.60366">
        <ele>475</ele>
        <time>2014-10-18T18:48:51.104Z</time>
      </trkpt>
      <trkpt lat="45.68779" lon="4.60372">
        <ele>475</ele>
        <time>2014-10-18T18:48:52.103Z</time>
      </trkpt>
      <trkpt lat="45.68781" lon="4.60379">
        <ele>475</ele>
        <time>2014-10-18T18:48:53.092Z</time>
      </trkpt>
      <trkpt lat="45.68783" lon="4.60385">
        <ele>474</ele>
        <time>2014-10-18T18:48:54.116Z</time>
      </trkpt>
      <trkpt lat="45.68785" lon="4.60394">
        <ele>474</ele>
        <time>2014-10-18T18:48:55.108Z</time>
      </trkpt>
      <trkpt lat="45.68786" lon="4.604">
        <ele>474</ele>
        <time>2014-10-18T18:48:56.101Z</time>
      </trkpt>
      <trkpt lat="45.68788" lon="4.60409">
        <ele>474</ele>
        <time>2014-10-18T18:48:57.103Z</time>
      </trkpt>
      <trkpt lat="45.68789" lon="4.60415">
        <ele>474</ele>
        <time>2014-10-18T18:48:58.109Z</time>
      </trkpt>
      <trkpt lat="45.68791" lon="4.60422">
        <ele>470</ele>
        <time>2014-10-18T18:48:59.099Z</time>
      </trkpt>
      <trkpt lat="45.68794" lon="4.60428">
        <ele>470</ele>
        <time>2014-10-18T18:49:00.123Z</time>
      </trkpt>
      <trkpt lat="45.68799" lon="4.60437">
        <ele>470</ele>
        <time>2014-10-18T18:49:02.106Z</time>
      </trkpt>
      <trkpt lat="45.68801" lon="4.60441">
        <ele>470</ele>
        <time>2014-10-18T18:49:03.121Z</time>
      </trkpt>
      <trkpt lat="45.68805" lon="4.60447">
        <ele>470</ele>
        <time>2014-10-18T18:49:05.101Z</time>
      </trkpt>
      <trkpt lat="45.68806" lon="4.60452">
        <ele>469</ele>
        <time>2014-10-18T18:49:06.102Z</time>
      </trkpt>
      <trkpt lat="45.68809" lon="4.6046">
        <ele>469</ele>
        <time>2014-10-18T18:49:08.101Z</time>
      </trkpt>
      <trkpt lat="45.68812" lon="4.60464">
        <ele>469</ele>
        <time>2014-10-18T18:49:09.109Z</time>
      </trkpt>
      <trkpt lat="45.68816" lon="4.60471">
        <ele>469</ele>
        <time>2014-10-18T18:49:11.106Z</time>
      </trkpt>
      <trkpt lat="45.68817" lon="4.60475">
        <ele>468</ele>
        <time>2014-10-18T18:49:12.148Z</time>
      </trkpt>
      <trkpt lat="45.68821" lon="4.60484">
        <ele>468</ele>
        <time>2014-10-18T18:49:14.116Z</time>
      </trkpt>
      <trkpt lat="45.68822" lon="4.60488">
        <ele>468</ele>
        <time>2014-10-18T18:49:15.116Z</time>
      </trkpt>
      <trkpt lat="45.68828" lon="4.60497">
        <ele>467</ele>
        <time>2014-10-18T18:49:17.115Z</time>
      </trkpt>
      <trkpt lat="45.6883" lon="4.60501">
        <ele>465</ele>
        <time>2014-10-18T18:49:18.148Z</time>
      </trkpt>
      <trkpt lat="45.68834" lon="4.60507">
        <ele>465</ele>
        <time>2014-10-18T18:49:20.125Z</time>
      </trkpt>
      <trkpt lat="45.68836" lon="4.60512">
        <ele>464</ele>
        <time>2014-10-18T18:49:21.115Z</time>
      </trkpt>
      <trkpt lat="45.68842" lon="4.60518">
        <ele>464</ele>
        <time>2014-10-18T18:49:23.119Z</time>
      </trkpt>
      <trkpt lat="45.68845" lon="4.60522">
        <ele>463</ele>
        <time>2014-10-18T18:49:24.116Z</time>
      </trkpt>
      <trkpt lat="45.68852" lon="4.60529">
        <ele>463</ele>
        <time>2014-10-18T18:49:26.137Z</time>
      </trkpt>
      <trkpt lat="45.68856" lon="4.60531">
        <ele>462</ele>
        <time>2014-10-18T18:49:27.130Z</time>
      </trkpt>
      <trkpt lat="45.68863" lon="4.60537">
        <ele>462</ele>
        <time>2014-10-18T18:49:29.126Z</time>
      </trkpt>
      <trkpt lat="45.68866" lon="4.6054">
        <ele>462</ele>
        <time>2014-10-18T18:49:30.123Z</time>
      </trkpt>
      <trkpt lat="45.68873" lon="4.60544">
        <ele>462</ele>
        <time>2014-10-18T18:49:32.120Z</time>
      </trkpt>
      <trkpt lat="45.68877" lon="4.60546">
        <ele>461</ele>
        <time>2014-10-18T18:49:33.122Z</time>
      </trkpt>
      <trkpt lat="45.68886" lon="4.60548">
        <ele>461</ele>
        <time>2014-10-18T18:49:35.120Z</time>
      </trkpt>
      <trkpt lat="45.6889" lon="4.60548">
        <ele>461</ele>
        <time>2014-10-18T18:49:36.116Z</time>
      </trkpt>
      <trkpt lat="45.68896" lon="4.6055">
        <ele>461</ele>
        <time>2014-10-18T18:49:38.122Z</time>
      </trkpt>
      <trkpt lat="45.689" lon="4.60548">
        <ele>461</ele>
        <time>2014-10-18T18:49:39.121Z</time>
      </trkpt>
      <trkpt lat="45.68907" lon="4.60546">
        <ele>462</ele>
        <time>2014-10-18T18:49:41.120Z</time>
      </trkpt>
      <trkpt lat="45.6891" lon="4.60544">
        <ele>462</ele>
        <time>2014-10-18T18:49:42.120Z</time>
      </trkpt>
      <trkpt lat="45.68915" lon="4.60537">
        <ele>463</ele>
        <time>2014-10-18T18:49:44.116Z</time>
      </trkpt>
      <trkpt lat="45.68918" lon="4.60535">
        <ele>462</ele>
        <time>2014-10-18T18:49:45.116Z</time>
      </trkpt>
      <trkpt lat="45.68924" lon="4.60531">
        <ele>462</ele>
        <time>2014-10-18T18:49:47.124Z</time>
      </trkpt>
      <trkpt lat="45.68926" lon="4.60531">
        <ele>462</ele>
        <time>2014-10-18T18:49:48.126Z</time>
      </trkpt>
      <trkpt lat="45.68933" lon="4.60527">
        <ele>462</ele>
        <time>2014-10-18T18:49:50.116Z</time>
      </trkpt>
      <trkpt lat="45.68935" lon="4.60522">
        <ele>463</ele>
        <time>2014-10-18T18:49:51.138Z</time>
      </trkpt>
      <trkpt lat="45.68941" lon="4.60518">
        <ele>463</ele>
        <time>2014-10-18T18:49:53.125Z</time>
      </trkpt>
      <trkpt lat="45.68944" lon="4.60516">
        <ele>462</ele>
        <time>2014-10-18T18:49:54.135Z</time>
      </trkpt>
      <trkpt lat="45.6895" lon="4.6051">
        <ele>462</ele>
        <time>2014-10-18T18:49:56.127Z</time>
      </trkpt>
      <trkpt lat="45.68953" lon="4.6051">
        <ele>462</ele>
        <time>2014-10-18T18:49:57.116Z</time>
      </trkpt>
      <trkpt lat="45.6896" lon="4.60503">
        <ele>461</ele>
        <time>2014-10-18T18:49:59.118Z</time>
      </trkpt>
      <trkpt lat="45.68963" lon="4.60501">
        <ele>461</ele>
        <time>2014-10-18T18:50:00.117Z</time>
      </trkpt>
      <trkpt lat="45.6897" lon="4.60495">
        <ele>469</ele>
        <time>2014-10-18T18:50:02.118Z</time>
      </trkpt>
      <trkpt lat="45.68972" lon="4.6049">
        <ele>469</ele>
        <time>2014-10-18T18:50:03.150Z</time>
      </trkpt>
      <trkpt lat="45.68979" lon="4.60486">
        <ele>469</ele>
        <time>2014-10-18T18:50:05.125Z</time>
      </trkpt>
      <trkpt lat="45.68982" lon="4.60484">
        <ele>468</ele>
        <time>2014-10-18T18:50:06.143Z</time>
      </trkpt>
      <trkpt lat="45.68987" lon="4.60479">
        <ele>468</ele>
        <time>2014-10-18T18:50:08.117Z</time>
      </trkpt>
      <trkpt lat="45.68991" lon="4.60477">
        <ele>469</ele>
        <time>2014-10-18T18:50:09.122Z</time>
      </trkpt>
      <trkpt lat="45.68997" lon="4.60471">
        <ele>469</ele>
        <time>2014-10-18T18:50:11.119Z</time>
      </trkpt>
      <trkpt lat="45.69" lon="4.60469">
        <ele>463</ele>
        <time>2014-10-18T18:50:12.120Z</time>
      </trkpt>
      <trkpt lat="45.69007" lon="4.60464">
        <ele>464</ele>
        <time>2014-10-18T18:50:14.125Z</time>
      </trkpt>
      <trkpt lat="45.6901" lon="4.60464">
        <ele>464</ele>
        <time>2014-10-18T18:50:15.136Z</time>
      </trkpt>
      <trkpt lat="45.69016" lon="4.60458">
        <ele>464</ele>
        <time>2014-10-18T18:50:17.126Z</time>
      </trkpt>
      <trkpt lat="45.6902" lon="4.60454">
        <ele>464</ele>
        <time>2014-10-18T18:50:18.122Z</time>
      </trkpt>
      <trkpt lat="45.69026" lon="4.60447">
        <ele>464</ele>
        <time>2014-10-18T18:50:20.123Z</time>
      </trkpt>
      <trkpt lat="45.6903" lon="4.60445">
        <ele>464</ele>
        <time>2014-10-18T18:50:21.125Z</time>
      </trkpt>
      <trkpt lat="45.69037" lon="4.60439">
        <ele>464</ele>
        <time>2014-10-18T18:50:23.127Z</time>
      </trkpt>
      <trkpt lat="45.69041" lon="4.60437">
        <ele>464</ele>
        <time>2014-10-18T18:50:24.138Z</time>
      </trkpt>
      <trkpt lat="45.69048" lon="4.6043">
        <ele>464</ele>
        <time>2014-10-18T18:50:26.120Z</time>
      </trkpt>
      <trkpt lat="45.69051" lon="4.6043">
        <ele>464</ele>
        <time>2014-10-18T18:50:27.138Z</time>
      </trkpt>
      <trkpt lat="45.69057" lon="4.60424">
        <ele>464</ele>
        <time>2014-10-18T18:50:29.130Z</time>
      </trkpt>
      <trkpt lat="45.6906" lon="4.60422">
        <ele>464</ele>
        <time>2014-10-18T18:50:30.123Z</time>
      </trkpt>
      <trkpt lat="45.69068" lon="4.60415">
        <ele>469</ele>
        <time>2014-10-18T18:50:32.138Z</time>
      </trkpt>
      <trkpt lat="45.69071" lon="4.60413">
        <ele>468</ele>
        <time>2014-10-18T18:50:33.119Z</time>
      </trkpt>
      <trkpt lat="45.69079" lon="4.60407">
        <ele>468</ele>
        <time>2014-10-18T18:50:35.138Z</time>
      </trkpt>
      <trkpt lat="45.69082" lon="4.60402">
        <ele>469</ele>
        <time>2014-10-18T18:50:36.121Z</time>
      </trkpt>
      <trkpt lat="45.69086" lon="4.60402">
        <ele>465</ele>
        <time>2014-10-18T18:50:37.119Z</time>
      </trkpt>
      <trkpt lat="45.6909" lon="4.60398">
        <ele>466</ele>
        <time>2014-10-18T18:50:38.150Z</time>
      </trkpt>
      <trkpt lat="45.69097" lon="4.60394">
        <ele>466</ele>
        <time>2014-10-18T18:50:40.137Z</time>
      </trkpt>
      <trkpt lat="45.691" lon="4.60392">
        <ele>466</ele>
        <time>2014-10-18T18:50:41.128Z</time>
      </trkpt>
      <trkpt lat="45.69107" lon="4.60385">
        <ele>467</ele>
        <time>2014-10-18T18:50:43.121Z</time>
      </trkpt>
      <trkpt lat="45.6911" lon="4.60383">
        <ele>467</ele>
        <time>2014-10-18T18:50:43.681Z</time>
      </trkpt>
      <trkpt lat="45.69116" lon="4.60379">
        <ele>467</ele>
        <time>2014-10-18T18:50:45.678Z</time>
      </trkpt>
      <trkpt lat="45.69118" lon="4.60374">
        <ele>467</ele>
        <time>2014-10-18T18:50:46.697Z</time>
      </trkpt>
      <trkpt lat="45.69125" lon="4.60368">
        <ele>467</ele>
        <time>2014-10-18T18:50:48.683Z</time>
      </trkpt>
      <trkpt lat="45.69129" lon="4.60366">
        <ele>467</ele>
        <time>2014-10-18T18:50:49.687Z</time>
      </trkpt>
      <trkpt lat="45.69137" lon="4.60359">
        <ele>467</ele>
        <time>2014-10-18T18:50:51.675Z</time>
      </trkpt>
      <trkpt lat="45.6914" lon="4.60357">
        <ele>467</ele>
        <time>2014-10-18T18:50:52.675Z</time>
      </trkpt>
      <trkpt lat="45.69146" lon="4.60353">
        <ele>467</ele>
        <time>2014-10-18T18:50:54.677Z</time>
      </trkpt>
      <trkpt lat="45.69149" lon="4.60351">
        <ele>467</ele>
        <time>2014-10-18T18:50:55.673Z</time>
      </trkpt>
      <trkpt lat="45.69156" lon="4.60342">
        <ele>468</ele>
        <time>2014-10-18T18:50:58.716Z</time>
      </trkpt>
      <trkpt lat="45.69158" lon="4.6034">
        <ele>468</ele>
        <time>2014-10-18T18:50:59.706Z</time>
      </trkpt>
      <trkpt lat="45.69165" lon="4.60334">
        <ele>468</ele>
        <time>2014-10-18T18:51:04.672Z</time>
      </trkpt>
      <trkpt lat="45.69166" lon="4.60331">
        <ele>469</ele>
        <time>2014-10-18T18:51:05.670Z</time>
      </trkpt>
      <trkpt lat="45.69166" lon="4.60323">
        <ele>471</ele>
        <time>2014-10-18T18:51:09.694Z</time>
      </trkpt>
      <trkpt lat="45.69166" lon="4.60319">
        <ele>471</ele>
        <time>2014-10-18T18:51:10.686Z</time>
      </trkpt>
      <trkpt lat="45.6917" lon="4.60308">
        <ele>466</ele>
        <time>2014-10-18T18:51:14.691Z</time>
      </trkpt>
      <trkpt lat="45.69171" lon="4.60306">
        <ele>466</ele>
        <time>2014-10-18T18:51:15.680Z</time>
      </trkpt>
      <trkpt lat="45.69177" lon="4.60299">
        <ele>466</ele>
        <time>2014-10-18T18:51:18.678Z</time>
      </trkpt>
      <trkpt lat="45.69181" lon="4.60297">
        <ele>465</ele>
        <time>2014-10-18T18:51:19.687Z</time>
      </trkpt>
      <trkpt lat="45.69187" lon="4.60291">
        <ele>465</ele>
        <time>2014-10-18T18:51:23.677Z</time>
      </trkpt>
      <trkpt lat="45.69189" lon="4.60289">
        <ele>465</ele>
        <time>2014-10-18T18:51:24.681Z</time>
      </trkpt>
      <trkpt lat="45.69196" lon="4.60286">
        <ele>465</ele>
        <time>2014-10-18T18:51:26.666Z</time>
      </trkpt>
      <trkpt lat="45.69199" lon="4.60286">
        <ele>464</ele>
        <time>2014-10-18T18:51:27.662Z</time>
      </trkpt>
      <trkpt lat="45.69202" lon="4.60289">
        <ele>464</ele>
        <time>2014-10-18T18:51:28.664Z</time>
      </trkpt>
      <trkpt lat="45.69207" lon="4.60291">
        <ele>464</ele>
        <time>2014-10-18T18:51:29.663Z</time>
      </trkpt>
      <trkpt lat="45.69215" lon="4.60297">
        <ele>463</ele>
        <time>2014-10-18T18:51:31.666Z</time>
      </trkpt>
      <trkpt lat="45.69218" lon="4.60301">
        <ele>462</ele>
        <time>2014-10-18T18:51:32.665Z</time>
      </trkpt>
      <trkpt lat="45.69222" lon="4.60306">
        <ele>462</ele>
        <time>2014-10-18T18:51:33.660Z</time>
      </trkpt>
      <trkpt lat="45.69227" lon="4.6031">
        <ele>461</ele>
        <time>2014-10-18T18:51:34.666Z</time>
      </trkpt>
      <trkpt lat="45.69231" lon="4.60314">
        <ele>461</ele>
        <time>2014-10-18T18:51:35.669Z</time>
      </trkpt>
      <trkpt lat="45.69235" lon="4.60316">
        <ele>460</ele>
        <time>2014-10-18T18:51:36.665Z</time>
      </trkpt>
      <trkpt lat="45.69243" lon="4.60319">
        <ele>459</ele>
        <time>2014-10-18T18:51:38.664Z</time>
      </trkpt>
      <trkpt lat="45.69247" lon="4.60321">
        <ele>458</ele>
        <time>2014-10-18T18:51:39.663Z</time>
      </trkpt>
      <trkpt lat="45.69254" lon="4.60323">
        <ele>455</ele>
        <time>2014-10-18T18:51:40.662Z</time>
      </trkpt>
      <trkpt lat="45.69259" lon="4.60325">
        <ele>455</ele>
        <time>2014-10-18T18:51:41.673Z</time>
      </trkpt>
      <trkpt lat="45.69264" lon="4.60327">
        <ele>455</ele>
        <time>2014-10-18T18:51:42.660Z</time>
      </trkpt>
      <trkpt lat="45.6927" lon="4.60329">
        <ele>455</ele>
        <time>2014-10-18T18:51:43.664Z</time>
      </trkpt>
      <trkpt lat="45.69275" lon="4.60329">
        <ele>454</ele>
        <time>2014-10-18T18:51:44.665Z</time>
      </trkpt>
      <trkpt lat="45.69279" lon="4.60329">
        <ele>454</ele>
        <time>2014-10-18T18:51:45.665Z</time>
      </trkpt>
      <trkpt lat="45.69284" lon="4.60327">
        <ele>454</ele>
        <time>2014-10-18T18:51:46.663Z</time>
      </trkpt>
      <trkpt lat="45.69289" lon="4.60325">
        <ele>454</ele>
        <time>2014-10-18T18:51:47.660Z</time>
      </trkpt>
      <trkpt lat="45.69295" lon="4.60319">
        <ele>454</ele>
        <time>2014-10-18T18:51:48.666Z</time>
      </trkpt>
      <trkpt lat="45.693" lon="4.60314">
        <ele>454</ele>
        <time>2014-10-18T18:51:49.667Z</time>
      </trkpt>
      <trkpt lat="45.69307" lon="4.60308">
        <ele>454</ele>
        <time>2014-10-18T18:51:51.663Z</time>
      </trkpt>
      <trkpt lat="45.69311" lon="4.60306">
        <ele>454</ele>
        <time>2014-10-18T18:51:52.672Z</time>
      </trkpt>
      <trkpt lat="45.6932" lon="4.60306">
        <ele>453</ele>
        <time>2014-10-18T18:51:54.664Z</time>
      </trkpt>
      <trkpt lat="45.69324" lon="4.6031">
        <ele>453</ele>
        <time>2014-10-18T18:51:55.665Z</time>
      </trkpt>
      <trkpt lat="45.69332" lon="4.60316">
        <ele>452</ele>
        <time>2014-10-18T18:51:57.665Z</time>
      </trkpt>
      <trkpt lat="45.69335" lon="4.60321">
        <ele>455</ele>
        <time>2014-10-18T18:51:58.666Z</time>
      </trkpt>
      <trkpt lat="45.6934" lon="4.60329">
        <ele>454</ele>
        <time>2014-10-18T18:52:01.666Z</time>
      </trkpt>
      <trkpt lat="45.69343" lon="4.60331">
        <ele>454</ele>
        <time>2014-10-18T18:52:02.665Z</time>
      </trkpt>
      <trkpt lat="45.69346" lon="4.6034">
        <ele>457</ele>
        <time>2014-10-18T18:52:06.664Z</time>
      </trkpt>
      <trkpt lat="45.69345" lon="4.60344">
        <ele>457</ele>
        <time>2014-10-18T18:52:07.669Z</time>
      </trkpt>
      <trkpt lat="45.69343" lon="4.60355">
        <ele>459</ele>
        <time>2014-10-18T18:52:10.664Z</time>
      </trkpt>
      <trkpt lat="45.69343" lon="4.60357">
        <ele>459</ele>
        <time>2014-10-18T18:52:11.669Z</time>
      </trkpt>
      <trkpt lat="45.69347" lon="4.60368">
        <ele>461</ele>
        <time>2014-10-18T18:53:16.650Z</time>
      </trkpt>
      <trkpt lat="45.69346" lon="4.6037">
        <ele>461</ele>
        <time>2014-10-18T18:53:17.657Z</time>
      </trkpt>
      <trkpt lat="45.69344" lon="4.60381">
        <ele>461</ele>
        <time>2014-10-18T18:53:21.668Z</time>
      </trkpt>
      <trkpt lat="45.69344" lon="4.60383">
        <ele>461</ele>
        <time>2014-10-18T18:53:22.703Z</time>
      </trkpt>
      <trkpt lat="45.69345" lon="4.60394">
        <ele>461</ele>
        <time>2014-10-18T18:53:26.664Z</time>
      </trkpt>
      <trkpt lat="45.69345" lon="4.60396">
        <ele>460</ele>
        <time>2014-10-18T18:53:27.665Z</time>
      </trkpt>
      <trkpt lat="45.69346" lon="4.60407">
        <ele>459</ele>
        <time>2014-10-18T18:53:31.665Z</time>
      </trkpt>
      <trkpt lat="45.69346" lon="4.60409">
        <ele>459</ele>
        <time>2014-10-18T18:53:32.668Z</time>
      </trkpt>
      <trkpt lat="45.69346" lon="4.60419">
        <ele>463</ele>
        <time>2014-10-18T18:53:38.663Z</time>
      </trkpt>
      <trkpt lat="45.69346" lon="4.60422">
        <ele>463</ele>
        <time>2014-10-18T18:53:39.663Z</time>
      </trkpt>
      <trkpt lat="45.69345" lon="4.60432">
        <ele>466</ele>
        <time>2014-10-18T18:53:45.688Z</time>
      </trkpt>
      <trkpt lat="45.69344" lon="4.60434">
        <ele>467</ele>
        <time>2014-10-18T18:53:46.668Z</time>
      </trkpt>
      <trkpt lat="45.69343" lon="4.60445">
        <ele>470</ele>
        <time>2014-10-18T18:53:51.663Z</time>
      </trkpt>
      <trkpt lat="45.69343" lon="4.60447">
        <ele>470</ele>
        <time>2014-10-18T18:53:52.663Z</time>
      </trkpt>
      <trkpt lat="45.69339" lon="4.60458">
        <ele>472</ele>
        <time>2014-10-18T18:53:57.688Z</time>
      </trkpt>
      <trkpt lat="45.69338" lon="4.6046">
        <ele>472</ele>
        <time>2014-10-18T18:53:58.664Z</time>
      </trkpt>
      <trkpt lat="45.69333" lon="4.60469">
        <ele>457</ele>
        <time>2014-10-18T18:54:03.670Z</time>
      </trkpt>
      <trkpt lat="45.69332" lon="4.60471">
        <ele>457</ele>
        <time>2014-10-18T18:54:04.670Z</time>
      </trkpt>
      <trkpt lat="45.69331" lon="4.60482">
        <ele>459</ele>
        <time>2014-10-18T18:54:09.673Z</time>
      </trkpt>
      <trkpt lat="45.6933" lon="4.60484">
        <ele>460</ele>
        <time>2014-10-18T18:54:10.663Z</time>
      </trkpt>
      <trkpt lat="45.69325" lon="4.60492">
        <ele>462</ele>
        <time>2014-10-18T18:54:16.664Z</time>
      </trkpt>
      <trkpt lat="45.69324" lon="4.60495">
        <ele>462</ele>
        <time>2014-10-18T18:54:17.671Z</time>
      </trkpt>
      <trkpt lat="45.69321" lon="4.60503">
        <ele>465</ele>
        <time>2014-10-18T18:54:22.665Z</time>
      </trkpt>
      <trkpt lat="45.69319" lon="4.60505">
        <ele>465</ele>
        <time>2014-10-18T18:54:23.666Z</time>
      </trkpt>
      <trkpt lat="45.69317" lon="4.60516">
        <ele>465</ele>
        <time>2014-10-18T18:54:29.667Z</time>
      </trkpt>
      <trkpt lat="45.69317" lon="4.60518">
        <ele>465</ele>
        <time>2014-10-18T18:54:30.670Z</time>
      </trkpt>
      <trkpt lat="45.69314" lon="4.60527">
        <ele>465</ele>
        <time>2014-10-18T18:54:35.663Z</time>
      </trkpt>
      <trkpt lat="45.69311" lon="4.60529">
        <ele>465</ele>
        <time>2014-10-18T18:54:36.662Z</time>
      </trkpt>
      <trkpt lat="45.69308" lon="4.6054">
        <ele>465</ele>
        <time>2014-10-18T18:54:41.665Z</time>
      </trkpt>
      <trkpt lat="45.69308" lon="4.60542">
        <ele>465</ele>
        <time>2014-10-18T18:54:42.667Z</time>
      </trkpt>
      <trkpt lat="45.69307" lon="4.60552">
        <ele>467</ele>
        <time>2014-10-18T18:54:48.664Z</time>
      </trkpt>
      <trkpt lat="45.69307" lon="4.60555">
        <ele>467</ele>
        <time>2014-10-18T18:54:49.669Z</time>
      </trkpt>
      <trkpt lat="45.69305" lon="4.60565">
        <ele>468</ele>
        <time>2014-10-18T18:54:55.665Z</time>
      </trkpt>
      <trkpt lat="45.69305" lon="4.60567">
        <ele>468</ele>
        <time>2014-10-18T18:54:56.664Z</time>
      </trkpt>
      <trkpt lat="45.69303" lon="4.60578">
        <ele>469</ele>
        <time>2014-10-18T18:55:02.667Z</time>
      </trkpt>
      <trkpt lat="45.69302" lon="4.6058">
        <ele>468</ele>
        <time>2014-10-18T18:55:03.665Z</time>
      </trkpt>
      <trkpt lat="45.69299" lon="4.60591">
        <ele>476</ele>
        <time>2014-10-18T18:55:11.662Z</time>
      </trkpt>
      <trkpt lat="45.69299" lon="4.60593">
        <ele>476</ele>
        <time>2014-10-18T18:55:12.674Z</time>
      </trkpt>
      <trkpt lat="45.69296" lon="4.60604">
        <ele>476</ele>
        <time>2014-10-18T18:55:19.672Z</time>
      </trkpt>
      <trkpt lat="45.69298" lon="4.60606">
        <ele>476</ele>
        <time>2014-10-18T18:55:20.663Z</time>
      </trkpt>
      <trkpt lat="45.69294" lon="4.60617">
        <ele>476</ele>
        <time>2014-10-18T18:55:32.659Z</time>
      </trkpt>
      <trkpt lat="45.69294" lon="4.60619">
        <ele>476</ele>
        <time>2014-10-18T18:55:33.656Z</time>
      </trkpt>
      <trkpt lat="45.6929" lon="4.6063">
        <ele>477</ele>
        <time>2014-10-18T18:55:41.665Z</time>
      </trkpt>
      <trkpt lat="45.69291" lon="4.60632">
        <ele>477</ele>
        <time>2014-10-18T18:55:42.665Z</time>
      </trkpt>
      <trkpt lat="45.69291" lon="4.60643">
        <ele>478</ele>
        <time>2014-10-18T18:55:48.678Z</time>
      </trkpt>
      <trkpt lat="45.6929" lon="4.60645">
        <ele>478</ele>
        <time>2014-10-18T18:55:49.706Z</time>
      </trkpt>
      <trkpt lat="45.69288" lon="4.60655">
        <ele>478</ele>
        <time>2014-10-18T18:55:56.685Z</time>
      </trkpt>
      <trkpt lat="45.69288" lon="4.60658">
        <ele>478</ele>
        <time>2014-10-18T18:55:57.672Z</time>
      </trkpt>
      <trkpt lat="45.69284" lon="4.60666">
        <ele>477</ele>
        <time>2014-10-18T18:56:04.677Z</time>
      </trkpt>
      <trkpt lat="45.69283" lon="4.60668">
        <ele>483</ele>
        <time>2014-10-18T18:56:05.660Z</time>
      </trkpt>
      <trkpt lat="45.69278" lon="4.60679">
        <ele>482</ele>
        <time>2014-10-18T18:56:13.662Z</time>
      </trkpt>
      <trkpt lat="45.69277" lon="4.60681">
        <ele>482</ele>
        <time>2014-10-18T18:56:14.664Z</time>
      </trkpt>
      <trkpt lat="45.69274" lon="4.60692">
        <ele>482</ele>
        <time>2014-10-18T18:56:22.664Z</time>
      </trkpt>
      <trkpt lat="45.69273" lon="4.60694">
        <ele>482</ele>
        <time>2014-10-18T18:56:23.664Z</time>
      </trkpt>
      <trkpt lat="45.69279" lon="4.60701">
        <ele>484</ele>
        <time>2014-10-18T19:06:09.474Z</time>
      </trkpt>
      <trkpt lat="45.69281" lon="4.60698">
        <ele>484</ele>
        <time>2014-10-18T19:06:10.453Z</time>
      </trkpt>
      <trkpt lat="45.69289" lon="4.60696">
        <ele>485</ele>
        <time>2014-10-18T19:06:14.453Z</time>
      </trkpt>
      <trkpt lat="45.69291" lon="4.60696">
        <ele>485</ele>
        <time>2014-10-18T19:06:15.453Z</time>
      </trkpt>
      <trkpt lat="45.69298" lon="4.60696">
        <ele>486</ele>
        <time>2014-10-18T19:06:17.454Z</time>
      </trkpt>
      <trkpt lat="45.69301" lon="4.60698">
        <ele>486</ele>
        <time>2014-10-18T19:06:18.451Z</time>
      </trkpt>
      <trkpt lat="45.69306" lon="4.60703">
        <ele>487</ele>
        <time>2014-10-18T19:06:20.452Z</time>
      </trkpt>
      <trkpt lat="45.69309" lon="4.60705">
        <ele>487</ele>
        <time>2014-10-18T19:06:21.450Z</time>
      </trkpt>
      <trkpt lat="45.69315" lon="4.60713">
        <ele>488</ele>
        <time>2014-10-18T19:06:24.461Z</time>
      </trkpt>
      <trkpt lat="45.69316" lon="4.60716">
        <ele>488</ele>
        <time>2014-10-18T19:06:25.461Z</time>
      </trkpt>
      <trkpt lat="45.69321" lon="4.60724">
        <ele>489</ele>
        <time>2014-10-18T19:06:28.458Z</time>
      </trkpt>
      <trkpt lat="45.69321" lon="4.60726">
        <ele>489</ele>
        <time>2014-10-18T19:06:29.451Z</time>
      </trkpt>
      <trkpt lat="45.69322" lon="4.60737">
        <ele>491</ele>
        <time>2014-10-18T19:06:32.458Z</time>
      </trkpt>
      <trkpt lat="45.69322" lon="4.60739">
        <ele>491</ele>
        <time>2014-10-18T19:06:33.480Z</time>
      </trkpt>
      <trkpt lat="45.69321" lon="4.60748">
        <ele>491</ele>
        <time>2014-10-18T19:06:36.453Z</time>
      </trkpt>
      <trkpt lat="45.6932" lon="4.60752">
        <ele>492</ele>
        <time>2014-10-18T19:06:37.454Z</time>
      </trkpt>
      <trkpt lat="45.69317" lon="4.60761">
        <ele>492</ele>
        <time>2014-10-18T19:06:41.453Z</time>
      </trkpt>
      <trkpt lat="45.69317" lon="4.60765">
        <ele>492</ele>
        <time>2014-10-18T19:06:42.451Z</time>
      </trkpt>
      <trkpt lat="45.69313" lon="4.60776">
        <ele>491</ele>
        <time>2014-10-18T19:06:46.465Z</time>
      </trkpt>
      <trkpt lat="45.69313" lon="4.60778">
        <ele>491</ele>
        <time>2014-10-18T19:06:47.478Z</time>
      </trkpt>
      <trkpt lat="45.69308" lon="4.60786">
        <ele>491</ele>
        <time>2014-10-18T19:06:51.453Z</time>
      </trkpt>
      <trkpt lat="45.69307" lon="4.60788">
        <ele>490</ele>
        <time>2014-10-18T19:06:52.452Z</time>
      </trkpt>
      <trkpt lat="45.69307" lon="4.60799">
        <ele>491</ele>
        <time>2014-10-18T19:06:56.453Z</time>
      </trkpt>
      <trkpt lat="45.69307" lon="4.60801">
        <ele>491</ele>
        <time>2014-10-18T19:06:57.455Z</time>
      </trkpt>
      <trkpt lat="45.69307" lon="4.60812">
        <ele>491</ele>
        <time>2014-10-18T19:07:01.461Z</time>
      </trkpt>
      <trkpt lat="45.69306" lon="4.60814">
        <ele>491</ele>
        <time>2014-10-18T19:07:02.468Z</time>
      </trkpt>
      <trkpt lat="45.69305" lon="4.60825">
        <ele>492</ele>
        <time>2014-10-18T19:07:09.452Z</time>
      </trkpt>
      <trkpt lat="45.69305" lon="4.60827">
        <ele>492</ele>
        <time>2014-10-18T19:07:10.457Z</time>
      </trkpt>
      <trkpt lat="45.69303" lon="4.60838">
        <ele>494</ele>
        <time>2014-10-18T19:07:19.256Z</time>
      </trkpt>
      <trkpt lat="45.69304" lon="4.6084">
        <ele>494</ele>
        <time>2014-10-18T19:07:19.451Z</time>
      </trkpt>
      <trkpt lat="45.69302" lon="4.60851">
        <ele>494</ele>
        <time>2014-10-18T19:07:25.460Z</time>
      </trkpt>
      <trkpt lat="45.69302" lon="4.60853">
        <ele>494</ele>
        <time>2014-10-18T19:07:26.452Z</time>
      </trkpt>
      <trkpt lat="45.69302" lon="4.60864">
        <ele>494</ele>
        <time>2014-10-18T19:07:33.388Z</time>
      </trkpt>
      <trkpt lat="45.69302" lon="4.60866">
        <ele>494</ele>
        <time>2014-10-18T19:07:34.389Z</time>
      </trkpt>
      <trkpt lat="45.69303" lon="4.60874">
        <ele>495</ele>
        <time>2014-10-18T19:07:38.391Z</time>
      </trkpt>
      <trkpt lat="45.69304" lon="4.60879">
        <ele>495</ele>
        <time>2014-10-18T19:07:39.390Z</time>
      </trkpt>
      <trkpt lat="45.69305" lon="4.60889">
        <ele>496</ele>
        <time>2014-10-18T19:07:43.400Z</time>
      </trkpt>
      <trkpt lat="45.69306" lon="4.60894">
        <ele>497</ele>
        <time>2014-10-18T19:07:44.391Z</time>
      </trkpt>
      <trkpt lat="45.69309" lon="4.60904">
        <ele>499</ele>
        <time>2014-10-18T19:07:51.399Z</time>
      </trkpt>
      <trkpt lat="45.69309" lon="4.60909">
        <ele>499</ele>
        <time>2014-10-18T19:07:52.390Z</time>
      </trkpt>
      <trkpt lat="45.69307" lon="4.60919">
        <ele>503</ele>
        <time>2014-10-18T19:08:27.388Z</time>
      </trkpt>
      <trkpt lat="45.69307" lon="4.60922">
        <ele>503</ele>
        <time>2014-10-18T19:08:28.392Z</time>
      </trkpt>
      <trkpt lat="45.69302" lon="4.6093">
        <ele>502</ele>
        <time>2014-10-18T19:08:32.387Z</time>
      </trkpt>
      <trkpt lat="45.69301" lon="4.60934">
        <ele>502</ele>
        <time>2014-10-18T19:08:33.390Z</time>
      </trkpt>
      <trkpt lat="45.69299" lon="4.60945">
        <ele>501</ele>
        <time>2014-10-18T19:08:35.388Z</time>
      </trkpt>
      <trkpt lat="45.69295" lon="4.60952">
        <ele>501</ele>
        <time>2014-10-18T19:08:36.389Z</time>
      </trkpt>
      <trkpt lat="45.69293" lon="4.60956">
        <ele>501</ele>
        <time>2014-10-18T19:08:37.390Z</time>
      </trkpt>
      <trkpt lat="45.6929" lon="4.60962">
        <ele>501</ele>
        <time>2014-10-18T19:08:38.389Z</time>
      </trkpt>
      <trkpt lat="45.69286" lon="4.60969">
        <ele>500</ele>
        <time>2014-10-18T19:08:39.388Z</time>
      </trkpt>
      <trkpt lat="45.69283" lon="4.60975">
        <ele>500</ele>
        <time>2014-10-18T19:08:40.390Z</time>
      </trkpt>
      <trkpt lat="45.69279" lon="4.60982">
        <ele>499</ele>
        <time>2014-10-18T19:08:41.383Z</time>
      </trkpt>
      <trkpt lat="45.69276" lon="4.6099">
        <ele>498</ele>
        <time>2014-10-18T19:08:42.391Z</time>
      </trkpt>
      <trkpt lat="45.69273" lon="4.60997">
        <ele>497</ele>
        <time>2014-10-18T19:08:43.389Z</time>
      </trkpt>
      <trkpt lat="45.69271" lon="4.61003">
        <ele>500</ele>
        <time>2014-10-18T19:08:44.390Z</time>
      </trkpt>
      <trkpt lat="45.69266" lon="4.61012">
        <ele>499</ele>
        <time>2014-10-18T19:08:45.388Z</time>
      </trkpt>
      <trkpt lat="45.69263" lon="4.61018">
        <ele>500</ele>
        <time>2014-10-18T19:08:46.394Z</time>
      </trkpt>
      <trkpt lat="45.69259" lon="4.61029">
        <ele>501</ele>
        <time>2014-10-18T19:08:48.388Z</time>
      </trkpt>
      <trkpt lat="45.69255" lon="4.61033">
        <ele>501</ele>
        <time>2014-10-18T19:08:49.396Z</time>
      </trkpt>
      <trkpt lat="45.69251" lon="4.6104">
        <ele>501</ele>
        <time>2014-10-18T19:08:50.387Z</time>
      </trkpt>
      <trkpt lat="45.69246" lon="4.61048">
        <ele>484</ele>
        <time>2014-10-18T19:08:51.389Z</time>
      </trkpt>
      <trkpt lat="45.69242" lon="4.61055">
        <ele>485</ele>
        <time>2014-10-18T19:08:52.385Z</time>
      </trkpt>
      <trkpt lat="45.6924" lon="4.61063">
        <ele>486</ele>
        <time>2014-10-18T19:08:53.397Z</time>
      </trkpt>
      <trkpt lat="45.69241" lon="4.61074">
        <ele>488</ele>
        <time>2014-10-18T19:08:54.393Z</time>
      </trkpt>
      <trkpt lat="45.69242" lon="4.61085">
        <ele>492</ele>
        <time>2014-10-18T19:08:55.390Z</time>
      </trkpt>
      <trkpt lat="45.69244" lon="4.61093">
        <ele>491</ele>
        <time>2014-10-18T19:08:56.417Z</time>
      </trkpt>
      <trkpt lat="45.69246" lon="4.61102">
        <ele>490</ele>
        <time>2014-10-18T19:08:57.391Z</time>
      </trkpt>
      <trkpt lat="45.69247" lon="4.61108">
        <ele>490</ele>
        <time>2014-10-18T19:08:58.388Z</time>
      </trkpt>
      <trkpt lat="45.69247" lon="4.61117">
        <ele>489</ele>
        <time>2014-10-18T19:08:59.391Z</time>
      </trkpt>
      <trkpt lat="45.69247" lon="4.61125">
        <ele>489</ele>
        <time>2014-10-18T19:09:00.389Z</time>
      </trkpt>
      <trkpt lat="45.69246" lon="4.61134">
        <ele>489</ele>
        <time>2014-10-18T19:09:01.392Z</time>
      </trkpt>
      <trkpt lat="45.69245" lon="4.61143">
        <ele>490</ele>
        <time>2014-10-18T19:09:02.387Z</time>
      </trkpt>
      <trkpt lat="45.69244" lon="4.61149">
        <ele>491</ele>
        <time>2014-10-18T19:09:03.388Z</time>
      </trkpt>
      <trkpt lat="45.69243" lon="4.61158">
        <ele>491</ele>
        <time>2014-10-18T19:09:04.380Z</time>
      </trkpt>
      <trkpt lat="45.69243" lon="4.61166">
        <ele>492</ele>
        <time>2014-10-18T19:09:05.384Z</time>
      </trkpt>
      <trkpt lat="45.69241" lon="4.61173">
        <ele>495</ele>
        <time>2014-10-18T19:09:06.378Z</time>
      </trkpt>
      <trkpt lat="45.69237" lon="4.61181">
        <ele>495</ele>
        <time>2014-10-18T19:09:07.374Z</time>
      </trkpt>
      <trkpt lat="45.69232" lon="4.61188">
        <ele>496</ele>
        <time>2014-10-18T19:09:08.370Z</time>
      </trkpt>
      <trkpt lat="45.6923" lon="4.6119">
        <ele>496</ele>
        <time>2014-10-18T19:09:09.371Z</time>
      </trkpt>
      <trkpt lat="45.69221" lon="4.6119">
        <ele>496</ele>
        <time>2014-10-18T19:09:11.368Z</time>
      </trkpt>
      <trkpt lat="45.69218" lon="4.61185">
        <ele>496</ele>
        <time>2014-10-18T19:09:12.373Z</time>
      </trkpt>
      <trkpt lat="45.69214" lon="4.61179">
        <ele>495</ele>
        <time>2014-10-18T19:09:14.381Z</time>
      </trkpt>
      <trkpt lat="45.69212" lon="4.61175">
        <ele>495</ele>
        <time>2014-10-18T19:09:15.377Z</time>
      </trkpt>
      <trkpt lat="45.69206" lon="4.61168">
        <ele>495</ele>
        <time>2014-10-18T19:09:17.943Z</time>
      </trkpt>
      <trkpt lat="45.69204" lon="4.61166">
        <ele>488</ele>
        <time>2014-10-18T19:09:18.953Z</time>
      </trkpt>
      <trkpt lat="45.69198" lon="4.6116">
        <ele>487</ele>
        <time>2014-10-18T19:09:22.957Z</time>
      </trkpt>
      <trkpt lat="45.69196" lon="4.6116">
        <ele>487</ele>
        <time>2014-10-18T19:09:23.958Z</time>
      </trkpt>
      <trkpt lat="45.69188" lon="4.61155">
        <ele>487</ele>
        <time>2014-10-18T19:09:26.944Z</time>
      </trkpt>
      <trkpt lat="45.69186" lon="4.61153">
        <ele>487</ele>
        <time>2014-10-18T19:09:27.964Z</time>
      </trkpt>
      <trkpt lat="45.69178" lon="4.61147">
        <ele>486</ele>
        <time>2014-10-18T19:09:31.961Z</time>
      </trkpt>
      <trkpt lat="45.69176" lon="4.61145">
        <ele>486</ele>
        <time>2014-10-18T19:09:32.958Z</time>
      </trkpt>
      <trkpt lat="45.69172" lon="4.61138">
        <ele>485</ele>
        <time>2014-10-18T19:09:34.956Z</time>
      </trkpt>
      <trkpt lat="45.69168" lon="4.61134">
        <ele>485</ele>
        <time>2014-10-18T19:09:35.977Z</time>
      </trkpt>
      <trkpt lat="45.69163" lon="4.61132">
        <ele>477</ele>
        <time>2014-10-18T19:09:36.963Z</time>
      </trkpt>
      <trkpt lat="45.69158" lon="4.6113">
        <ele>476</ele>
        <time>2014-10-18T19:09:37.959Z</time>
      </trkpt>
      <trkpt lat="45.69153" lon="4.6113">
        <ele>476</ele>
        <time>2014-10-18T19:09:38.979Z</time>
      </trkpt>
      <trkpt lat="45.69147" lon="4.6113">
        <ele>476</ele>
        <time>2014-10-18T19:09:39.957Z</time>
      </trkpt>
      <trkpt lat="45.69143" lon="4.6113">
        <ele>475</ele>
        <time>2014-10-18T19:09:40.955Z</time>
      </trkpt>
      <trkpt lat="45.69136" lon="4.6113">
        <ele>475</ele>
        <time>2014-10-18T19:09:41.961Z</time>
      </trkpt>
      <trkpt lat="45.69129" lon="4.61132">
        <ele>475</ele>
        <time>2014-10-18T19:09:42.957Z</time>
      </trkpt>
      <trkpt lat="45.69123" lon="4.61134">
        <ele>475</ele>
        <time>2014-10-18T19:09:43.953Z</time>
      </trkpt>
      <trkpt lat="45.69118" lon="4.61134">
        <ele>474</ele>
        <time>2014-10-18T19:09:44.955Z</time>
      </trkpt>
      <trkpt lat="45.69113" lon="4.61138">
        <ele>474</ele>
        <time>2014-10-18T19:09:45.978Z</time>
      </trkpt>
      <trkpt lat="45.69108" lon="4.61143">
        <ele>475</ele>
        <time>2014-10-18T19:09:46.962Z</time>
      </trkpt>
      <trkpt lat="45.69102" lon="4.61147">
        <ele>475</ele>
        <time>2014-10-18T19:09:47.977Z</time>
      </trkpt>
      <trkpt lat="45.69096" lon="4.61151">
        <ele>475</ele>
        <time>2014-10-18T19:09:48.952Z</time>
      </trkpt>
      <trkpt lat="45.69089" lon="4.61158">
        <ele>476</ele>
        <time>2014-10-18T19:09:49.951Z</time>
      </trkpt>
      <trkpt lat="45.69084" lon="4.61164">
        <ele>478</ele>
        <time>2014-10-18T19:09:50.950Z</time>
      </trkpt>
      <trkpt lat="45.69078" lon="4.61168">
        <ele>478</ele>
        <time>2014-10-18T19:09:51.965Z</time>
      </trkpt>
      <trkpt lat="45.69073" lon="4.61175">
        <ele>478</ele>
        <time>2014-10-18T19:09:52.957Z</time>
      </trkpt>
      <trkpt lat="45.69069" lon="4.61179">
        <ele>478</ele>
        <time>2014-10-18T19:09:53.954Z</time>
      </trkpt>
      <trkpt lat="45.69064" lon="4.61181">
        <ele>478</ele>
        <time>2014-10-18T19:09:54.958Z</time>
      </trkpt>
      <trkpt lat="45.69058" lon="4.61185">
        <ele>478</ele>
        <time>2014-10-18T19:09:55.955Z</time>
      </trkpt>
      <trkpt lat="45.69054" lon="4.61192">
        <ele>479</ele>
        <time>2014-10-18T19:09:56.951Z</time>
      </trkpt>
      <trkpt lat="45.69051" lon="4.61194">
        <ele>478</ele>
        <time>2014-10-18T19:09:57.957Z</time>
      </trkpt>
      <trkpt lat="45.69045" lon="4.61198">
        <ele>478</ele>
        <time>2014-10-18T19:09:58.949Z</time>
      </trkpt>
      <trkpt lat="45.69041" lon="4.612">
        <ele>478</ele>
        <time>2014-10-18T19:09:59.966Z</time>
      </trkpt>
      <trkpt lat="45.69037" lon="4.61203">
        <ele>478</ele>
        <time>2014-10-18T19:10:00.953Z</time>
      </trkpt>
      <trkpt lat="45.69033" lon="4.61207">
        <ele>478</ele>
        <time>2014-10-18T19:10:01.950Z</time>
      </trkpt>
      <trkpt lat="45.69027" lon="4.61209">
        <ele>478</ele>
        <time>2014-10-18T19:10:02.949Z</time>
      </trkpt>
      <trkpt lat="45.69024" lon="4.61213">
        <ele>478</ele>
        <time>2014-10-18T19:10:03.957Z</time>
      </trkpt>
      <trkpt lat="45.69019" lon="4.61215">
        <ele>478</ele>
        <time>2014-10-18T19:10:04.952Z</time>
      </trkpt>
      <trkpt lat="45.69014" lon="4.61218">
        <ele>478</ele>
        <time>2014-10-18T19:10:05.957Z</time>
      </trkpt>
      <trkpt lat="45.6901" lon="4.6122">
        <ele>478</ele>
        <time>2014-10-18T19:10:06.999Z</time>
      </trkpt>
      <trkpt lat="45.69005" lon="4.61222">
        <ele>478</ele>
        <time>2014-10-18T19:10:07.957Z</time>
      </trkpt>
      <trkpt lat="45.69" lon="4.61226">
        <ele>478</ele>
        <time>2014-10-18T19:10:08.953Z</time>
      </trkpt>
      <trkpt lat="45.68996" lon="4.61228">
        <ele>471</ele>
        <time>2014-10-18T19:10:09.961Z</time>
      </trkpt>
      <trkpt lat="45.68992" lon="4.61231">
        <ele>471</ele>
        <time>2014-10-18T19:10:10.951Z</time>
      </trkpt>
      <trkpt lat="45.68987" lon="4.61233">
        <ele>471</ele>
        <time>2014-10-18T19:10:11.952Z</time>
      </trkpt>
      <trkpt lat="45.68984" lon="4.61235">
        <ele>471</ele>
        <time>2014-10-18T19:10:12.955Z</time>
      </trkpt>
      <trkpt lat="45.68979" lon="4.61239">
        <ele>471</ele>
        <time>2014-10-18T19:10:13.944Z</time>
      </trkpt>
      <trkpt lat="45.68975" lon="4.61243">
        <ele>470</ele>
        <time>2014-10-18T19:10:14.945Z</time>
      </trkpt>
      <trkpt lat="45.6897" lon="4.6125">
        <ele>470</ele>
        <time>2014-10-18T19:10:15.951Z</time>
      </trkpt>
      <trkpt lat="45.68965" lon="4.61254">
        <ele>475</ele>
        <time>2014-10-18T19:10:16.955Z</time>
      </trkpt>
      <trkpt lat="45.68961" lon="4.61258">
        <ele>475</ele>
        <time>2014-10-18T19:10:17.995Z</time>
      </trkpt>
      <trkpt lat="45.68956" lon="4.61263">
        <ele>475</ele>
        <time>2014-10-18T19:10:18.970Z</time>
      </trkpt>
      <trkpt lat="45.68951" lon="4.61267">
        <ele>474</ele>
        <time>2014-10-18T19:10:19.973Z</time>
      </trkpt>
      <trkpt lat="45.68946" lon="4.61269">
        <ele>474</ele>
        <time>2014-10-18T19:10:20.972Z</time>
      </trkpt>
      <trkpt lat="45.68941" lon="4.61273">
        <ele>473</ele>
        <time>2014-10-18T19:10:21.975Z</time>
      </trkpt>
      <trkpt lat="45.68934" lon="4.6128">
        <ele>473</ele>
        <time>2014-10-18T19:10:23.963Z</time>
      </trkpt>
      <trkpt lat="45.6893" lon="4.61284">
        <ele>473</ele>
        <time>2014-10-18T19:10:24.974Z</time>
      </trkpt>
      <trkpt lat="45.68922" lon="4.61291">
        <ele>473</ele>
        <time>2014-10-18T19:10:26.972Z</time>
      </trkpt>
      <trkpt lat="45.68919" lon="4.61297">
        <ele>473</ele>
        <time>2014-10-18T19:10:27.977Z</time>
      </trkpt>
      <trkpt lat="45.68916" lon="4.61301">
        <ele>463</ele>
        <time>2014-10-18T19:10:28.978Z</time>
      </trkpt>
      <trkpt lat="45.68913" lon="4.61308">
        <ele>464</ele>
        <time>2014-10-18T19:10:29.973Z</time>
      </trkpt>
      <trkpt lat="45.6891" lon="4.61314">
        <ele>465</ele>
        <time>2014-10-18T19:10:30.970Z</time>
      </trkpt>
      <trkpt lat="45.68908" lon="4.61318">
        <ele>465</ele>
        <time>2014-10-18T19:10:31.988Z</time>
      </trkpt>
      <trkpt lat="45.68905" lon="4.61327">
        <ele>466</ele>
        <time>2014-10-18T19:10:33.970Z</time>
      </trkpt>
      <trkpt lat="45.68904" lon="4.61331">
        <ele>466</ele>
        <time>2014-10-18T19:10:34.973Z</time>
      </trkpt>
      <trkpt lat="45.68901" lon="4.61342">
        <ele>464</ele>
        <time>2014-10-18T19:10:38.974Z</time>
      </trkpt>
      <trkpt lat="45.689" lon="4.61344">
        <ele>463</ele>
        <time>2014-10-18T19:10:39.979Z</time>
      </trkpt>
      <trkpt lat="45.68904" lon="4.61338">
        <ele>465</ele>
        <time>2014-10-18T19:11:24.973Z</time>
      </trkpt>
      <trkpt lat="45.68905" lon="4.61334">
        <ele>466</ele>
        <time>2014-10-18T19:11:25.971Z</time>
      </trkpt>
      <trkpt lat="45.68908" lon="4.61323">
        <ele>466</ele>
        <time>2014-10-18T19:11:28.971Z</time>
      </trkpt>
      <trkpt lat="45.68909" lon="4.61318">
        <ele>465</ele>
        <time>2014-10-18T19:11:29.970Z</time>
      </trkpt>
      <trkpt lat="45.68913" lon="4.6131">
        <ele>464</ele>
        <time>2014-10-18T19:11:32.973Z</time>
      </trkpt>
      <trkpt lat="45.68915" lon="4.61306">
        <ele>464</ele>
        <time>2014-10-18T19:11:33.983Z</time>
      </trkpt>
      <trkpt lat="45.68921" lon="4.61299">
        <ele>473</ele>
        <time>2014-10-18T19:11:36.981Z</time>
      </trkpt>
      <trkpt lat="45.68923" lon="4.61297">
        <ele>473</ele>
        <time>2014-10-18T19:11:37.985Z</time>
      </trkpt>
      <trkpt lat="45.6893" lon="4.61288">
        <ele>473</ele>
        <time>2014-10-18T19:11:41.982Z</time>
      </trkpt>
      <trkpt lat="45.68931" lon="4.61286">
        <ele>473</ele>
        <time>2014-10-18T19:11:42.984Z</time>
      </trkpt>
      <trkpt lat="45.68937" lon="4.61278">
        <ele>473</ele>
        <time>2014-10-18T19:11:47.005Z</time>
      </trkpt>
      <trkpt lat="45.68938" lon="4.61276">
        <ele>473</ele>
        <time>2014-10-18T19:11:47.989Z</time>
      </trkpt>
      <trkpt lat="45.68945" lon="4.61269">
        <ele>474</ele>
        <time>2014-10-18T19:11:52.983Z</time>
      </trkpt>
      <trkpt lat="45.68946" lon="4.61267">
        <ele>474</ele>
        <time>2014-10-18T19:11:53.982Z</time>
      </trkpt>
      <trkpt lat="45.68953" lon="4.61263">
        <ele>474</ele>
        <time>2014-10-18T19:11:56.998Z</time>
      </trkpt>
      <trkpt lat="45.68956" lon="4.61261">
        <ele>475</ele>
        <time>2014-10-18T19:11:57.973Z</time>
      </trkpt>
      <trkpt lat="45.68962" lon="4.61256">
        <ele>475</ele>
        <time>2014-10-18T19:11:59.986Z</time>
      </trkpt>
      <trkpt lat="45.68965" lon="4.61254">
        <ele>475</ele>
        <time>2014-10-18T19:12:00.981Z</time>
      </trkpt>
      <trkpt lat="45.68971" lon="4.61248">
        <ele>470</ele>
        <time>2014-10-18T19:12:03.970Z</time>
      </trkpt>
      <trkpt lat="45.68974" lon="4.61246">
        <ele>470</ele>
        <time>2014-10-18T19:12:04.970Z</time>
      </trkpt>
      <trkpt lat="45.68981" lon="4.61239">
        <ele>471</ele>
        <time>2014-10-18T19:12:09.988Z</time>
      </trkpt>
      <trkpt lat="45.68982" lon="4.61239">
        <ele>471</ele>
        <time>2014-10-18T19:12:10.975Z</time>
      </trkpt>
      <trkpt lat="45.6899" lon="4.61235">
        <ele>472</ele>
        <time>2014-10-18T19:18:25.914Z</time>
      </trkpt>
      <trkpt lat="45.68992" lon="4.61235">
        <ele>472</ele>
        <time>2014-10-18T19:18:26.914Z</time>
      </trkpt>
      <trkpt lat="45.69" lon="4.61235">
        <ele>479</ele>
        <time>2014-10-18T19:18:30.919Z</time>
      </trkpt>
      <trkpt lat="45.69001" lon="4.61235">
        <ele>479</ele>
        <time>2014-10-18T19:18:31.936Z</time>
      </trkpt>
      <trkpt lat="45.69008" lon="4.61235">
        <ele>479</ele>
        <time>2014-10-18T19:18:35.913Z</time>
      </trkpt>
      <trkpt lat="45.69011" lon="4.61235">
        <ele>479</ele>
        <time>2014-10-18T19:18:36.938Z</time>
      </trkpt>
      <trkpt lat="45.69019" lon="4.61235">
        <ele>479</ele>
        <time>2014-10-18T19:18:41.913Z</time>
      </trkpt>
      <trkpt lat="45.69021" lon="4.61235">
        <ele>479</ele>
        <time>2014-10-18T19:18:42.918Z</time>
      </trkpt>
      <trkpt lat="45.69029" lon="4.61235">
        <ele>480</ele>
        <time>2014-10-18T19:18:47.920Z</time>
      </trkpt>
      <trkpt lat="45.6903" lon="4.61235">
        <ele>480</ele>
        <time>2014-10-18T19:18:48.917Z</time>
      </trkpt>
      <trkpt lat="45.69038" lon="4.61231">
        <ele>481</ele>
        <time>2014-10-18T19:18:53.913Z</time>
      </trkpt>
      <trkpt lat="45.6904" lon="4.61231">
        <ele>481</ele>
        <time>2014-10-18T19:18:54.918Z</time>
      </trkpt>
      <trkpt lat="45.69049" lon="4.61228">
        <ele>482</ele>
        <time>2014-10-18T19:19:00.902Z</time>
      </trkpt>
      <trkpt lat="45.69051" lon="4.61228">
        <ele>482</ele>
        <time>2014-10-18T19:19:01.901Z</time>
      </trkpt>
      <trkpt lat="45.69059" lon="4.61226">
        <ele>483</ele>
        <time>2014-10-18T19:19:09.915Z</time>
      </trkpt>
      <trkpt lat="45.6906" lon="4.61226">
        <ele>483</ele>
        <time>2014-10-18T19:19:10.914Z</time>
      </trkpt>
      <trkpt lat="45.69068" lon="4.61222">
        <ele>484</ele>
        <time>2014-10-18T19:19:16.909Z</time>
      </trkpt>
      <trkpt lat="45.69069" lon="4.61222">
        <ele>484</ele>
        <time>2014-10-18T19:19:17.929Z</time>
      </trkpt>
      <trkpt lat="45.69078" lon="4.6122">
        <ele>484</ele>
        <time>2014-10-18T19:19:24.925Z</time>
      </trkpt>
      <trkpt lat="45.69079" lon="4.6122">
        <ele>484</ele>
        <time>2014-10-18T19:19:25.912Z</time>
      </trkpt>
      <trkpt lat="45.69087" lon="4.61218">
        <ele>492</ele>
        <time>2014-10-18T19:19:33.917Z</time>
      </trkpt>
      <trkpt lat="45.69089" lon="4.61218">
        <ele>492</ele>
        <time>2014-10-18T19:19:34.915Z</time>
      </trkpt>
      <trkpt lat="45.69097" lon="4.61211">
        <ele>491</ele>
        <time>2014-10-18T19:19:42.915Z</time>
      </trkpt>
      <trkpt lat="45.69098" lon="4.61211">
        <ele>491</ele>
        <time>2014-10-18T19:19:43.932Z</time>
      </trkpt>
      <trkpt lat="45.69107" lon="4.61211">
        <ele>492</ele>
        <time>2014-10-18T19:19:50.822Z</time>
      </trkpt>
      <trkpt lat="45.69108" lon="4.61211">
        <ele>492</ele>
        <time>2014-10-18T19:19:51.823Z</time>
      </trkpt>
      <trkpt lat="45.69115" lon="4.61209">
        <ele>492</ele>
        <time>2014-10-18T19:19:58.819Z</time>
      </trkpt>
      <trkpt lat="45.69116" lon="4.61207">
        <ele>492</ele>
        <time>2014-10-18T19:19:59.824Z</time>
      </trkpt>
      <trkpt lat="45.69125" lon="4.61205">
        <ele>492</ele>
        <time>2014-10-18T19:20:05.822Z</time>
      </trkpt>
      <trkpt lat="45.69126" lon="4.61205">
        <ele>492</ele>
        <time>2014-10-18T19:20:06.832Z</time>
      </trkpt>
      <trkpt lat="45.69134" lon="4.61205">
        <ele>493</ele>
        <time>2014-10-18T19:20:13.817Z</time>
      </trkpt>
      <trkpt lat="45.69136" lon="4.61205">
        <ele>493</ele>
        <time>2014-10-18T19:20:14.819Z</time>
      </trkpt>
      <trkpt lat="45.69143" lon="4.61211">
        <ele>494</ele>
        <time>2014-10-18T19:20:21.818Z</time>
      </trkpt>
      <trkpt lat="45.69145" lon="4.61211">
        <ele>494</ele>
        <time>2014-10-18T19:20:22.819Z</time>
      </trkpt>
      <trkpt lat="45.69153" lon="4.61215">
        <ele>495</ele>
        <time>2014-10-18T19:20:29.821Z</time>
      </trkpt>
      <trkpt lat="45.69154" lon="4.61218">
        <ele>496</ele>
        <time>2014-10-18T19:20:30.835Z</time>
      </trkpt>
      <trkpt lat="45.69161" lon="4.61224">
        <ele>498</ele>
        <time>2014-10-18T19:20:37.819Z</time>
      </trkpt>
      <trkpt lat="45.69163" lon="4.61224">
        <ele>498</ele>
        <time>2014-10-18T19:20:38.835Z</time>
      </trkpt>
      <trkpt lat="45.6917" lon="4.61231">
        <ele>502</ele>
        <time>2014-10-18T19:20:43.828Z</time>
      </trkpt>
      <trkpt lat="45.69172" lon="4.61231">
        <ele>502</ele>
        <time>2014-10-18T19:20:44.820Z</time>
      </trkpt>
      <trkpt lat="45.69178" lon="4.61237">
        <ele>502</ele>
        <time>2014-10-18T19:20:50.823Z</time>
      </trkpt>
      <trkpt lat="45.6918" lon="4.61239">
        <ele>502</ele>
        <time>2014-10-18T19:20:51.817Z</time>
      </trkpt>
      <trkpt lat="45.69186" lon="4.61246">
        <ele>502</ele>
        <time>2014-10-18T19:20:57.843Z</time>
      </trkpt>
      <trkpt lat="45.69187" lon="4.61248">
        <ele>502</ele>
        <time>2014-10-18T19:20:58.821Z</time>
      </trkpt>
      <trkpt lat="45.69193" lon="4.61256">
        <ele>510</ele>
        <time>2014-10-18T19:21:04.818Z</time>
      </trkpt>
      <trkpt lat="45.69196" lon="4.61258">
        <ele>510</ele>
        <time>2014-10-18T19:21:05.817Z</time>
      </trkpt>
      <trkpt lat="45.692" lon="4.61269">
        <ele>511</ele>
        <time>2014-10-18T19:21:11.816Z</time>
      </trkpt>
      <trkpt lat="45.692" lon="4.61271">
        <ele>511</ele>
        <time>2014-10-18T19:21:12.819Z</time>
      </trkpt>
      <trkpt lat="45.69204" lon="4.6128">
        <ele>512</ele>
        <time>2014-10-18T19:21:16.817Z</time>
      </trkpt>
      <trkpt lat="45.69205" lon="4.61282">
        <ele>512</ele>
        <time>2014-10-18T19:21:17.832Z</time>
      </trkpt>
      <trkpt lat="45.69209" lon="4.61293">
        <ele>513</ele>
        <time>2014-10-18T19:21:23.819Z</time>
      </trkpt>
      <trkpt lat="45.69209" lon="4.61295">
        <ele>513</ele>
        <time>2014-10-18T19:21:24.819Z</time>
      </trkpt>
      <trkpt lat="45.69214" lon="4.61303">
        <ele>514</ele>
        <time>2014-10-18T19:21:30.821Z</time>
      </trkpt>
      <trkpt lat="45.69215" lon="4.61306">
        <ele>514</ele>
        <time>2014-10-18T19:21:31.824Z</time>
      </trkpt>
      <trkpt lat="45.69221" lon="4.61314">
        <ele>515</ele>
        <time>2014-10-18T19:21:37.817Z</time>
      </trkpt>
      <trkpt lat="45.69222" lon="4.61314">
        <ele>515</ele>
        <time>2014-10-18T19:21:38.816Z</time>
      </trkpt>
      <trkpt lat="45.69229" lon="4.61323">
        <ele>516</ele>
        <time>2014-10-18T19:21:46.822Z</time>
      </trkpt>
      <trkpt lat="45.6923" lon="4.61325">
        <ele>516</ele>
        <time>2014-10-18T19:21:47.818Z</time>
      </trkpt>
      <trkpt lat="45.69227" lon="4.61336">
        <ele>525</ele>
        <time>2014-10-18T19:21:53.821Z</time>
      </trkpt>
      <trkpt lat="45.69225" lon="4.61336">
        <ele>525</ele>
        <time>2014-10-18T19:21:54.817Z</time>
      </trkpt>
      <trkpt lat="45.69217" lon="4.61336">
        <ele>525</ele>
        <time>2014-10-18T19:21:58.818Z</time>
      </trkpt>
      <trkpt lat="45.69215" lon="4.61334">
        <ele>525</ele>
        <time>2014-10-18T19:21:59.844Z</time>
      </trkpt>
      <trkpt lat="45.69207" lon="4.61329">
        <ele>516</ele>
        <time>2014-10-18T19:22:05.830Z</time>
      </trkpt>
      <trkpt lat="45.69205" lon="4.61329">
        <ele>516</ele>
        <time>2014-10-18T19:22:06.831Z</time>
      </trkpt>
      <trkpt lat="45.69197" lon="4.61327">
        <ele>516</ele>
        <time>2014-10-18T19:22:11.837Z</time>
      </trkpt>
      <trkpt lat="45.69196" lon="4.61327">
        <ele>517</ele>
        <time>2014-10-18T19:22:12.857Z</time>
      </trkpt>
      <trkpt lat="45.69188" lon="4.61329">
        <ele>518</ele>
        <time>2014-10-18T19:22:19.828Z</time>
      </trkpt>
      <trkpt lat="45.69186" lon="4.61331">
        <ele>518</ele>
        <time>2014-10-18T19:22:20.830Z</time>
      </trkpt>
      <trkpt lat="45.69177" lon="4.61334">
        <ele>524</ele>
        <time>2014-10-18T19:22:25.863Z</time>
      </trkpt>
      <trkpt lat="45.69176" lon="4.61334">
        <ele>524</ele>
        <time>2014-10-18T19:22:26.833Z</time>
      </trkpt>
      <trkpt lat="45.69169" lon="4.6134">
        <ele>524</ele>
        <time>2014-10-18T19:22:31.830Z</time>
      </trkpt>
      <trkpt lat="45.69168" lon="4.6134">
        <ele>524</ele>
        <time>2014-10-18T19:22:32.832Z</time>
      </trkpt>
      <trkpt lat="45.6916" lon="4.61346">
        <ele>521</ele>
        <time>2014-10-18T19:22:37.661Z</time>
      </trkpt>
      <trkpt lat="45.69158" lon="4.61349">
        <ele>521</ele>
        <time>2014-10-18T19:22:38.674Z</time>
      </trkpt>
      <trkpt lat="45.69154" lon="4.61359">
        <ele>520</ele>
        <time>2014-10-18T19:22:44.662Z</time>
      </trkpt>
      <trkpt lat="45.69154" lon="4.61361">
        <ele>520</ele>
        <time>2014-10-18T19:22:45.660Z</time>
      </trkpt>
      <trkpt lat="45.69151" lon="4.61372">
        <ele>520</ele>
        <time>2014-10-18T19:22:50.660Z</time>
      </trkpt>
      <trkpt lat="45.69151" lon="4.61376">
        <ele>520</ele>
        <time>2014-10-18T19:22:51.668Z</time>
      </trkpt>
      <trkpt lat="45.69153" lon="4.61387">
        <ele>521</ele>
        <time>2014-10-18T19:22:57.660Z</time>
      </trkpt>
      <trkpt lat="45.69153" lon="4.61389">
        <ele>521</ele>
        <time>2014-10-18T19:22:58.661Z</time>
      </trkpt>
      <trkpt lat="45.69155" lon="4.614">
        <ele>523</ele>
        <time>2014-10-18T19:23:02.662Z</time>
      </trkpt>
      <trkpt lat="45.69156" lon="4.61402">
        <ele>524</ele>
        <time>2014-10-18T19:23:03.661Z</time>
      </trkpt>
      <trkpt lat="45.69159" lon="4.61413">
        <ele>526</ele>
        <time>2014-10-18T19:23:08.659Z</time>
      </trkpt>
      <trkpt lat="45.6916" lon="4.61415">
        <ele>527</ele>
        <time>2014-10-18T19:23:09.662Z</time>
      </trkpt>
      <trkpt lat="45.69166" lon="4.61424">
        <ele>527</ele>
        <time>2014-10-18T19:23:13.660Z</time>
      </trkpt>
      <trkpt lat="45.69166" lon="4.61426">
        <ele>527</ele>
        <time>2014-10-18T19:23:14.662Z</time>
      </trkpt>
      <trkpt lat="45.69169" lon="4.61437">
        <ele>533</ele>
        <time>2014-10-18T19:23:19.664Z</time>
      </trkpt>
      <trkpt lat="45.6917" lon="4.61439">
        <ele>533</ele>
        <time>2014-10-18T19:23:20.662Z</time>
      </trkpt>
      <trkpt lat="45.69173" lon="4.61449">
        <ele>534</ele>
        <time>2014-10-18T19:23:26.682Z</time>
      </trkpt>
      <trkpt lat="45.69174" lon="4.61452">
        <ele>534</ele>
        <time>2014-10-18T19:23:27.685Z</time>
      </trkpt>
      <trkpt lat="45.69178" lon="4.61462">
        <ele>534</ele>
        <time>2014-10-18T19:23:32.661Z</time>
      </trkpt>
      <trkpt lat="45.6918" lon="4.61464">
        <ele>534</ele>
        <time>2014-10-18T19:23:33.661Z</time>
      </trkpt>
      <trkpt lat="45.69184" lon="4.61475">
        <ele>534</ele>
        <time>2014-10-18T19:23:37.663Z</time>
      </trkpt>
      <trkpt lat="45.69185" lon="4.61477">
        <ele>534</ele>
        <time>2014-10-18T19:23:38.659Z</time>
      </trkpt>
      <trkpt lat="45.69189" lon="4.61486">
        <ele>534</ele>
        <time>2014-10-18T19:23:43.661Z</time>
      </trkpt>
      <trkpt lat="45.6919" lon="4.61488">
        <ele>534</ele>
        <time>2014-10-18T19:23:44.659Z</time>
      </trkpt>
      <trkpt lat="45.69195" lon="4.61499">
        <ele>535</ele>
        <time>2014-10-18T19:23:50.665Z</time>
      </trkpt>
      <trkpt lat="45.69195" lon="4.61501">
        <ele>535</ele>
        <time>2014-10-18T19:23:51.665Z</time>
      </trkpt>
      <trkpt lat="45.692" lon="4.61509">
        <ele>536</ele>
        <time>2014-10-18T19:23:56.687Z</time>
      </trkpt>
      <trkpt lat="45.69201" lon="4.61512">
        <ele>537</ele>
        <time>2014-10-18T19:23:57.660Z</time>
      </trkpt>
      <trkpt lat="45.69204" lon="4.61522">
        <ele>537</ele>
        <time>2014-10-18T19:24:02.670Z</time>
      </trkpt>
      <trkpt lat="45.69205" lon="4.61524">
        <ele>537</ele>
        <time>2014-10-18T19:24:03.669Z</time>
      </trkpt>
      <trkpt lat="45.69209" lon="4.61535">
        <ele>538</ele>
        <time>2014-10-18T19:24:10.659Z</time>
      </trkpt>
      <trkpt lat="45.69209" lon="4.61537">
        <ele>538</ele>
        <time>2014-10-18T19:24:11.660Z</time>
      </trkpt>
      <trkpt lat="45.69214" lon="4.61546">
        <ele>538</ele>
        <time>2014-10-18T19:24:17.659Z</time>
      </trkpt>
      <trkpt lat="45.69215" lon="4.61548">
        <ele>539</ele>
        <time>2014-10-18T19:24:18.653Z</time>
      </trkpt>
      <trkpt lat="45.6922" lon="4.61557">
        <ele>540</ele>
        <time>2014-10-18T19:24:24.662Z</time>
      </trkpt>
      <trkpt lat="45.6922" lon="4.61559">
        <ele>540</ele>
        <time>2014-10-18T19:24:25.644Z</time>
      </trkpt>
      <trkpt lat="45.69225" lon="4.6157">
        <ele>541</ele>
        <time>2014-10-18T19:24:31.648Z</time>
      </trkpt>
      <trkpt lat="45.69226" lon="4.61572">
        <ele>541</ele>
        <time>2014-10-18T19:24:32.700Z</time>
      </trkpt>
      <trkpt lat="45.6923" lon="4.6158">
        <ele>543</ele>
        <time>2014-10-18T19:24:38.671Z</time>
      </trkpt>
      <trkpt lat="45.69231" lon="4.61582">
        <ele>543</ele>
        <time>2014-10-18T19:24:39.671Z</time>
      </trkpt>
      <trkpt lat="45.69235" lon="4.61591">
        <ele>543</ele>
        <time>2014-10-18T19:24:44.672Z</time>
      </trkpt>
      <trkpt lat="45.69236" lon="4.61593">
        <ele>543</ele>
        <time>2014-10-18T19:24:45.675Z</time>
      </trkpt>
      <trkpt lat="45.69241" lon="4.61602">
        <ele>542</ele>
        <time>2014-10-18T19:24:51.691Z</time>
      </trkpt>
      <trkpt lat="45.69242" lon="4.61604">
        <ele>542</ele>
        <time>2014-10-18T19:24:52.673Z</time>
      </trkpt>
      <trkpt lat="45.69246" lon="4.61612">
        <ele>541</ele>
        <time>2014-10-18T19:24:58.679Z</time>
      </trkpt>
      <trkpt lat="45.69247" lon="4.61615">
        <ele>541</ele>
        <time>2014-10-18T19:24:59.673Z</time>
      </trkpt>
      <trkpt lat="45.69252" lon="4.61623">
        <ele>551</ele>
        <time>2014-10-18T19:25:05.670Z</time>
      </trkpt>
      <trkpt lat="45.69252" lon="4.61625">
        <ele>551</ele>
        <time>2014-10-18T19:25:06.671Z</time>
      </trkpt>
      <trkpt lat="45.69259" lon="4.61634">
        <ele>551</ele>
        <time>2014-10-18T19:25:11.673Z</time>
      </trkpt>
      <trkpt lat="45.6926" lon="4.61636">
        <ele>551</ele>
        <time>2014-10-18T19:25:12.672Z</time>
      </trkpt>
      <trkpt lat="45.69263" lon="4.61647">
        <ele>550</ele>
        <time>2014-10-18T19:25:18.671Z</time>
      </trkpt>
      <trkpt lat="45.69264" lon="4.61649">
        <ele>550</ele>
        <time>2014-10-18T19:25:19.671Z</time>
      </trkpt>
      <trkpt lat="45.69269" lon="4.6166">
        <ele>550</ele>
        <time>2014-10-18T19:25:26.675Z</time>
      </trkpt>
      <trkpt lat="45.69271" lon="4.6166">
        <ele>550</ele>
        <time>2014-10-18T19:25:27.674Z</time>
      </trkpt>
      <trkpt lat="45.69275" lon="4.61668">
        <ele>550</ele>
        <time>2014-10-18T19:25:32.671Z</time>
      </trkpt>
      <trkpt lat="45.69276" lon="4.61673">
        <ele>550</ele>
        <time>2014-10-18T19:25:33.661Z</time>
      </trkpt>
      <trkpt lat="45.6928" lon="4.61683">
        <ele>551</ele>
        <time>2014-10-18T19:25:39.660Z</time>
      </trkpt>
      <trkpt lat="45.69281" lon="4.61683">
        <ele>551</ele>
        <time>2014-10-18T19:25:40.658Z</time>
      </trkpt>
      <trkpt lat="45.69288" lon="4.61692">
        <ele>551</ele>
        <time>2014-10-18T19:25:45.662Z</time>
      </trkpt>
      <trkpt lat="45.69289" lon="4.61694">
        <ele>551</ele>
        <time>2014-10-18T19:25:46.682Z</time>
      </trkpt>
      <trkpt lat="45.69292" lon="4.61705">
        <ele>551</ele>
        <time>2014-10-18T19:25:52.674Z</time>
      </trkpt>
      <trkpt lat="45.69293" lon="4.61707">
        <ele>551</ele>
        <time>2014-10-18T19:25:53.676Z</time>
      </trkpt>
      <trkpt lat="45.69299" lon="4.61715">
        <ele>552</ele>
        <time>2014-10-18T19:25:59.671Z</time>
      </trkpt>
      <trkpt lat="45.693" lon="4.61718">
        <ele>552</ele>
        <time>2014-10-18T19:26:00.696Z</time>
      </trkpt>
      <trkpt lat="45.69305" lon="4.61726">
        <ele>552</ele>
        <time>2014-10-18T19:26:05.670Z</time>
      </trkpt>
      <trkpt lat="45.69306" lon="4.61728">
        <ele>553</ele>
        <time>2014-10-18T19:26:06.673Z</time>
      </trkpt>
      <trkpt lat="45.69313" lon="4.61735">
        <ele>554</ele>
        <time>2014-10-18T19:26:11.688Z</time>
      </trkpt>
      <trkpt lat="45.69314" lon="4.61737">
        <ele>554</ele>
        <time>2014-10-18T19:26:12.687Z</time>
      </trkpt>
      <trkpt lat="45.69321" lon="4.61743">
        <ele>555</ele>
        <time>2014-10-18T19:26:18.671Z</time>
      </trkpt>
      <trkpt lat="45.69322" lon="4.61743">
        <ele>556</ele>
        <time>2014-10-18T19:26:19.678Z</time>
      </trkpt>
      <trkpt lat="45.69329" lon="4.6175">
        <ele>558</ele>
        <time>2014-10-18T19:26:25.673Z</time>
      </trkpt>
      <trkpt lat="45.6933" lon="4.61752">
        <ele>557</ele>
        <time>2014-10-18T19:26:26.670Z</time>
      </trkpt>
      <trkpt lat="45.69336" lon="4.61758">
        <ele>560</ele>
        <time>2014-10-18T19:26:32.674Z</time>
      </trkpt>
      <trkpt lat="45.69338" lon="4.61761">
        <ele>560</ele>
        <time>2014-10-18T19:26:33.672Z</time>
      </trkpt>
      <trkpt lat="45.69339" lon="4.6175">
        <ele>560</ele>
        <time>2014-10-18T19:30:49.672Z</time>
      </trkpt>
      <trkpt lat="45.6934" lon="4.61746">
        <ele>561</ele>
        <time>2014-10-18T19:30:50.673Z</time>
      </trkpt>
      <trkpt lat="45.69344" lon="4.61735">
        <ele>562</ele>
        <time>2014-10-18T19:30:54.678Z</time>
      </trkpt>
      <trkpt lat="45.69345" lon="4.61733">
        <ele>562</ele>
        <time>2014-10-18T19:30:55.669Z</time>
      </trkpt>
      <trkpt lat="45.6935" lon="4.61724">
        <ele>563</ele>
        <time>2014-10-18T19:30:59.671Z</time>
      </trkpt>
      <trkpt lat="45.69351" lon="4.61722">
        <ele>563</ele>
        <time>2014-10-18T19:31:00.673Z</time>
      </trkpt>
      <trkpt lat="45.69359" lon="4.61718">
        <ele>564</ele>
        <time>2014-10-18T19:31:03.672Z</time>
      </trkpt>
      <trkpt lat="45.69361" lon="4.61715">
        <ele>564</ele>
        <time>2014-10-18T19:31:04.674Z</time>
      </trkpt>
      <trkpt lat="45.69367" lon="4.61711">
        <ele>564</ele>
        <time>2014-10-18T19:31:07.673Z</time>
      </trkpt>
      <trkpt lat="45.69369" lon="4.61711">
        <ele>564</ele>
        <time>2014-10-18T19:31:08.669Z</time>
      </trkpt>
      <trkpt lat="45.69378" lon="4.61709">
        <ele>565</ele>
        <time>2014-10-18T19:31:12.672Z</time>
      </trkpt>
      <trkpt lat="45.6938" lon="4.61709">
        <ele>565</ele>
        <time>2014-10-18T19:31:13.669Z</time>
      </trkpt>
      <trkpt lat="45.69387" lon="4.61707">
        <ele>565</ele>
        <time>2014-10-18T19:31:16.659Z</time>
      </trkpt>
      <trkpt lat="45.69389" lon="4.61705">
        <ele>565</ele>
        <time>2014-10-18T19:31:17.662Z</time>
      </trkpt>
      <trkpt lat="45.69396" lon="4.61703">
        <ele>566</ele>
        <time>2014-10-18T19:31:21.658Z</time>
      </trkpt>
      <trkpt lat="45.69398" lon="4.61703">
        <ele>566</ele>
        <time>2014-10-18T19:31:22.662Z</time>
      </trkpt>
      <trkpt lat="45.69406" lon="4.61698">
        <ele>566</ele>
        <time>2014-10-18T19:31:27.671Z</time>
      </trkpt>
      <trkpt lat="45.69407" lon="4.61698">
        <ele>566</ele>
        <time>2014-10-18T19:31:28.702Z</time>
      </trkpt>
      <trkpt lat="45.69416" lon="4.61696">
        <ele>566</ele>
        <time>2014-10-18T19:31:32.670Z</time>
      </trkpt>
      <trkpt lat="45.69418" lon="4.61698">
        <ele>576</ele>
        <time>2014-10-18T19:31:33.673Z</time>
      </trkpt>
      <trkpt lat="45.69418" lon="4.61707">
        <ele>577</ele>
        <time>2014-10-18T19:31:36.669Z</time>
      </trkpt>
      <trkpt lat="45.69417" lon="4.61711">
        <ele>567</ele>
        <time>2014-10-18T19:31:37.669Z</time>
      </trkpt>
      <trkpt lat="45.69413" lon="4.61722">
        <ele>567</ele>
        <time>2014-10-18T19:31:41.677Z</time>
      </trkpt>
      <trkpt lat="45.69412" lon="4.61724">
        <ele>567</ele>
        <time>2014-10-18T19:31:42.668Z</time>
      </trkpt>
      <trkpt lat="45.6941" lon="4.61735">
        <ele>568</ele>
        <time>2014-10-18T19:31:45.666Z</time>
      </trkpt>
      <trkpt lat="45.6941" lon="4.61737">
        <ele>569</ele>
        <time>2014-10-18T19:31:46.704Z</time>
      </trkpt>
      <trkpt lat="45.69408" lon="4.61748">
        <ele>570</ele>
        <time>2014-10-18T19:31:49.668Z</time>
      </trkpt>
      <trkpt lat="45.69408" lon="4.6175">
        <ele>570</ele>
        <time>2014-10-18T19:31:50.697Z</time>
      </trkpt>
      <trkpt lat="45.69408" lon="4.61761">
        <ele>568</ele>
        <time>2014-10-18T19:31:53.681Z</time>
      </trkpt>
      <trkpt lat="45.69408" lon="4.61765">
        <ele>567</ele>
        <time>2014-10-18T19:31:54.670Z</time>
      </trkpt>
      <trkpt lat="45.69409" lon="4.61773">
        <ele>567</ele>
        <time>2014-10-18T19:31:56.672Z</time>
      </trkpt>
      <trkpt lat="45.69409" lon="4.61778">
        <ele>566</ele>
        <time>2014-10-18T19:31:57.672Z</time>
      </trkpt>
      <trkpt lat="45.69411" lon="4.61786">
        <ele>566</ele>
        <time>2014-10-18T19:31:59.673Z</time>
      </trkpt>
      <trkpt lat="45.69413" lon="4.61791">
        <ele>565</ele>
        <time>2014-10-18T19:32:00.671Z</time>
      </trkpt>
      <trkpt lat="45.69418" lon="4.61797">
        <ele>577</ele>
        <time>2014-10-18T19:32:02.657Z</time>
      </trkpt>
      <trkpt lat="45.69421" lon="4.61799">
        <ele>577</ele>
        <time>2014-10-18T19:32:03.659Z</time>
      </trkpt>
      <trkpt lat="45.69428" lon="4.61806">
        <ele>577</ele>
        <time>2014-10-18T19:32:06.679Z</time>
      </trkpt>
      <trkpt lat="45.69431" lon="4.61808">
        <ele>577</ele>
        <time>2014-10-18T19:32:07.706Z</time>
      </trkpt>
      <trkpt lat="45.69437" lon="4.61812">
        <ele>578</ele>
        <time>2014-10-18T19:32:10.668Z</time>
      </trkpt>
      <trkpt lat="45.69439" lon="4.61814">
        <ele>578</ele>
        <time>2014-10-18T19:32:11.671Z</time>
      </trkpt>
      <trkpt lat="45.69445" lon="4.61818">
        <ele>579</ele>
        <time>2014-10-18T19:32:13.672Z</time>
      </trkpt>
      <trkpt lat="45.69447" lon="4.61823">
        <ele>579</ele>
        <time>2014-10-18T19:32:14.672Z</time>
      </trkpt>
      <trkpt lat="45.69454" lon="4.61829">
        <ele>580</ele>
        <time>2014-10-18T19:32:18.670Z</time>
      </trkpt>
      <trkpt lat="45.69456" lon="4.61833">
        <ele>575</ele>
        <time>2014-10-18T19:32:19.674Z</time>
      </trkpt>
      <trkpt lat="45.69463" lon="4.6184">
        <ele>576</ele>
        <time>2014-10-18T19:32:22.673Z</time>
      </trkpt>
      <trkpt lat="45.69465" lon="4.61842">
        <ele>576</ele>
        <time>2014-10-18T19:32:23.656Z</time>
      </trkpt>
      <trkpt lat="45.69468" lon="4.61851">
        <ele>576</ele>
        <time>2014-10-18T19:32:26.670Z</time>
      </trkpt>
      <trkpt lat="45.69468" lon="4.61855">
        <ele>576</ele>
        <time>2014-10-18T19:32:27.672Z</time>
      </trkpt>
      <trkpt lat="45.69467" lon="4.61861">
        <ele>575</ele>
        <time>2014-10-18T19:32:29.668Z</time>
      </trkpt>
      <trkpt lat="45.69467" lon="4.6187">
        <ele>574</ele>
        <time>2014-10-18T19:32:30.668Z</time>
      </trkpt>
      <trkpt lat="45.69466" lon="4.61876">
        <ele>574</ele>
        <time>2014-10-18T19:32:31.672Z</time>
      </trkpt>
      <trkpt lat="45.69466" lon="4.61885">
        <ele>573</ele>
        <time>2014-10-18T19:32:32.672Z</time>
      </trkpt>
      <trkpt lat="45.69469" lon="4.61896">
        <ele>573</ele>
        <time>2014-10-18T19:32:33.669Z</time>
      </trkpt>
      <trkpt lat="45.69474" lon="4.61906">
        <ele>573</ele>
        <time>2014-10-18T19:32:34.706Z</time>
      </trkpt>
      <trkpt lat="45.69477" lon="4.61915">
        <ele>573</ele>
        <time>2014-10-18T19:32:35.674Z</time>
      </trkpt>
      <trkpt lat="45.69481" lon="4.61921">
        <ele>567</ele>
        <time>2014-10-18T19:32:36.655Z</time>
      </trkpt>
      <trkpt lat="45.69485" lon="4.61928">
        <ele>567</ele>
        <time>2014-10-18T19:32:37.643Z</time>
      </trkpt>
      <trkpt lat="45.69491" lon="4.61936">
        <ele>566</ele>
        <time>2014-10-18T19:32:38.660Z</time>
      </trkpt>
      <trkpt lat="45.69496" lon="4.61943">
        <ele>565</ele>
        <time>2014-10-18T19:32:39.674Z</time>
      </trkpt>
      <trkpt lat="45.69502" lon="4.61949">
        <ele>572</ele>
        <time>2014-10-18T19:32:40.661Z</time>
      </trkpt>
      <trkpt lat="45.69509" lon="4.61956">
        <ele>571</ele>
        <time>2014-10-18T19:32:41.651Z</time>
      </trkpt>
      <trkpt lat="45.69517" lon="4.61964">
        <ele>571</ele>
        <time>2014-10-18T19:32:42.653Z</time>
      </trkpt>
      <trkpt lat="45.69525" lon="4.61973">
        <ele>570</ele>
        <time>2014-10-18T19:32:43.645Z</time>
      </trkpt>
      <trkpt lat="45.69533" lon="4.61977">
        <ele>570</ele>
        <time>2014-10-18T19:32:44.662Z</time>
      </trkpt>
      <trkpt lat="45.6954" lon="4.61979">
        <ele>571</ele>
        <time>2014-10-18T19:32:45.651Z</time>
      </trkpt>
      <trkpt lat="45.69546" lon="4.61979">
        <ele>571</ele>
        <time>2014-10-18T19:32:46.655Z</time>
      </trkpt>
      <trkpt lat="45.69553" lon="4.61979">
        <ele>572</ele>
        <time>2014-10-18T19:32:47.652Z</time>
      </trkpt>
      <trkpt lat="45.6956" lon="4.61979">
        <ele>572</ele>
        <time>2014-10-18T19:32:48.648Z</time>
      </trkpt>
      <trkpt lat="45.69568" lon="4.61979">
        <ele>573</ele>
        <time>2014-10-18T19:32:49.653Z</time>
      </trkpt>
      <trkpt lat="45.69574" lon="4.61982">
        <ele>572</ele>
        <time>2014-10-18T19:32:50.651Z</time>
      </trkpt>
      <trkpt lat="45.6958" lon="4.61982">
        <ele>573</ele>
        <time>2014-10-18T19:32:51.650Z</time>
      </trkpt>
      <trkpt lat="45.69585" lon="4.61986">
        <ele>579</ele>
        <time>2014-10-18T19:32:52.654Z</time>
      </trkpt>
      <trkpt lat="45.69588" lon="4.6199">
        <ele>578</ele>
        <time>2014-10-18T19:32:53.648Z</time>
      </trkpt>
      <trkpt lat="45.69593" lon="4.62001">
        <ele>573</ele>
        <time>2014-10-18T19:32:55.651Z</time>
      </trkpt>
      <trkpt lat="45.69592" lon="4.62007">
        <ele>573</ele>
        <time>2014-10-18T19:32:56.650Z</time>
      </trkpt>
      <trkpt lat="45.69592" lon="4.62014">
        <ele>574</ele>
        <time>2014-10-18T19:32:57.653Z</time>
      </trkpt>
      <trkpt lat="45.69589" lon="4.62022">
        <ele>574</ele>
        <time>2014-10-18T19:32:58.655Z</time>
      </trkpt>
      <trkpt lat="45.69588" lon="4.62031">
        <ele>574</ele>
        <time>2014-10-18T19:32:59.661Z</time>
      </trkpt>
      <trkpt lat="45.69587" lon="4.62039">
        <ele>573</ele>
        <time>2014-10-18T19:33:00.650Z</time>
      </trkpt>
      <trkpt lat="45.69585" lon="4.62048">
        <ele>572</ele>
        <time>2014-10-18T19:33:01.644Z</time>
      </trkpt>
      <trkpt lat="45.69585" lon="4.62054">
        <ele>570</ele>
        <time>2014-10-18T19:33:02.642Z</time>
      </trkpt>
      <trkpt lat="45.69585" lon="4.62065">
        <ele>567</ele>
        <time>2014-10-18T19:33:03.655Z</time>
      </trkpt>
      <trkpt lat="45.69584" lon="4.62072">
        <ele>565</ele>
        <time>2014-10-18T19:33:04.650Z</time>
      </trkpt>
      <trkpt lat="45.69582" lon="4.62082">
        <ele>557</ele>
        <time>2014-10-18T19:33:05.644Z</time>
      </trkpt>
      <trkpt lat="45.69582" lon="4.62089">
        <ele>554</ele>
        <time>2014-10-18T19:33:06.648Z</time>
      </trkpt>
      <trkpt lat="45.69583" lon="4.62097">
        <ele>551</ele>
        <time>2014-10-18T19:33:07.658Z</time>
      </trkpt>
      <trkpt lat="45.69586" lon="4.62104">
        <ele>563</ele>
        <time>2014-10-18T19:33:08.654Z</time>
      </trkpt>
      <trkpt lat="45.69588" lon="4.6211">
        <ele>563</ele>
        <time>2014-10-18T19:33:09.649Z</time>
      </trkpt>
      <trkpt lat="45.69592" lon="4.62117">
        <ele>564</ele>
        <time>2014-10-18T19:33:10.651Z</time>
      </trkpt>
      <trkpt lat="45.69597" lon="4.62121">
        <ele>564</ele>
        <time>2014-10-18T19:33:11.648Z</time>
      </trkpt>
      <trkpt lat="45.696" lon="4.62127">
        <ele>564</ele>
        <time>2014-10-18T19:33:12.656Z</time>
      </trkpt>
      <trkpt lat="45.69601" lon="4.62134">
        <ele>564</ele>
        <time>2014-10-18T19:33:13.641Z</time>
      </trkpt>
      <trkpt lat="45.69601" lon="4.62142">
        <ele>563</ele>
        <time>2014-10-18T19:33:14.644Z</time>
      </trkpt>
      <trkpt lat="45.69599" lon="4.62151">
        <ele>561</ele>
        <time>2014-10-18T19:33:15.641Z</time>
      </trkpt>
      <trkpt lat="45.69596" lon="4.62157">
        <ele>558</ele>
        <time>2014-10-18T19:33:16.647Z</time>
      </trkpt>
      <trkpt lat="45.69589" lon="4.62164">
        <ele>554</ele>
        <time>2014-10-18T19:33:17.642Z</time>
      </trkpt>
      <trkpt lat="45.69585" lon="4.62173">
        <ele>552</ele>
        <time>2014-10-18T19:33:18.640Z</time>
      </trkpt>
      <trkpt lat="45.69583" lon="4.62181">
        <ele>543</ele>
        <time>2014-10-18T19:33:19.634Z</time>
      </trkpt>
      <trkpt lat="45.69581" lon="4.6219">
        <ele>540</ele>
        <time>2014-10-18T19:33:20.641Z</time>
      </trkpt>
      <trkpt lat="45.69579" lon="4.622">
        <ele>539</ele>
        <time>2014-10-18T19:33:21.639Z</time>
      </trkpt>
      <trkpt lat="45.69578" lon="4.62211">
        <ele>538</ele>
        <time>2014-10-18T19:33:22.640Z</time>
      </trkpt>
      <trkpt lat="45.69578" lon="4.6222">
        <ele>538</ele>
        <time>2014-10-18T19:33:23.638Z</time>
      </trkpt>
      <trkpt lat="45.69578" lon="4.6223">
        <ele>539</ele>
        <time>2014-10-18T19:33:24.639Z</time>
      </trkpt>
      <trkpt lat="45.69579" lon="4.62239">
        <ele>541</ele>
        <time>2014-10-18T19:33:25.638Z</time>
      </trkpt>
      <trkpt lat="45.6958" lon="4.62248">
        <ele>543</ele>
        <time>2014-10-18T19:33:26.666Z</time>
      </trkpt>
      <trkpt lat="45.69582" lon="4.62256">
        <ele>542</ele>
        <time>2014-10-18T19:33:27.645Z</time>
      </trkpt>
      <trkpt lat="45.69585" lon="4.62265">
        <ele>552</ele>
        <time>2014-10-18T19:33:28.643Z</time>
      </trkpt>
      <trkpt lat="45.69589" lon="4.62271">
        <ele>553</ele>
        <time>2014-10-18T19:33:29.642Z</time>
      </trkpt>
      <trkpt lat="45.69593" lon="4.62278">
        <ele>555</ele>
        <time>2014-10-18T19:33:30.644Z</time>
      </trkpt>
      <trkpt lat="45.69596" lon="4.62284">
        <ele>556</ele>
        <time>2014-10-18T19:33:31.635Z</time>
      </trkpt>
      <trkpt lat="45.69597" lon="4.62291">
        <ele>556</ele>
        <time>2014-10-18T19:33:32.639Z</time>
      </trkpt>
      <trkpt lat="45.696" lon="4.62299">
        <ele>556</ele>
        <time>2014-10-18T19:33:34.637Z</time>
      </trkpt>
      <trkpt lat="45.69601" lon="4.62306">
        <ele>556</ele>
        <time>2014-10-18T19:33:35.643Z</time>
      </trkpt>
      <trkpt lat="45.696" lon="4.62316">
        <ele>554</ele>
        <time>2014-10-18T19:33:37.637Z</time>
      </trkpt>
      <trkpt lat="45.69599" lon="4.62325">
        <ele>552</ele>
        <time>2014-10-18T19:33:38.638Z</time>
      </trkpt>
      <trkpt lat="45.69596" lon="4.62336">
        <ele>549</ele>
        <time>2014-10-18T19:33:39.640Z</time>
      </trkpt>
      <trkpt lat="45.69594" lon="4.62346">
        <ele>550</ele>
        <time>2014-10-18T19:33:40.643Z</time>
      </trkpt>
      <trkpt lat="45.69593" lon="4.62357">
        <ele>552</ele>
        <time>2014-10-18T19:33:41.637Z</time>
      </trkpt>
      <trkpt lat="45.69593" lon="4.62368">
        <ele>553</ele>
        <time>2014-10-18T19:33:42.661Z</time>
      </trkpt>
      <trkpt lat="45.69592" lon="4.62376">
        <ele>553</ele>
        <time>2014-10-18T19:33:43.637Z</time>
      </trkpt>
      <trkpt lat="45.69592" lon="4.62387">
        <ele>553</ele>
        <time>2014-10-18T19:33:44.651Z</time>
      </trkpt>
      <trkpt lat="45.6959" lon="4.62396">
        <ele>552</ele>
        <time>2014-10-18T19:33:45.651Z</time>
      </trkpt>
      <trkpt lat="45.69589" lon="4.62402">
        <ele>551</ele>
        <time>2014-10-18T19:33:46.660Z</time>
      </trkpt>
      <trkpt lat="45.69588" lon="4.62411">
        <ele>548</ele>
        <time>2014-10-18T19:33:47.674Z</time>
      </trkpt>
      <trkpt lat="45.69587" lon="4.62417">
        <ele>546</ele>
        <time>2014-10-18T19:33:48.650Z</time>
      </trkpt>
      <trkpt lat="45.69586" lon="4.62426">
        <ele>548</ele>
        <time>2014-10-18T19:33:49.638Z</time>
      </trkpt>
      <trkpt lat="45.69585" lon="4.62434">
        <ele>549</ele>
        <time>2014-10-18T19:33:50.641Z</time>
      </trkpt>
      <trkpt lat="45.69584" lon="4.62441">
        <ele>549</ele>
        <time>2014-10-18T19:33:51.636Z</time>
      </trkpt>
      <trkpt lat="45.69582" lon="4.62449">
        <ele>535</ele>
        <time>2014-10-18T19:33:52.637Z</time>
      </trkpt>
      <trkpt lat="45.6958" lon="4.62458">
        <ele>535</ele>
        <time>2014-10-18T19:33:53.651Z</time>
      </trkpt>
      <trkpt lat="45.69579" lon="4.62464">
        <ele>534</ele>
        <time>2014-10-18T19:33:54.658Z</time>
      </trkpt>
      <trkpt lat="45.69579" lon="4.62473">
        <ele>535</ele>
        <time>2014-10-18T19:33:55.651Z</time>
      </trkpt>
      <trkpt lat="45.69579" lon="4.62481">
        <ele>536</ele>
        <time>2014-10-18T19:33:56.657Z</time>
      </trkpt>
      <trkpt lat="45.69579" lon="4.6249">
        <ele>537</ele>
        <time>2014-10-18T19:33:57.682Z</time>
      </trkpt>
      <trkpt lat="45.6958" lon="4.62494">
        <ele>538</ele>
        <time>2014-10-18T19:33:58.662Z</time>
      </trkpt>
      <trkpt lat="45.69583" lon="4.62501">
        <ele>540</ele>
        <time>2014-10-18T19:33:59.667Z</time>
      </trkpt>
      <trkpt lat="45.69586" lon="4.62507">
        <ele>541</ele>
        <time>2014-10-18T19:34:00.664Z</time>
      </trkpt>
      <trkpt lat="45.69589" lon="4.62514">
        <ele>542</ele>
        <time>2014-10-18T19:34:01.668Z</time>
      </trkpt>
      <trkpt lat="45.69593" lon="4.62518">
        <ele>542</ele>
        <time>2014-10-18T19:34:02.674Z</time>
      </trkpt>
      <trkpt lat="45.69596" lon="4.62524">
        <ele>542</ele>
        <time>2014-10-18T19:34:03.670Z</time>
      </trkpt>
      <trkpt lat="45.69597" lon="4.62533">
        <ele>541</ele>
        <time>2014-10-18T19:34:04.668Z</time>
      </trkpt>
      <trkpt lat="45.69597" lon="4.62539">
        <ele>541</ele>
        <time>2014-10-18T19:34:05.667Z</time>
      </trkpt>
      <trkpt lat="45.69595" lon="4.62548">
        <ele>540</ele>
        <time>2014-10-18T19:34:06.659Z</time>
      </trkpt>
      <trkpt lat="45.69594" lon="4.62554">
        <ele>539</ele>
        <time>2014-10-18T19:34:07.670Z</time>
      </trkpt>
      <trkpt lat="45.69594" lon="4.62563">
        <ele>538</ele>
        <time>2014-10-18T19:34:08.670Z</time>
      </trkpt>
      <trkpt lat="45.69595" lon="4.62574">
        <ele>537</ele>
        <time>2014-10-18T19:34:09.668Z</time>
      </trkpt>
      <trkpt lat="45.69596" lon="4.62582">
        <ele>536</ele>
        <time>2014-10-18T19:34:10.671Z</time>
      </trkpt>
      <trkpt lat="45.69598" lon="4.62593">
        <ele>531</ele>
        <time>2014-10-18T19:34:11.658Z</time>
      </trkpt>
      <trkpt lat="45.696" lon="4.62606">
        <ele>530</ele>
        <time>2014-10-18T19:34:12.656Z</time>
      </trkpt>
      <trkpt lat="45.69602" lon="4.62617">
        <ele>529</ele>
        <time>2014-10-18T19:34:13.659Z</time>
      </trkpt>
      <trkpt lat="45.69603" lon="4.62625">
        <ele>528</ele>
        <time>2014-10-18T19:34:14.668Z</time>
      </trkpt>
      <trkpt lat="45.69605" lon="4.62636">
        <ele>527</ele>
        <time>2014-10-18T19:34:16.667Z</time>
      </trkpt>
      <trkpt lat="45.69605" lon="4.6264">
        <ele>527</ele>
        <time>2014-10-18T19:34:17.663Z</time>
      </trkpt>
      <trkpt lat="45.69599" lon="4.62649">
        <ele>526</ele>
        <time>2014-10-18T19:34:22.670Z</time>
      </trkpt>
      <trkpt lat="45.69597" lon="4.62647">
        <ele>526</ele>
        <time>2014-10-18T19:34:23.671Z</time>
      </trkpt>
      <trkpt lat="45.6959" lon="4.62651">
        <ele>525</ele>
        <time>2014-10-18T19:35:17.666Z</time>
      </trkpt>
      <trkpt lat="45.69587" lon="4.62653">
        <ele>524</ele>
        <time>2014-10-18T19:35:18.671Z</time>
      </trkpt>
      <trkpt lat="45.69583" lon="4.62653">
        <ele>521</ele>
        <time>2014-10-18T19:35:19.668Z</time>
      </trkpt>
      <trkpt lat="45.69578" lon="4.62655">
        <ele>521</ele>
        <time>2014-10-18T19:35:20.672Z</time>
      </trkpt>
      <trkpt lat="45.69573" lon="4.62657">
        <ele>521</ele>
        <time>2014-10-18T19:35:21.668Z</time>
      </trkpt>
      <trkpt lat="45.69568" lon="4.62662">
        <ele>520</ele>
        <time>2014-10-18T19:35:22.668Z</time>
      </trkpt>
      <trkpt lat="45.69561" lon="4.62668">
        <ele>516</ele>
        <time>2014-10-18T19:35:24.676Z</time>
      </trkpt>
      <trkpt lat="45.69559" lon="4.6267">
        <ele>516</ele>
        <time>2014-10-18T19:35:25.668Z</time>
      </trkpt>
      <trkpt lat="45.69563" lon="4.62679">
        <ele>516</ele>
        <time>2014-10-18T19:36:10.670Z</time>
      </trkpt>
      <trkpt lat="45.69565" lon="4.62681">
        <ele>516</ele>
        <time>2014-10-18T19:36:11.668Z</time>
      </trkpt>
      <trkpt lat="45.69569" lon="4.62683">
        <ele>516</ele>
        <time>2014-10-18T19:36:13.692Z</time>
      </trkpt>
      <trkpt lat="45.69574" lon="4.62683">
        <ele>516</ele>
        <time>2014-10-18T19:36:14.670Z</time>
      </trkpt>
      <trkpt lat="45.69581" lon="4.62687">
        <ele>516</ele>
        <time>2014-10-18T19:36:16.674Z</time>
      </trkpt>
      <trkpt lat="45.69584" lon="4.62687">
        <ele>517</ele>
        <time>2014-10-18T19:36:17.673Z</time>
      </trkpt>
      <trkpt lat="45.69589" lon="4.62687">
        <ele>517</ele>
        <time>2014-10-18T19:36:19.668Z</time>
      </trkpt>
      <trkpt lat="45.69594" lon="4.62687">
        <ele>517</ele>
        <time>2014-10-18T19:36:20.674Z</time>
      </trkpt>
      <trkpt lat="45.69598" lon="4.62687">
        <ele>517</ele>
        <time>2014-10-18T19:36:21.667Z</time>
      </trkpt>
      <trkpt lat="45.69603" lon="4.62685">
        <ele>517</ele>
        <time>2014-10-18T19:36:22.669Z</time>
      </trkpt>
      <trkpt lat="45.69609" lon="4.62683">
        <ele>516</ele>
        <time>2014-10-18T19:36:23.669Z</time>
      </trkpt>
      <trkpt lat="45.69614" lon="4.62683">
        <ele>516</ele>
        <time>2014-10-18T19:36:24.676Z</time>
      </trkpt>
      <trkpt lat="45.6962" lon="4.62681">
        <ele>516</ele>
        <time>2014-10-18T19:36:25.673Z</time>
      </trkpt>
      <trkpt lat="45.69627" lon="4.62679">
        <ele>517</ele>
        <time>2014-10-18T19:36:26.670Z</time>
      </trkpt>
      <trkpt lat="45.69632" lon="4.62677">
        <ele>517</ele>
        <time>2014-10-18T19:36:27.668Z</time>
      </trkpt>
      <trkpt lat="45.69638" lon="4.62672">
        <ele>517</ele>
        <time>2014-10-18T19:36:28.671Z</time>
      </trkpt>
      <trkpt lat="45.69643" lon="4.6267">
        <ele>518</ele>
        <time>2014-10-18T19:36:29.654Z</time>
      </trkpt>
      <trkpt lat="45.69648" lon="4.62668">
        <ele>518</ele>
        <time>2014-10-18T19:36:30.660Z</time>
      </trkpt>
      <trkpt lat="45.69655" lon="4.62664">
        <ele>525</ele>
        <time>2014-10-18T19:36:31.652Z</time>
      </trkpt>
      <trkpt lat="45.6966" lon="4.62662">
        <ele>524</ele>
        <time>2014-10-18T19:36:32.654Z</time>
      </trkpt>
      <trkpt lat="45.69664" lon="4.62657">
        <ele>524</ele>
        <time>2014-10-18T19:36:33.652Z</time>
      </trkpt>
      <trkpt lat="45.6967" lon="4.62655">
        <ele>526</ele>
        <time>2014-10-18T19:36:34.657Z</time>
      </trkpt>
      <trkpt lat="45.69676" lon="4.62653">
        <ele>527</ele>
        <time>2014-10-18T19:36:35.656Z</time>
      </trkpt>
      <trkpt lat="45.69682" lon="4.62649">
        <ele>528</ele>
        <time>2014-10-18T19:36:36.655Z</time>
      </trkpt>
      <trkpt lat="45.69687" lon="4.62645">
        <ele>529</ele>
        <time>2014-10-18T19:36:37.654Z</time>
      </trkpt>
      <trkpt lat="45.69693" lon="4.62642">
        <ele>530</ele>
        <time>2014-10-18T19:36:38.654Z</time>
      </trkpt>
      <trkpt lat="45.69699" lon="4.62638">
        <ele>530</ele>
        <time>2014-10-18T19:36:39.651Z</time>
      </trkpt>
      <trkpt lat="45.69705" lon="4.62636">
        <ele>531</ele>
        <time>2014-10-18T19:36:40.656Z</time>
      </trkpt>
      <trkpt lat="45.69711" lon="4.62636">
        <ele>531</ele>
        <time>2014-10-18T19:36:41.657Z</time>
      </trkpt>
      <trkpt lat="45.69716" lon="4.62636">
        <ele>531</ele>
        <time>2014-10-18T19:36:42.664Z</time>
      </trkpt>
      <trkpt lat="45.69721" lon="4.62638">
        <ele>530</ele>
        <time>2014-10-18T19:36:43.654Z</time>
      </trkpt>
      <trkpt lat="45.69725" lon="4.6264">
        <ele>530</ele>
        <time>2014-10-18T19:36:44.651Z</time>
      </trkpt>
      <trkpt lat="45.6973" lon="4.62642">
        <ele>530</ele>
        <time>2014-10-18T19:36:45.653Z</time>
      </trkpt>
      <trkpt lat="45.69734" lon="4.62645">
        <ele>529</ele>
        <time>2014-10-18T19:36:46.649Z</time>
      </trkpt>
      <trkpt lat="45.69742" lon="4.62647">
        <ele>529</ele>
        <time>2014-10-18T19:36:48.654Z</time>
      </trkpt>
      <trkpt lat="45.69745" lon="4.62647">
        <ele>529</ele>
        <time>2014-10-18T19:36:49.650Z</time>
      </trkpt>
      <trkpt lat="45.69754" lon="4.62649">
        <ele>530</ele>
        <time>2014-10-18T19:36:51.638Z</time>
      </trkpt>
      <trkpt lat="45.69757" lon="4.62651">
        <ele>530</ele>
        <time>2014-10-18T19:36:52.640Z</time>
      </trkpt>
      <trkpt lat="45.69764" lon="4.62651">
        <ele>531</ele>
        <time>2014-10-18T19:36:54.644Z</time>
      </trkpt>
      <trkpt lat="45.69767" lon="4.62653">
        <ele>531</ele>
        <time>2014-10-18T19:36:55.638Z</time>
      </trkpt>
      <trkpt lat="45.69775" lon="4.62651">
        <ele>532</ele>
        <time>2014-10-18T19:36:57.639Z</time>
      </trkpt>
      <trkpt lat="45.69778" lon="4.62651">
        <ele>532</ele>
        <time>2014-10-18T19:36:58.639Z</time>
      </trkpt>
      <trkpt lat="45.69787" lon="4.62649">
        <ele>533</ele>
        <time>2014-10-18T19:37:01.645Z</time>
      </trkpt>
      <trkpt lat="45.6979" lon="4.62647">
        <ele>533</ele>
        <time>2014-10-18T19:37:02.637Z</time>
      </trkpt>
      <trkpt lat="45.69796" lon="4.62647">
        <ele>534</ele>
        <time>2014-10-18T19:37:04.638Z</time>
      </trkpt>
      <trkpt lat="45.698" lon="4.62647">
        <ele>534</ele>
        <time>2014-10-18T19:37:05.636Z</time>
      </trkpt>
      <trkpt lat="45.69806" lon="4.62649">
        <ele>534</ele>
        <time>2014-10-18T19:37:07.652Z</time>
      </trkpt>
      <trkpt lat="45.69809" lon="4.62649">
        <ele>534</ele>
        <time>2014-10-18T19:37:08.654Z</time>
      </trkpt>
      <trkpt lat="45.69818" lon="4.62651">
        <ele>534</ele>
        <time>2014-10-18T19:37:11.641Z</time>
      </trkpt>
      <trkpt lat="45.6982" lon="4.62651">
        <ele>534</ele>
        <time>2014-10-18T19:37:12.640Z</time>
      </trkpt>
      <trkpt lat="45.69826" lon="4.62653">
        <ele>533</ele>
        <time>2014-10-18T19:37:14.636Z</time>
      </trkpt>
      <trkpt lat="45.6983" lon="4.62653">
        <ele>533</ele>
        <time>2014-10-18T19:37:15.639Z</time>
      </trkpt>
      <trkpt lat="45.69836" lon="4.62657">
        <ele>536</ele>
        <time>2014-10-18T19:37:17.640Z</time>
      </trkpt>
      <trkpt lat="45.69839" lon="4.6266">
        <ele>536</ele>
        <time>2014-10-18T19:37:18.639Z</time>
      </trkpt>
      <trkpt lat="45.69847" lon="4.62664">
        <ele>537</ele>
        <time>2014-10-18T19:37:20.640Z</time>
      </trkpt>
      <trkpt lat="45.6985" lon="4.62664">
        <ele>538</ele>
        <time>2014-10-18T19:37:21.638Z</time>
      </trkpt>
      <trkpt lat="45.69857" lon="4.62666">
        <ele>540</ele>
        <time>2014-10-18T19:37:23.650Z</time>
      </trkpt>
      <trkpt lat="45.6986" lon="4.62668">
        <ele>536</ele>
        <time>2014-10-18T19:37:24.640Z</time>
      </trkpt>
      <trkpt lat="45.69866" lon="4.6267">
        <ele>537</ele>
        <time>2014-10-18T19:37:26.639Z</time>
      </trkpt>
      <trkpt lat="45.69869" lon="4.6267">
        <ele>537</ele>
        <time>2014-10-18T19:37:27.639Z</time>
      </trkpt>
      <trkpt lat="45.69877" lon="4.62675">
        <ele>538</ele>
        <time>2014-10-18T19:37:29.638Z</time>
      </trkpt>
      <trkpt lat="45.6988" lon="4.62677">
        <ele>538</ele>
        <time>2014-10-18T19:37:30.637Z</time>
      </trkpt>
      <trkpt lat="45.69888" lon="4.62683">
        <ele>539</ele>
        <time>2014-10-18T19:37:33.642Z</time>
      </trkpt>
      <trkpt lat="45.6989" lon="4.62687">
        <ele>539</ele>
        <time>2014-10-18T19:37:34.637Z</time>
      </trkpt>
      <trkpt lat="45.69891" lon="4.62698">
        <ele>539</ele>
        <time>2014-10-18T19:37:37.631Z</time>
      </trkpt>
      <trkpt lat="45.69891" lon="4.627">
        <ele>539</ele>
        <time>2014-10-18T19:37:38.631Z</time>
      </trkpt>
      <trkpt lat="45.69895" lon="4.62711">
        <ele>540</ele>
        <time>2014-10-18T19:37:43.629Z</time>
      </trkpt>
      <trkpt lat="45.69896" lon="4.62711">
        <ele>540</ele>
        <time>2014-10-18T19:37:44.670Z</time>
      </trkpt>
      <trkpt lat="45.69902" lon="4.6272">
        <ele>540</ele>
        <time>2014-10-18T19:37:50.628Z</time>
      </trkpt>
      <trkpt lat="45.69904" lon="4.62722">
        <ele>541</ele>
        <time>2014-10-18T19:37:51.626Z</time>
      </trkpt>
      <trkpt lat="45.6991" lon="4.6273">
        <ele>542</ele>
        <time>2014-10-18T19:37:56.630Z</time>
      </trkpt>
      <trkpt lat="45.69911" lon="4.6273">
        <ele>542</ele>
        <time>2014-10-18T19:37:57.637Z</time>
      </trkpt>
      <trkpt lat="45.69906" lon="4.62737">
        <ele>542</ele>
        <time>2014-10-18T19:38:01.654Z</time>
      </trkpt>
      <trkpt lat="45.69904" lon="4.62739">
        <ele>542</ele>
        <time>2014-10-18T19:38:02.642Z</time>
      </trkpt>
      <trkpt lat="45.69896" lon="4.62743">
        <ele>541</ele>
        <time>2014-10-18T19:38:06.638Z</time>
      </trkpt>
      <trkpt lat="45.69894" lon="4.62743">
        <ele>541</ele>
        <time>2014-10-18T19:38:07.637Z</time>
      </trkpt>
      <trkpt lat="45.69887" lon="4.62748">
        <ele>540</ele>
        <time>2014-10-18T19:38:10.638Z</time>
      </trkpt>
      <trkpt lat="45.69884" lon="4.6275">
        <ele>540</ele>
        <time>2014-10-18T19:38:11.647Z</time>
      </trkpt>
      <trkpt lat="45.69879" lon="4.62756">
        <ele>545</ele>
        <time>2014-10-18T19:38:14.639Z</time>
      </trkpt>
      <trkpt lat="45.69876" lon="4.62758">
        <ele>545</ele>
        <time>2014-10-18T19:38:15.639Z</time>
      </trkpt>
      <trkpt lat="45.69869" lon="4.62767">
        <ele>544</ele>
        <time>2014-10-18T19:38:18.638Z</time>
      </trkpt>
      <trkpt lat="45.69867" lon="4.62769">
        <ele>544</ele>
        <time>2014-10-18T19:38:19.659Z</time>
      </trkpt>
      <trkpt lat="45.69864" lon="4.62778">
        <ele>545</ele>
        <time>2014-10-18T19:38:22.645Z</time>
      </trkpt>
      <trkpt lat="45.69863" lon="4.62782">
        <ele>545</ele>
        <time>2014-10-18T19:38:23.642Z</time>
      </trkpt>
      <trkpt lat="45.6986" lon="4.6279">
        <ele>546</ele>
        <time>2014-10-18T19:38:26.642Z</time>
      </trkpt>
      <trkpt lat="45.6986" lon="4.62795">
        <ele>547</ele>
        <time>2014-10-18T19:38:27.646Z</time>
      </trkpt>
      <trkpt lat="45.69855" lon="4.62803">
        <ele>547</ele>
        <time>2014-10-18T19:38:31.637Z</time>
      </trkpt>
      <trkpt lat="45.69853" lon="4.62806">
        <ele>547</ele>
        <time>2014-10-18T19:38:32.641Z</time>
      </trkpt>
      <trkpt lat="45.69848" lon="4.62814">
        <ele>547</ele>
        <time>2014-10-18T19:38:36.637Z</time>
      </trkpt>
      <trkpt lat="45.69847" lon="4.62816">
        <ele>548</ele>
        <time>2014-10-18T19:38:37.637Z</time>
      </trkpt>
      <trkpt lat="45.6984" lon="4.62825">
        <ele>548</ele>
        <time>2014-10-18T19:38:41.640Z</time>
      </trkpt>
      <trkpt lat="45.69839" lon="4.62827">
        <ele>548</ele>
        <time>2014-10-18T19:38:42.638Z</time>
      </trkpt>
      <trkpt lat="45.69834" lon="4.62833">
        <ele>548</ele>
        <time>2014-10-18T19:38:45.645Z</time>
      </trkpt>
      <trkpt lat="45.69832" lon="4.62836">
        <ele>548</ele>
        <time>2014-10-18T19:38:46.637Z</time>
      </trkpt>
      <trkpt lat="45.69825" lon="4.62844">
        <ele>546</ele>
        <time>2014-10-18T19:38:50.638Z</time>
      </trkpt>
      <trkpt lat="45.69824" lon="4.62846">
        <ele>546</ele>
        <time>2014-10-18T19:38:51.650Z</time>
      </trkpt>
      <trkpt lat="45.69819" lon="4.62855">
        <ele>546</ele>
        <time>2014-10-18T19:38:57.637Z</time>
      </trkpt>
      <trkpt lat="45.69819" lon="4.62857">
        <ele>546</ele>
        <time>2014-10-18T19:38:58.639Z</time>
      </trkpt>
      <trkpt lat="45.69818" lon="4.62868">
        <ele>547</ele>
        <time>2014-10-18T19:39:05.637Z</time>
      </trkpt>
      <trkpt lat="45.69818" lon="4.6287">
        <ele>547</ele>
        <time>2014-10-18T19:39:06.641Z</time>
      </trkpt>
      <trkpt lat="45.69819" lon="4.62881">
        <ele>548</ele>
        <time>2014-10-18T19:39:13.652Z</time>
      </trkpt>
      <trkpt lat="45.69819" lon="4.62883">
        <ele>549</ele>
        <time>2014-10-18T19:39:14.659Z</time>
      </trkpt>
      <trkpt lat="45.69818" lon="4.62893">
        <ele>551</ele>
        <time>2014-10-18T19:39:20.638Z</time>
      </trkpt>
      <trkpt lat="45.69817" lon="4.62896">
        <ele>551</ele>
        <time>2014-10-18T19:39:21.652Z</time>
      </trkpt>
      <trkpt lat="45.69818" lon="4.62906">
        <ele>554</ele>
        <time>2014-10-18T19:39:27.638Z</time>
      </trkpt>
      <trkpt lat="45.69818" lon="4.62909">
        <ele>554</ele>
        <time>2014-10-18T19:39:28.638Z</time>
      </trkpt>
      <trkpt lat="45.69816" lon="4.62919">
        <ele>559</ele>
        <time>2014-10-18T19:39:38.643Z</time>
      </trkpt>
      <trkpt lat="45.69816" lon="4.62921">
        <ele>559</ele>
        <time>2014-10-18T19:39:39.655Z</time>
      </trkpt>
      <trkpt lat="45.69815" lon="4.62932">
        <ele>558</ele>
        <time>2014-10-18T19:39:46.656Z</time>
      </trkpt>
      <trkpt lat="45.69816" lon="4.62934">
        <ele>558</ele>
        <time>2014-10-18T19:39:47.658Z</time>
      </trkpt>
      <trkpt lat="45.69816" lon="4.62945">
        <ele>557</ele>
        <time>2014-10-18T19:40:46.652Z</time>
      </trkpt>
      <trkpt lat="45.69816" lon="4.62947">
        <ele>557</ele>
        <time>2014-10-18T19:40:47.655Z</time>
      </trkpt>
      <trkpt lat="45.69817" lon="4.62958">
        <ele>558</ele>
        <time>2014-10-18T19:40:53.648Z</time>
      </trkpt>
      <trkpt lat="45.69817" lon="4.6296">
        <ele>558</ele>
        <time>2014-10-18T19:40:54.651Z</time>
      </trkpt>
      <trkpt lat="45.69819" lon="4.62971">
        <ele>559</ele>
        <time>2014-10-18T19:40:59.649Z</time>
      </trkpt>
      <trkpt lat="45.69819" lon="4.62973">
        <ele>559</ele>
        <time>2014-10-18T19:41:00.675Z</time>
      </trkpt>
      <trkpt lat="45.69819" lon="4.62984">
        <ele>561</ele>
        <time>2014-10-18T19:41:05.657Z</time>
      </trkpt>
      <trkpt lat="45.69819" lon="4.62986">
        <ele>561</ele>
        <time>2014-10-18T19:41:06.663Z</time>
      </trkpt>
      <trkpt lat="45.6982" lon="4.62996">
        <ele>563</ele>
        <time>2014-10-18T19:41:12.650Z</time>
      </trkpt>
      <trkpt lat="45.6982" lon="4.62999">
        <ele>563</ele>
        <time>2014-10-18T19:41:13.657Z</time>
      </trkpt>
      <trkpt lat="45.6982" lon="4.63009">
        <ele>564</ele>
        <time>2014-10-18T19:41:19.674Z</time>
      </trkpt>
      <trkpt lat="45.69821" lon="4.63012">
        <ele>564</ele>
        <time>2014-10-18T19:41:20.658Z</time>
      </trkpt>
      <trkpt lat="45.69821" lon="4.63022">
        <ele>563</ele>
        <time>2014-10-18T19:42:37.653Z</time>
      </trkpt>
      <trkpt lat="45.69821" lon="4.63027">
        <ele>563</ele>
        <time>2014-10-18T19:42:38.649Z</time>
      </trkpt>
      <trkpt lat="45.69823" lon="4.63037">
        <ele>563</ele>
        <time>2014-10-18T19:42:42.643Z</time>
      </trkpt>
      <trkpt lat="45.69823" lon="4.63042">
        <ele>563</ele>
        <time>2014-10-18T19:42:43.656Z</time>
      </trkpt>
      <trkpt lat="45.69823" lon="4.63048">
        <ele>563</ele>
        <time>2014-10-18T19:42:45.649Z</time>
      </trkpt>
      <trkpt lat="45.69821" lon="4.63054">
        <ele>563</ele>
        <time>2014-10-18T19:42:46.649Z</time>
      </trkpt>
      <trkpt lat="45.6982" lon="4.63061">
        <ele>564</ele>
        <time>2014-10-18T19:42:47.646Z</time>
      </trkpt>
      <trkpt lat="45.69818" lon="4.63067">
        <ele>565</ele>
        <time>2014-10-18T19:42:48.647Z</time>
      </trkpt>
      <trkpt lat="45.69815" lon="4.63074">
        <ele>565</ele>
        <time>2014-10-18T19:42:49.660Z</time>
      </trkpt>
      <trkpt lat="45.69814" lon="4.63082">
        <ele>565</ele>
        <time>2014-10-18T19:42:50.640Z</time>
      </trkpt>
      <trkpt lat="45.69814" lon="4.63087">
        <ele>567</ele>
        <time>2014-10-18T19:42:51.643Z</time>
      </trkpt>
      <trkpt lat="45.69813" lon="4.63095">
        <ele>567</ele>
        <time>2014-10-18T19:42:52.639Z</time>
      </trkpt>
      <trkpt lat="45.69811" lon="4.63102">
        <ele>566</ele>
        <time>2014-10-18T19:42:53.642Z</time>
      </trkpt>
      <trkpt lat="45.6981" lon="4.63108">
        <ele>566</ele>
        <time>2014-10-18T19:42:54.648Z</time>
      </trkpt>
      <trkpt lat="45.69808" lon="4.63117">
        <ele>566</ele>
        <time>2014-10-18T19:42:56.646Z</time>
      </trkpt>
      <trkpt lat="45.69807" lon="4.63121">
        <ele>565</ele>
        <time>2014-10-18T19:42:57.651Z</time>
      </trkpt>
      <trkpt lat="45.69806" lon="4.63132">
        <ele>566</ele>
        <time>2014-10-18T19:42:59.689Z</time>
      </trkpt>
      <trkpt lat="45.69806" lon="4.63138">
        <ele>566</ele>
        <time>2014-10-18T19:43:00.642Z</time>
      </trkpt>
      <trkpt lat="45.69805" lon="4.63149">
        <ele>567</ele>
        <time>2014-10-18T19:43:02.648Z</time>
      </trkpt>
      <trkpt lat="45.69804" lon="4.63155">
        <ele>567</ele>
        <time>2014-10-18T19:43:03.656Z</time>
      </trkpt>
      <trkpt lat="45.69802" lon="4.63166">
        <ele>567</ele>
        <time>2014-10-18T19:43:05.651Z</time>
      </trkpt>
      <trkpt lat="45.69802" lon="4.6317">
        <ele>568</ele>
        <time>2014-10-18T19:43:06.652Z</time>
      </trkpt>
      <trkpt lat="45.69803" lon="4.63181">
        <ele>568</ele>
        <time>2014-10-18T19:43:08.651Z</time>
      </trkpt>
      <trkpt lat="45.69804" lon="4.63185">
        <ele>568</ele>
        <time>2014-10-18T19:43:09.653Z</time>
      </trkpt>
      <trkpt lat="45.69806" lon="4.63196">
        <ele>568</ele>
        <time>2014-10-18T19:43:14.669Z</time>
      </trkpt>
      <trkpt lat="45.69806" lon="4.63198">
        <ele>568</ele>
        <time>2014-10-18T19:43:15.684Z</time>
      </trkpt>
      <trkpt lat="45.69804" lon="4.63207">
        <ele>567</ele>
        <time>2014-10-18T19:44:23.666Z</time>
      </trkpt>
      <trkpt lat="45.69803" lon="4.63211">
        <ele>567</ele>
        <time>2014-10-18T19:44:24.663Z</time>
      </trkpt>
      <trkpt lat="45.69801" lon="4.63222">
        <ele>567</ele>
        <time>2014-10-18T19:44:26.660Z</time>
      </trkpt>
      <trkpt lat="45.698" lon="4.6323">
        <ele>567</ele>
        <time>2014-10-18T19:44:27.662Z</time>
      </trkpt>
      <trkpt lat="45.69799" lon="4.63237">
        <ele>567</ele>
        <time>2014-10-18T19:44:28.660Z</time>
      </trkpt>
      <trkpt lat="45.69798" lon="4.63248">
        <ele>566</ele>
        <time>2014-10-18T19:44:29.664Z</time>
      </trkpt>
      <trkpt lat="45.69796" lon="4.63256">
        <ele>562</ele>
        <time>2014-10-18T19:44:30.661Z</time>
      </trkpt>
      <trkpt lat="45.69795" lon="4.63265">
        <ele>561</ele>
        <time>2014-10-18T19:44:31.663Z</time>
      </trkpt>
      <trkpt lat="45.69794" lon="4.63275">
        <ele>560</ele>
        <time>2014-10-18T19:44:32.663Z</time>
      </trkpt>
      <trkpt lat="45.69793" lon="4.63284">
        <ele>559</ele>
        <time>2014-10-18T19:44:33.663Z</time>
      </trkpt>
      <trkpt lat="45.69793" lon="4.63293">
        <ele>559</ele>
        <time>2014-10-18T19:44:34.661Z</time>
      </trkpt>
      <trkpt lat="45.69792" lon="4.63299">
        <ele>558</ele>
        <time>2014-10-18T19:44:35.656Z</time>
      </trkpt>
      <trkpt lat="45.69792" lon="4.63305">
        <ele>558</ele>
        <time>2014-10-18T19:44:36.683Z</time>
      </trkpt>
      <trkpt lat="45.69792" lon="4.63312">
        <ele>558</ele>
        <time>2014-10-18T19:44:37.681Z</time>
      </trkpt>
      <trkpt lat="45.69793" lon="4.63318">
        <ele>557</ele>
        <time>2014-10-18T19:44:38.660Z</time>
      </trkpt>
      <trkpt lat="45.69793" lon="4.63327">
        <ele>557</ele>
        <time>2014-10-18T19:44:39.680Z</time>
      </trkpt>
      <trkpt lat="45.69794" lon="4.63333">
        <ele>557</ele>
        <time>2014-10-18T19:44:40.666Z</time>
      </trkpt>
      <trkpt lat="45.69795" lon="4.63342">
        <ele>549</ele>
        <time>2014-10-18T19:44:41.673Z</time>
      </trkpt>
      <trkpt lat="45.698" lon="4.63351">
        <ele>549</ele>
        <time>2014-10-18T19:44:42.673Z</time>
      </trkpt>
      <trkpt lat="45.69805" lon="4.63359">
        <ele>549</ele>
        <time>2014-10-18T19:44:43.664Z</time>
      </trkpt>
      <trkpt lat="45.69811" lon="4.63366">
        <ele>549</ele>
        <time>2014-10-18T19:44:44.676Z</time>
      </trkpt>
      <trkpt lat="45.69817" lon="4.6337">
        <ele>549</ele>
        <time>2014-10-18T19:44:45.685Z</time>
      </trkpt>
      <trkpt lat="45.69822" lon="4.63374">
        <ele>549</ele>
        <time>2014-10-18T19:44:46.662Z</time>
      </trkpt>
      <trkpt lat="45.69826" lon="4.63381">
        <ele>548</ele>
        <time>2014-10-18T19:44:47.666Z</time>
      </trkpt>
      <trkpt lat="45.69831" lon="4.63385">
        <ele>548</ele>
        <time>2014-10-18T19:44:48.663Z</time>
      </trkpt>
      <trkpt lat="45.69835" lon="4.63391">
        <ele>560</ele>
        <time>2014-10-18T19:44:49.665Z</time>
      </trkpt>
      <trkpt lat="45.6984" lon="4.63396">
        <ele>559</ele>
        <time>2014-10-18T19:44:50.664Z</time>
      </trkpt>
      <trkpt lat="45.69845" lon="4.634">
        <ele>558</ele>
        <time>2014-10-18T19:44:51.666Z</time>
      </trkpt>
      <trkpt lat="45.6985" lon="4.63404">
        <ele>559</ele>
        <time>2014-10-18T19:44:52.660Z</time>
      </trkpt>
      <trkpt lat="45.69853" lon="4.63408">
        <ele>559</ele>
        <time>2014-10-18T19:44:53.651Z</time>
      </trkpt>
      <trkpt lat="45.69858" lon="4.63413">
        <ele>560</ele>
        <time>2014-10-18T19:44:54.655Z</time>
      </trkpt>
      <trkpt lat="45.69862" lon="4.63419">
        <ele>553</ele>
        <time>2014-10-18T19:44:55.661Z</time>
      </trkpt>
      <trkpt lat="45.69865" lon="4.63426">
        <ele>554</ele>
        <time>2014-10-18T19:44:56.648Z</time>
      </trkpt>
      <trkpt lat="45.69867" lon="4.63432">
        <ele>554</ele>
        <time>2014-10-18T19:44:57.647Z</time>
      </trkpt>
      <trkpt lat="45.69869" lon="4.63441">
        <ele>554</ele>
        <time>2014-10-18T19:44:58.635Z</time>
      </trkpt>
      <trkpt lat="45.6987" lon="4.63449">
        <ele>554</ele>
        <time>2014-10-18T19:44:59.621Z</time>
      </trkpt>
      <trkpt lat="45.69868" lon="4.6346">
        <ele>552</ele>
        <time>2014-10-18T19:45:00.627Z</time>
      </trkpt>
      <trkpt lat="45.69867" lon="4.63466">
        <ele>552</ele>
        <time>2014-10-18T19:45:01.652Z</time>
      </trkpt>
      <trkpt lat="45.69865" lon="4.63475">
        <ele>551</ele>
        <time>2014-10-18T19:45:02.648Z</time>
      </trkpt>
      <trkpt lat="45.69865" lon="4.63484">
        <ele>550</ele>
        <time>2014-10-18T19:45:03.650Z</time>
      </trkpt>
      <trkpt lat="45.69864" lon="4.63492">
        <ele>549</ele>
        <time>2014-10-18T19:45:04.654Z</time>
      </trkpt>
      <trkpt lat="45.69864" lon="4.63499">
        <ele>548</ele>
        <time>2014-10-18T19:45:05.652Z</time>
      </trkpt>
      <trkpt lat="45.69865" lon="4.63507">
        <ele>543</ele>
        <time>2014-10-18T19:45:06.644Z</time>
      </trkpt>
      <trkpt lat="45.69868" lon="4.63518">
        <ele>544</ele>
        <time>2014-10-18T19:45:07.656Z</time>
      </trkpt>
      <trkpt lat="45.69869" lon="4.63526">
        <ele>544</ele>
        <time>2014-10-18T19:45:08.645Z</time>
      </trkpt>
      <trkpt lat="45.69869" lon="4.63535">
        <ele>544</ele>
        <time>2014-10-18T19:45:09.645Z</time>
      </trkpt>
      <trkpt lat="45.69869" lon="4.63544">
        <ele>544</ele>
        <time>2014-10-18T19:45:10.647Z</time>
      </trkpt>
      <trkpt lat="45.69867" lon="4.63548">
        <ele>543</ele>
        <time>2014-10-18T19:45:11.654Z</time>
      </trkpt>
      <trkpt lat="45.69863" lon="4.63554">
        <ele>542</ele>
        <time>2014-10-18T19:45:12.649Z</time>
      </trkpt>
      <trkpt lat="45.6986" lon="4.63561">
        <ele>541</ele>
        <time>2014-10-18T19:45:13.649Z</time>
      </trkpt>
      <trkpt lat="45.69857" lon="4.63572">
        <ele>539</ele>
        <time>2014-10-18T19:45:14.677Z</time>
      </trkpt>
      <trkpt lat="45.69854" lon="4.6358">
        <ele>537</ele>
        <time>2014-10-18T19:45:15.652Z</time>
      </trkpt>
      <trkpt lat="45.69852" lon="4.63589">
        <ele>535</ele>
        <time>2014-10-18T19:45:16.647Z</time>
      </trkpt>
      <trkpt lat="45.6985" lon="4.63597">
        <ele>535</ele>
        <time>2014-10-18T19:45:17.651Z</time>
      </trkpt>
      <trkpt lat="45.69848" lon="4.63606">
        <ele>536</ele>
        <time>2014-10-18T19:45:18.637Z</time>
      </trkpt>
      <trkpt lat="45.69846" lon="4.63614">
        <ele>537</ele>
        <time>2014-10-18T19:45:19.649Z</time>
      </trkpt>
      <trkpt lat="45.69844" lon="4.63621">
        <ele>537</ele>
        <time>2014-10-18T19:45:20.657Z</time>
      </trkpt>
      <trkpt lat="45.69843" lon="4.63629">
        <ele>537</ele>
        <time>2014-10-18T19:45:21.648Z</time>
      </trkpt>
      <trkpt lat="45.6984" lon="4.63638">
        <ele>536</ele>
        <time>2014-10-18T19:45:22.647Z</time>
      </trkpt>
      <trkpt lat="45.69838" lon="4.63647">
        <ele>534</ele>
        <time>2014-10-18T19:45:23.649Z</time>
      </trkpt>
      <trkpt lat="45.69837" lon="4.63655">
        <ele>532</ele>
        <time>2014-10-18T19:45:24.643Z</time>
      </trkpt>
      <trkpt lat="45.69836" lon="4.63664">
        <ele>528</ele>
        <time>2014-10-18T19:45:25.650Z</time>
      </trkpt>
      <trkpt lat="45.69835" lon="4.63672">
        <ele>529</ele>
        <time>2014-10-18T19:45:26.645Z</time>
      </trkpt>
      <trkpt lat="45.69833" lon="4.63681">
        <ele>523</ele>
        <time>2014-10-18T19:45:27.649Z</time>
      </trkpt>
      <trkpt lat="45.69832" lon="4.6369">
        <ele>522</ele>
        <time>2014-10-18T19:45:28.635Z</time>
      </trkpt>
      <trkpt lat="45.6983" lon="4.63696">
        <ele>522</ele>
        <time>2014-10-18T19:45:29.638Z</time>
      </trkpt>
      <trkpt lat="45.69823" lon="4.63705">
        <ele>521</ele>
        <time>2014-10-18T19:45:34.647Z</time>
      </trkpt>
      <trkpt lat="45.69821" lon="4.63707">
        <ele>521</ele>
        <time>2014-10-18T19:45:35.645Z</time>
      </trkpt>
      <trkpt lat="45.69815" lon="4.63711">
        <ele>520</ele>
        <time>2014-10-18T19:45:37.655Z</time>
      </trkpt>
      <trkpt lat="45.69811" lon="4.63715">
        <ele>520</ele>
        <time>2014-10-18T19:45:38.664Z</time>
      </trkpt>
      <trkpt lat="45.69809" lon="4.6372">
        <ele>520</ele>
        <time>2014-10-18T19:45:39.671Z</time>
      </trkpt>
      <trkpt lat="45.69806" lon="4.63726">
        <ele>520</ele>
        <time>2014-10-18T19:45:40.668Z</time>
      </trkpt>
      <trkpt lat="45.69803" lon="4.63732">
        <ele>520</ele>
        <time>2014-10-18T19:45:41.659Z</time>
      </trkpt>
      <trkpt lat="45.69799" lon="4.63737">
        <ele>520</ele>
        <time>2014-10-18T19:45:42.702Z</time>
      </trkpt>
      <trkpt lat="45.69795" lon="4.63743">
        <ele>519</ele>
        <time>2014-10-18T19:45:43.659Z</time>
      </trkpt>
      <trkpt lat="45.69793" lon="4.6375">
        <ele>519</ele>
        <time>2014-10-18T19:45:44.665Z</time>
      </trkpt>
      <trkpt lat="45.6979" lon="4.63754">
        <ele>519</ele>
        <time>2014-10-18T19:45:45.661Z</time>
      </trkpt>
      <trkpt lat="45.69787" lon="4.63763">
        <ele>518</ele>
        <time>2014-10-18T19:45:46.670Z</time>
      </trkpt>
      <trkpt lat="45.69784" lon="4.63771">
        <ele>518</ele>
        <time>2014-10-18T19:45:47.671Z</time>
      </trkpt>
      <trkpt lat="45.69779" lon="4.6378">
        <ele>517</ele>
        <time>2014-10-18T19:45:48.665Z</time>
      </trkpt>
      <trkpt lat="45.69775" lon="4.63786">
        <ele>517</ele>
        <time>2014-10-18T19:45:49.669Z</time>
      </trkpt>
      <trkpt lat="45.6977" lon="4.63788">
        <ele>516</ele>
        <time>2014-10-18T19:45:50.664Z</time>
      </trkpt>
      <trkpt lat="45.69764" lon="4.63793">
        <ele>516</ele>
        <time>2014-10-18T19:45:51.663Z</time>
      </trkpt>
      <trkpt lat="45.6976" lon="4.63799">
        <ele>515</ele>
        <time>2014-10-18T19:45:52.649Z</time>
      </trkpt>
      <trkpt lat="45.69758" lon="4.63808">
        <ele>515</ele>
        <time>2014-10-18T19:45:53.659Z</time>
      </trkpt>
      <trkpt lat="45.69758" lon="4.63816">
        <ele>514</ele>
        <time>2014-10-18T19:45:54.653Z</time>
      </trkpt>
      <trkpt lat="45.69758" lon="4.63827">
        <ele>512</ele>
        <time>2014-10-18T19:45:55.658Z</time>
      </trkpt>
      <trkpt lat="45.69759" lon="4.63835">
        <ele>510</ele>
        <time>2014-10-18T19:45:56.646Z</time>
      </trkpt>
      <trkpt lat="45.69762" lon="4.6384">
        <ele>511</ele>
        <time>2014-10-18T19:45:57.651Z</time>
      </trkpt>
      <trkpt lat="45.69765" lon="4.63846">
        <ele>511</ele>
        <time>2014-10-18T19:45:58.649Z</time>
      </trkpt>
      <trkpt lat="45.69767" lon="4.63853">
        <ele>512</ele>
        <time>2014-10-18T19:45:59.664Z</time>
      </trkpt>
      <trkpt lat="45.69771" lon="4.63859">
        <ele>512</ele>
        <time>2014-10-18T19:46:00.661Z</time>
      </trkpt>
      <trkpt lat="45.69772" lon="4.63866">
        <ele>512</ele>
        <time>2014-10-18T19:46:01.656Z</time>
      </trkpt>
      <trkpt lat="45.69773" lon="4.63874">
        <ele>511</ele>
        <time>2014-10-18T19:46:02.677Z</time>
      </trkpt>
      <trkpt lat="45.69772" lon="4.63883">
        <ele>511</ele>
        <time>2014-10-18T19:46:04.656Z</time>
      </trkpt>
      <trkpt lat="45.69769" lon="4.63887">
        <ele>510</ele>
        <time>2014-10-18T19:46:05.659Z</time>
      </trkpt>
      <trkpt lat="45.69763" lon="4.63889">
        <ele>509</ele>
        <time>2014-10-18T19:46:06.662Z</time>
      </trkpt>
      <trkpt lat="45.69758" lon="4.63891">
        <ele>509</ele>
        <time>2014-10-18T19:46:07.666Z</time>
      </trkpt>
      <trkpt lat="45.69751" lon="4.63893">
        <ele>508</ele>
        <time>2014-10-18T19:46:08.659Z</time>
      </trkpt>
      <trkpt lat="45.69747" lon="4.63893">
        <ele>501</ele>
        <time>2014-10-18T19:46:09.668Z</time>
      </trkpt>
      <trkpt lat="45.69739" lon="4.63893">
        <ele>501</ele>
        <time>2014-10-18T19:46:12.661Z</time>
      </trkpt>
      <trkpt lat="45.69737" lon="4.63896">
        <ele>501</ele>
        <time>2014-10-18T19:46:13.655Z</time>
      </trkpt>
      <trkpt lat="45.69742" lon="4.63902">
        <ele>501</ele>
        <time>2014-10-18T19:48:55.667Z</time>
      </trkpt>
      <trkpt lat="45.69746" lon="4.63904">
        <ele>501</ele>
        <time>2014-10-18T19:48:56.675Z</time>
      </trkpt>
      <trkpt lat="45.69751" lon="4.63906">
        <ele>505</ele>
        <time>2014-10-18T19:48:57.663Z</time>
      </trkpt>
      <trkpt lat="45.69757" lon="4.63908">
        <ele>505</ele>
        <time>2014-10-18T19:48:58.646Z</time>
      </trkpt>
      <trkpt lat="45.69762" lon="4.63908">
        <ele>506</ele>
        <time>2014-10-18T19:48:59.643Z</time>
      </trkpt>
      <trkpt lat="45.69769" lon="4.63913">
        <ele>507</ele>
        <time>2014-10-18T19:49:00.645Z</time>
      </trkpt>
      <trkpt lat="45.69774" lon="4.63915">
        <ele>508</ele>
        <time>2014-10-18T19:49:01.640Z</time>
      </trkpt>
      <trkpt lat="45.6978" lon="4.63919">
        <ele>506</ele>
        <time>2014-10-18T19:49:02.647Z</time>
      </trkpt>
      <trkpt lat="45.69786" lon="4.63921">
        <ele>506</ele>
        <time>2014-10-18T19:49:03.639Z</time>
      </trkpt>
      <trkpt lat="45.6979" lon="4.63923">
        <ele>507</ele>
        <time>2014-10-18T19:49:04.646Z</time>
      </trkpt>
      <trkpt lat="45.69795" lon="4.63932">
        <ele>508</ele>
        <time>2014-10-18T19:49:06.660Z</time>
      </trkpt>
      <trkpt lat="45.69794" lon="4.63938">
        <ele>507</ele>
        <time>2014-10-18T19:49:07.659Z</time>
      </trkpt>
      <trkpt lat="45.69792" lon="4.63949">
        <ele>507</ele>
        <time>2014-10-18T19:49:09.661Z</time>
      </trkpt>
      <trkpt lat="45.6979" lon="4.63956">
        <ele>506</ele>
        <time>2014-10-18T19:49:10.653Z</time>
      </trkpt>
      <trkpt lat="45.69786" lon="4.63962">
        <ele>506</ele>
        <time>2014-10-18T19:49:12.650Z</time>
      </trkpt>
      <trkpt lat="45.69784" lon="4.63969">
        <ele>505</ele>
        <time>2014-10-18T19:49:13.646Z</time>
      </trkpt>
      <trkpt lat="45.69778" lon="4.63977">
        <ele>504</ele>
        <time>2014-10-18T19:49:15.654Z</time>
      </trkpt>
      <trkpt lat="45.69775" lon="4.63984">
        <ele>503</ele>
        <time>2014-10-18T19:49:16.672Z</time>
      </trkpt>
      <trkpt lat="45.69772" lon="4.63994">
        <ele>501</ele>
        <time>2014-10-18T19:49:18.641Z</time>
      </trkpt>
      <trkpt lat="45.6977" lon="4.64001">
        <ele>500</ele>
        <time>2014-10-18T19:49:19.655Z</time>
      </trkpt>
      <trkpt lat="45.69765" lon="4.64009">
        <ele>499</ele>
        <time>2014-10-18T19:49:21.665Z</time>
      </trkpt>
      <trkpt lat="45.69765" lon="4.64016">
        <ele>500</ele>
        <time>2014-10-18T19:49:22.651Z</time>
      </trkpt>
      <trkpt lat="45.69764" lon="4.64026">
        <ele>501</ele>
        <time>2014-10-18T19:49:24.660Z</time>
      </trkpt>
      <trkpt lat="45.69764" lon="4.64031">
        <ele>501</ele>
        <time>2014-10-18T19:49:25.659Z</time>
      </trkpt>
      <trkpt lat="45.69764" lon="4.64041">
        <ele>501</ele>
        <time>2014-10-18T19:49:27.657Z</time>
      </trkpt>
      <trkpt lat="45.69765" lon="4.64046">
        <ele>501</ele>
        <time>2014-10-18T19:49:28.658Z</time>
      </trkpt>
      <trkpt lat="45.69767" lon="4.64054">
        <ele>501</ele>
        <time>2014-10-18T19:49:30.661Z</time>
      </trkpt>
      <trkpt lat="45.69767" lon="4.64061">
        <ele>501</ele>
        <time>2014-10-18T19:49:31.661Z</time>
      </trkpt>
      <trkpt lat="45.6977" lon="4.64069">
        <ele>501</ele>
        <time>2014-10-18T19:49:33.673Z</time>
      </trkpt>
      <trkpt lat="45.69771" lon="4.64076">
        <ele>500</ele>
        <time>2014-10-18T19:49:34.660Z</time>
      </trkpt>
      <trkpt lat="45.69772" lon="4.64084">
        <ele>500</ele>
        <time>2014-10-18T19:49:35.654Z</time>
      </trkpt>
      <trkpt lat="45.69773" lon="4.64091">
        <ele>501</ele>
        <time>2014-10-18T19:49:36.656Z</time>
      </trkpt>
      <trkpt lat="45.69775" lon="4.64102">
        <ele>501</ele>
        <time>2014-10-18T19:49:37.657Z</time>
      </trkpt>
      <trkpt lat="45.69776" lon="4.64112">
        <ele>502</ele>
        <time>2014-10-18T19:49:38.638Z</time>
      </trkpt>
      <trkpt lat="45.69777" lon="4.64121">
        <ele>502</ele>
        <time>2014-10-18T19:49:39.611Z</time>
      </trkpt>
      <trkpt lat="45.69774" lon="4.64132">
        <ele>502</ele>
        <time>2014-10-18T19:49:40.605Z</time>
      </trkpt>
      <trkpt lat="45.69766" lon="4.6414">
        <ele>501</ele>
        <time>2014-10-18T19:49:41.613Z</time>
      </trkpt>
      <trkpt lat="45.6976" lon="4.64147">
        <ele>500</ele>
        <time>2014-10-18T19:49:42.630Z</time>
      </trkpt>
      <trkpt lat="45.69754" lon="4.64155">
        <ele>499</ele>
        <time>2014-10-18T19:49:43.629Z</time>
      </trkpt>
      <trkpt lat="45.69747" lon="4.64164">
        <ele>495</ele>
        <time>2014-10-18T19:49:44.624Z</time>
      </trkpt>
      <trkpt lat="45.69742" lon="4.64172">
        <ele>495</ele>
        <time>2014-10-18T19:49:45.628Z</time>
      </trkpt>
      <trkpt lat="45.69736" lon="4.64181">
        <ele>495</ele>
        <time>2014-10-18T19:49:46.620Z</time>
      </trkpt>
      <trkpt lat="45.69732" lon="4.6419">
        <ele>495</ele>
        <time>2014-10-18T19:49:47.625Z</time>
      </trkpt>
      <trkpt lat="45.6973" lon="4.642">
        <ele>495</ele>
        <time>2014-10-18T19:49:48.629Z</time>
      </trkpt>
      <trkpt lat="45.69729" lon="4.64209">
        <ele>496</ele>
        <time>2014-10-18T19:49:49.665Z</time>
      </trkpt>
      <trkpt lat="45.69728" lon="4.64217">
        <ele>496</ele>
        <time>2014-10-18T19:49:50.618Z</time>
      </trkpt>
      <trkpt lat="45.69728" lon="4.64226">
        <ele>497</ele>
        <time>2014-10-18T19:49:51.636Z</time>
      </trkpt>
      <trkpt lat="45.69727" lon="4.64232">
        <ele>498</ele>
        <time>2014-10-18T19:49:52.629Z</time>
      </trkpt>
      <trkpt lat="45.69727" lon="4.64239">
        <ele>498</ele>
        <time>2014-10-18T19:49:53.629Z</time>
      </trkpt>
      <trkpt lat="45.69726" lon="4.6425">
        <ele>499</ele>
        <time>2014-10-18T19:49:56.625Z</time>
      </trkpt>
      <trkpt lat="45.69726" lon="4.64254">
        <ele>503</ele>
        <time>2014-10-18T19:49:57.626Z</time>
      </trkpt>
      <trkpt lat="45.69721" lon="4.64262">
        <ele>503</ele>
        <time>2014-10-18T19:50:03.652Z</time>
      </trkpt>
      <trkpt lat="45.6972" lon="4.64265">
        <ele>502</ele>
        <time>2014-10-18T19:50:04.660Z</time>
      </trkpt>
      <trkpt lat="45.69718" lon="4.64275">
        <ele>502</ele>
        <time>2014-10-18T19:50:08.685Z</time>
      </trkpt>
      <trkpt lat="45.69718" lon="4.6428">
        <ele>502</ele>
        <time>2014-10-18T19:50:09.660Z</time>
      </trkpt>
      <trkpt lat="45.69716" lon="4.6429">
        <ele>503</ele>
        <time>2014-10-18T19:50:12.649Z</time>
      </trkpt>
      <trkpt lat="45.69715" lon="4.64293">
        <ele>503</ele>
        <time>2014-10-18T19:50:13.646Z</time>
      </trkpt>
      <trkpt lat="45.69711" lon="4.64303">
        <ele>503</ele>
        <time>2014-10-18T19:50:17.659Z</time>
      </trkpt>
      <trkpt lat="45.69711" lon="4.64305">
        <ele>503</ele>
        <time>2014-10-18T19:50:18.660Z</time>
      </trkpt>
      <trkpt lat="45.69708" lon="4.64316">
        <ele>503</ele>
        <time>2014-10-18T19:50:22.664Z</time>
      </trkpt>
      <trkpt lat="45.69708" lon="4.64318">
        <ele>503</ele>
        <time>2014-10-18T19:50:23.647Z</time>
      </trkpt>
      <trkpt lat="45.69706" lon="4.64329">
        <ele>503</ele>
        <time>2014-10-18T19:50:27.675Z</time>
      </trkpt>
      <trkpt lat="45.69706" lon="4.64331">
        <ele>503</ele>
        <time>2014-10-18T19:50:28.695Z</time>
      </trkpt>
      <trkpt lat="45.69705" lon="4.64342">
        <ele>503</ele>
        <time>2014-10-18T19:50:31.651Z</time>
      </trkpt>
      <trkpt lat="45.69704" lon="4.64346">
        <ele>503</ele>
        <time>2014-10-18T19:50:32.660Z</time>
      </trkpt>
      <trkpt lat="45.69703" lon="4.64357">
        <ele>503</ele>
        <time>2014-10-18T19:50:35.655Z</time>
      </trkpt>
      <trkpt lat="45.69703" lon="4.64359">
        <ele>503</ele>
        <time>2014-10-18T19:50:36.674Z</time>
      </trkpt>
      <trkpt lat="45.69705" lon="4.6437">
        <ele>503</ele>
        <time>2014-10-18T19:50:42.652Z</time>
      </trkpt>
      <trkpt lat="45.69705" lon="4.64372">
        <ele>503</ele>
        <time>2014-10-18T19:50:43.658Z</time>
      </trkpt>
      <trkpt lat="45.69705" lon="4.64383">
        <ele>503</ele>
        <time>2014-10-18T19:50:50.658Z</time>
      </trkpt>
      <trkpt lat="45.69705" lon="4.64385">
        <ele>503</ele>
        <time>2014-10-18T19:50:51.658Z</time>
      </trkpt>
      <trkpt lat="45.6971" lon="4.64396">
        <ele>503</ele>
        <time>2014-10-18T19:51:27.676Z</time>
      </trkpt>
      <trkpt lat="45.69711" lon="4.644">
        <ele>503</ele>
        <time>2014-10-18T19:51:28.666Z</time>
      </trkpt>
      <trkpt lat="45.69715" lon="4.64411">
        <ele>503</ele>
        <time>2014-10-18T19:51:30.659Z</time>
      </trkpt>
      <trkpt lat="45.69717" lon="4.64415">
        <ele>504</ele>
        <time>2014-10-18T19:51:31.664Z</time>
      </trkpt>
      <trkpt lat="45.6972" lon="4.64421">
        <ele>500</ele>
        <time>2014-10-18T19:51:32.656Z</time>
      </trkpt>
      <trkpt lat="45.69725" lon="4.64428">
        <ele>501</ele>
        <time>2014-10-18T19:51:33.656Z</time>
      </trkpt>
      <trkpt lat="45.6973" lon="4.64434">
        <ele>501</ele>
        <time>2014-10-18T19:51:34.656Z</time>
      </trkpt>
      <trkpt lat="45.69736" lon="4.64441">
        <ele>501</ele>
        <time>2014-10-18T19:51:35.658Z</time>
      </trkpt>
      <trkpt lat="45.69744" lon="4.64445">
        <ele>501</ele>
        <time>2014-10-18T19:51:36.660Z</time>
      </trkpt>
      <trkpt lat="45.69751" lon="4.64447">
        <ele>507</ele>
        <time>2014-10-18T19:51:37.658Z</time>
      </trkpt>
      <trkpt lat="45.69759" lon="4.64449">
        <ele>507</ele>
        <time>2014-10-18T19:51:38.671Z</time>
      </trkpt>
      <trkpt lat="45.69766" lon="4.64449">
        <ele>507</ele>
        <time>2014-10-18T19:51:39.648Z</time>
      </trkpt>
      <trkpt lat="45.69773" lon="4.64447">
        <ele>508</ele>
        <time>2014-10-18T19:51:40.646Z</time>
      </trkpt>
      <trkpt lat="45.6978" lon="4.64447">
        <ele>508</ele>
        <time>2014-10-18T19:51:41.639Z</time>
      </trkpt>
      <trkpt lat="45.69787" lon="4.64447">
        <ele>509</ele>
        <time>2014-10-18T19:51:42.655Z</time>
      </trkpt>
      <trkpt lat="45.69794" lon="4.64451">
        <ele>509</ele>
        <time>2014-10-18T19:51:43.656Z</time>
      </trkpt>
      <trkpt lat="45.69801" lon="4.64458">
        <ele>509</ele>
        <time>2014-10-18T19:51:44.660Z</time>
      </trkpt>
      <trkpt lat="45.69805" lon="4.64464">
        <ele>509</ele>
        <time>2014-10-18T19:51:45.660Z</time>
      </trkpt>
      <trkpt lat="45.69808" lon="4.64471">
        <ele>509</ele>
        <time>2014-10-18T19:51:46.634Z</time>
      </trkpt>
      <trkpt lat="45.69808" lon="4.64479">
        <ele>509</ele>
        <time>2014-10-18T19:51:47.639Z</time>
      </trkpt>
      <trkpt lat="45.69807" lon="4.64486">
        <ele>509</ele>
        <time>2014-10-18T19:51:48.628Z</time>
      </trkpt>
      <trkpt lat="45.69806" lon="4.64492">
        <ele>509</ele>
        <time>2014-10-18T19:51:49.636Z</time>
      </trkpt>
      <trkpt lat="45.69803" lon="4.64496">
        <ele>508</ele>
        <time>2014-10-18T19:51:50.631Z</time>
      </trkpt>
      <trkpt lat="45.69798" lon="4.64503">
        <ele>508</ele>
        <time>2014-10-18T19:51:51.637Z</time>
      </trkpt>
      <trkpt lat="45.69793" lon="4.64509">
        <ele>508</ele>
        <time>2014-10-18T19:51:52.636Z</time>
      </trkpt>
      <trkpt lat="45.6979" lon="4.64514">
        <ele>508</ele>
        <time>2014-10-18T19:51:53.638Z</time>
      </trkpt>
      <trkpt lat="45.69786" lon="4.64518">
        <ele>507</ele>
        <time>2014-10-18T19:51:54.632Z</time>
      </trkpt>
      <trkpt lat="45.69782" lon="4.64522">
        <ele>507</ele>
        <time>2014-10-18T19:51:55.632Z</time>
      </trkpt>
      <trkpt lat="45.69778" lon="4.64526">
        <ele>507</ele>
        <time>2014-10-18T19:51:56.630Z</time>
      </trkpt>
      <trkpt lat="45.69774" lon="4.64531">
        <ele>507</ele>
        <time>2014-10-18T19:51:57.631Z</time>
      </trkpt>
      <trkpt lat="45.69767" lon="4.64539">
        <ele>507</ele>
        <time>2014-10-18T19:51:59.636Z</time>
      </trkpt>
      <trkpt lat="45.69764" lon="4.64544">
        <ele>507</ele>
        <time>2014-10-18T19:52:00.636Z</time>
      </trkpt>
      <trkpt lat="45.69761" lon="4.64548">
        <ele>507</ele>
        <time>2014-10-18T19:52:01.635Z</time>
      </trkpt>
      <trkpt lat="45.69757" lon="4.64552">
        <ele>507</ele>
        <time>2014-10-18T19:52:02.634Z</time>
      </trkpt>
      <trkpt lat="45.69749" lon="4.64559">
        <ele>500</ele>
        <time>2014-10-18T19:52:04.629Z</time>
      </trkpt>
      <trkpt lat="45.69747" lon="4.64565">
        <ele>500</ele>
        <time>2014-10-18T19:52:05.643Z</time>
      </trkpt>
      <trkpt lat="45.69741" lon="4.64574">
        <ele>501</ele>
        <time>2014-10-18T19:52:07.651Z</time>
      </trkpt>
      <trkpt lat="45.69739" lon="4.64578">
        <ele>501</ele>
        <time>2014-10-18T19:52:08.641Z</time>
      </trkpt>
      <trkpt lat="45.69734" lon="4.64586">
        <ele>504</ele>
        <time>2014-10-18T19:52:10.643Z</time>
      </trkpt>
      <trkpt lat="45.69732" lon="4.64591">
        <ele>504</ele>
        <time>2014-10-18T19:52:11.661Z</time>
      </trkpt>
      <trkpt lat="45.69728" lon="4.64602">
        <ele>505</ele>
        <time>2014-10-18T19:52:14.633Z</time>
      </trkpt>
      <trkpt lat="45.69727" lon="4.64606">
        <ele>505</ele>
        <time>2014-10-18T19:52:15.645Z</time>
      </trkpt>
      <trkpt lat="45.69722" lon="4.64614">
        <ele>505</ele>
        <time>2014-10-18T19:52:18.629Z</time>
      </trkpt>
      <trkpt lat="45.69721" lon="4.64617">
        <ele>505</ele>
        <time>2014-10-18T19:52:19.642Z</time>
      </trkpt>
      <trkpt lat="45.69718" lon="4.64627">
        <ele>505</ele>
        <time>2014-10-18T19:52:22.628Z</time>
      </trkpt>
      <trkpt lat="45.69717" lon="4.64632">
        <ele>506</ele>
        <time>2014-10-18T19:52:23.666Z</time>
      </trkpt>
      <trkpt lat="45.69713" lon="4.64642">
        <ele>506</ele>
        <time>2014-10-18T19:52:26.645Z</time>
      </trkpt>
      <trkpt lat="45.69712" lon="4.64644">
        <ele>506</ele>
        <time>2014-10-18T19:52:27.655Z</time>
      </trkpt>
      <trkpt lat="45.69707" lon="4.64655">
        <ele>506</ele>
        <time>2014-10-18T19:52:30.635Z</time>
      </trkpt>
      <trkpt lat="45.69705" lon="4.64657">
        <ele>506</ele>
        <time>2014-10-18T19:52:31.644Z</time>
      </trkpt>
      <trkpt lat="45.69701" lon="4.64666">
        <ele>506</ele>
        <time>2014-10-18T19:52:34.630Z</time>
      </trkpt>
      <trkpt lat="45.697" lon="4.64668">
        <ele>511</ele>
        <time>2014-10-18T19:52:35.635Z</time>
      </trkpt>
      <trkpt lat="45.697" lon="4.64679">
        <ele>512</ele>
        <time>2014-10-18T19:52:38.630Z</time>
      </trkpt>
      <trkpt lat="45.697" lon="4.64681">
        <ele>512</ele>
        <time>2014-10-18T19:52:39.632Z</time>
      </trkpt>
      <trkpt lat="45.69699" lon="4.64689">
        <ele>512</ele>
        <time>2014-10-18T19:52:42.627Z</time>
      </trkpt>
      <trkpt lat="45.69698" lon="4.64694">
        <ele>512</ele>
        <time>2014-10-18T19:52:43.652Z</time>
      </trkpt>
      <trkpt lat="45.69697" lon="4.64702">
        <ele>512</ele>
        <time>2014-10-18T19:52:45.627Z</time>
      </trkpt>
      <trkpt lat="45.69696" lon="4.64707">
        <ele>513</ele>
        <time>2014-10-18T19:52:46.630Z</time>
      </trkpt>
      <trkpt lat="45.69693" lon="4.64715">
        <ele>513</ele>
        <time>2014-10-18T19:52:48.629Z</time>
      </trkpt>
      <trkpt lat="45.69692" lon="4.6472">
        <ele>513</ele>
        <time>2014-10-18T19:52:49.630Z</time>
      </trkpt>
      <trkpt lat="45.69692" lon="4.6473">
        <ele>513</ele>
        <time>2014-10-18T19:52:52.641Z</time>
      </trkpt>
      <trkpt lat="45.69692" lon="4.64737">
        <ele>513</ele>
        <time>2014-10-18T19:52:53.663Z</time>
      </trkpt>
      <trkpt lat="45.69693" lon="4.64747">
        <ele>513</ele>
        <time>2014-10-18T19:52:56.640Z</time>
      </trkpt>
      <trkpt lat="45.69693" lon="4.64752">
        <ele>515</ele>
        <time>2014-10-18T19:52:57.644Z</time>
      </trkpt>
      <trkpt lat="45.69692" lon="4.6476">
        <ele>515</ele>
        <time>2014-10-18T19:52:59.644Z</time>
      </trkpt>
      <trkpt lat="45.69692" lon="4.64765">
        <ele>515</ele>
        <time>2014-10-18T19:53:00.645Z</time>
      </trkpt>
      <trkpt lat="45.69692" lon="4.64773">
        <ele>515</ele>
        <time>2014-10-18T19:53:02.691Z</time>
      </trkpt>
      <trkpt lat="45.69692" lon="4.64777">
        <ele>515</ele>
        <time>2014-10-18T19:53:03.648Z</time>
      </trkpt>
      <trkpt lat="45.69692" lon="4.64788">
        <ele>516</ele>
        <time>2014-10-18T19:53:05.654Z</time>
      </trkpt>
      <trkpt lat="45.69692" lon="4.64795">
        <ele>516</ele>
        <time>2014-10-18T19:53:06.676Z</time>
      </trkpt>
      <trkpt lat="45.69691" lon="4.64803">
        <ele>515</ele>
        <time>2014-10-18T19:53:08.649Z</time>
      </trkpt>
      <trkpt lat="45.69691" lon="4.6481">
        <ele>515</ele>
        <time>2014-10-18T19:53:09.654Z</time>
      </trkpt>
      <trkpt lat="45.69691" lon="4.6482">
        <ele>515</ele>
        <time>2014-10-18T19:53:11.655Z</time>
      </trkpt>
      <trkpt lat="45.69692" lon="4.64827">
        <ele>515</ele>
        <time>2014-10-18T19:53:12.654Z</time>
      </trkpt>
      <trkpt lat="45.69693" lon="4.64835">
        <ele>514</ele>
        <time>2014-10-18T19:53:14.649Z</time>
      </trkpt>
      <trkpt lat="45.69693" lon="4.64842">
        <ele>514</ele>
        <time>2014-10-18T19:53:15.667Z</time>
      </trkpt>
      <trkpt lat="45.69697" lon="4.6485">
        <ele>514</ele>
        <time>2014-10-18T19:53:17.655Z</time>
      </trkpt>
      <trkpt lat="45.69699" lon="4.64855">
        <ele>514</ele>
        <time>2014-10-18T19:53:18.655Z</time>
      </trkpt>
      <trkpt lat="45.69699" lon="4.64863">
        <ele>514</ele>
        <time>2014-10-18T19:53:20.654Z</time>
      </trkpt>
      <trkpt lat="45.69699" lon="4.64868">
        <ele>514</ele>
        <time>2014-10-18T19:53:21.659Z</time>
      </trkpt>
      <trkpt lat="45.69701" lon="4.64878">
        <ele>514</ele>
        <time>2014-10-18T19:53:23.678Z</time>
      </trkpt>
      <trkpt lat="45.69702" lon="4.64883">
        <ele>514</ele>
        <time>2014-10-18T19:53:24.672Z</time>
      </trkpt>
      <trkpt lat="45.69704" lon="4.64891">
        <ele>514</ele>
        <time>2014-10-18T19:53:26.652Z</time>
      </trkpt>
      <trkpt lat="45.69706" lon="4.64898">
        <ele>514</ele>
        <time>2014-10-18T19:53:27.655Z</time>
      </trkpt>
      <trkpt lat="45.69708" lon="4.64908">
        <ele>514</ele>
        <time>2014-10-18T19:53:29.662Z</time>
      </trkpt>
      <trkpt lat="45.69711" lon="4.64915">
        <ele>514</ele>
        <time>2014-10-18T19:53:30.656Z</time>
      </trkpt>
      <trkpt lat="45.69713" lon="4.64926">
        <ele>513</ele>
        <time>2014-10-18T19:53:32.676Z</time>
      </trkpt>
      <trkpt lat="45.69715" lon="4.6493">
        <ele>513</ele>
        <time>2014-10-18T19:53:33.655Z</time>
      </trkpt>
      <trkpt lat="45.69717" lon="4.64936">
        <ele>513</ele>
        <time>2014-10-18T19:53:34.683Z</time>
      </trkpt>
      <trkpt lat="45.69718" lon="4.64943">
        <ele>514</ele>
        <time>2014-10-18T19:53:35.661Z</time>
      </trkpt>
      <trkpt lat="45.69721" lon="4.64953">
        <ele>514</ele>
        <time>2014-10-18T19:53:37.670Z</time>
      </trkpt>
      <trkpt lat="45.69723" lon="4.64958">
        <ele>514</ele>
        <time>2014-10-18T19:53:38.670Z</time>
      </trkpt>
      <trkpt lat="45.69727" lon="4.64968">
        <ele>514</ele>
        <time>2014-10-18T19:53:41.641Z</time>
      </trkpt>
      <trkpt lat="45.69728" lon="4.64975">
        <ele>514</ele>
        <time>2014-10-18T19:53:42.634Z</time>
      </trkpt>
      <trkpt lat="45.69728" lon="4.64986">
        <ele>514</ele>
        <time>2014-10-18T19:53:44.631Z</time>
      </trkpt>
      <trkpt lat="45.69729" lon="4.6499">
        <ele>515</ele>
        <time>2014-10-18T19:53:45.627Z</time>
      </trkpt>
      <trkpt lat="45.6973" lon="4.64996">
        <ele>515</ele>
        <time>2014-10-18T19:53:47.641Z</time>
      </trkpt>
      <trkpt lat="45.6973" lon="4.65003">
        <ele>516</ele>
        <time>2014-10-18T19:53:48.623Z</time>
      </trkpt>
      <trkpt lat="45.6973" lon="4.65011">
        <ele>516</ele>
        <time>2014-10-18T19:53:50.643Z</time>
      </trkpt>
      <trkpt lat="45.69731" lon="4.65016">
        <ele>516</ele>
        <time>2014-10-18T19:53:51.636Z</time>
      </trkpt>
      <trkpt lat="45.69731" lon="4.65024">
        <ele>516</ele>
        <time>2014-10-18T19:53:53.641Z</time>
      </trkpt>
      <trkpt lat="45.69731" lon="4.65031">
        <ele>516</ele>
        <time>2014-10-18T19:53:54.647Z</time>
      </trkpt>
      <trkpt lat="45.69732" lon="4.65041">
        <ele>516</ele>
        <time>2014-10-18T19:53:57.639Z</time>
      </trkpt>
      <trkpt lat="45.69733" lon="4.65046">
        <ele>516</ele>
        <time>2014-10-18T19:53:58.647Z</time>
      </trkpt>
      <trkpt lat="45.6974" lon="4.6505">
        <ele>516</ele>
        <time>2014-10-18T19:54:00.643Z</time>
      </trkpt>
      <trkpt lat="45.69742" lon="4.65052">
        <ele>516</ele>
        <time>2014-10-18T19:54:01.645Z</time>
      </trkpt>
      <trkpt lat="45.69749" lon="4.65054">
        <ele>516</ele>
        <time>2014-10-18T19:54:05.654Z</time>
      </trkpt>
      <trkpt lat="45.6975" lon="4.65056">
        <ele>520</ele>
        <time>2014-10-18T19:54:06.640Z</time>
      </trkpt>
      <trkpt lat="45.69759" lon="4.65059">
        <ele>520</ele>
        <time>2014-10-18T19:54:11.641Z</time>
      </trkpt>
      <trkpt lat="45.6976" lon="4.65059">
        <ele>520</ele>
        <time>2014-10-18T19:54:12.648Z</time>
      </trkpt>
      <trkpt lat="45.69762" lon="4.65069">
        <ele>520</ele>
        <time>2014-10-18T19:54:54.638Z</time>
      </trkpt>
      <trkpt lat="45.69761" lon="4.65071">
        <ele>520</ele>
        <time>2014-10-18T19:54:55.641Z</time>
      </trkpt>
      <trkpt lat="45.69757" lon="4.65082">
        <ele>519</ele>
        <time>2014-10-18T19:54:59.642Z</time>
      </trkpt>
      <trkpt lat="45.69757" lon="4.65084">
        <ele>518</ele>
        <time>2014-10-18T19:55:00.652Z</time>
      </trkpt>
      <trkpt lat="45.69754" lon="4.65095">
        <ele>517</ele>
        <time>2014-10-18T19:55:02.640Z</time>
      </trkpt>
      <trkpt lat="45.69754" lon="4.65099">
        <ele>517</ele>
        <time>2014-10-18T19:55:03.645Z</time>
      </trkpt>
      <trkpt lat="45.69751" lon="4.6511">
        <ele>516</ele>
        <time>2014-10-18T19:55:05.641Z</time>
      </trkpt>
      <trkpt lat="45.6975" lon="4.65114">
        <ele>516</ele>
        <time>2014-10-18T19:55:06.638Z</time>
      </trkpt>
      <trkpt lat="45.69746" lon="4.65125">
        <ele>515</ele>
        <time>2014-10-18T19:55:10.638Z</time>
      </trkpt>
      <trkpt lat="45.69745" lon="4.65127">
        <ele>515</ele>
        <time>2014-10-18T19:55:11.657Z</time>
      </trkpt>
      <trkpt lat="45.69744" lon="4.65136">
        <ele>514</ele>
        <time>2014-10-18T19:55:13.649Z</time>
      </trkpt>
      <trkpt lat="45.69743" lon="4.6514">
        <ele>514</ele>
        <time>2014-10-18T19:55:14.640Z</time>
      </trkpt>
      <trkpt lat="45.69736" lon="4.65149">
        <ele>514</ele>
        <time>2014-10-18T19:55:17.639Z</time>
      </trkpt>
      <trkpt lat="45.69734" lon="4.65151">
        <ele>514</ele>
        <time>2014-10-18T19:55:18.650Z</time>
      </trkpt>
      <trkpt lat="45.69731" lon="4.65159">
        <ele>513</ele>
        <time>2014-10-18T19:55:20.637Z</time>
      </trkpt>
      <trkpt lat="45.6973" lon="4.65164">
        <ele>513</ele>
        <time>2014-10-18T19:55:21.648Z</time>
      </trkpt>
      <trkpt lat="45.69725" lon="4.65172">
        <ele>509</ele>
        <time>2014-10-18T19:55:23.639Z</time>
      </trkpt>
      <trkpt lat="45.69723" lon="4.65177">
        <ele>509</ele>
        <time>2014-10-18T19:55:24.638Z</time>
      </trkpt>
      <trkpt lat="45.6972" lon="4.65187">
        <ele>509</ele>
        <time>2014-10-18T19:55:28.643Z</time>
      </trkpt>
      <trkpt lat="45.69718" lon="4.65192">
        <ele>508</ele>
        <time>2014-10-18T19:55:29.648Z</time>
      </trkpt>
      <trkpt lat="45.69715" lon="4.652">
        <ele>508</ele>
        <time>2014-10-18T19:55:32.644Z</time>
      </trkpt>
      <trkpt lat="45.69714" lon="4.65204">
        <ele>508</ele>
        <time>2014-10-18T19:55:33.661Z</time>
      </trkpt>
      <trkpt lat="45.69713" lon="4.65213">
        <ele>507</ele>
        <time>2014-10-18T19:55:36.631Z</time>
      </trkpt>
      <trkpt lat="45.69711" lon="4.65217">
        <ele>507</ele>
        <time>2014-10-18T19:55:37.634Z</time>
      </trkpt>
      <trkpt lat="45.69706" lon="4.65226">
        <ele>506</ele>
        <time>2014-10-18T19:55:40.641Z</time>
      </trkpt>
      <trkpt lat="45.69706" lon="4.6523">
        <ele>506</ele>
        <time>2014-10-18T19:55:41.641Z</time>
      </trkpt>
      <trkpt lat="45.69712" lon="4.65239">
        <ele>506</ele>
        <time>2014-10-18T19:55:45.661Z</time>
      </trkpt>
      <trkpt lat="45.69714" lon="4.65241">
        <ele>506</ele>
        <time>2014-10-18T19:55:46.639Z</time>
      </trkpt>
      <trkpt lat="45.69719" lon="4.6525">
        <ele>506</ele>
        <time>2014-10-18T19:55:50.647Z</time>
      </trkpt>
      <trkpt lat="45.69721" lon="4.65254">
        <ele>498</ele>
        <time>2014-10-18T19:55:51.638Z</time>
      </trkpt>
      <trkpt lat="45.69728" lon="4.65262">
        <ele>498</ele>
        <time>2014-10-18T19:55:57.007Z</time>
      </trkpt>
      <trkpt lat="45.6973" lon="4.65265">
        <ele>498</ele>
        <time>2014-10-18T19:55:57.638Z</time>
      </trkpt>
      <trkpt lat="45.69731" lon="4.65275">
        <ele>497</ele>
        <time>2014-10-18T19:56:00.641Z</time>
      </trkpt>
      <trkpt lat="45.69731" lon="4.65277">
        <ele>497</ele>
        <time>2014-10-18T19:56:01.641Z</time>
      </trkpt>
      <trkpt lat="45.69736" lon="4.65286">
        <ele>496</ele>
        <time>2014-10-18T19:56:04.659Z</time>
      </trkpt>
      <trkpt lat="45.69737" lon="4.6529">
        <ele>496</ele>
        <time>2014-10-18T19:56:05.648Z</time>
      </trkpt>
      <trkpt lat="45.69742" lon="4.65299">
        <ele>495</ele>
        <time>2014-10-18T19:56:09.635Z</time>
      </trkpt>
      <trkpt lat="45.69744" lon="4.65303">
        <ele>495</ele>
        <time>2014-10-18T19:56:10.653Z</time>
      </trkpt>
      <trkpt lat="45.69749" lon="4.65307">
        <ele>494</ele>
        <time>2014-10-18T19:56:12.637Z</time>
      </trkpt>
      <trkpt lat="45.69752" lon="4.6531">
        <ele>493</ele>
        <time>2014-10-18T19:56:13.636Z</time>
      </trkpt>
      <trkpt lat="45.69759" lon="4.65318">
        <ele>492</ele>
        <time>2014-10-18T19:56:16.643Z</time>
      </trkpt>
      <trkpt lat="45.69759" lon="4.65322">
        <ele>492</ele>
        <time>2014-10-18T19:56:17.660Z</time>
      </trkpt>
      <trkpt lat="45.69758" lon="4.65331">
        <ele>491</ele>
        <time>2014-10-18T19:56:19.649Z</time>
      </trkpt>
      <trkpt lat="45.69757" lon="4.65338">
        <ele>488</ele>
        <time>2014-10-18T19:56:20.645Z</time>
      </trkpt>
      <trkpt lat="45.69754" lon="4.65346">
        <ele>487</ele>
        <time>2014-10-18T19:56:22.641Z</time>
      </trkpt>
      <trkpt lat="45.69752" lon="4.65353">
        <ele>486</ele>
        <time>2014-10-18T19:56:23.641Z</time>
      </trkpt>
      <trkpt lat="45.69754" lon="4.65363">
        <ele>484</ele>
        <time>2014-10-18T19:56:27.662Z</time>
      </trkpt>
      <trkpt lat="45.69754" lon="4.65365">
        <ele>484</ele>
        <time>2014-10-18T19:56:28.645Z</time>
      </trkpt>
      <trkpt lat="45.69755" lon="4.65376">
        <ele>483</ele>
        <time>2014-10-18T19:57:37.639Z</time>
      </trkpt>
      <trkpt lat="45.69755" lon="4.65378">
        <ele>482</ele>
        <time>2014-10-18T19:57:38.641Z</time>
      </trkpt>
      <trkpt lat="45.69757" lon="4.65389">
        <ele>481</ele>
        <time>2014-10-18T19:57:40.639Z</time>
      </trkpt>
      <trkpt lat="45.69758" lon="4.65395">
        <ele>481</ele>
        <time>2014-10-18T19:57:41.646Z</time>
      </trkpt>
      <trkpt lat="45.69758" lon="4.65402">
        <ele>480</ele>
        <time>2014-10-18T19:57:42.638Z</time>
      </trkpt>
      <trkpt lat="45.69758" lon="4.65408">
        <ele>480</ele>
        <time>2014-10-18T19:57:43.638Z</time>
      </trkpt>
      <trkpt lat="45.69759" lon="4.65415">
        <ele>480</ele>
        <time>2014-10-18T19:57:44.638Z</time>
      </trkpt>
      <trkpt lat="45.6976" lon="4.65421">
        <ele>476</ele>
        <time>2014-10-18T19:57:45.643Z</time>
      </trkpt>
      <trkpt lat="45.69762" lon="4.65425">
        <ele>475</ele>
        <time>2014-10-18T19:57:46.645Z</time>
      </trkpt>
      <trkpt lat="45.69765" lon="4.65434">
        <ele>474</ele>
        <time>2014-10-18T19:57:47.663Z</time>
      </trkpt>
      <trkpt lat="45.69769" lon="4.65445">
        <ele>473</ele>
        <time>2014-10-18T19:57:48.649Z</time>
      </trkpt>
      <trkpt lat="45.6977" lon="4.65456">
        <ele>472</ele>
        <time>2014-10-18T19:57:49.650Z</time>
      </trkpt>
      <trkpt lat="45.69773" lon="4.65462">
        <ele>471</ele>
        <time>2014-10-18T19:57:50.641Z</time>
      </trkpt>
      <trkpt lat="45.69776" lon="4.65468">
        <ele>471</ele>
        <time>2014-10-18T19:57:51.644Z</time>
      </trkpt>
      <trkpt lat="45.69779" lon="4.65477">
        <ele>470</ele>
        <time>2014-10-18T19:57:52.640Z</time>
      </trkpt>
      <trkpt lat="45.69782" lon="4.65486">
        <ele>470</ele>
        <time>2014-10-18T19:57:53.641Z</time>
      </trkpt>
      <trkpt lat="45.69786" lon="4.65492">
        <ele>470</ele>
        <time>2014-10-18T19:57:54.643Z</time>
      </trkpt>
      <trkpt lat="45.6979" lon="4.65498">
        <ele>470</ele>
        <time>2014-10-18T19:57:55.647Z</time>
      </trkpt>
      <trkpt lat="45.69792" lon="4.65507">
        <ele>463</ele>
        <time>2014-10-18T19:57:56.645Z</time>
      </trkpt>
      <trkpt lat="45.69795" lon="4.65516">
        <ele>463</ele>
        <time>2014-10-18T19:57:57.645Z</time>
      </trkpt>
      <trkpt lat="45.69798" lon="4.65522">
        <ele>463</ele>
        <time>2014-10-18T19:57:58.641Z</time>
      </trkpt>
      <trkpt lat="45.69799" lon="4.65531">
        <ele>462</ele>
        <time>2014-10-18T19:57:59.645Z</time>
      </trkpt>
      <trkpt lat="45.69801" lon="4.65539">
        <ele>462</ele>
        <time>2014-10-18T19:58:00.639Z</time>
      </trkpt>
      <trkpt lat="45.69802" lon="4.65546">
        <ele>461</ele>
        <time>2014-10-18T19:58:01.657Z</time>
      </trkpt>
      <trkpt lat="45.69804" lon="4.65554">
        <ele>461</ele>
        <time>2014-10-18T19:58:02.645Z</time>
      </trkpt>
      <trkpt lat="45.69805" lon="4.65563">
        <ele>460</ele>
        <time>2014-10-18T19:58:03.638Z</time>
      </trkpt>
      <trkpt lat="45.69807" lon="4.65574">
        <ele>460</ele>
        <time>2014-10-18T19:58:04.640Z</time>
      </trkpt>
      <trkpt lat="45.69808" lon="4.65584">
        <ele>454</ele>
        <time>2014-10-18T19:58:05.637Z</time>
      </trkpt>
      <trkpt lat="45.69809" lon="4.65593">
        <ele>454</ele>
        <time>2014-10-18T19:58:06.632Z</time>
      </trkpt>
      <trkpt lat="45.6981" lon="4.65601">
        <ele>454</ele>
        <time>2014-10-18T19:58:07.644Z</time>
      </trkpt>
      <trkpt lat="45.69811" lon="4.65612">
        <ele>453</ele>
        <time>2014-10-18T19:58:08.639Z</time>
      </trkpt>
      <trkpt lat="45.69811" lon="4.65623">
        <ele>452</ele>
        <time>2014-10-18T19:58:09.642Z</time>
      </trkpt>
      <trkpt lat="45.69813" lon="4.65631">
        <ele>452</ele>
        <time>2014-10-18T19:58:10.639Z</time>
      </trkpt>
      <trkpt lat="45.69818" lon="4.65642">
        <ele>451</ele>
        <time>2014-10-18T19:58:11.639Z</time>
      </trkpt>
      <trkpt lat="45.69824" lon="4.65651">
        <ele>449</ele>
        <time>2014-10-18T19:58:12.636Z</time>
      </trkpt>
      <trkpt lat="45.69836" lon="4.65655">
        <ele>447</ele>
        <time>2014-10-18T19:58:13.643Z</time>
      </trkpt>
      <trkpt lat="45.69844" lon="4.65664">
        <ele>447</ele>
        <time>2014-10-18T19:58:14.636Z</time>
      </trkpt>
      <trkpt lat="45.69852" lon="4.6567">
        <ele>443</ele>
        <time>2014-10-18T19:58:15.643Z</time>
      </trkpt>
      <trkpt lat="45.6986" lon="4.65677">
        <ele>442</ele>
        <time>2014-10-18T19:58:16.645Z</time>
      </trkpt>
      <trkpt lat="45.69867" lon="4.65679">
        <ele>441</ele>
        <time>2014-10-18T19:58:17.629Z</time>
      </trkpt>
      <trkpt lat="45.69875" lon="4.65674">
        <ele>441</ele>
        <time>2014-10-18T19:58:18.631Z</time>
      </trkpt>
      <trkpt lat="45.69882" lon="4.65674">
        <ele>441</ele>
        <time>2014-10-18T19:58:19.650Z</time>
      </trkpt>
      <trkpt lat="45.69889" lon="4.65674">
        <ele>441</ele>
        <time>2014-10-18T19:58:20.640Z</time>
      </trkpt>
      <trkpt lat="45.69893" lon="4.65677">
        <ele>441</ele>
        <time>2014-10-18T19:58:21.642Z</time>
      </trkpt>
      <trkpt lat="45.69895" lon="4.65681">
        <ele>441</ele>
        <time>2014-10-18T19:58:22.642Z</time>
      </trkpt>
      <trkpt lat="45.69895" lon="4.65689">
        <ele>440</ele>
        <time>2014-10-18T19:58:23.642Z</time>
      </trkpt>
      <trkpt lat="45.69893" lon="4.65698">
        <ele>440</ele>
        <time>2014-10-18T19:58:24.641Z</time>
      </trkpt>
      <trkpt lat="45.69891" lon="4.65707">
        <ele>440</ele>
        <time>2014-10-18T19:58:25.645Z</time>
      </trkpt>
      <trkpt lat="45.69891" lon="4.65717">
        <ele>439</ele>
        <time>2014-10-18T19:58:26.640Z</time>
      </trkpt>
      <trkpt lat="45.6989" lon="4.65728">
        <ele>439</ele>
        <time>2014-10-18T19:58:27.641Z</time>
      </trkpt>
      <trkpt lat="45.69889" lon="4.65741">
        <ele>438</ele>
        <time>2014-10-18T19:58:28.639Z</time>
      </trkpt>
      <trkpt lat="45.69888" lon="4.65754">
        <ele>434</ele>
        <time>2014-10-18T19:58:29.639Z</time>
      </trkpt>
      <trkpt lat="45.69888" lon="4.65765">
        <ele>434</ele>
        <time>2014-10-18T19:58:30.641Z</time>
      </trkpt>
      <trkpt lat="45.69887" lon="4.65775">
        <ele>433</ele>
        <time>2014-10-18T19:58:31.644Z</time>
      </trkpt>
      <trkpt lat="45.69885" lon="4.65786">
        <ele>433</ele>
        <time>2014-10-18T19:58:32.641Z</time>
      </trkpt>
      <trkpt lat="45.69887" lon="4.65799">
        <ele>432</ele>
        <time>2014-10-18T19:58:33.641Z</time>
      </trkpt>
      <trkpt lat="45.69888" lon="4.6581">
        <ele>432</ele>
        <time>2014-10-18T19:58:34.641Z</time>
      </trkpt>
      <trkpt lat="45.69888" lon="4.65822">
        <ele>431</ele>
        <time>2014-10-18T19:58:35.641Z</time>
      </trkpt>
      <trkpt lat="45.69889" lon="4.65835">
        <ele>428</ele>
        <time>2014-10-18T19:58:36.646Z</time>
      </trkpt>
      <trkpt lat="45.69889" lon="4.65846">
        <ele>428</ele>
        <time>2014-10-18T19:58:37.640Z</time>
      </trkpt>
      <trkpt lat="45.69888" lon="4.65857">
        <ele>428</ele>
        <time>2014-10-18T19:58:38.645Z</time>
      </trkpt>
      <trkpt lat="45.69887" lon="4.6587">
        <ele>427</ele>
        <time>2014-10-18T19:58:39.641Z</time>
      </trkpt>
      <trkpt lat="45.69885" lon="4.65878">
        <ele>427</ele>
        <time>2014-10-18T19:58:40.641Z</time>
      </trkpt>
      <trkpt lat="45.69884" lon="4.65887">
        <ele>427</ele>
        <time>2014-10-18T19:58:41.641Z</time>
      </trkpt>
      <trkpt lat="45.69883" lon="4.65895">
        <ele>427</ele>
        <time>2014-10-18T19:58:42.648Z</time>
      </trkpt>
      <trkpt lat="45.69882" lon="4.65902">
        <ele>427</ele>
        <time>2014-10-18T19:58:43.642Z</time>
      </trkpt>
      <trkpt lat="45.69881" lon="4.65908">
        <ele>427</ele>
        <time>2014-10-18T19:58:44.644Z</time>
      </trkpt>
      <trkpt lat="45.6988" lon="4.65915">
        <ele>427</ele>
        <time>2014-10-18T19:58:45.641Z</time>
      </trkpt>
      <trkpt lat="45.69879" lon="4.65921">
        <ele>424</ele>
        <time>2014-10-18T19:58:46.657Z</time>
      </trkpt>
      <trkpt lat="45.69878" lon="4.65928">
        <ele>424</ele>
        <time>2014-10-18T19:58:47.644Z</time>
      </trkpt>
      <trkpt lat="45.69877" lon="4.65934">
        <ele>424</ele>
        <time>2014-10-18T19:58:48.640Z</time>
      </trkpt>
      <trkpt lat="45.69877" lon="4.6594">
        <ele>424</ele>
        <time>2014-10-18T19:58:49.657Z</time>
      </trkpt>
      <trkpt lat="45.69877" lon="4.65951">
        <ele>423</ele>
        <time>2014-10-18T19:58:51.639Z</time>
      </trkpt>
      <trkpt lat="45.69878" lon="4.65955">
        <ele>423</ele>
        <time>2014-10-18T19:58:52.641Z</time>
      </trkpt>
      <trkpt lat="45.69878" lon="4.65966">
        <ele>423</ele>
        <time>2014-10-18T19:58:54.632Z</time>
      </trkpt>
      <trkpt lat="45.69877" lon="4.65971">
        <ele>423</ele>
        <time>2014-10-18T19:58:55.636Z</time>
      </trkpt>
      <trkpt lat="45.69875" lon="4.65979">
        <ele>423</ele>
        <time>2014-10-18T19:58:57.651Z</time>
      </trkpt>
      <trkpt lat="45.69875" lon="4.65983">
        <ele>423</ele>
        <time>2014-10-18T19:58:58.634Z</time>
      </trkpt>
      <trkpt lat="45.69874" lon="4.65994">
        <ele>422</ele>
        <time>2014-10-18T19:59:01.642Z</time>
      </trkpt>
      <trkpt lat="45.69873" lon="4.65998">
        <ele>422</ele>
        <time>2014-10-18T19:59:02.639Z</time>
      </trkpt>
      <trkpt lat="45.69869" lon="4.66009">
        <ele>419</ele>
        <time>2014-10-18T19:59:54.642Z</time>
      </trkpt>
      <trkpt lat="45.69869" lon="4.66013">
        <ele>419</ele>
        <time>2014-10-18T19:59:55.654Z</time>
      </trkpt>
      <trkpt lat="45.69868" lon="4.66024">
        <ele>418</ele>
        <time>2014-10-18T19:59:57.641Z</time>
      </trkpt>
      <trkpt lat="45.69867" lon="4.66031">
        <ele>418</ele>
        <time>2014-10-18T19:59:58.644Z</time>
      </trkpt>
      <trkpt lat="45.69866" lon="4.66037">
        <ele>418</ele>
        <time>2014-10-18T19:59:59.640Z</time>
      </trkpt>
      <trkpt lat="45.69865" lon="4.66046">
        <ele>418</ele>
        <time>2014-10-18T20:00:00.635Z</time>
      </trkpt>
      <trkpt lat="45.69863" lon="4.66054">
        <ele>417</ele>
        <time>2014-10-18T20:00:01.642Z</time>
      </trkpt>
      <trkpt lat="45.69861" lon="4.66065">
        <ele>417</ele>
        <time>2014-10-18T20:00:02.637Z</time>
      </trkpt>
      <trkpt lat="45.69859" lon="4.66076">
        <ele>416</ele>
        <time>2014-10-18T20:00:03.643Z</time>
      </trkpt>
      <trkpt lat="45.69857" lon="4.66086">
        <ele>413</ele>
        <time>2014-10-18T20:00:04.641Z</time>
      </trkpt>
      <trkpt lat="45.69854" lon="4.66097">
        <ele>412</ele>
        <time>2014-10-18T20:00:05.639Z</time>
      </trkpt>
      <trkpt lat="45.69853" lon="4.6611">
        <ele>412</ele>
        <time>2014-10-18T20:00:06.643Z</time>
      </trkpt>
      <trkpt lat="45.69851" lon="4.66123">
        <ele>412</ele>
        <time>2014-10-18T20:00:07.637Z</time>
      </trkpt>
      <trkpt lat="45.6985" lon="4.66136">
        <ele>411</ele>
        <time>2014-10-18T20:00:08.640Z</time>
      </trkpt>
      <trkpt lat="45.69849" lon="4.66149">
        <ele>410</ele>
        <time>2014-10-18T20:00:09.644Z</time>
      </trkpt>
      <trkpt lat="45.69849" lon="4.66161">
        <ele>410</ele>
        <time>2014-10-18T20:00:10.640Z</time>
      </trkpt>
      <trkpt lat="45.69849" lon="4.66174">
        <ele>407</ele>
        <time>2014-10-18T20:00:11.640Z</time>
      </trkpt>
      <trkpt lat="45.69849" lon="4.66187">
        <ele>407</ele>
        <time>2014-10-18T20:00:12.640Z</time>
      </trkpt>
      <trkpt lat="45.69849" lon="4.66198">
        <ele>407</ele>
        <time>2014-10-18T20:00:13.640Z</time>
      </trkpt>
      <trkpt lat="45.69848" lon="4.66209">
        <ele>407</ele>
        <time>2014-10-18T20:00:14.643Z</time>
      </trkpt>
      <trkpt lat="45.69848" lon="4.66222">
        <ele>406</ele>
        <time>2014-10-18T20:00:15.632Z</time>
      </trkpt>
      <trkpt lat="45.69848" lon="4.66232">
        <ele>406</ele>
        <time>2014-10-18T20:00:16.633Z</time>
      </trkpt>
      <trkpt lat="45.6985" lon="4.66243">
        <ele>405</ele>
        <time>2014-10-18T20:00:17.638Z</time>
      </trkpt>
      <trkpt lat="45.6985" lon="4.66254">
        <ele>404</ele>
        <time>2014-10-18T20:00:18.630Z</time>
      </trkpt>
      <trkpt lat="45.69849" lon="4.66262">
        <ele>404</ele>
        <time>2014-10-18T20:00:19.632Z</time>
      </trkpt>
      <trkpt lat="45.69848" lon="4.66273">
        <ele>404</ele>
        <time>2014-10-18T20:00:21.640Z</time>
      </trkpt>
      <trkpt lat="45.69847" lon="4.66275">
        <ele>404</ele>
        <time>2014-10-18T20:00:22.640Z</time>
      </trkpt>
      <trkpt lat="45.69844" lon="4.66286">
        <ele>405</ele>
        <time>2014-10-18T20:00:25.639Z</time>
      </trkpt>
      <trkpt lat="45.69843" lon="4.6629">
        <ele>405</ele>
        <time>2014-10-18T20:00:26.659Z</time>
      </trkpt>
      <trkpt lat="45.69842" lon="4.66299">
        <ele>404</ele>
        <time>2014-10-18T20:00:27.639Z</time>
      </trkpt>
      <trkpt lat="45.6984" lon="4.66305">
        <ele>404</ele>
        <time>2014-10-18T20:00:28.643Z</time>
      </trkpt>
      <trkpt lat="45.69839" lon="4.66312">
        <ele>404</ele>
        <time>2014-10-18T20:00:29.649Z</time>
      </trkpt>
      <trkpt lat="45.69838" lon="4.66318">
        <ele>404</ele>
        <time>2014-10-18T20:00:30.641Z</time>
      </trkpt>
      <trkpt lat="45.69836" lon="4.66327">
        <ele>404</ele>
        <time>2014-10-18T20:00:31.640Z</time>
      </trkpt>
      <trkpt lat="45.69834" lon="4.66333">
        <ele>404</ele>
        <time>2014-10-18T20:00:32.642Z</time>
      </trkpt>
      <trkpt lat="45.69833" lon="4.6634">
        <ele>403</ele>
        <time>2014-10-18T20:00:33.639Z</time>
      </trkpt>
      <trkpt lat="45.69831" lon="4.66346">
        <ele>403</ele>
        <time>2014-10-18T20:00:34.639Z</time>
      </trkpt>
      <trkpt lat="45.6983" lon="4.66357">
        <ele>402</ele>
        <time>2014-10-18T20:00:35.639Z</time>
      </trkpt>
      <trkpt lat="45.69829" lon="4.66365">
        <ele>402</ele>
        <time>2014-10-18T20:00:36.663Z</time>
      </trkpt>
      <trkpt lat="45.69828" lon="4.66372">
        <ele>402</ele>
        <time>2014-10-18T20:00:37.638Z</time>
      </trkpt>
      <trkpt lat="45.69825" lon="4.66383">
        <ele>402</ele>
        <time>2014-10-18T20:00:38.638Z</time>
      </trkpt>
      <trkpt lat="45.69823" lon="4.66391">
        <ele>402</ele>
        <time>2014-10-18T20:00:39.644Z</time>
      </trkpt>
      <trkpt lat="45.69821" lon="4.66402">
        <ele>402</ele>
        <time>2014-10-18T20:00:40.641Z</time>
      </trkpt>
      <trkpt lat="45.69819" lon="4.6641">
        <ele>402</ele>
        <time>2014-10-18T20:00:41.639Z</time>
      </trkpt>
      <trkpt lat="45.69818" lon="4.66419">
        <ele>403</ele>
        <time>2014-10-18T20:00:42.639Z</time>
      </trkpt>
      <trkpt lat="45.69816" lon="4.66428">
        <ele>403</ele>
        <time>2014-10-18T20:00:43.638Z</time>
      </trkpt>
      <trkpt lat="45.69814" lon="4.66434">
        <ele>403</ele>
        <time>2014-10-18T20:00:44.640Z</time>
      </trkpt>
      <trkpt lat="45.69811" lon="4.66443">
        <ele>403</ele>
        <time>2014-10-18T20:00:45.639Z</time>
      </trkpt>
      <trkpt lat="45.69808" lon="4.66451">
        <ele>403</ele>
        <time>2014-10-18T20:00:46.643Z</time>
      </trkpt>
      <trkpt lat="45.69806" lon="4.6646">
        <ele>404</ele>
        <time>2014-10-18T20:00:47.634Z</time>
      </trkpt>
      <trkpt lat="45.69803" lon="4.66468">
        <ele>404</ele>
        <time>2014-10-18T20:00:48.640Z</time>
      </trkpt>
      <trkpt lat="45.69801" lon="4.66477">
        <ele>404</ele>
        <time>2014-10-18T20:00:49.640Z</time>
      </trkpt>
      <trkpt lat="45.69798" lon="4.66486">
        <ele>404</ele>
        <time>2014-10-18T20:00:50.639Z</time>
      </trkpt>
      <trkpt lat="45.69795" lon="4.66494">
        <ele>404</ele>
        <time>2014-10-18T20:00:51.637Z</time>
      </trkpt>
      <trkpt lat="45.69793" lon="4.66501">
        <ele>406</ele>
        <time>2014-10-18T20:00:52.637Z</time>
      </trkpt>
      <trkpt lat="45.6979" lon="4.66509">
        <ele>406</ele>
        <time>2014-10-18T20:00:53.642Z</time>
      </trkpt>
      <trkpt lat="45.69787" lon="4.66518">
        <ele>407</ele>
        <time>2014-10-18T20:00:54.639Z</time>
      </trkpt>
      <trkpt lat="45.69785" lon="4.66524">
        <ele>407</ele>
        <time>2014-10-18T20:00:55.639Z</time>
      </trkpt>
      <trkpt lat="45.69781" lon="4.66533">
        <ele>407</ele>
        <time>2014-10-18T20:00:56.643Z</time>
      </trkpt>
      <trkpt lat="45.69778" lon="4.66539">
        <ele>407</ele>
        <time>2014-10-18T20:00:57.644Z</time>
      </trkpt>
      <trkpt lat="45.69775" lon="4.66546">
        <ele>407</ele>
        <time>2014-10-18T20:00:58.636Z</time>
      </trkpt>
      <trkpt lat="45.69773" lon="4.66552">
        <ele>407</ele>
        <time>2014-10-18T20:00:59.631Z</time>
      </trkpt>
      <trkpt lat="45.69771" lon="4.66561">
        <ele>407</ele>
        <time>2014-10-18T20:01:00.641Z</time>
      </trkpt>
      <trkpt lat="45.69767" lon="4.66567">
        <ele>407</ele>
        <time>2014-10-18T20:01:01.640Z</time>
      </trkpt>
      <trkpt lat="45.69764" lon="4.66576">
        <ele>408</ele>
        <time>2014-10-18T20:01:02.640Z</time>
      </trkpt>
      <trkpt lat="45.69761" lon="4.66582">
        <ele>408</ele>
        <time>2014-10-18T20:01:03.641Z</time>
      </trkpt>
      <trkpt lat="45.69758" lon="4.66591">
        <ele>407</ele>
        <time>2014-10-18T20:01:04.640Z</time>
      </trkpt>
      <trkpt lat="45.69757" lon="4.66599">
        <ele>406</ele>
        <time>2014-10-18T20:01:05.644Z</time>
      </trkpt>
      <trkpt lat="45.69755" lon="4.6661">
        <ele>405</ele>
        <time>2014-10-18T20:01:06.642Z</time>
      </trkpt>
      <trkpt lat="45.69754" lon="4.66619">
        <ele>404</ele>
        <time>2014-10-18T20:01:07.641Z</time>
      </trkpt>
      <trkpt lat="45.69754" lon="4.66629">
        <ele>403</ele>
        <time>2014-10-18T20:01:08.643Z</time>
      </trkpt>
      <trkpt lat="45.69752" lon="4.66638">
        <ele>402</ele>
        <time>2014-10-18T20:01:09.637Z</time>
      </trkpt>
      <trkpt lat="45.69752" lon="4.66649">
        <ele>401</ele>
        <time>2014-10-18T20:01:10.639Z</time>
      </trkpt>
      <trkpt lat="45.69752" lon="4.66659">
        <ele>400</ele>
        <time>2014-10-18T20:01:11.641Z</time>
      </trkpt>
      <trkpt lat="45.69752" lon="4.6667">
        <ele>399</ele>
        <time>2014-10-18T20:01:12.639Z</time>
      </trkpt>
      <trkpt lat="45.69751" lon="4.66681">
        <ele>398</ele>
        <time>2014-10-18T20:01:13.634Z</time>
      </trkpt>
      <trkpt lat="45.69751" lon="4.66691">
        <ele>397</ele>
        <time>2014-10-18T20:01:14.656Z</time>
      </trkpt>
      <trkpt lat="45.69751" lon="4.66702">
        <ele>396</ele>
        <time>2014-10-18T20:01:15.639Z</time>
      </trkpt>
      <trkpt lat="45.69751" lon="4.66715">
        <ele>396</ele>
        <time>2014-10-18T20:01:16.644Z</time>
      </trkpt>
      <trkpt lat="45.69751" lon="4.66728">
        <ele>395</ele>
        <time>2014-10-18T20:01:17.642Z</time>
      </trkpt>
      <trkpt lat="45.69751" lon="4.66743">
        <ele>394</ele>
        <time>2014-10-18T20:01:18.639Z</time>
      </trkpt>
      <trkpt lat="45.6975" lon="4.66756">
        <ele>393</ele>
        <time>2014-10-18T20:01:19.645Z</time>
      </trkpt>
      <trkpt lat="45.6975" lon="4.66767">
        <ele>392</ele>
        <time>2014-10-18T20:01:20.642Z</time>
      </trkpt>
      <trkpt lat="45.69751" lon="4.66782">
        <ele>391</ele>
        <time>2014-10-18T20:01:21.643Z</time>
      </trkpt>
      <trkpt lat="45.6975" lon="4.66794">
        <ele>391</ele>
        <time>2014-10-18T20:01:22.638Z</time>
      </trkpt>
      <trkpt lat="45.6975" lon="4.66805">
        <ele>390</ele>
        <time>2014-10-18T20:01:23.636Z</time>
      </trkpt>
      <trkpt lat="45.6975" lon="4.66816">
        <ele>390</ele>
        <time>2014-10-18T20:01:24.644Z</time>
      </trkpt>
      <trkpt lat="45.6975" lon="4.66829">
        <ele>389</ele>
        <time>2014-10-18T20:01:25.643Z</time>
      </trkpt>
      <trkpt lat="45.6975" lon="4.66842">
        <ele>387</ele>
        <time>2014-10-18T20:01:26.641Z</time>
      </trkpt>
      <trkpt lat="45.6975" lon="4.66857">
        <ele>387</ele>
        <time>2014-10-18T20:01:27.639Z</time>
      </trkpt>
      <trkpt lat="45.69751" lon="4.6687">
        <ele>386</ele>
        <time>2014-10-18T20:01:28.642Z</time>
      </trkpt>
      <trkpt lat="45.69751" lon="4.66885">
        <ele>386</ele>
        <time>2014-10-18T20:01:29.634Z</time>
      </trkpt>
      <trkpt lat="45.69752" lon="4.66897">
        <ele>385</ele>
        <time>2014-10-18T20:01:30.628Z</time>
      </trkpt>
      <trkpt lat="45.69752" lon="4.66915">
        <ele>384</ele>
        <time>2014-10-18T20:01:31.620Z</time>
      </trkpt>
      <trkpt lat="45.69752" lon="4.6693">
        <ele>383</ele>
        <time>2014-10-18T20:01:32.631Z</time>
      </trkpt>
      <trkpt lat="45.69752" lon="4.66947">
        <ele>382</ele>
        <time>2014-10-18T20:01:33.629Z</time>
      </trkpt>
      <trkpt lat="45.69752" lon="4.66962">
        <ele>382</ele>
        <time>2014-10-18T20:01:34.634Z</time>
      </trkpt>
      <trkpt lat="45.69752" lon="4.66979">
        <ele>381</ele>
        <time>2014-10-18T20:01:35.625Z</time>
      </trkpt>
      <trkpt lat="45.69752" lon="4.66996">
        <ele>380</ele>
        <time>2014-10-18T20:01:36.655Z</time>
      </trkpt>
      <trkpt lat="45.69752" lon="4.67013">
        <ele>379</ele>
        <time>2014-10-18T20:01:37.661Z</time>
      </trkpt>
      <trkpt lat="45.69754" lon="4.67031">
        <ele>379</ele>
        <time>2014-10-18T20:01:38.638Z</time>
      </trkpt>
      <trkpt lat="45.69755" lon="4.67048">
        <ele>378</ele>
        <time>2014-10-18T20:01:39.663Z</time>
      </trkpt>
      <trkpt lat="45.69755" lon="4.67065">
        <ele>377</ele>
        <time>2014-10-18T20:01:40.638Z</time>
      </trkpt>
      <trkpt lat="45.69755" lon="4.67082">
        <ele>376</ele>
        <time>2014-10-18T20:01:41.639Z</time>
      </trkpt>
      <trkpt lat="45.69755" lon="4.67101">
        <ele>375</ele>
        <time>2014-10-18T20:01:42.640Z</time>
      </trkpt>
      <trkpt lat="45.69756" lon="4.67116">
        <ele>375</ele>
        <time>2014-10-18T20:01:43.638Z</time>
      </trkpt>
      <trkpt lat="45.69756" lon="4.67131">
        <ele>375</ele>
        <time>2014-10-18T20:01:44.626Z</time>
      </trkpt>
      <trkpt lat="45.69757" lon="4.67149">
        <ele>374</ele>
        <time>2014-10-18T20:01:45.613Z</time>
      </trkpt>
      <trkpt lat="45.69758" lon="4.67164">
        <ele>374</ele>
        <time>2014-10-18T20:01:46.617Z</time>
      </trkpt>
      <trkpt lat="45.69758" lon="4.67181">
        <ele>373</ele>
        <time>2014-10-18T20:01:47.648Z</time>
      </trkpt>
      <trkpt lat="45.69759" lon="4.67198">
        <ele>372</ele>
        <time>2014-10-18T20:01:48.640Z</time>
      </trkpt>
      <trkpt lat="45.69758" lon="4.67215">
        <ele>372</ele>
        <time>2014-10-18T20:01:49.640Z</time>
      </trkpt>
      <trkpt lat="45.69757" lon="4.67232">
        <ele>372</ele>
        <time>2014-10-18T20:01:50.638Z</time>
      </trkpt>
      <trkpt lat="45.69756" lon="4.67247">
        <ele>371</ele>
        <time>2014-10-18T20:01:51.625Z</time>
      </trkpt>
      <trkpt lat="45.69755" lon="4.67264">
        <ele>370</ele>
        <time>2014-10-18T20:01:52.625Z</time>
      </trkpt>
      <trkpt lat="45.69752" lon="4.67282">
        <ele>369</ele>
        <time>2014-10-18T20:01:53.623Z</time>
      </trkpt>
      <trkpt lat="45.6975" lon="4.67297">
        <ele>369</ele>
        <time>2014-10-18T20:01:54.637Z</time>
      </trkpt>
      <trkpt lat="45.69748" lon="4.67309">
        <ele>367</ele>
        <time>2014-10-18T20:01:55.639Z</time>
      </trkpt>
      <trkpt lat="45.69745" lon="4.6732">
        <ele>367</ele>
        <time>2014-10-18T20:01:56.665Z</time>
      </trkpt>
      <trkpt lat="45.69744" lon="4.67327">
        <ele>367</ele>
        <time>2014-10-18T20:01:57.650Z</time>
      </trkpt>
      <trkpt lat="45.69742" lon="4.67337">
        <ele>366</ele>
        <time>2014-10-18T20:01:58.618Z</time>
      </trkpt>
      <trkpt lat="45.69739" lon="4.67346">
        <ele>366</ele>
        <time>2014-10-18T20:01:59.609Z</time>
      </trkpt>
      <trkpt lat="45.69734" lon="4.67355">
        <ele>365</ele>
        <time>2014-10-18T20:02:00.625Z</time>
      </trkpt>
      <trkpt lat="45.69731" lon="4.67359">
        <ele>365</ele>
        <time>2014-10-18T20:02:01.633Z</time>
      </trkpt>
      <trkpt lat="45.69728" lon="4.67365">
        <ele>365</ele>
        <time>2014-10-18T20:02:02.632Z</time>
      </trkpt>
      <trkpt lat="45.69725" lon="4.6737">
        <ele>365</ele>
        <time>2014-10-18T20:02:03.626Z</time>
      </trkpt>
      <trkpt lat="45.69718" lon="4.67378">
        <ele>364</ele>
        <time>2014-10-18T20:02:05.620Z</time>
      </trkpt>
      <trkpt lat="45.69714" lon="4.67382">
        <ele>364</ele>
        <time>2014-10-18T20:02:06.637Z</time>
      </trkpt>
      <trkpt lat="45.69712" lon="4.67389">
        <ele>364</ele>
        <time>2014-10-18T20:02:07.631Z</time>
      </trkpt>
      <trkpt lat="45.69707" lon="4.67393">
        <ele>364</ele>
        <time>2014-10-18T20:02:08.628Z</time>
      </trkpt>
      <trkpt lat="45.69701" lon="4.674">
        <ele>364</ele>
        <time>2014-10-18T20:02:10.627Z</time>
      </trkpt>
      <trkpt lat="45.69698" lon="4.67404">
        <ele>364</ele>
        <time>2014-10-18T20:02:11.635Z</time>
      </trkpt>
      <trkpt lat="45.69691" lon="4.67406">
        <ele>363</ele>
        <time>2014-10-18T20:02:13.632Z</time>
      </trkpt>
      <trkpt lat="45.69688" lon="4.67408">
        <ele>363</ele>
        <time>2014-10-18T20:02:14.625Z</time>
      </trkpt>
      <trkpt lat="45.69682" lon="4.67412">
        <ele>363</ele>
        <time>2014-10-18T20:02:17.619Z</time>
      </trkpt>
      <trkpt lat="45.69679" lon="4.67412">
        <ele>363</ele>
        <time>2014-10-18T20:02:18.637Z</time>
      </trkpt>
      <trkpt lat="45.69672" lon="4.67417">
        <ele>362</ele>
        <time>2014-10-18T20:02:20.629Z</time>
      </trkpt>
      <trkpt lat="45.69669" lon="4.67415">
        <ele>362</ele>
        <time>2014-10-18T20:02:21.651Z</time>
      </trkpt>
      <trkpt lat="45.6966" lon="4.67417">
        <ele>361</ele>
        <time>2014-10-18T20:02:36.647Z</time>
      </trkpt>
      <trkpt lat="45.69657" lon="4.67419">
        <ele>361</ele>
        <time>2014-10-18T20:02:37.642Z</time>
      </trkpt>
      <trkpt lat="45.69651" lon="4.67423">
        <ele>360</ele>
        <time>2014-10-18T20:02:39.636Z</time>
      </trkpt>
      <trkpt lat="45.69646" lon="4.67427">
        <ele>360</ele>
        <time>2014-10-18T20:02:40.632Z</time>
      </trkpt>
      <trkpt lat="45.6964" lon="4.6743">
        <ele>360</ele>
        <time>2014-10-18T20:02:41.612Z</time>
      </trkpt>
      <trkpt lat="45.69633" lon="4.67432">
        <ele>359</ele>
        <time>2014-10-18T20:02:42.620Z</time>
      </trkpt>
      <trkpt lat="45.69626" lon="4.67432">
        <ele>359</ele>
        <time>2014-10-18T20:02:43.615Z</time>
      </trkpt>
      <trkpt lat="45.69618" lon="4.6743">
        <ele>359</ele>
        <time>2014-10-18T20:02:44.633Z</time>
      </trkpt>
      <trkpt lat="45.6961" lon="4.6743">
        <ele>359</ele>
        <time>2014-10-18T20:02:45.609Z</time>
      </trkpt>
      <trkpt lat="45.69603" lon="4.67427">
        <ele>359</ele>
        <time>2014-10-18T20:02:46.617Z</time>
      </trkpt>
      <trkpt lat="45.69596" lon="4.67425">
        <ele>359</ele>
        <time>2014-10-18T20:02:47.632Z</time>
      </trkpt>
      <trkpt lat="45.69589" lon="4.67425">
        <ele>359</ele>
        <time>2014-10-18T20:02:48.641Z</time>
      </trkpt>
      <trkpt lat="45.69582" lon="4.67423">
        <ele>358</ele>
        <time>2014-10-18T20:02:49.638Z</time>
      </trkpt>
      <trkpt lat="45.69575" lon="4.67421">
        <ele>358</ele>
        <time>2014-10-18T20:02:50.638Z</time>
      </trkpt>
      <trkpt lat="45.69568" lon="4.67421">
        <ele>357</ele>
        <time>2014-10-18T20:02:51.643Z</time>
      </trkpt>
      <trkpt lat="45.69559" lon="4.67421">
        <ele>356</ele>
        <time>2014-10-18T20:02:52.639Z</time>
      </trkpt>
      <trkpt lat="45.69552" lon="4.67423">
        <ele>355</ele>
        <time>2014-10-18T20:02:53.635Z</time>
      </trkpt>
      <trkpt lat="45.69543" lon="4.67425">
        <ele>355</ele>
        <time>2014-10-18T20:02:54.643Z</time>
      </trkpt>
      <trkpt lat="45.69535" lon="4.6743">
        <ele>354</ele>
        <time>2014-10-18T20:02:55.637Z</time>
      </trkpt>
      <trkpt lat="45.69525" lon="4.67436">
        <ele>354</ele>
        <time>2014-10-18T20:02:56.636Z</time>
      </trkpt>
      <trkpt lat="45.69515" lon="4.67443">
        <ele>354</ele>
        <time>2014-10-18T20:02:57.633Z</time>
      </trkpt>
      <trkpt lat="45.69506" lon="4.67449">
        <ele>353</ele>
        <time>2014-10-18T20:02:58.636Z</time>
      </trkpt>
      <trkpt lat="45.69496" lon="4.67455">
        <ele>349</ele>
        <time>2014-10-18T20:02:59.638Z</time>
      </trkpt>
      <trkpt lat="45.69486" lon="4.6746">
        <ele>349</ele>
        <time>2014-10-18T20:03:00.641Z</time>
      </trkpt>
      <trkpt lat="45.69476" lon="4.67464">
        <ele>348</ele>
        <time>2014-10-18T20:03:01.639Z</time>
      </trkpt>
      <trkpt lat="45.69464" lon="4.67468">
        <ele>348</ele>
        <time>2014-10-18T20:03:02.637Z</time>
      </trkpt>
      <trkpt lat="45.69452" lon="4.6747">
        <ele>347</ele>
        <time>2014-10-18T20:03:03.621Z</time>
      </trkpt>
      <trkpt lat="45.69441" lon="4.67473">
        <ele>346</ele>
        <time>2014-10-18T20:03:04.622Z</time>
      </trkpt>
      <trkpt lat="45.6943" lon="4.67477">
        <ele>346</ele>
        <time>2014-10-18T20:03:05.627Z</time>
      </trkpt>
      <trkpt lat="45.69418" lon="4.67477">
        <ele>345</ele>
        <time>2014-10-18T20:03:06.629Z</time>
      </trkpt>
      <trkpt lat="45.69405" lon="4.67479">
        <ele>341</ele>
        <time>2014-10-18T20:03:07.637Z</time>
      </trkpt>
      <trkpt lat="45.69393" lon="4.67481">
        <ele>341</ele>
        <time>2014-10-18T20:03:08.641Z</time>
      </trkpt>
      <trkpt lat="45.6938" lon="4.67483">
        <ele>340</ele>
        <time>2014-10-18T20:03:09.635Z</time>
      </trkpt>
      <trkpt lat="45.69367" lon="4.67485">
        <ele>339</ele>
        <time>2014-10-18T20:03:10.669Z</time>
      </trkpt>
      <trkpt lat="45.69353" lon="4.67488">
        <ele>338</ele>
        <time>2014-10-18T20:03:11.643Z</time>
      </trkpt>
      <trkpt lat="45.6934" lon="4.67492">
        <ele>337</ele>
        <time>2014-10-18T20:03:12.640Z</time>
      </trkpt>
      <trkpt lat="45.69328" lon="4.67494">
        <ele>336</ele>
        <time>2014-10-18T20:03:13.634Z</time>
      </trkpt>
      <trkpt lat="45.69314" lon="4.67494">
        <ele>335</ele>
        <time>2014-10-18T20:03:14.638Z</time>
      </trkpt>
      <trkpt lat="45.69299" lon="4.6749">
        <ele>335</ele>
        <time>2014-10-18T20:03:15.637Z</time>
      </trkpt>
      <trkpt lat="45.69287" lon="4.67485">
        <ele>334</ele>
        <time>2014-10-18T20:03:16.638Z</time>
      </trkpt>
      <trkpt lat="45.69275" lon="4.67479">
        <ele>334</ele>
        <time>2014-10-18T20:03:17.639Z</time>
      </trkpt>
      <trkpt lat="45.69265" lon="4.6747">
        <ele>334</ele>
        <time>2014-10-18T20:03:18.642Z</time>
      </trkpt>
      <trkpt lat="45.69255" lon="4.67462">
        <ele>334</ele>
        <time>2014-10-18T20:03:19.641Z</time>
      </trkpt>
      <trkpt lat="45.69244" lon="4.67453">
        <ele>332</ele>
        <time>2014-10-18T20:03:20.635Z</time>
      </trkpt>
      <trkpt lat="45.69233" lon="4.67447">
        <ele>332</ele>
        <time>2014-10-18T20:03:21.669Z</time>
      </trkpt>
      <trkpt lat="45.69222" lon="4.67438">
        <ele>331</ele>
        <time>2014-10-18T20:03:22.638Z</time>
      </trkpt>
      <trkpt lat="45.69213" lon="4.67432">
        <ele>331</ele>
        <time>2014-10-18T20:03:23.647Z</time>
      </trkpt>
      <trkpt lat="45.69202" lon="4.67423">
        <ele>331</ele>
        <time>2014-10-18T20:03:24.644Z</time>
      </trkpt>
      <trkpt lat="45.69191" lon="4.67417">
        <ele>331</ele>
        <time>2014-10-18T20:03:25.640Z</time>
      </trkpt>
      <trkpt lat="45.69182" lon="4.67412">
        <ele>331</ele>
        <time>2014-10-18T20:03:26.636Z</time>
      </trkpt>
      <trkpt lat="45.69171" lon="4.67408">
        <ele>331</ele>
        <time>2014-10-18T20:03:27.638Z</time>
      </trkpt>
      <trkpt lat="45.69161" lon="4.67406">
        <ele>330</ele>
        <time>2014-10-18T20:03:28.644Z</time>
      </trkpt>
      <trkpt lat="45.69151" lon="4.67406">
        <ele>330</ele>
        <time>2014-10-18T20:03:29.639Z</time>
      </trkpt>
      <trkpt lat="45.69141" lon="4.67406">
        <ele>330</ele>
        <time>2014-10-18T20:03:30.636Z</time>
      </trkpt>
      <trkpt lat="45.69132" lon="4.67406">
        <ele>330</ele>
        <time>2014-10-18T20:03:31.640Z</time>
      </trkpt>
      <trkpt lat="45.69124" lon="4.67406">
        <ele>329</ele>
        <time>2014-10-18T20:03:32.640Z</time>
      </trkpt>
      <trkpt lat="45.69114" lon="4.67408">
        <ele>329</ele>
        <time>2014-10-18T20:03:33.640Z</time>
      </trkpt>
      <trkpt lat="45.69104" lon="4.67408">
        <ele>329</ele>
        <time>2014-10-18T20:03:34.643Z</time>
      </trkpt>
      <trkpt lat="45.69096" lon="4.67408">
        <ele>329</ele>
        <time>2014-10-18T20:03:35.635Z</time>
      </trkpt>
      <trkpt lat="45.69087" lon="4.6741">
        <ele>328</ele>
        <time>2014-10-18T20:03:36.640Z</time>
      </trkpt>
      <trkpt lat="45.69079" lon="4.6741">
        <ele>328</ele>
        <time>2014-10-18T20:03:37.638Z</time>
      </trkpt>
      <trkpt lat="45.69069" lon="4.6741">
        <ele>328</ele>
        <time>2014-10-18T20:03:38.638Z</time>
      </trkpt>
      <trkpt lat="45.69063" lon="4.6741">
        <ele>328</ele>
        <time>2014-10-18T20:03:39.654Z</time>
      </trkpt>
      <trkpt lat="45.69054" lon="4.67408">
        <ele>328</ele>
        <time>2014-10-18T20:03:40.650Z</time>
      </trkpt>
      <trkpt lat="45.69046" lon="4.67408">
        <ele>328</ele>
        <time>2014-10-18T20:03:41.664Z</time>
      </trkpt>
      <trkpt lat="45.69039" lon="4.67408">
        <ele>328</ele>
        <time>2014-10-18T20:03:42.649Z</time>
      </trkpt>
      <trkpt lat="45.6903" lon="4.67408">
        <ele>328</ele>
        <time>2014-10-18T20:03:43.633Z</time>
      </trkpt>
      <trkpt lat="45.69022" lon="4.67408">
        <ele>328</ele>
        <time>2014-10-18T20:03:44.640Z</time>
      </trkpt>
      <trkpt lat="45.69013" lon="4.67406">
        <ele>328</ele>
        <time>2014-10-18T20:03:45.642Z</time>
      </trkpt>
      <trkpt lat="45.69006" lon="4.67406">
        <ele>327</ele>
        <time>2014-10-18T20:03:46.636Z</time>
      </trkpt>
      <trkpt lat="45.68997" lon="4.67406">
        <ele>327</ele>
        <time>2014-10-18T20:03:47.638Z</time>
      </trkpt>
      <trkpt lat="45.68989" lon="4.67406">
        <ele>327</ele>
        <time>2014-10-18T20:03:48.655Z</time>
      </trkpt>
      <trkpt lat="45.68981" lon="4.67406">
        <ele>327</ele>
        <time>2014-10-18T20:03:49.640Z</time>
      </trkpt>
      <trkpt lat="45.6897" lon="4.67406">
        <ele>326</ele>
        <time>2014-10-18T20:03:50.648Z</time>
      </trkpt>
      <trkpt lat="45.68962" lon="4.67406">
        <ele>326</ele>
        <time>2014-10-18T20:03:51.629Z</time>
      </trkpt>
      <trkpt lat="45.68954" lon="4.67406">
        <ele>326</ele>
        <time>2014-10-18T20:03:52.627Z</time>
      </trkpt>
      <trkpt lat="45.68946" lon="4.67406">
        <ele>326</ele>
        <time>2014-10-18T20:03:53.640Z</time>
      </trkpt>
      <trkpt lat="45.68937" lon="4.67406">
        <ele>326</ele>
        <time>2014-10-18T20:03:54.645Z</time>
      </trkpt>
      <trkpt lat="45.6893" lon="4.67406">
        <ele>326</ele>
        <time>2014-10-18T20:03:55.637Z</time>
      </trkpt>
      <trkpt lat="45.68921" lon="4.67406">
        <ele>325</ele>
        <time>2014-10-18T20:03:56.651Z</time>
      </trkpt>
      <trkpt lat="45.68911" lon="4.6741">
        <ele>325</ele>
        <time>2014-10-18T20:03:57.635Z</time>
      </trkpt>
      <trkpt lat="45.68904" lon="4.6741">
        <ele>325</ele>
        <time>2014-10-18T20:03:58.635Z</time>
      </trkpt>
      <trkpt lat="45.68895" lon="4.67412">
        <ele>325</ele>
        <time>2014-10-18T20:03:59.642Z</time>
      </trkpt>
      <trkpt lat="45.68887" lon="4.67412">
        <ele>324</ele>
        <time>2014-10-18T20:04:00.638Z</time>
      </trkpt>
      <trkpt lat="45.68878" lon="4.6741">
        <ele>324</ele>
        <time>2014-10-18T20:04:01.637Z</time>
      </trkpt>
      <trkpt lat="45.68871" lon="4.67404">
        <ele>324</ele>
        <time>2014-10-18T20:04:02.637Z</time>
      </trkpt>
      <trkpt lat="45.68864" lon="4.674">
        <ele>324</ele>
        <time>2014-10-18T20:04:03.641Z</time>
      </trkpt>
      <trkpt lat="45.68858" lon="4.67395">
        <ele>324</ele>
        <time>2014-10-18T20:04:04.638Z</time>
      </trkpt>
      <trkpt lat="45.68852" lon="4.67393">
        <ele>324</ele>
        <time>2014-10-18T20:04:05.623Z</time>
      </trkpt>
      <trkpt lat="45.68846" lon="4.67391">
        <ele>324</ele>
        <time>2014-10-18T20:04:06.638Z</time>
      </trkpt>
      <trkpt lat="45.68841" lon="4.67391">
        <ele>324</ele>
        <time>2014-10-18T20:04:07.631Z</time>
      </trkpt>
      <trkpt lat="45.68835" lon="4.67391">
        <ele>324</ele>
        <time>2014-10-18T20:04:08.625Z</time>
      </trkpt>
      <trkpt lat="45.68831" lon="4.67391">
        <ele>324</ele>
        <time>2014-10-18T20:04:09.645Z</time>
      </trkpt>
      <trkpt lat="45.68825" lon="4.67391">
        <ele>324</ele>
        <time>2014-10-18T20:04:10.636Z</time>
      </trkpt>
      <trkpt lat="45.6882" lon="4.67393">
        <ele>324</ele>
        <time>2014-10-18T20:04:11.640Z</time>
      </trkpt>
      <trkpt lat="45.68816" lon="4.67397">
        <ele>323</ele>
        <time>2014-10-18T20:04:12.636Z</time>
      </trkpt>
      <trkpt lat="45.68812" lon="4.67402">
        <ele>323</ele>
        <time>2014-10-18T20:04:13.636Z</time>
      </trkpt>
      <trkpt lat="45.68807" lon="4.67406">
        <ele>323</ele>
        <time>2014-10-18T20:04:14.636Z</time>
      </trkpt>
      <trkpt lat="45.68803" lon="4.67408">
        <ele>323</ele>
        <time>2014-10-18T20:04:15.639Z</time>
      </trkpt>
      <trkpt lat="45.68798" lon="4.67404">
        <ele>323</ele>
        <time>2014-10-18T20:04:17.644Z</time>
      </trkpt>
      <trkpt lat="45.68794" lon="4.67404">
        <ele>323</ele>
        <time>2014-10-18T20:04:18.650Z</time>
      </trkpt>
      <trkpt lat="45.68789" lon="4.67402">
        <ele>323</ele>
        <time>2014-10-18T20:04:20.650Z</time>
      </trkpt>
      <trkpt lat="45.68786" lon="4.674">
        <ele>323</ele>
        <time>2014-10-18T20:04:21.638Z</time>
      </trkpt>
      <trkpt lat="45.68779" lon="4.67397">
        <ele>323</ele>
        <time>2014-10-18T20:04:23.640Z</time>
      </trkpt>
      <trkpt lat="45.68776" lon="4.67395">
        <ele>323</ele>
        <time>2014-10-18T20:04:24.639Z</time>
      </trkpt>
      <trkpt lat="45.68769" lon="4.67393">
        <ele>323</ele>
        <time>2014-10-18T20:04:27.639Z</time>
      </trkpt>
      <trkpt lat="45.68766" lon="4.67391">
        <ele>323</ele>
        <time>2014-10-18T20:04:28.636Z</time>
      </trkpt>
      <trkpt lat="45.68758" lon="4.67389">
        <ele>323</ele>
        <time>2014-10-18T20:04:31.636Z</time>
      </trkpt>
      <trkpt lat="45.68756" lon="4.67389">
        <ele>323</ele>
        <time>2014-10-18T20:04:32.623Z</time>
      </trkpt>
      <trkpt lat="45.68748" lon="4.67387">
        <ele>322</ele>
        <time>2014-10-18T20:04:35.636Z</time>
      </trkpt>
      <trkpt lat="45.68746" lon="4.67385">
        <ele>322</ele>
        <time>2014-10-18T20:04:36.655Z</time>
      </trkpt>
      <trkpt lat="45.68739" lon="4.67382">
        <ele>322</ele>
        <time>2014-10-18T20:04:39.669Z</time>
      </trkpt>
      <trkpt lat="45.68736" lon="4.6738">
        <ele>323</ele>
        <time>2014-10-18T20:04:40.643Z</time>
      </trkpt>
      <trkpt lat="45.68733" lon="4.67376">
        <ele>323</ele>
        <time>2014-10-18T20:04:41.647Z</time>
      </trkpt>
      <trkpt lat="45.68728" lon="4.67374">
        <ele>323</ele>
        <time>2014-10-18T20:04:42.653Z</time>
      </trkpt>
      <trkpt lat="45.68724" lon="4.67372">
        <ele>323</ele>
        <time>2014-10-18T20:04:43.637Z</time>
      </trkpt>
      <trkpt lat="45.68718" lon="4.6737">
        <ele>322</ele>
        <time>2014-10-18T20:04:44.645Z</time>
      </trkpt>
      <trkpt lat="45.68713" lon="4.67367">
        <ele>322</ele>
        <time>2014-10-18T20:04:45.634Z</time>
      </trkpt>
      <trkpt lat="45.68707" lon="4.67365">
        <ele>322</ele>
        <time>2014-10-18T20:04:46.649Z</time>
      </trkpt>
      <trkpt lat="45.68703" lon="4.67363">
        <ele>322</ele>
        <time>2014-10-18T20:04:47.638Z</time>
      </trkpt>
      <trkpt lat="45.68698" lon="4.67361">
        <ele>322</ele>
        <time>2014-10-18T20:04:48.638Z</time>
      </trkpt>
      <trkpt lat="45.68691" lon="4.67357">
        <ele>322</ele>
        <time>2014-10-18T20:04:49.649Z</time>
      </trkpt>
      <trkpt lat="45.68686" lon="4.67355">
        <ele>322</ele>
        <time>2014-10-18T20:04:50.654Z</time>
      </trkpt>
      <trkpt lat="45.68681" lon="4.6735">
        <ele>322</ele>
        <time>2014-10-18T20:04:51.639Z</time>
      </trkpt>
      <trkpt lat="45.68675" lon="4.67348">
        <ele>322</ele>
        <time>2014-10-18T20:04:52.636Z</time>
      </trkpt>
      <trkpt lat="45.6867" lon="4.67346">
        <ele>322</ele>
        <time>2014-10-18T20:04:53.641Z</time>
      </trkpt>
      <trkpt lat="45.68665" lon="4.67342">
        <ele>321</ele>
        <time>2014-10-18T20:04:54.646Z</time>
      </trkpt>
      <trkpt lat="45.68659" lon="4.6734">
        <ele>321</ele>
        <time>2014-10-18T20:04:55.634Z</time>
      </trkpt>
      <trkpt lat="45.68654" lon="4.67335">
        <ele>321</ele>
        <time>2014-10-18T20:04:56.638Z</time>
      </trkpt>
      <trkpt lat="45.68648" lon="4.67333">
        <ele>321</ele>
        <time>2014-10-18T20:04:57.638Z</time>
      </trkpt>
      <trkpt lat="45.68643" lon="4.67329">
        <ele>321</ele>
        <time>2014-10-18T20:04:58.637Z</time>
      </trkpt>
      <trkpt lat="45.68638" lon="4.67327">
        <ele>321</ele>
        <time>2014-10-18T20:04:59.640Z</time>
      </trkpt>
      <trkpt lat="45.68635" lon="4.67322">
        <ele>321</ele>
        <time>2014-10-18T20:05:00.639Z</time>
      </trkpt>
      <trkpt lat="45.68629" lon="4.67318">
        <ele>320</ele>
        <time>2014-10-18T20:05:01.639Z</time>
      </trkpt>
      <trkpt lat="45.68624" lon="4.67314">
        <ele>320</ele>
        <time>2014-10-18T20:05:02.639Z</time>
      </trkpt>
      <trkpt lat="45.68618" lon="4.67312">
        <ele>320</ele>
        <time>2014-10-18T20:05:03.643Z</time>
      </trkpt>
      <trkpt lat="45.68613" lon="4.67309">
        <ele>320</ele>
        <time>2014-10-18T20:05:04.639Z</time>
      </trkpt>
      <trkpt lat="45.68609" lon="4.67305">
        <ele>320</ele>
        <time>2014-10-18T20:05:05.641Z</time>
      </trkpt>
      <trkpt lat="45.68604" lon="4.67303">
        <ele>320</ele>
        <time>2014-10-18T20:05:06.639Z</time>
      </trkpt>
      <trkpt lat="45.686" lon="4.67299">
        <ele>320</ele>
        <time>2014-10-18T20:05:07.637Z</time>
      </trkpt>
      <trkpt lat="45.68595" lon="4.67297">
        <ele>320</ele>
        <time>2014-10-18T20:05:08.642Z</time>
      </trkpt>
      <trkpt lat="45.68589" lon="4.67294">
        <ele>320</ele>
        <time>2014-10-18T20:05:09.647Z</time>
      </trkpt>
      <trkpt lat="45.68584" lon="4.6729">
        <ele>320</ele>
        <time>2014-10-18T20:05:10.642Z</time>
      </trkpt>
      <trkpt lat="45.68579" lon="4.67286">
        <ele>316</ele>
        <time>2014-10-18T20:05:11.647Z</time>
      </trkpt>
      <trkpt lat="45.68573" lon="4.67282">
        <ele>316</ele>
        <time>2014-10-18T20:05:12.640Z</time>
      </trkpt>
      <trkpt lat="45.68568" lon="4.67277">
        <ele>316</ele>
        <time>2014-10-18T20:05:13.624Z</time>
      </trkpt>
      <trkpt lat="45.68564" lon="4.67275">
        <ele>316</ele>
        <time>2014-10-18T20:05:14.636Z</time>
      </trkpt>
      <trkpt lat="45.68555" lon="4.67275">
        <ele>315</ele>
        <time>2014-10-18T20:05:17.633Z</time>
      </trkpt>
      <trkpt lat="45.68553" lon="4.67277">
        <ele>315</ele>
        <time>2014-10-18T20:05:18.667Z</time>
      </trkpt>
      <trkpt lat="45.68548" lon="4.67282">
        <ele>315</ele>
        <time>2014-10-18T20:05:20.632Z</time>
      </trkpt>
      <trkpt lat="45.68544" lon="4.67284">
        <ele>315</ele>
        <time>2014-10-18T20:05:21.640Z</time>
      </trkpt>
      <trkpt lat="45.6854" lon="4.67292">
        <ele>314</ele>
        <time>2014-10-18T20:05:23.640Z</time>
      </trkpt>
      <trkpt lat="45.68537" lon="4.67297">
        <ele>314</ele>
        <time>2014-10-18T20:05:24.633Z</time>
      </trkpt>
      <trkpt lat="45.68534" lon="4.67301">
        <ele>314</ele>
        <time>2014-10-18T20:05:25.633Z</time>
      </trkpt>
      <trkpt lat="45.68529" lon="4.67307">
        <ele>314</ele>
        <time>2014-10-18T20:05:26.634Z</time>
      </trkpt>
      <trkpt lat="45.68525" lon="4.67314">
        <ele>313</ele>
        <time>2014-10-18T20:05:27.640Z</time>
      </trkpt>
      <trkpt lat="45.6852" lon="4.67322">
        <ele>313</ele>
        <time>2014-10-18T20:05:28.642Z</time>
      </trkpt>
      <trkpt lat="45.68513" lon="4.67331">
        <ele>312</ele>
        <time>2014-10-18T20:05:29.630Z</time>
      </trkpt>
      <trkpt lat="45.68509" lon="4.67337">
        <ele>311</ele>
        <time>2014-10-18T20:05:30.637Z</time>
      </trkpt>
      <trkpt lat="45.68504" lon="4.67344">
        <ele>311</ele>
        <time>2014-10-18T20:05:31.637Z</time>
      </trkpt>
      <trkpt lat="45.685" lon="4.67352">
        <ele>311</ele>
        <time>2014-10-18T20:05:32.639Z</time>
      </trkpt>
      <trkpt lat="45.68497" lon="4.67361">
        <ele>308</ele>
        <time>2014-10-18T20:05:33.637Z</time>
      </trkpt>
      <trkpt lat="45.68493" lon="4.6737">
        <ele>308</ele>
        <time>2014-10-18T20:05:34.641Z</time>
      </trkpt>
      <trkpt lat="45.6849" lon="4.67378">
        <ele>308</ele>
        <time>2014-10-18T20:05:35.637Z</time>
      </trkpt>
      <trkpt lat="45.68488" lon="4.67387">
        <ele>307</ele>
        <time>2014-10-18T20:05:36.638Z</time>
      </trkpt>
      <trkpt lat="45.68484" lon="4.67393">
        <ele>307</ele>
        <time>2014-10-18T20:05:37.631Z</time>
      </trkpt>
      <trkpt lat="45.68483" lon="4.674">
        <ele>307</ele>
        <time>2014-10-18T20:05:38.641Z</time>
      </trkpt>
      <trkpt lat="45.6848" lon="4.6741">
        <ele>307</ele>
        <time>2014-10-18T20:05:40.635Z</time>
      </trkpt>
      <trkpt lat="45.6848" lon="4.67412">
        <ele>307</ele>
        <time>2014-10-18T20:05:41.665Z</time>
      </trkpt>
      <trkpt lat="45.68473" lon="4.67406">
        <ele>307</ele>
        <time>2014-10-18T20:05:48.642Z</time>
      </trkpt>
      <trkpt lat="45.68474" lon="4.67402">
        <ele>307</ele>
        <time>2014-10-18T20:05:49.637Z</time>
      </trkpt>
      <trkpt lat="45.68476" lon="4.67391">
        <ele>307</ele>
        <time>2014-10-18T20:05:52.637Z</time>
      </trkpt>
      <trkpt lat="45.68477" lon="4.67389">
        <ele>307</ele>
        <time>2014-10-18T20:05:53.637Z</time>
      </trkpt>
      <trkpt lat="45.68474" lon="4.67378">
        <ele>307</ele>
        <time>2014-10-18T20:06:00.641Z</time>
      </trkpt>
      <trkpt lat="45.68474" lon="4.67376">
        <ele>307</ele>
        <time>2014-10-18T20:06:01.641Z</time>
      </trkpt>
      <trkpt lat="45.68465" lon="4.67374">
        <ele>307</ele>
        <time>2014-10-18T20:06:31.638Z</time>
      </trkpt>
      <trkpt lat="45.68464" lon="4.67374">
        <ele>307</ele>
        <time>2014-10-18T20:06:32.635Z</time>
      </trkpt>
      <trkpt lat="45.68456" lon="4.67367">
        <ele>307</ele>
        <time>2014-10-18T20:06:38.638Z</time>
      </trkpt>
      <trkpt lat="45.68455" lon="4.67367">
        <ele>307</ele>
        <time>2014-10-18T20:06:39.636Z</time>
      </trkpt>
      <trkpt lat="45.6845" lon="4.67359">
        <ele>307</ele>
        <time>2014-10-18T20:06:53.636Z</time>
      </trkpt>
      <trkpt lat="45.68449" lon="4.67357">
        <ele>307</ele>
        <time>2014-10-18T20:06:54.634Z</time>
      </trkpt>
      <trkpt lat="45.68452" lon="4.67346">
        <ele>308</ele>
        <time>2014-10-18T20:08:31.736Z</time>
      </trkpt>
      <trkpt lat="45.68453" lon="4.67344">
        <ele>308</ele>
        <time>2014-10-18T20:08:32.629Z</time>
      </trkpt>
      <trkpt lat="45.68453" lon="4.67344">
        <ele>308</ele>
        <time>2014-10-18T20:08:36.887Z</time>
      </trkpt>
    </trkseg>
  </trk>
</gpx>